<?xml version="1.0" encoding="UTF-8" standalone="no" ?>
<gpx xmlns="http://www.topografix.com/GPX/1/1" xmlns:xsi="http://www.w3.org/2001/XMLSchema-instance" xsi:schemaLocation="http://www.topografix.com/GPX/1/1 http://www.topografix.com/GPX/1/1/gpx.xsd" version="1.1" creator="VisuGPX - https://www.visugpx.com">
  <metadata>
    <name>Ecluzelles - J4</name>
  </metadata>
  <trk>
    <name><![CDATA[Écluzelles Cyclisme sur route]]></name>
    <trkseg>
      <trkpt lat="48.70845" lon="1.42498">
        <ele>84.199996948242</ele>
        <time>2026-06-18T06:31:35.000Z</time>
      </trkpt>
      <trkpt lat="48.70845" lon="1.42498">
        <ele>86.199996948242</ele>
        <time>2026-06-18T06:31:36.000Z</time>
      </trkpt>
      <trkpt lat="48.70845" lon="1.42498">
        <ele>87.400001525879</ele>
        <time>2026-06-18T06:31:37.000Z</time>
      </trkpt>
      <trkpt lat="48.70845" lon="1.42499">
        <ele>88.199996948242</ele>
        <time>2026-06-18T06:31:42.000Z</time>
      </trkpt>
      <trkpt lat="48.70845" lon="1.42499">
        <ele>88.400001525879</ele>
        <time>2026-06-18T06:31:55.000Z</time>
      </trkpt>
      <trkpt lat="48.70843" lon="1.42492">
        <ele>88.199996948242</ele>
        <time>2026-06-18T06:32:07.000Z</time>
      </trkpt>
      <trkpt lat="48.70842" lon="1.42484">
        <ele>88.199996948242</ele>
        <time>2026-06-18T06:32:11.000Z</time>
      </trkpt>
      <trkpt lat="48.70842" lon="1.42478">
        <ele>88.199996948242</ele>
        <time>2026-06-18T06:32:14.000Z</time>
      </trkpt>
      <trkpt lat="48.70842" lon="1.42469">
        <ele>88.400001525879</ele>
        <time>2026-06-18T06:32:17.000Z</time>
      </trkpt>
      <trkpt lat="48.70841" lon="1.4246">
        <ele>88.599998474121</ele>
        <time>2026-06-18T06:32:20.000Z</time>
      </trkpt>
      <trkpt lat="48.70833" lon="1.4243">
        <ele>88.599998474121</ele>
        <time>2026-06-18T06:32:30.000Z</time>
      </trkpt>
      <trkpt lat="48.70828" lon="1.42414">
        <ele>88.599998474121</ele>
        <time>2026-06-18T06:32:35.000Z</time>
      </trkpt>
      <trkpt lat="48.70826" lon="1.42404">
        <ele>88.599998474121</ele>
        <time>2026-06-18T06:32:38.000Z</time>
      </trkpt>
      <trkpt lat="48.70821" lon="1.42383">
        <ele>89</ele>
        <time>2026-06-18T06:32:45.000Z</time>
      </trkpt>
      <trkpt lat="48.70818" lon="1.42371">
        <ele>89</ele>
        <time>2026-06-18T06:32:51.000Z</time>
      </trkpt>
      <trkpt lat="48.70817" lon="1.42369">
        <ele>89</ele>
        <time>2026-06-18T06:32:52.000Z</time>
      </trkpt>
      <trkpt lat="48.70818" lon="1.42364">
        <ele>89</ele>
        <time>2026-06-18T06:32:54.000Z</time>
      </trkpt>
      <trkpt lat="48.70822" lon="1.42359">
        <ele>89</ele>
        <time>2026-06-18T06:32:56.000Z</time>
      </trkpt>
      <trkpt lat="48.70834" lon="1.42344">
        <ele>89.199996948242</ele>
        <time>2026-06-18T06:33:02.000Z</time>
      </trkpt>
      <trkpt lat="48.70844" lon="1.42327">
        <ele>89.400001525879</ele>
        <time>2026-06-18T06:33:08.000Z</time>
      </trkpt>
      <trkpt lat="48.70847" lon="1.42322">
        <ele>89.400001525879</ele>
        <time>2026-06-18T06:33:10.000Z</time>
      </trkpt>
      <trkpt lat="48.70856" lon="1.42309">
        <ele>89.800003051758</ele>
        <time>2026-06-18T06:33:15.000Z</time>
      </trkpt>
      <trkpt lat="48.70866" lon="1.42295">
        <ele>90.400001525879</ele>
        <time>2026-06-18T06:33:20.000Z</time>
      </trkpt>
      <trkpt lat="48.70874" lon="1.42281">
        <ele>91</ele>
        <time>2026-06-18T06:33:24.000Z</time>
      </trkpt>
      <trkpt lat="48.70883" lon="1.42268">
        <ele>91.800003051758</ele>
        <time>2026-06-18T06:33:28.000Z</time>
      </trkpt>
      <trkpt lat="48.70891" lon="1.42256">
        <ele>92.400001525879</ele>
        <time>2026-06-18T06:33:31.000Z</time>
      </trkpt>
      <trkpt lat="48.70896" lon="1.42249">
        <ele>92.800003051758</ele>
        <time>2026-06-18T06:33:33.000Z</time>
      </trkpt>
      <trkpt lat="48.70907" lon="1.42237">
        <ele>93.400001525879</ele>
        <time>2026-06-18T06:33:37.000Z</time>
      </trkpt>
      <trkpt lat="48.70912" lon="1.42231">
        <ele>93.800003051758</ele>
        <time>2026-06-18T06:33:39.000Z</time>
      </trkpt>
      <trkpt lat="48.70923" lon="1.42217">
        <ele>94.800003051758</ele>
        <time>2026-06-18T06:33:44.000Z</time>
      </trkpt>
      <trkpt lat="48.70926" lon="1.42214">
        <ele>95</ele>
        <time>2026-06-18T06:33:45.000Z</time>
      </trkpt>
      <trkpt lat="48.7094" lon="1.42196">
        <ele>95.800003051758</ele>
        <time>2026-06-18T06:33:50.000Z</time>
      </trkpt>
      <trkpt lat="48.70943" lon="1.42194">
        <ele>96</ele>
        <time>2026-06-18T06:33:51.000Z</time>
      </trkpt>
      <trkpt lat="48.70955" lon="1.4218">
        <ele>97</ele>
        <time>2026-06-18T06:33:56.000Z</time>
      </trkpt>
      <trkpt lat="48.70963" lon="1.4217">
        <ele>97.599998474121</ele>
        <time>2026-06-18T06:34:00.000Z</time>
      </trkpt>
      <trkpt lat="48.70974" lon="1.42158">
        <ele>98.199996948242</ele>
        <time>2026-06-18T06:34:05.000Z</time>
      </trkpt>
      <trkpt lat="48.70979" lon="1.4215">
        <ele>98.599998474121</ele>
        <time>2026-06-18T06:34:08.000Z</time>
      </trkpt>
      <trkpt lat="48.70986" lon="1.42141">
        <ele>99.400001525879</ele>
        <time>2026-06-18T06:34:12.000Z</time>
      </trkpt>
      <trkpt lat="48.70992" lon="1.42134">
        <ele>100</ele>
        <time>2026-06-18T06:34:15.000Z</time>
      </trkpt>
      <trkpt lat="48.70996" lon="1.4213">
        <ele>100.59999847412</ele>
        <time>2026-06-18T06:34:17.000Z</time>
      </trkpt>
      <trkpt lat="48.71004" lon="1.42118">
        <ele>101.40000152588</ele>
        <time>2026-06-18T06:34:22.000Z</time>
      </trkpt>
      <trkpt lat="48.71007" lon="1.42114">
        <ele>101.59999847412</ele>
        <time>2026-06-18T06:34:24.000Z</time>
      </trkpt>
      <trkpt lat="48.71018" lon="1.42097">
        <ele>102.59999847412</ele>
        <time>2026-06-18T06:34:30.000Z</time>
      </trkpt>
      <trkpt lat="48.71028" lon="1.42077">
        <ele>103.80000305176</ele>
        <time>2026-06-18T06:34:36.000Z</time>
      </trkpt>
      <trkpt lat="48.71031" lon="1.4207">
        <ele>104</ele>
        <time>2026-06-18T06:34:38.000Z</time>
      </trkpt>
      <trkpt lat="48.71038" lon="1.42055">
        <ele>104.80000305176</ele>
        <time>2026-06-18T06:34:43.000Z</time>
      </trkpt>
      <trkpt lat="48.7104" lon="1.42048">
        <ele>105.19999694824</ele>
        <time>2026-06-18T06:34:45.000Z</time>
      </trkpt>
      <trkpt lat="48.71043" lon="1.42035">
        <ele>105.80000305176</ele>
        <time>2026-06-18T06:34:49.000Z</time>
      </trkpt>
      <trkpt lat="48.71043" lon="1.42024">
        <ele>106.19999694824</ele>
        <time>2026-06-18T06:34:52.000Z</time>
      </trkpt>
      <trkpt lat="48.7104" lon="1.42019">
        <ele>106.19999694824</ele>
        <time>2026-06-18T06:34:54.000Z</time>
      </trkpt>
      <trkpt lat="48.71035" lon="1.4202">
        <ele>106.59999847412</ele>
        <time>2026-06-18T06:34:56.000Z</time>
      </trkpt>
      <trkpt lat="48.71029" lon="1.42025">
        <ele>106.80000305176</ele>
        <time>2026-06-18T06:34:58.000Z</time>
      </trkpt>
      <trkpt lat="48.71017" lon="1.42037">
        <ele>107.19999694824</ele>
        <time>2026-06-18T06:35:02.000Z</time>
      </trkpt>
      <trkpt lat="48.70993" lon="1.42048">
        <ele>107.80000305176</ele>
        <time>2026-06-18T06:35:09.000Z</time>
      </trkpt>
      <trkpt lat="48.7099" lon="1.42048">
        <ele>108.19999694824</ele>
        <time>2026-06-18T06:35:10.000Z</time>
      </trkpt>
      <trkpt lat="48.70979" lon="1.42038">
        <ele>109</ele>
        <time>2026-06-18T06:35:14.000Z</time>
      </trkpt>
      <trkpt lat="48.70974" lon="1.4203">
        <ele>109.19999694824</ele>
        <time>2026-06-18T06:35:16.000Z</time>
      </trkpt>
      <trkpt lat="48.70966" lon="1.42011">
        <ele>109.80000305176</ele>
        <time>2026-06-18T06:35:20.000Z</time>
      </trkpt>
      <trkpt lat="48.70956" lon="1.4199">
        <ele>110.19999694824</ele>
        <time>2026-06-18T06:35:25.000Z</time>
      </trkpt>
      <trkpt lat="48.70952" lon="1.41982">
        <ele>110.80000305176</ele>
        <time>2026-06-18T06:35:28.000Z</time>
      </trkpt>
      <trkpt lat="48.7095" lon="1.41976">
        <ele>111.19999694824</ele>
        <time>2026-06-18T06:35:31.000Z</time>
      </trkpt>
      <trkpt lat="48.70949" lon="1.41974">
        <ele>111.59999847412</ele>
        <time>2026-06-18T06:35:33.000Z</time>
      </trkpt>
      <trkpt lat="48.70949" lon="1.41981">
        <ele>112</ele>
        <time>2026-06-18T06:35:36.000Z</time>
      </trkpt>
      <trkpt lat="48.70955" lon="1.41993">
        <ele>111.80000305176</ele>
        <time>2026-06-18T06:35:44.000Z</time>
      </trkpt>
      <trkpt lat="48.70956" lon="1.41993">
        <ele>111.40000152588</ele>
        <time>2026-06-18T06:35:51.000Z</time>
      </trkpt>
      <trkpt lat="48.70957" lon="1.41992">
        <ele>111.40000152588</ele>
        <time>2026-06-18T06:35:52.000Z</time>
      </trkpt>
      <trkpt lat="48.70956" lon="1.41982">
        <ele>111.40000152588</ele>
        <time>2026-06-18T06:35:57.000Z</time>
      </trkpt>
      <trkpt lat="48.70954" lon="1.4198">
        <ele>111.40000152588</ele>
        <time>2026-06-18T06:35:58.000Z</time>
      </trkpt>
      <trkpt lat="48.70947" lon="1.41966">
        <ele>111.80000305176</ele>
        <time>2026-06-18T06:36:04.000Z</time>
      </trkpt>
      <trkpt lat="48.70939" lon="1.41945">
        <ele>112.59999847412</ele>
        <time>2026-06-18T06:36:11.000Z</time>
      </trkpt>
      <trkpt lat="48.70938" lon="1.41942">
        <ele>112.59999847412</ele>
        <time>2026-06-18T06:36:12.000Z</time>
      </trkpt>
      <trkpt lat="48.70923" lon="1.41903">
        <ele>113.80000305176</ele>
        <time>2026-06-18T06:36:23.000Z</time>
      </trkpt>
      <trkpt lat="48.70907" lon="1.41863">
        <ele>114.59999847412</ele>
        <time>2026-06-18T06:36:33.000Z</time>
      </trkpt>
      <trkpt lat="48.70904" lon="1.41856">
        <ele>114.80000305176</ele>
        <time>2026-06-18T06:36:35.000Z</time>
      </trkpt>
      <trkpt lat="48.70888" lon="1.41818">
        <ele>115.59999847412</ele>
        <time>2026-06-18T06:36:45.000Z</time>
      </trkpt>
      <trkpt lat="48.70886" lon="1.41812">
        <ele>115.80000305176</ele>
        <time>2026-06-18T06:36:46.000Z</time>
      </trkpt>
      <trkpt lat="48.70875" lon="1.41787">
        <ele>116.80000305176</ele>
        <time>2026-06-18T06:36:53.000Z</time>
      </trkpt>
      <trkpt lat="48.70872" lon="1.41779">
        <ele>117.19999694824</ele>
        <time>2026-06-18T06:36:55.000Z</time>
      </trkpt>
      <trkpt lat="48.70862" lon="1.41759">
        <ele>118</ele>
        <time>2026-06-18T06:37:01.000Z</time>
      </trkpt>
      <trkpt lat="48.70857" lon="1.41748">
        <ele>118.59999847412</ele>
        <time>2026-06-18T06:37:04.000Z</time>
      </trkpt>
      <trkpt lat="48.70853" lon="1.41741">
        <ele>119</ele>
        <time>2026-06-18T06:37:06.000Z</time>
      </trkpt>
      <trkpt lat="48.70841" lon="1.41718">
        <ele>120.19999694824</ele>
        <time>2026-06-18T06:37:13.000Z</time>
      </trkpt>
      <trkpt lat="48.70838" lon="1.41711">
        <ele>120.40000152588</ele>
        <time>2026-06-18T06:37:15.000Z</time>
      </trkpt>
      <trkpt lat="48.7083" lon="1.41698">
        <ele>121.19999694824</ele>
        <time>2026-06-18T06:37:19.000Z</time>
      </trkpt>
      <trkpt lat="48.70818" lon="1.41679">
        <ele>122.40000152588</ele>
        <time>2026-06-18T06:37:25.000Z</time>
      </trkpt>
      <trkpt lat="48.70809" lon="1.41666">
        <ele>123.40000152588</ele>
        <time>2026-06-18T06:37:29.000Z</time>
      </trkpt>
      <trkpt lat="48.70802" lon="1.41657">
        <ele>124.19999694824</ele>
        <time>2026-06-18T06:37:32.000Z</time>
      </trkpt>
      <trkpt lat="48.70799" lon="1.41654">
        <ele>124.59999847412</ele>
        <time>2026-06-18T06:37:33.000Z</time>
      </trkpt>
      <trkpt lat="48.70785" lon="1.41637">
        <ele>126</ele>
        <time>2026-06-18T06:37:38.000Z</time>
      </trkpt>
      <trkpt lat="48.70783" lon="1.41633">
        <ele>126.19999694824</ele>
        <time>2026-06-18T06:37:39.000Z</time>
      </trkpt>
      <trkpt lat="48.70775" lon="1.41622">
        <ele>127</ele>
        <time>2026-06-18T06:37:42.000Z</time>
      </trkpt>
      <trkpt lat="48.70765" lon="1.41607">
        <ele>128.19999694824</ele>
        <time>2026-06-18T06:37:46.000Z</time>
      </trkpt>
      <trkpt lat="48.70762" lon="1.41603">
        <ele>128.60000610352</ele>
        <time>2026-06-18T06:37:47.000Z</time>
      </trkpt>
      <trkpt lat="48.70757" lon="1.41596">
        <ele>129.19999694824</ele>
        <time>2026-06-18T06:37:49.000Z</time>
      </trkpt>
      <trkpt lat="48.70744" lon="1.41574">
        <ele>130.60000610352</ele>
        <time>2026-06-18T06:37:54.000Z</time>
      </trkpt>
      <trkpt lat="48.70738" lon="1.41562">
        <ele>131.80000305176</ele>
        <time>2026-06-18T06:37:57.000Z</time>
      </trkpt>
      <trkpt lat="48.70728" lon="1.4154">
        <ele>132.80000305176</ele>
        <time>2026-06-18T06:38:03.000Z</time>
      </trkpt>
      <trkpt lat="48.70726" lon="1.41537">
        <ele>132.80000305176</ele>
        <time>2026-06-18T06:38:04.000Z</time>
      </trkpt>
      <trkpt lat="48.70718" lon="1.4151">
        <ele>133.80000305176</ele>
        <time>2026-06-18T06:38:12.000Z</time>
      </trkpt>
      <trkpt lat="48.70716" lon="1.41506">
        <ele>134</ele>
        <time>2026-06-18T06:38:13.000Z</time>
      </trkpt>
      <trkpt lat="48.70709" lon="1.41468">
        <ele>135</ele>
        <time>2026-06-18T06:38:21.000Z</time>
      </trkpt>
      <trkpt lat="48.70708" lon="1.41463">
        <ele>135</ele>
        <time>2026-06-18T06:38:22.000Z</time>
      </trkpt>
      <trkpt lat="48.70704" lon="1.41426">
        <ele>135.60000610352</ele>
        <time>2026-06-18T06:38:30.000Z</time>
      </trkpt>
      <trkpt lat="48.70702" lon="1.41406">
        <ele>136</ele>
        <time>2026-06-18T06:38:34.000Z</time>
      </trkpt>
      <trkpt lat="48.707" lon="1.41362">
        <ele>136.60000610352</ele>
        <time>2026-06-18T06:38:43.000Z</time>
      </trkpt>
      <trkpt lat="48.70699" lon="1.41336">
        <ele>137</ele>
        <time>2026-06-18T06:38:48.000Z</time>
      </trkpt>
      <trkpt lat="48.70696" lon="1.41305">
        <ele>137</ele>
        <time>2026-06-18T06:38:54.000Z</time>
      </trkpt>
      <trkpt lat="48.70693" lon="1.41247">
        <ele>137.19999694824</ele>
        <time>2026-06-18T06:39:05.000Z</time>
      </trkpt>
      <trkpt lat="48.70691" lon="1.41191">
        <ele>138</ele>
        <time>2026-06-18T06:39:15.000Z</time>
      </trkpt>
      <trkpt lat="48.70688" lon="1.41123">
        <ele>138.19999694824</ele>
        <time>2026-06-18T06:39:26.000Z</time>
      </trkpt>
      <trkpt lat="48.7068" lon="1.41068">
        <ele>138.39999389648</ele>
        <time>2026-06-18T06:39:35.000Z</time>
      </trkpt>
      <trkpt lat="48.70664" lon="1.41014">
        <ele>138.60000610352</ele>
        <time>2026-06-18T06:39:44.000Z</time>
      </trkpt>
      <trkpt lat="48.7064" lon="1.4095">
        <ele>138.60000610352</ele>
        <time>2026-06-18T06:39:55.000Z</time>
      </trkpt>
      <trkpt lat="48.70612" lon="1.40884">
        <ele>138</ele>
        <time>2026-06-18T06:40:06.000Z</time>
      </trkpt>
      <trkpt lat="48.70596" lon="1.40827">
        <ele>137.80000305176</ele>
        <time>2026-06-18T06:40:15.000Z</time>
      </trkpt>
      <trkpt lat="48.70578" lon="1.40746">
        <ele>138</ele>
        <time>2026-06-18T06:40:26.000Z</time>
      </trkpt>
      <trkpt lat="48.70575" lon="1.40733">
        <ele>138.19999694824</ele>
        <time>2026-06-18T06:40:28.000Z</time>
      </trkpt>
      <trkpt lat="48.70553" lon="1.40658">
        <ele>138</ele>
        <time>2026-06-18T06:40:39.000Z</time>
      </trkpt>
      <trkpt lat="48.70551" lon="1.40651">
        <ele>138</ele>
        <time>2026-06-18T06:40:40.000Z</time>
      </trkpt>
      <trkpt lat="48.70524" lon="1.40578">
        <ele>137.80000305176</ele>
        <time>2026-06-18T06:40:51.000Z</time>
      </trkpt>
      <trkpt lat="48.70521" lon="1.40573">
        <ele>137.80000305176</ele>
        <time>2026-06-18T06:40:52.000Z</time>
      </trkpt>
      <trkpt lat="48.70493" lon="1.40513">
        <ele>137</ele>
        <time>2026-06-18T06:41:01.000Z</time>
      </trkpt>
      <trkpt lat="48.70487" lon="1.405">
        <ele>136.80000305176</ele>
        <time>2026-06-18T06:41:03.000Z</time>
      </trkpt>
      <trkpt lat="48.70463" lon="1.40438">
        <ele>136.39999389648</ele>
        <time>2026-06-18T06:41:12.000Z</time>
      </trkpt>
      <trkpt lat="48.70447" lon="1.40372">
        <ele>136.39999389648</ele>
        <time>2026-06-18T06:41:21.000Z</time>
      </trkpt>
      <trkpt lat="48.70428" lon="1.40333">
        <ele>136.60000610352</ele>
        <time>2026-06-18T06:41:27.000Z</time>
      </trkpt>
      <trkpt lat="48.70399" lon="1.40291">
        <ele>136.39999389648</ele>
        <time>2026-06-18T06:41:35.000Z</time>
      </trkpt>
      <trkpt lat="48.70358" lon="1.40239">
        <ele>135.80000305176</ele>
        <time>2026-06-18T06:41:45.000Z</time>
      </trkpt>
      <trkpt lat="48.70354" lon="1.40234">
        <ele>135.80000305176</ele>
        <time>2026-06-18T06:41:46.000Z</time>
      </trkpt>
      <trkpt lat="48.70322" lon="1.40185">
        <ele>135.60000610352</ele>
        <time>2026-06-18T06:41:55.000Z</time>
      </trkpt>
      <trkpt lat="48.70289" lon="1.4013">
        <ele>135.39999389648</ele>
        <time>2026-06-18T06:42:04.000Z</time>
      </trkpt>
      <trkpt lat="48.70253" lon="1.40082">
        <ele>135.19999694824</ele>
        <time>2026-06-18T06:42:14.000Z</time>
      </trkpt>
      <trkpt lat="48.70215" lon="1.40033">
        <ele>135</ele>
        <time>2026-06-18T06:42:23.000Z</time>
      </trkpt>
      <trkpt lat="48.70202" lon="1.40015">
        <ele>134.80000305176</ele>
        <time>2026-06-18T06:42:26.000Z</time>
      </trkpt>
      <trkpt lat="48.7017" lon="1.3997">
        <ele>134.60000610352</ele>
        <time>2026-06-18T06:42:33.000Z</time>
      </trkpt>
      <trkpt lat="48.70139" lon="1.39929">
        <ele>133.80000305176</ele>
        <time>2026-06-18T06:42:39.000Z</time>
      </trkpt>
      <trkpt lat="48.7011" lon="1.3989">
        <ele>132.80000305176</ele>
        <time>2026-06-18T06:42:45.000Z</time>
      </trkpt>
      <trkpt lat="48.70095" lon="1.39866">
        <ele>132.60000610352</ele>
        <time>2026-06-18T06:42:49.000Z</time>
      </trkpt>
      <trkpt lat="48.7007" lon="1.3982">
        <ele>132.60000610352</ele>
        <time>2026-06-18T06:42:56.000Z</time>
      </trkpt>
      <trkpt lat="48.70052" lon="1.39786">
        <ele>132.80000305176</ele>
        <time>2026-06-18T06:43:01.000Z</time>
      </trkpt>
      <trkpt lat="48.70041" lon="1.39768">
        <ele>133</ele>
        <time>2026-06-18T06:43:04.000Z</time>
      </trkpt>
      <trkpt lat="48.70007" lon="1.39718">
        <ele>133.19999694824</ele>
        <time>2026-06-18T06:43:13.000Z</time>
      </trkpt>
      <trkpt lat="48.69986" lon="1.39692">
        <ele>133</ele>
        <time>2026-06-18T06:43:19.000Z</time>
      </trkpt>
      <trkpt lat="48.69962" lon="1.39661">
        <ele>133.60000610352</ele>
        <time>2026-06-18T06:43:27.000Z</time>
      </trkpt>
      <trkpt lat="48.69937" lon="1.39632">
        <ele>133.80000305176</ele>
        <time>2026-06-18T06:43:34.000Z</time>
      </trkpt>
      <trkpt lat="48.69928" lon="1.39625">
        <ele>133.80000305176</ele>
        <time>2026-06-18T06:43:36.000Z</time>
      </trkpt>
      <trkpt lat="48.69916" lon="1.39616">
        <ele>133.80000305176</ele>
        <time>2026-06-18T06:43:39.000Z</time>
      </trkpt>
      <trkpt lat="48.69903" lon="1.39612">
        <ele>134</ele>
        <time>2026-06-18T06:43:42.000Z</time>
      </trkpt>
      <trkpt lat="48.699" lon="1.39612">
        <ele>134</ele>
        <time>2026-06-18T06:43:43.000Z</time>
      </trkpt>
      <trkpt lat="48.69893" lon="1.39613">
        <ele>134</ele>
        <time>2026-06-18T06:43:44.000Z</time>
      </trkpt>
      <trkpt lat="48.69884" lon="1.39618">
        <ele>134</ele>
        <time>2026-06-18T06:43:46.000Z</time>
      </trkpt>
      <trkpt lat="48.69875" lon="1.39624">
        <ele>134</ele>
        <time>2026-06-18T06:43:48.000Z</time>
      </trkpt>
      <trkpt lat="48.69863" lon="1.3963">
        <ele>134.19999694824</ele>
        <time>2026-06-18T06:43:51.000Z</time>
      </trkpt>
      <trkpt lat="48.69854" lon="1.39631">
        <ele>134.39999389648</ele>
        <time>2026-06-18T06:43:53.000Z</time>
      </trkpt>
      <trkpt lat="48.69846" lon="1.39626">
        <ele>134.39999389648</ele>
        <time>2026-06-18T06:43:55.000Z</time>
      </trkpt>
      <trkpt lat="48.6984" lon="1.39618">
        <ele>134.39999389648</ele>
        <time>2026-06-18T06:43:57.000Z</time>
      </trkpt>
      <trkpt lat="48.69837" lon="1.39613">
        <ele>134.39999389648</ele>
        <time>2026-06-18T06:43:58.000Z</time>
      </trkpt>
      <trkpt lat="48.69831" lon="1.39603">
        <ele>134.60000610352</ele>
        <time>2026-06-18T06:44:00.000Z</time>
      </trkpt>
      <trkpt lat="48.69825" lon="1.39594">
        <ele>134.39999389648</ele>
        <time>2026-06-18T06:44:02.000Z</time>
      </trkpt>
      <trkpt lat="48.69803" lon="1.3956">
        <ele>134.19999694824</ele>
        <time>2026-06-18T06:44:09.000Z</time>
      </trkpt>
      <trkpt lat="48.6978" lon="1.3952">
        <ele>134</ele>
        <time>2026-06-18T06:44:17.000Z</time>
      </trkpt>
      <trkpt lat="48.69775" lon="1.39513">
        <ele>133.80000305176</ele>
        <time>2026-06-18T06:44:19.000Z</time>
      </trkpt>
      <trkpt lat="48.69767" lon="1.3951">
        <ele>133.80000305176</ele>
        <time>2026-06-18T06:44:21.000Z</time>
      </trkpt>
      <trkpt lat="48.69753" lon="1.39511">
        <ele>133.80000305176</ele>
        <time>2026-06-18T06:44:24.000Z</time>
      </trkpt>
      <trkpt lat="48.69743" lon="1.39512">
        <ele>133.80000305176</ele>
        <time>2026-06-18T06:44:26.000Z</time>
      </trkpt>
      <trkpt lat="48.69708" lon="1.3952">
        <ele>133.80000305176</ele>
        <time>2026-06-18T06:44:33.000Z</time>
      </trkpt>
      <trkpt lat="48.69694" lon="1.39521">
        <ele>133.80000305176</ele>
        <time>2026-06-18T06:44:36.000Z</time>
      </trkpt>
      <trkpt lat="48.69685" lon="1.39522">
        <ele>133.80000305176</ele>
        <time>2026-06-18T06:44:38.000Z</time>
      </trkpt>
      <trkpt lat="48.69676" lon="1.39525">
        <ele>133.80000305176</ele>
        <time>2026-06-18T06:44:40.000Z</time>
      </trkpt>
      <trkpt lat="48.69638" lon="1.39543">
        <ele>133.80000305176</ele>
        <time>2026-06-18T06:44:48.000Z</time>
      </trkpt>
      <trkpt lat="48.69628" lon="1.39547">
        <ele>133.80000305176</ele>
        <time>2026-06-18T06:44:50.000Z</time>
      </trkpt>
      <trkpt lat="48.69605" lon="1.39549">
        <ele>133.80000305176</ele>
        <time>2026-06-18T06:44:55.000Z</time>
      </trkpt>
      <trkpt lat="48.69581" lon="1.39541">
        <ele>133.80000305176</ele>
        <time>2026-06-18T06:45:00.000Z</time>
      </trkpt>
      <trkpt lat="48.69576" lon="1.39538">
        <ele>133.80000305176</ele>
        <time>2026-06-18T06:45:01.000Z</time>
      </trkpt>
      <trkpt lat="48.69567" lon="1.39531">
        <ele>133.80000305176</ele>
        <time>2026-06-18T06:45:03.000Z</time>
      </trkpt>
      <trkpt lat="48.69558" lon="1.3952">
        <ele>133.80000305176</ele>
        <time>2026-06-18T06:45:05.000Z</time>
      </trkpt>
      <trkpt lat="48.69554" lon="1.39515">
        <ele>133.80000305176</ele>
        <time>2026-06-18T06:45:06.000Z</time>
      </trkpt>
      <trkpt lat="48.6953" lon="1.39466">
        <ele>134</ele>
        <time>2026-06-18T06:45:14.000Z</time>
      </trkpt>
      <trkpt lat="48.695" lon="1.39407">
        <ele>134</ele>
        <time>2026-06-18T06:45:23.000Z</time>
      </trkpt>
      <trkpt lat="48.69466" lon="1.39356">
        <ele>134.19999694824</ele>
        <time>2026-06-18T06:45:32.000Z</time>
      </trkpt>
      <trkpt lat="48.69424" lon="1.39308">
        <ele>134.60000610352</ele>
        <time>2026-06-18T06:45:43.000Z</time>
      </trkpt>
      <trkpt lat="48.69375" lon="1.39256">
        <ele>134.39999389648</ele>
        <time>2026-06-18T06:45:53.000Z</time>
      </trkpt>
      <trkpt lat="48.69336" lon="1.39223">
        <ele>134.19999694824</ele>
        <time>2026-06-18T06:46:01.000Z</time>
      </trkpt>
      <trkpt lat="48.69297" lon="1.39208">
        <ele>134.19999694824</ele>
        <time>2026-06-18T06:46:08.000Z</time>
      </trkpt>
      <trkpt lat="48.69244" lon="1.39195">
        <ele>134.39999389648</ele>
        <time>2026-06-18T06:46:18.000Z</time>
      </trkpt>
      <trkpt lat="48.69188" lon="1.39182">
        <ele>135</ele>
        <time>2026-06-18T06:46:29.000Z</time>
      </trkpt>
      <trkpt lat="48.69183" lon="1.39181">
        <ele>135</ele>
        <time>2026-06-18T06:46:30.000Z</time>
      </trkpt>
      <trkpt lat="48.69178" lon="1.39179">
        <ele>135</ele>
        <time>2026-06-18T06:46:31.000Z</time>
      </trkpt>
      <trkpt lat="48.69131" lon="1.39164">
        <ele>136</ele>
        <time>2026-06-18T06:46:40.000Z</time>
      </trkpt>
      <trkpt lat="48.69108" lon="1.39155">
        <ele>136.19999694824</ele>
        <time>2026-06-18T06:46:45.000Z</time>
      </trkpt>
      <trkpt lat="48.6907" lon="1.39142">
        <ele>136.19999694824</ele>
        <time>2026-06-18T06:46:52.000Z</time>
      </trkpt>
      <trkpt lat="48.69014" lon="1.39118">
        <ele>136.60000610352</ele>
        <time>2026-06-18T06:47:03.000Z</time>
      </trkpt>
      <trkpt lat="48.69" lon="1.3911">
        <ele>136.60000610352</ele>
        <time>2026-06-18T06:47:06.000Z</time>
      </trkpt>
      <trkpt lat="48.68945" lon="1.39077">
        <ele>137</ele>
        <time>2026-06-18T06:47:17.000Z</time>
      </trkpt>
      <trkpt lat="48.68894" lon="1.39049">
        <ele>137.19999694824</ele>
        <time>2026-06-18T06:47:27.000Z</time>
      </trkpt>
      <trkpt lat="48.68883" lon="1.39046">
        <ele>137.19999694824</ele>
        <time>2026-06-18T06:47:29.000Z</time>
      </trkpt>
      <trkpt lat="48.68835" lon="1.39033">
        <ele>137.19999694824</ele>
        <time>2026-06-18T06:47:38.000Z</time>
      </trkpt>
      <trkpt lat="48.6878" lon="1.3902">
        <ele>137.19999694824</ele>
        <time>2026-06-18T06:47:48.000Z</time>
      </trkpt>
      <trkpt lat="48.68765" lon="1.39015">
        <ele>137.19999694824</ele>
        <time>2026-06-18T06:47:51.000Z</time>
      </trkpt>
      <trkpt lat="48.68715" lon="1.39001">
        <ele>137</ele>
        <time>2026-06-18T06:48:00.000Z</time>
      </trkpt>
      <trkpt lat="48.68667" lon="1.38986">
        <ele>136.60000610352</ele>
        <time>2026-06-18T06:48:08.000Z</time>
      </trkpt>
      <trkpt lat="48.68624" lon="1.38967">
        <ele>136.19999694824</ele>
        <time>2026-06-18T06:48:16.000Z</time>
      </trkpt>
      <trkpt lat="48.68612" lon="1.38963">
        <ele>136</ele>
        <time>2026-06-18T06:48:18.000Z</time>
      </trkpt>
      <trkpt lat="48.6859" lon="1.38956">
        <ele>135.80000305176</ele>
        <time>2026-06-18T06:48:22.000Z</time>
      </trkpt>
      <trkpt lat="48.68578" lon="1.38955">
        <ele>135.80000305176</ele>
        <time>2026-06-18T06:48:24.000Z</time>
      </trkpt>
      <trkpt lat="48.6854" lon="1.38948">
        <ele>135</ele>
        <time>2026-06-18T06:48:30.000Z</time>
      </trkpt>
      <trkpt lat="48.6852" lon="1.38944">
        <ele>134.39999389648</ele>
        <time>2026-06-18T06:48:33.000Z</time>
      </trkpt>
      <trkpt lat="48.68493" lon="1.38939">
        <ele>134</ele>
        <time>2026-06-18T06:48:37.000Z</time>
      </trkpt>
      <trkpt lat="48.68479" lon="1.38938">
        <ele>133.80000305176</ele>
        <time>2026-06-18T06:48:39.000Z</time>
      </trkpt>
      <trkpt lat="48.68436" lon="1.38941">
        <ele>133</ele>
        <time>2026-06-18T06:48:45.000Z</time>
      </trkpt>
      <trkpt lat="48.68421" lon="1.38945">
        <ele>133</ele>
        <time>2026-06-18T06:48:47.000Z</time>
      </trkpt>
      <trkpt lat="48.68384" lon="1.38957">
        <ele>131.80000305176</ele>
        <time>2026-06-18T06:48:52.000Z</time>
      </trkpt>
      <trkpt lat="48.68339" lon="1.38975">
        <ele>130.80000305176</ele>
        <time>2026-06-18T06:48:59.000Z</time>
      </trkpt>
      <trkpt lat="48.68306" lon="1.38996">
        <ele>130.19999694824</ele>
        <time>2026-06-18T06:49:06.000Z</time>
      </trkpt>
      <trkpt lat="48.68264" lon="1.39024">
        <ele>129.80000305176</ele>
        <time>2026-06-18T06:49:15.000Z</time>
      </trkpt>
      <trkpt lat="48.6824" lon="1.3904">
        <ele>129.60000610352</ele>
        <time>2026-06-18T06:49:20.000Z</time>
      </trkpt>
      <trkpt lat="48.6821" lon="1.39057">
        <ele>129.80000305176</ele>
        <time>2026-06-18T06:49:26.000Z</time>
      </trkpt>
      <trkpt lat="48.68167" lon="1.39075">
        <ele>130.19999694824</ele>
        <time>2026-06-18T06:49:34.000Z</time>
      </trkpt>
      <trkpt lat="48.68131" lon="1.39083">
        <ele>130.60000610352</ele>
        <time>2026-06-18T06:49:41.000Z</time>
      </trkpt>
      <trkpt lat="48.68116" lon="1.39085">
        <ele>131</ele>
        <time>2026-06-18T06:49:44.000Z</time>
      </trkpt>
      <trkpt lat="48.68078" lon="1.39085">
        <ele>131.80000305176</ele>
        <time>2026-06-18T06:49:52.000Z</time>
      </trkpt>
      <trkpt lat="48.68068" lon="1.39085">
        <ele>131.80000305176</ele>
        <time>2026-06-18T06:49:54.000Z</time>
      </trkpt>
      <trkpt lat="48.68018" lon="1.39083">
        <ele>132.80000305176</ele>
        <time>2026-06-18T06:50:04.000Z</time>
      </trkpt>
      <trkpt lat="48.68008" lon="1.39082">
        <ele>132.80000305176</ele>
        <time>2026-06-18T06:50:06.000Z</time>
      </trkpt>
      <trkpt lat="48.6796" lon="1.39074">
        <ele>133.60000610352</ele>
        <time>2026-06-18T06:50:16.000Z</time>
      </trkpt>
      <trkpt lat="48.67951" lon="1.39071">
        <ele>133.80000305176</ele>
        <time>2026-06-18T06:50:18.000Z</time>
      </trkpt>
      <trkpt lat="48.67909" lon="1.39061">
        <ele>134.19999694824</ele>
        <time>2026-06-18T06:50:27.000Z</time>
      </trkpt>
      <trkpt lat="48.67863" lon="1.39051">
        <ele>134.80000305176</ele>
        <time>2026-06-18T06:50:36.000Z</time>
      </trkpt>
      <trkpt lat="48.67805" lon="1.39039">
        <ele>135.19999694824</ele>
        <time>2026-06-18T06:50:47.000Z</time>
      </trkpt>
      <trkpt lat="48.67759" lon="1.39037">
        <ele>135.60000610352</ele>
        <time>2026-06-18T06:50:56.000Z</time>
      </trkpt>
      <trkpt lat="48.67748" lon="1.39038">
        <ele>135.80000305176</ele>
        <time>2026-06-18T06:50:58.000Z</time>
      </trkpt>
      <trkpt lat="48.67696" lon="1.39041">
        <ele>136.19999694824</ele>
        <time>2026-06-18T06:51:08.000Z</time>
      </trkpt>
      <trkpt lat="48.67656" lon="1.39037">
        <ele>136.60000610352</ele>
        <time>2026-06-18T06:51:16.000Z</time>
      </trkpt>
      <trkpt lat="48.67601" lon="1.39032">
        <ele>136.80000305176</ele>
        <time>2026-06-18T06:51:27.000Z</time>
      </trkpt>
      <trkpt lat="48.67592" lon="1.39034">
        <ele>137</ele>
        <time>2026-06-18T06:51:29.000Z</time>
      </trkpt>
      <trkpt lat="48.67575" lon="1.39038">
        <ele>137</ele>
        <time>2026-06-18T06:51:33.000Z</time>
      </trkpt>
      <trkpt lat="48.67571" lon="1.3904">
        <ele>137</ele>
        <time>2026-06-18T06:51:34.000Z</time>
      </trkpt>
      <trkpt lat="48.67568" lon="1.39041">
        <ele>137</ele>
        <time>2026-06-18T06:51:35.000Z</time>
      </trkpt>
      <trkpt lat="48.67557" lon="1.3904">
        <ele>137</ele>
        <time>2026-06-18T06:51:38.000Z</time>
      </trkpt>
      <trkpt lat="48.67554" lon="1.39035">
        <ele>137</ele>
        <time>2026-06-18T06:51:39.000Z</time>
      </trkpt>
      <trkpt lat="48.67551" lon="1.39023">
        <ele>137.19999694824</ele>
        <time>2026-06-18T06:51:41.000Z</time>
      </trkpt>
      <trkpt lat="48.67547" lon="1.3901">
        <ele>137.19999694824</ele>
        <time>2026-06-18T06:51:43.000Z</time>
      </trkpt>
      <trkpt lat="48.67539" lon="1.38991">
        <ele>137.19999694824</ele>
        <time>2026-06-18T06:51:46.000Z</time>
      </trkpt>
      <trkpt lat="48.67532" lon="1.3897">
        <ele>137.19999694824</ele>
        <time>2026-06-18T06:51:49.000Z</time>
      </trkpt>
      <trkpt lat="48.67527" lon="1.38956">
        <ele>137</ele>
        <time>2026-06-18T06:51:51.000Z</time>
      </trkpt>
      <trkpt lat="48.67505" lon="1.389">
        <ele>136.60000610352</ele>
        <time>2026-06-18T06:51:59.000Z</time>
      </trkpt>
      <trkpt lat="48.67482" lon="1.38845">
        <ele>136.60000610352</ele>
        <time>2026-06-18T06:52:07.000Z</time>
      </trkpt>
      <trkpt lat="48.67456" lon="1.38789">
        <ele>136.39999389648</ele>
        <time>2026-06-18T06:52:15.000Z</time>
      </trkpt>
      <trkpt lat="48.67437" lon="1.38728">
        <ele>136.19999694824</ele>
        <time>2026-06-18T06:52:23.000Z</time>
      </trkpt>
      <trkpt lat="48.67428" lon="1.38691">
        <ele>136</ele>
        <time>2026-06-18T06:52:28.000Z</time>
      </trkpt>
      <trkpt lat="48.67427" lon="1.38675">
        <ele>136</ele>
        <time>2026-06-18T06:52:30.000Z</time>
      </trkpt>
      <trkpt lat="48.67433" lon="1.38665">
        <ele>136</ele>
        <time>2026-06-18T06:52:32.000Z</time>
      </trkpt>
      <trkpt lat="48.67446" lon="1.38658">
        <ele>136</ele>
        <time>2026-06-18T06:52:35.000Z</time>
      </trkpt>
      <trkpt lat="48.67455" lon="1.38654">
        <ele>136</ele>
        <time>2026-06-18T06:52:37.000Z</time>
      </trkpt>
      <trkpt lat="48.6746" lon="1.38652">
        <ele>135.80000305176</ele>
        <time>2026-06-18T06:52:38.000Z</time>
      </trkpt>
      <trkpt lat="48.67495" lon="1.38632">
        <ele>136</ele>
        <time>2026-06-18T06:52:45.000Z</time>
      </trkpt>
      <trkpt lat="48.67509" lon="1.38625">
        <ele>136</ele>
        <time>2026-06-18T06:52:48.000Z</time>
      </trkpt>
      <trkpt lat="48.67518" lon="1.38618">
        <ele>136.19999694824</ele>
        <time>2026-06-18T06:52:50.000Z</time>
      </trkpt>
      <trkpt lat="48.67521" lon="1.38613">
        <ele>136.19999694824</ele>
        <time>2026-06-18T06:52:51.000Z</time>
      </trkpt>
      <trkpt lat="48.67524" lon="1.38607">
        <ele>136.19999694824</ele>
        <time>2026-06-18T06:52:52.000Z</time>
      </trkpt>
      <trkpt lat="48.67524" lon="1.38592">
        <ele>136</ele>
        <time>2026-06-18T06:52:54.000Z</time>
      </trkpt>
      <trkpt lat="48.67514" lon="1.38562">
        <ele>136</ele>
        <time>2026-06-18T06:52:58.000Z</time>
      </trkpt>
      <trkpt lat="48.67494" lon="1.38497">
        <ele>136.39999389648</ele>
        <time>2026-06-18T06:53:06.000Z</time>
      </trkpt>
      <trkpt lat="48.67488" lon="1.38474">
        <ele>137</ele>
        <time>2026-06-18T06:53:09.000Z</time>
      </trkpt>
      <trkpt lat="48.67476" lon="1.38437">
        <ele>137.80000305176</ele>
        <time>2026-06-18T06:53:14.000Z</time>
      </trkpt>
      <trkpt lat="48.67474" lon="1.3843">
        <ele>138</ele>
        <time>2026-06-18T06:53:15.000Z</time>
      </trkpt>
      <trkpt lat="48.6746" lon="1.38382">
        <ele>139.19999694824</ele>
        <time>2026-06-18T06:53:22.000Z</time>
      </trkpt>
      <trkpt lat="48.67438" lon="1.38312">
        <ele>140.19999694824</ele>
        <time>2026-06-18T06:53:32.000Z</time>
      </trkpt>
      <trkpt lat="48.67414" lon="1.38229">
        <ele>139.80000305176</ele>
        <time>2026-06-18T06:53:42.000Z</time>
      </trkpt>
      <trkpt lat="48.67401" lon="1.3816">
        <ele>139</ele>
        <time>2026-06-18T06:53:49.000Z</time>
      </trkpt>
      <trkpt lat="48.67398" lon="1.38118">
        <ele>138</ele>
        <time>2026-06-18T06:53:53.000Z</time>
      </trkpt>
      <trkpt lat="48.67397" lon="1.38088">
        <ele>137.60000610352</ele>
        <time>2026-06-18T06:53:56.000Z</time>
      </trkpt>
      <trkpt lat="48.67393" lon="1.38001">
        <ele>137.39999389648</ele>
        <time>2026-06-18T06:54:05.000Z</time>
      </trkpt>
      <trkpt lat="48.67393" lon="1.37991">
        <ele>137.19999694824</ele>
        <time>2026-06-18T06:54:06.000Z</time>
      </trkpt>
      <trkpt lat="48.67388" lon="1.37919">
        <ele>137.19999694824</ele>
        <time>2026-06-18T06:54:14.000Z</time>
      </trkpt>
      <trkpt lat="48.6738" lon="1.37829">
        <ele>137.39999389648</ele>
        <time>2026-06-18T06:54:23.000Z</time>
      </trkpt>
      <trkpt lat="48.67377" lon="1.37801">
        <ele>137.39999389648</ele>
        <time>2026-06-18T06:54:26.000Z</time>
      </trkpt>
      <trkpt lat="48.67367" lon="1.37724">
        <ele>137.80000305176</ele>
        <time>2026-06-18T06:54:34.000Z</time>
      </trkpt>
      <trkpt lat="48.67352" lon="1.3764">
        <ele>138.19999694824</ele>
        <time>2026-06-18T06:54:43.000Z</time>
      </trkpt>
      <trkpt lat="48.6735" lon="1.37631">
        <ele>138.19999694824</ele>
        <time>2026-06-18T06:54:44.000Z</time>
      </trkpt>
      <trkpt lat="48.67334" lon="1.37546">
        <ele>138.39999389648</ele>
        <time>2026-06-18T06:54:53.000Z</time>
      </trkpt>
      <trkpt lat="48.67333" lon="1.37537">
        <ele>138.39999389648</ele>
        <time>2026-06-18T06:54:54.000Z</time>
      </trkpt>
      <trkpt lat="48.67326" lon="1.37461">
        <ele>138.60000610352</ele>
        <time>2026-06-18T06:55:02.000Z</time>
      </trkpt>
      <trkpt lat="48.67325" lon="1.37374">
        <ele>138.80000305176</ele>
        <time>2026-06-18T06:55:11.000Z</time>
      </trkpt>
      <trkpt lat="48.67322" lon="1.37284">
        <ele>138.80000305176</ele>
        <time>2026-06-18T06:55:20.000Z</time>
      </trkpt>
      <trkpt lat="48.67321" lon="1.37263">
        <ele>138.80000305176</ele>
        <time>2026-06-18T06:55:22.000Z</time>
      </trkpt>
      <trkpt lat="48.67317" lon="1.37173">
        <ele>138.60000610352</ele>
        <time>2026-06-18T06:55:31.000Z</time>
      </trkpt>
      <trkpt lat="48.67316" lon="1.37144">
        <ele>138.60000610352</ele>
        <time>2026-06-18T06:55:34.000Z</time>
      </trkpt>
      <trkpt lat="48.67313" lon="1.37054">
        <ele>138</ele>
        <time>2026-06-18T06:55:43.000Z</time>
      </trkpt>
      <trkpt lat="48.67312" lon="1.37035">
        <ele>137.80000305176</ele>
        <time>2026-06-18T06:55:45.000Z</time>
      </trkpt>
      <trkpt lat="48.67315" lon="1.36955">
        <ele>137.60000610352</ele>
        <time>2026-06-18T06:55:53.000Z</time>
      </trkpt>
      <trkpt lat="48.67326" lon="1.36871">
        <ele>137.80000305176</ele>
        <time>2026-06-18T06:56:02.000Z</time>
      </trkpt>
      <trkpt lat="48.67327" lon="1.36862">
        <ele>137.80000305176</ele>
        <time>2026-06-18T06:56:03.000Z</time>
      </trkpt>
      <trkpt lat="48.67335" lon="1.36786">
        <ele>137.80000305176</ele>
        <time>2026-06-18T06:56:11.000Z</time>
      </trkpt>
      <trkpt lat="48.67339" lon="1.3675">
        <ele>138</ele>
        <time>2026-06-18T06:56:15.000Z</time>
      </trkpt>
      <trkpt lat="48.67342" lon="1.36715">
        <ele>138</ele>
        <time>2026-06-18T06:56:18.000Z</time>
      </trkpt>
      <trkpt lat="48.67345" lon="1.36628">
        <ele>137.80000305176</ele>
        <time>2026-06-18T06:56:27.000Z</time>
      </trkpt>
      <trkpt lat="48.67344" lon="1.3661">
        <ele>137.80000305176</ele>
        <time>2026-06-18T06:56:29.000Z</time>
      </trkpt>
      <trkpt lat="48.67345" lon="1.36564">
        <ele>137.80000305176</ele>
        <time>2026-06-18T06:56:34.000Z</time>
      </trkpt>
      <trkpt lat="48.67347" lon="1.36555">
        <ele>137.39999389648</ele>
        <time>2026-06-18T06:56:35.000Z</time>
      </trkpt>
      <trkpt lat="48.6735" lon="1.36547">
        <ele>137.60000610352</ele>
        <time>2026-06-18T06:56:36.000Z</time>
      </trkpt>
      <trkpt lat="48.67363" lon="1.36524">
        <ele>137.19999694824</ele>
        <time>2026-06-18T06:56:39.000Z</time>
      </trkpt>
      <trkpt lat="48.67378" lon="1.36507">
        <ele>137</ele>
        <time>2026-06-18T06:56:42.000Z</time>
      </trkpt>
      <trkpt lat="48.67382" lon="1.365">
        <ele>137</ele>
        <time>2026-06-18T06:56:43.000Z</time>
      </trkpt>
      <trkpt lat="48.67385" lon="1.36492">
        <ele>136.80000305176</ele>
        <time>2026-06-18T06:56:44.000Z</time>
      </trkpt>
      <trkpt lat="48.6739" lon="1.36466">
        <ele>136.60000610352</ele>
        <time>2026-06-18T06:56:47.000Z</time>
      </trkpt>
      <trkpt lat="48.67393" lon="1.36449">
        <ele>136.60000610352</ele>
        <time>2026-06-18T06:56:49.000Z</time>
      </trkpt>
      <trkpt lat="48.67393" lon="1.36433">
        <ele>136.60000610352</ele>
        <time>2026-06-18T06:56:51.000Z</time>
      </trkpt>
      <trkpt lat="48.67391" lon="1.36425">
        <ele>136.60000610352</ele>
        <time>2026-06-18T06:56:52.000Z</time>
      </trkpt>
      <trkpt lat="48.67388" lon="1.36417">
        <ele>136.39999389648</ele>
        <time>2026-06-18T06:56:53.000Z</time>
      </trkpt>
      <trkpt lat="48.6738" lon="1.36406">
        <ele>136.39999389648</ele>
        <time>2026-06-18T06:56:55.000Z</time>
      </trkpt>
      <trkpt lat="48.67358" lon="1.36394">
        <ele>136.19999694824</ele>
        <time>2026-06-18T06:56:59.000Z</time>
      </trkpt>
      <trkpt lat="48.67352" lon="1.36392">
        <ele>136.19999694824</ele>
        <time>2026-06-18T06:57:00.000Z</time>
      </trkpt>
      <trkpt lat="48.67325" lon="1.36392">
        <ele>136.19999694824</ele>
        <time>2026-06-18T06:57:04.000Z</time>
      </trkpt>
      <trkpt lat="48.67307" lon="1.36401">
        <ele>136</ele>
        <time>2026-06-18T06:57:07.000Z</time>
      </trkpt>
      <trkpt lat="48.67301" lon="1.36406">
        <ele>136</ele>
        <time>2026-06-18T06:57:08.000Z</time>
      </trkpt>
      <trkpt lat="48.67296" lon="1.3641">
        <ele>135.80000305176</ele>
        <time>2026-06-18T06:57:09.000Z</time>
      </trkpt>
      <trkpt lat="48.67285" lon="1.36417">
        <ele>135.80000305176</ele>
        <time>2026-06-18T06:57:11.000Z</time>
      </trkpt>
      <trkpt lat="48.67279" lon="1.36417">
        <ele>135.80000305176</ele>
        <time>2026-06-18T06:57:12.000Z</time>
      </trkpt>
      <trkpt lat="48.67273" lon="1.36415">
        <ele>135.80000305176</ele>
        <time>2026-06-18T06:57:13.000Z</time>
      </trkpt>
      <trkpt lat="48.6725" lon="1.36404">
        <ele>135.80000305176</ele>
        <time>2026-06-18T06:57:17.000Z</time>
      </trkpt>
      <trkpt lat="48.67245" lon="1.36399">
        <ele>135.80000305176</ele>
        <time>2026-06-18T06:57:18.000Z</time>
      </trkpt>
      <trkpt lat="48.67235" lon="1.36388">
        <ele>136</ele>
        <time>2026-06-18T06:57:20.000Z</time>
      </trkpt>
      <trkpt lat="48.67215" lon="1.36364">
        <ele>136</ele>
        <time>2026-06-18T06:57:24.000Z</time>
      </trkpt>
      <trkpt lat="48.67197" lon="1.36338">
        <ele>136.19999694824</ele>
        <time>2026-06-18T06:57:28.000Z</time>
      </trkpt>
      <trkpt lat="48.67193" lon="1.36331">
        <ele>136.19999694824</ele>
        <time>2026-06-18T06:57:29.000Z</time>
      </trkpt>
      <trkpt lat="48.67188" lon="1.36313">
        <ele>136.19999694824</ele>
        <time>2026-06-18T06:57:31.000Z</time>
      </trkpt>
      <trkpt lat="48.67186" lon="1.36295">
        <ele>136.19999694824</ele>
        <time>2026-06-18T06:57:33.000Z</time>
      </trkpt>
      <trkpt lat="48.67179" lon="1.36211">
        <ele>136.19999694824</ele>
        <time>2026-06-18T06:57:42.000Z</time>
      </trkpt>
      <trkpt lat="48.6717" lon="1.36134">
        <ele>135.39999389648</ele>
        <time>2026-06-18T06:57:50.000Z</time>
      </trkpt>
      <trkpt lat="48.67166" lon="1.3608">
        <ele>135</ele>
        <time>2026-06-18T06:57:55.000Z</time>
      </trkpt>
      <trkpt lat="48.67165" lon="1.36068">
        <ele>134.80000305176</ele>
        <time>2026-06-18T06:57:56.000Z</time>
      </trkpt>
      <trkpt lat="48.67162" lon="1.35995">
        <ele>133.80000305176</ele>
        <time>2026-06-18T06:58:02.000Z</time>
      </trkpt>
      <trkpt lat="48.67168" lon="1.35947">
        <ele>132.60000610352</ele>
        <time>2026-06-18T06:58:06.000Z</time>
      </trkpt>
      <trkpt lat="48.67169" lon="1.35936">
        <ele>132.39999389648</ele>
        <time>2026-06-18T06:58:07.000Z</time>
      </trkpt>
      <trkpt lat="48.67168" lon="1.35924">
        <ele>132.19999694824</ele>
        <time>2026-06-18T06:58:08.000Z</time>
      </trkpt>
      <trkpt lat="48.67167" lon="1.35912">
        <ele>131.80000305176</ele>
        <time>2026-06-18T06:58:09.000Z</time>
      </trkpt>
      <trkpt lat="48.67162" lon="1.35892">
        <ele>131.60000610352</ele>
        <time>2026-06-18T06:58:11.000Z</time>
      </trkpt>
      <trkpt lat="48.67142" lon="1.35823">
        <ele>130.60000610352</ele>
        <time>2026-06-18T06:58:18.000Z</time>
      </trkpt>
      <trkpt lat="48.6714" lon="1.35812">
        <ele>130.60000610352</ele>
        <time>2026-06-18T06:58:19.000Z</time>
      </trkpt>
      <trkpt lat="48.67139" lon="1.35801">
        <ele>130.60000610352</ele>
        <time>2026-06-18T06:58:20.000Z</time>
      </trkpt>
      <trkpt lat="48.67137" lon="1.35778">
        <ele>130.39999389648</ele>
        <time>2026-06-18T06:58:22.000Z</time>
      </trkpt>
      <trkpt lat="48.67135" lon="1.35767">
        <ele>130</ele>
        <time>2026-06-18T06:58:23.000Z</time>
      </trkpt>
      <trkpt lat="48.67129" lon="1.35744">
        <ele>129.60000610352</ele>
        <time>2026-06-18T06:58:25.000Z</time>
      </trkpt>
      <trkpt lat="48.67125" lon="1.35734">
        <ele>129.19999694824</ele>
        <time>2026-06-18T06:58:26.000Z</time>
      </trkpt>
      <trkpt lat="48.67121" lon="1.35724">
        <ele>129.19999694824</ele>
        <time>2026-06-18T06:58:27.000Z</time>
      </trkpt>
      <trkpt lat="48.67111" lon="1.35707">
        <ele>128.39999389648</ele>
        <time>2026-06-18T06:58:29.000Z</time>
      </trkpt>
      <trkpt lat="48.67106" lon="1.35699">
        <ele>128</ele>
        <time>2026-06-18T06:58:30.000Z</time>
      </trkpt>
      <trkpt lat="48.67085" lon="1.3567">
        <ele>127.40000152588</ele>
        <time>2026-06-18T06:58:34.000Z</time>
      </trkpt>
      <trkpt lat="48.67066" lon="1.3564">
        <ele>127</ele>
        <time>2026-06-18T06:58:38.000Z</time>
      </trkpt>
      <trkpt lat="48.67049" lon="1.35594">
        <ele>127</ele>
        <time>2026-06-18T06:58:43.000Z</time>
      </trkpt>
      <trkpt lat="48.67039" lon="1.35541">
        <ele>127.59999847412</ele>
        <time>2026-06-18T06:58:49.000Z</time>
      </trkpt>
      <trkpt lat="48.67032" lon="1.35494">
        <ele>128.39999389648</ele>
        <time>2026-06-18T06:58:55.000Z</time>
      </trkpt>
      <trkpt lat="48.67031" lon="1.35486">
        <ele>128.60000610352</ele>
        <time>2026-06-18T06:58:56.000Z</time>
      </trkpt>
      <trkpt lat="48.67017" lon="1.354">
        <ele>129.19999694824</ele>
        <time>2026-06-18T06:59:07.000Z</time>
      </trkpt>
      <trkpt lat="48.67012" lon="1.35345">
        <ele>129.60000610352</ele>
        <time>2026-06-18T06:59:14.000Z</time>
      </trkpt>
      <trkpt lat="48.67011" lon="1.35325">
        <ele>129.80000305176</ele>
        <time>2026-06-18T06:59:16.000Z</time>
      </trkpt>
      <trkpt lat="48.67005" lon="1.3526">
        <ele>130.39999389648</ele>
        <time>2026-06-18T06:59:24.000Z</time>
      </trkpt>
      <trkpt lat="48.67004" lon="1.35245">
        <ele>130.60000610352</ele>
        <time>2026-06-18T06:59:26.000Z</time>
      </trkpt>
      <trkpt lat="48.67" lon="1.35182">
        <ele>131.39999389648</ele>
        <time>2026-06-18T06:59:34.000Z</time>
      </trkpt>
      <trkpt lat="48.66998" lon="1.35158">
        <ele>131.80000305176</ele>
        <time>2026-06-18T06:59:37.000Z</time>
      </trkpt>
      <trkpt lat="48.66996" lon="1.35109">
        <ele>132.19999694824</ele>
        <time>2026-06-18T06:59:43.000Z</time>
      </trkpt>
      <trkpt lat="48.66998" lon="1.35039">
        <ele>132.60000610352</ele>
        <time>2026-06-18T06:59:51.000Z</time>
      </trkpt>
      <trkpt lat="48.67006" lon="1.34958">
        <ele>132.60000610352</ele>
        <time>2026-06-18T07:00:00.000Z</time>
      </trkpt>
      <trkpt lat="48.67008" lon="1.34949">
        <ele>132.60000610352</ele>
        <time>2026-06-18T07:00:01.000Z</time>
      </trkpt>
      <trkpt lat="48.67028" lon="1.34869">
        <ele>132</ele>
        <time>2026-06-18T07:00:10.000Z</time>
      </trkpt>
      <trkpt lat="48.67048" lon="1.34785">
        <ele>131.19999694824</ele>
        <time>2026-06-18T07:00:19.000Z</time>
      </trkpt>
      <trkpt lat="48.67052" lon="1.34766">
        <ele>131.19999694824</ele>
        <time>2026-06-18T07:00:21.000Z</time>
      </trkpt>
      <trkpt lat="48.67059" lon="1.34704">
        <ele>130.80000305176</ele>
        <time>2026-06-18T07:00:27.000Z</time>
      </trkpt>
      <trkpt lat="48.67059" lon="1.34673">
        <ele>130.80000305176</ele>
        <time>2026-06-18T07:00:30.000Z</time>
      </trkpt>
      <trkpt lat="48.67057" lon="1.34621">
        <ele>130.60000610352</ele>
        <time>2026-06-18T07:00:35.000Z</time>
      </trkpt>
      <trkpt lat="48.67054" lon="1.34533">
        <ele>131</ele>
        <time>2026-06-18T07:00:44.000Z</time>
      </trkpt>
      <trkpt lat="48.67051" lon="1.34466">
        <ele>132</ele>
        <time>2026-06-18T07:00:52.000Z</time>
      </trkpt>
      <trkpt lat="48.67044" lon="1.34386">
        <ele>132.80000305176</ele>
        <time>2026-06-18T07:01:01.000Z</time>
      </trkpt>
      <trkpt lat="48.67046" lon="1.34319">
        <ele>132.39999389648</ele>
        <time>2026-06-18T07:01:07.000Z</time>
      </trkpt>
      <trkpt lat="48.67056" lon="1.3426">
        <ele>131.39999389648</ele>
        <time>2026-06-18T07:01:13.000Z</time>
      </trkpt>
      <trkpt lat="48.67072" lon="1.34199">
        <ele>131</ele>
        <time>2026-06-18T07:01:19.000Z</time>
      </trkpt>
      <trkpt lat="48.67076" lon="1.3419">
        <ele>130.80000305176</ele>
        <time>2026-06-18T07:01:20.000Z</time>
      </trkpt>
      <trkpt lat="48.67105" lon="1.34114">
        <ele>130.80000305176</ele>
        <time>2026-06-18T07:01:29.000Z</time>
      </trkpt>
      <trkpt lat="48.6711" lon="1.34098">
        <ele>130.80000305176</ele>
        <time>2026-06-18T07:01:31.000Z</time>
      </trkpt>
      <trkpt lat="48.67133" lon="1.34033">
        <ele>130.80000305176</ele>
        <time>2026-06-18T07:01:39.000Z</time>
      </trkpt>
      <trkpt lat="48.67161" lon="1.33963">
        <ele>130.60000610352</ele>
        <time>2026-06-18T07:01:47.000Z</time>
      </trkpt>
      <trkpt lat="48.67183" lon="1.33917">
        <ele>129.80000305176</ele>
        <time>2026-06-18T07:01:52.000Z</time>
      </trkpt>
      <trkpt lat="48.67209" lon="1.33861">
        <ele>129.19999694824</ele>
        <time>2026-06-18T07:01:58.000Z</time>
      </trkpt>
      <trkpt lat="48.67226" lon="1.33824">
        <ele>128.80000305176</ele>
        <time>2026-06-18T07:02:02.000Z</time>
      </trkpt>
      <trkpt lat="48.67244" lon="1.33774">
        <ele>128.39999389648</ele>
        <time>2026-06-18T07:02:07.000Z</time>
      </trkpt>
      <trkpt lat="48.6727" lon="1.33696">
        <ele>128</ele>
        <time>2026-06-18T07:02:15.000Z</time>
      </trkpt>
      <trkpt lat="48.67277" lon="1.33677">
        <ele>128</ele>
        <time>2026-06-18T07:02:17.000Z</time>
      </trkpt>
      <trkpt lat="48.673" lon="1.33603">
        <ele>128</ele>
        <time>2026-06-18T07:02:25.000Z</time>
      </trkpt>
      <trkpt lat="48.67306" lon="1.33585">
        <ele>128</ele>
        <time>2026-06-18T07:02:27.000Z</time>
      </trkpt>
      <trkpt lat="48.67329" lon="1.33511">
        <ele>128.19999694824</ele>
        <time>2026-06-18T07:02:35.000Z</time>
      </trkpt>
      <trkpt lat="48.67338" lon="1.33486">
        <ele>128.19999694824</ele>
        <time>2026-06-18T07:02:38.000Z</time>
      </trkpt>
      <trkpt lat="48.67352" lon="1.33449">
        <ele>128.39999389648</ele>
        <time>2026-06-18T07:02:43.000Z</time>
      </trkpt>
      <trkpt lat="48.67362" lon="1.33428">
        <ele>128.80000305176</ele>
        <time>2026-06-18T07:02:46.000Z</time>
      </trkpt>
      <trkpt lat="48.6739" lon="1.33369">
        <ele>129.60000610352</ele>
        <time>2026-06-18T07:02:54.000Z</time>
      </trkpt>
      <trkpt lat="48.67404" lon="1.33339">
        <ele>129.80000305176</ele>
        <time>2026-06-18T07:02:58.000Z</time>
      </trkpt>
      <trkpt lat="48.67419" lon="1.33307">
        <ele>129.80000305176</ele>
        <time>2026-06-18T07:03:02.000Z</time>
      </trkpt>
      <trkpt lat="48.6745" lon="1.33233">
        <ele>129.39999389648</ele>
        <time>2026-06-18T07:03:11.000Z</time>
      </trkpt>
      <trkpt lat="48.6748" lon="1.33176">
        <ele>129</ele>
        <time>2026-06-18T07:03:18.000Z</time>
      </trkpt>
      <trkpt lat="48.67503" lon="1.33148">
        <ele>128.80000305176</ele>
        <time>2026-06-18T07:03:22.000Z</time>
      </trkpt>
      <trkpt lat="48.67515" lon="1.33136">
        <ele>128.39999389648</ele>
        <time>2026-06-18T07:03:24.000Z</time>
      </trkpt>
      <trkpt lat="48.67547" lon="1.33101">
        <ele>127.59999847412</ele>
        <time>2026-06-18T07:03:29.000Z</time>
      </trkpt>
      <trkpt lat="48.67552" lon="1.33091">
        <ele>127.19999694824</ele>
        <time>2026-06-18T07:03:30.000Z</time>
      </trkpt>
      <trkpt lat="48.6756" lon="1.3307">
        <ele>126.40000152588</ele>
        <time>2026-06-18T07:03:32.000Z</time>
      </trkpt>
      <trkpt lat="48.67569" lon="1.33036">
        <ele>125.19999694824</ele>
        <time>2026-06-18T07:03:35.000Z</time>
      </trkpt>
      <trkpt lat="48.67579" lon="1.3299">
        <ele>124.19999694824</ele>
        <time>2026-06-18T07:03:39.000Z</time>
      </trkpt>
      <trkpt lat="48.67592" lon="1.32921">
        <ele>123.40000152588</ele>
        <time>2026-06-18T07:03:45.000Z</time>
      </trkpt>
      <trkpt lat="48.67594" lon="1.32909">
        <ele>123.19999694824</ele>
        <time>2026-06-18T07:03:46.000Z</time>
      </trkpt>
      <trkpt lat="48.67601" lon="1.32876">
        <ele>123</ele>
        <time>2026-06-18T07:03:49.000Z</time>
      </trkpt>
      <trkpt lat="48.67614" lon="1.32801">
        <ele>122.40000152588</ele>
        <time>2026-06-18T07:03:56.000Z</time>
      </trkpt>
      <trkpt lat="48.67616" lon="1.32791">
        <ele>122.19999694824</ele>
        <time>2026-06-18T07:03:57.000Z</time>
      </trkpt>
      <trkpt lat="48.67621" lon="1.32759">
        <ele>121.80000305176</ele>
        <time>2026-06-18T07:04:01.000Z</time>
      </trkpt>
      <trkpt lat="48.67623" lon="1.32743">
        <ele>121.40000152588</ele>
        <time>2026-06-18T07:04:05.000Z</time>
      </trkpt>
      <trkpt lat="48.67623" lon="1.32739">
        <ele>121.19999694824</ele>
        <time>2026-06-18T07:04:08.000Z</time>
      </trkpt>
      <trkpt lat="48.67623" lon="1.32739">
        <ele>121</ele>
        <time>2026-06-18T07:04:09.000Z</time>
      </trkpt>
      <trkpt lat="48.67623" lon="1.32739">
        <ele>120.40000152588</ele>
        <time>2026-06-18T07:04:27.000Z</time>
      </trkpt>
      <trkpt lat="48.67624" lon="1.3273">
        <ele>120.80000305176</ele>
        <time>2026-06-18T07:05:02.000Z</time>
      </trkpt>
      <trkpt lat="48.67632" lon="1.32713">
        <ele>120.59999847412</ele>
        <time>2026-06-18T07:05:07.000Z</time>
      </trkpt>
      <trkpt lat="48.6764" lon="1.32693">
        <ele>120.59999847412</ele>
        <time>2026-06-18T07:05:12.000Z</time>
      </trkpt>
      <trkpt lat="48.67647" lon="1.32659">
        <ele>120.40000152588</ele>
        <time>2026-06-18T07:05:18.000Z</time>
      </trkpt>
      <trkpt lat="48.67652" lon="1.32643">
        <ele>120</ele>
        <time>2026-06-18T07:05:21.000Z</time>
      </trkpt>
      <trkpt lat="48.67657" lon="1.32612">
        <ele>119.59999847412</ele>
        <time>2026-06-18T07:05:26.000Z</time>
      </trkpt>
      <trkpt lat="48.67661" lon="1.32583">
        <ele>119</ele>
        <time>2026-06-18T07:05:30.000Z</time>
      </trkpt>
      <trkpt lat="48.67663" lon="1.32575">
        <ele>119</ele>
        <time>2026-06-18T07:05:31.000Z</time>
      </trkpt>
      <trkpt lat="48.67671" lon="1.32531">
        <ele>118.40000152588</ele>
        <time>2026-06-18T07:05:37.000Z</time>
      </trkpt>
      <trkpt lat="48.67681" lon="1.32484">
        <ele>118.19999694824</ele>
        <time>2026-06-18T07:05:43.000Z</time>
      </trkpt>
      <trkpt lat="48.67682" lon="1.32467">
        <ele>118</ele>
        <time>2026-06-18T07:05:45.000Z</time>
      </trkpt>
      <trkpt lat="48.67682" lon="1.32449">
        <ele>118</ele>
        <time>2026-06-18T07:05:47.000Z</time>
      </trkpt>
      <trkpt lat="48.67682" lon="1.3244">
        <ele>118</ele>
        <time>2026-06-18T07:05:48.000Z</time>
      </trkpt>
      <trkpt lat="48.67681" lon="1.3242">
        <ele>118</ele>
        <time>2026-06-18T07:05:50.000Z</time>
      </trkpt>
      <trkpt lat="48.67677" lon="1.32404">
        <ele>117.80000305176</ele>
        <time>2026-06-18T07:05:52.000Z</time>
      </trkpt>
      <trkpt lat="48.67674" lon="1.32397">
        <ele>117.59999847412</ele>
        <time>2026-06-18T07:05:53.000Z</time>
      </trkpt>
      <trkpt lat="48.6767" lon="1.32392">
        <ele>117.59999847412</ele>
        <time>2026-06-18T07:05:54.000Z</time>
      </trkpt>
      <trkpt lat="48.67655" lon="1.32375">
        <ele>117</ele>
        <time>2026-06-18T07:05:57.000Z</time>
      </trkpt>
      <trkpt lat="48.6765" lon="1.3237">
        <ele>116.80000305176</ele>
        <time>2026-06-18T07:05:58.000Z</time>
      </trkpt>
      <trkpt lat="48.67618" lon="1.32334">
        <ele>116.19999694824</ele>
        <time>2026-06-18T07:06:05.000Z</time>
      </trkpt>
      <trkpt lat="48.67604" lon="1.32317">
        <ele>115.59999847412</ele>
        <time>2026-06-18T07:06:10.000Z</time>
      </trkpt>
      <trkpt lat="48.67603" lon="1.32312">
        <ele>115.40000152588</ele>
        <time>2026-06-18T07:06:11.000Z</time>
      </trkpt>
      <trkpt lat="48.67606" lon="1.32301">
        <ele>115.19999694824</ele>
        <time>2026-06-18T07:06:13.000Z</time>
      </trkpt>
      <trkpt lat="48.67623" lon="1.32269">
        <ele>114.80000305176</ele>
        <time>2026-06-18T07:06:18.000Z</time>
      </trkpt>
      <trkpt lat="48.67637" lon="1.32245">
        <ele>114.40000152588</ele>
        <time>2026-06-18T07:06:22.000Z</time>
      </trkpt>
      <trkpt lat="48.6764" lon="1.32239">
        <ele>114.40000152588</ele>
        <time>2026-06-18T07:06:23.000Z</time>
      </trkpt>
      <trkpt lat="48.67648" lon="1.32227">
        <ele>114.40000152588</ele>
        <time>2026-06-18T07:06:25.000Z</time>
      </trkpt>
      <trkpt lat="48.67665" lon="1.32198">
        <ele>114.19999694824</ele>
        <time>2026-06-18T07:06:29.000Z</time>
      </trkpt>
      <trkpt lat="48.67672" lon="1.32176">
        <ele>114.19999694824</ele>
        <time>2026-06-18T07:06:32.000Z</time>
      </trkpt>
      <trkpt lat="48.67685" lon="1.32118">
        <ele>114</ele>
        <time>2026-06-18T07:06:39.000Z</time>
      </trkpt>
      <trkpt lat="48.67704" lon="1.32042">
        <ele>113.80000305176</ele>
        <time>2026-06-18T07:06:47.000Z</time>
      </trkpt>
      <trkpt lat="48.67711" lon="1.32026">
        <ele>113.80000305176</ele>
        <time>2026-06-18T07:06:49.000Z</time>
      </trkpt>
      <trkpt lat="48.67724" lon="1.32003">
        <ele>113.80000305176</ele>
        <time>2026-06-18T07:06:52.000Z</time>
      </trkpt>
      <trkpt lat="48.67753" lon="1.31955">
        <ele>113.80000305176</ele>
        <time>2026-06-18T07:06:59.000Z</time>
      </trkpt>
      <trkpt lat="48.67764" lon="1.31934">
        <ele>113.80000305176</ele>
        <time>2026-06-18T07:07:02.000Z</time>
      </trkpt>
      <trkpt lat="48.6777" lon="1.3191">
        <ele>113.59999847412</ele>
        <time>2026-06-18T07:07:05.000Z</time>
      </trkpt>
      <trkpt lat="48.67776" lon="1.31852">
        <ele>113.80000305176</ele>
        <time>2026-06-18T07:07:12.000Z</time>
      </trkpt>
      <trkpt lat="48.67784" lon="1.31825">
        <ele>114</ele>
        <time>2026-06-18T07:07:16.000Z</time>
      </trkpt>
      <trkpt lat="48.67792" lon="1.31803">
        <ele>114</ele>
        <time>2026-06-18T07:07:19.000Z</time>
      </trkpt>
      <trkpt lat="48.67801" lon="1.31783">
        <ele>114.19999694824</ele>
        <time>2026-06-18T07:07:22.000Z</time>
      </trkpt>
      <trkpt lat="48.67812" lon="1.31753">
        <ele>114.59999847412</ele>
        <time>2026-06-18T07:07:27.000Z</time>
      </trkpt>
      <trkpt lat="48.67817" lon="1.31744">
        <ele>114.80000305176</ele>
        <time>2026-06-18T07:07:29.000Z</time>
      </trkpt>
      <trkpt lat="48.6783" lon="1.31731">
        <ele>115.19999694824</ele>
        <time>2026-06-18T07:07:32.000Z</time>
      </trkpt>
      <trkpt lat="48.67853" lon="1.31713">
        <ele>115.40000152588</ele>
        <time>2026-06-18T07:07:37.000Z</time>
      </trkpt>
      <trkpt lat="48.67856" lon="1.3171">
        <ele>115.59999847412</ele>
        <time>2026-06-18T07:07:38.000Z</time>
      </trkpt>
      <trkpt lat="48.67859" lon="1.31707">
        <ele>115.59999847412</ele>
        <time>2026-06-18T07:07:39.000Z</time>
      </trkpt>
      <trkpt lat="48.67873" lon="1.31695">
        <ele>116</ele>
        <time>2026-06-18T07:07:43.000Z</time>
      </trkpt>
      <trkpt lat="48.67877" lon="1.31693">
        <ele>116.40000152588</ele>
        <time>2026-06-18T07:07:44.000Z</time>
      </trkpt>
      <trkpt lat="48.67887" lon="1.31698">
        <ele>116.59999847412</ele>
        <time>2026-06-18T07:07:47.000Z</time>
      </trkpt>
      <trkpt lat="48.67899" lon="1.31719">
        <ele>116.59999847412</ele>
        <time>2026-06-18T07:07:50.000Z</time>
      </trkpt>
      <trkpt lat="48.67901" lon="1.31736">
        <ele>116.59999847412</ele>
        <time>2026-06-18T07:07:52.000Z</time>
      </trkpt>
      <trkpt lat="48.679" lon="1.31754">
        <ele>116.40000152588</ele>
        <time>2026-06-18T07:07:54.000Z</time>
      </trkpt>
      <trkpt lat="48.67898" lon="1.31793">
        <ele>116</ele>
        <time>2026-06-18T07:07:58.000Z</time>
      </trkpt>
      <trkpt lat="48.67898" lon="1.31803">
        <ele>115.80000305176</ele>
        <time>2026-06-18T07:07:59.000Z</time>
      </trkpt>
      <trkpt lat="48.67899" lon="1.31813">
        <ele>115.80000305176</ele>
        <time>2026-06-18T07:08:00.000Z</time>
      </trkpt>
      <trkpt lat="48.67907" lon="1.3183">
        <ele>115.59999847412</ele>
        <time>2026-06-18T07:08:02.000Z</time>
      </trkpt>
      <trkpt lat="48.67941" lon="1.31888">
        <ele>114.80000305176</ele>
        <time>2026-06-18T07:08:10.000Z</time>
      </trkpt>
      <trkpt lat="48.67968" lon="1.31925">
        <ele>114.80000305176</ele>
        <time>2026-06-18T07:08:17.000Z</time>
      </trkpt>
      <trkpt lat="48.67994" lon="1.31952">
        <ele>115.59999847412</ele>
        <time>2026-06-18T07:08:24.000Z</time>
      </trkpt>
      <trkpt lat="48.68004" lon="1.31962">
        <ele>116.19999694824</ele>
        <time>2026-06-18T07:08:27.000Z</time>
      </trkpt>
      <trkpt lat="48.68014" lon="1.31971">
        <ele>116.40000152588</ele>
        <time>2026-06-18T07:08:30.000Z</time>
      </trkpt>
      <trkpt lat="48.68021" lon="1.31978">
        <ele>116.59999847412</ele>
        <time>2026-06-18T07:08:32.000Z</time>
      </trkpt>
      <trkpt lat="48.68039" lon="1.32007">
        <ele>118</ele>
        <time>2026-06-18T07:08:39.000Z</time>
      </trkpt>
      <trkpt lat="48.68043" lon="1.32013">
        <ele>118.80000305176</ele>
        <time>2026-06-18T07:08:41.000Z</time>
      </trkpt>
      <trkpt lat="48.68045" lon="1.32016">
        <ele>119.19999694824</ele>
        <time>2026-06-18T07:08:42.000Z</time>
      </trkpt>
      <trkpt lat="48.68053" lon="1.3203">
        <ele>120.19999694824</ele>
        <time>2026-06-18T07:08:46.000Z</time>
      </trkpt>
      <trkpt lat="48.68054" lon="1.32034">
        <ele>120.59999847412</ele>
        <time>2026-06-18T07:08:47.000Z</time>
      </trkpt>
      <trkpt lat="48.68058" lon="1.32042">
        <ele>121.40000152588</ele>
        <time>2026-06-18T07:08:49.000Z</time>
      </trkpt>
      <trkpt lat="48.68064" lon="1.32055">
        <ele>122.59999847412</ele>
        <time>2026-06-18T07:08:52.000Z</time>
      </trkpt>
      <trkpt lat="48.68066" lon="1.32059">
        <ele>122.80000305176</ele>
        <time>2026-06-18T07:08:53.000Z</time>
      </trkpt>
      <trkpt lat="48.68072" lon="1.32071">
        <ele>123.59999847412</ele>
        <time>2026-06-18T07:08:56.000Z</time>
      </trkpt>
      <trkpt lat="48.68076" lon="1.32078">
        <ele>124.40000152588</ele>
        <time>2026-06-18T07:08:58.000Z</time>
      </trkpt>
      <trkpt lat="48.68077" lon="1.32082">
        <ele>124.80000305176</ele>
        <time>2026-06-18T07:08:59.000Z</time>
      </trkpt>
      <trkpt lat="48.68085" lon="1.32098">
        <ele>125.80000305176</ele>
        <time>2026-06-18T07:09:03.000Z</time>
      </trkpt>
      <trkpt lat="48.68091" lon="1.32111">
        <ele>126.59999847412</ele>
        <time>2026-06-18T07:09:06.000Z</time>
      </trkpt>
      <trkpt lat="48.68094" lon="1.32118">
        <ele>127</ele>
        <time>2026-06-18T07:09:08.000Z</time>
      </trkpt>
      <trkpt lat="48.68106" lon="1.32136">
        <ele>128</ele>
        <time>2026-06-18T07:09:13.000Z</time>
      </trkpt>
      <trkpt lat="48.68124" lon="1.32145">
        <ele>129.19999694824</ele>
        <time>2026-06-18T07:09:18.000Z</time>
      </trkpt>
      <trkpt lat="48.68129" lon="1.32146">
        <ele>129.19999694824</ele>
        <time>2026-06-18T07:09:19.000Z</time>
      </trkpt>
      <trkpt lat="48.68151" lon="1.32142">
        <ele>130.19999694824</ele>
        <time>2026-06-18T07:09:25.000Z</time>
      </trkpt>
      <trkpt lat="48.68154" lon="1.32141">
        <ele>130.19999694824</ele>
        <time>2026-06-18T07:09:26.000Z</time>
      </trkpt>
      <trkpt lat="48.68171" lon="1.32131">
        <ele>131.39999389648</ele>
        <time>2026-06-18T07:09:32.000Z</time>
      </trkpt>
      <trkpt lat="48.68196" lon="1.32104">
        <ele>132.60000610352</ele>
        <time>2026-06-18T07:09:40.000Z</time>
      </trkpt>
      <trkpt lat="48.68204" lon="1.32093">
        <ele>133</ele>
        <time>2026-06-18T07:09:43.000Z</time>
      </trkpt>
      <trkpt lat="48.68225" lon="1.32054">
        <ele>133</ele>
        <time>2026-06-18T07:09:50.000Z</time>
      </trkpt>
      <trkpt lat="48.68238" lon="1.32011">
        <ele>133</ele>
        <time>2026-06-18T07:09:56.000Z</time>
      </trkpt>
      <trkpt lat="48.68258" lon="1.31962">
        <ele>132.60000610352</ele>
        <time>2026-06-18T07:10:03.000Z</time>
      </trkpt>
      <trkpt lat="48.68296" lon="1.31893">
        <ele>132.60000610352</ele>
        <time>2026-06-18T07:10:14.000Z</time>
      </trkpt>
      <trkpt lat="48.68329" lon="1.31837">
        <ele>133.19999694824</ele>
        <time>2026-06-18T07:10:24.000Z</time>
      </trkpt>
      <trkpt lat="48.68351" lon="1.31801">
        <ele>133.80000305176</ele>
        <time>2026-06-18T07:10:31.000Z</time>
      </trkpt>
      <trkpt lat="48.68368" lon="1.31777">
        <ele>134.39999389648</ele>
        <time>2026-06-18T07:10:36.000Z</time>
      </trkpt>
      <trkpt lat="48.68375" lon="1.31766">
        <ele>134.80000305176</ele>
        <time>2026-06-18T07:10:38.000Z</time>
      </trkpt>
      <trkpt lat="48.68403" lon="1.31714">
        <ele>135.39999389648</ele>
        <time>2026-06-18T07:10:47.000Z</time>
      </trkpt>
      <trkpt lat="48.68428" lon="1.31672">
        <ele>135.80000305176</ele>
        <time>2026-06-18T07:10:55.000Z</time>
      </trkpt>
      <trkpt lat="48.68437" lon="1.31657">
        <ele>136.19999694824</ele>
        <time>2026-06-18T07:10:58.000Z</time>
      </trkpt>
      <trkpt lat="48.68445" lon="1.31642">
        <ele>137</ele>
        <time>2026-06-18T07:11:01.000Z</time>
      </trkpt>
      <trkpt lat="48.68456" lon="1.31617">
        <ele>138</ele>
        <time>2026-06-18T07:11:06.000Z</time>
      </trkpt>
      <trkpt lat="48.68465" lon="1.31582">
        <ele>139.19999694824</ele>
        <time>2026-06-18T07:11:12.000Z</time>
      </trkpt>
      <trkpt lat="48.6847" lon="1.31565">
        <ele>139.60000610352</ele>
        <time>2026-06-18T07:11:15.000Z</time>
      </trkpt>
      <trkpt lat="48.68476" lon="1.31549">
        <ele>140.19999694824</ele>
        <time>2026-06-18T07:11:18.000Z</time>
      </trkpt>
      <trkpt lat="48.68483" lon="1.31533">
        <ele>140.80000305176</ele>
        <time>2026-06-18T07:11:21.000Z</time>
      </trkpt>
      <trkpt lat="48.68491" lon="1.31517">
        <ele>141.19999694824</ele>
        <time>2026-06-18T07:11:24.000Z</time>
      </trkpt>
      <trkpt lat="48.68494" lon="1.31512">
        <ele>141.39999389648</ele>
        <time>2026-06-18T07:11:25.000Z</time>
      </trkpt>
      <trkpt lat="48.68502" lon="1.31499">
        <ele>142.19999694824</ele>
        <time>2026-06-18T07:11:28.000Z</time>
      </trkpt>
      <trkpt lat="48.68518" lon="1.31479">
        <ele>143.19999694824</ele>
        <time>2026-06-18T07:11:33.000Z</time>
      </trkpt>
      <trkpt lat="48.68524" lon="1.31471">
        <ele>143.60000610352</ele>
        <time>2026-06-18T07:11:35.000Z</time>
      </trkpt>
      <trkpt lat="48.68557" lon="1.31431">
        <ele>144.39999389648</ele>
        <time>2026-06-18T07:11:44.000Z</time>
      </trkpt>
      <trkpt lat="48.68561" lon="1.31426">
        <ele>144.39999389648</ele>
        <time>2026-06-18T07:11:45.000Z</time>
      </trkpt>
      <trkpt lat="48.68598" lon="1.3137">
        <ele>145</ele>
        <time>2026-06-18T07:11:56.000Z</time>
      </trkpt>
      <trkpt lat="48.68622" lon="1.3134">
        <ele>145.60000610352</ele>
        <time>2026-06-18T07:12:03.000Z</time>
      </trkpt>
      <trkpt lat="48.68629" lon="1.31333">
        <ele>145.80000305176</ele>
        <time>2026-06-18T07:12:05.000Z</time>
      </trkpt>
      <trkpt lat="48.68647" lon="1.31317">
        <ele>146.60000610352</ele>
        <time>2026-06-18T07:12:10.000Z</time>
      </trkpt>
      <trkpt lat="48.6866" lon="1.31304">
        <ele>147.60000610352</ele>
        <time>2026-06-18T07:12:14.000Z</time>
      </trkpt>
      <trkpt lat="48.68663" lon="1.313">
        <ele>147.80000305176</ele>
        <time>2026-06-18T07:12:15.000Z</time>
      </trkpt>
      <trkpt lat="48.68688" lon="1.31275">
        <ele>148.80000305176</ele>
        <time>2026-06-18T07:12:21.000Z</time>
      </trkpt>
      <trkpt lat="48.68698" lon="1.31264">
        <ele>149.19999694824</ele>
        <time>2026-06-18T07:12:24.000Z</time>
      </trkpt>
      <trkpt lat="48.6873" lon="1.31223">
        <ele>150.19999694824</ele>
        <time>2026-06-18T07:12:33.000Z</time>
      </trkpt>
      <trkpt lat="48.68733" lon="1.31218">
        <ele>150.19999694824</ele>
        <time>2026-06-18T07:12:34.000Z</time>
      </trkpt>
      <trkpt lat="48.68763" lon="1.31161">
        <ele>150.60000610352</ele>
        <time>2026-06-18T07:12:44.000Z</time>
      </trkpt>
      <trkpt lat="48.68792" lon="1.31097">
        <ele>150.60000610352</ele>
        <time>2026-06-18T07:12:54.000Z</time>
      </trkpt>
      <trkpt lat="48.6882" lon="1.31038">
        <ele>150.39999389648</ele>
        <time>2026-06-18T07:13:02.000Z</time>
      </trkpt>
      <trkpt lat="48.68856" lon="1.30973">
        <ele>149.80000305176</ele>
        <time>2026-06-18T07:13:11.000Z</time>
      </trkpt>
      <trkpt lat="48.68895" lon="1.30913">
        <ele>149.19999694824</ele>
        <time>2026-06-18T07:13:20.000Z</time>
      </trkpt>
      <trkpt lat="48.68905" lon="1.309">
        <ele>149.19999694824</ele>
        <time>2026-06-18T07:13:22.000Z</time>
      </trkpt>
      <trkpt lat="48.68942" lon="1.3085">
        <ele>149</ele>
        <time>2026-06-18T07:13:30.000Z</time>
      </trkpt>
      <trkpt lat="48.68961" lon="1.30824">
        <ele>149</ele>
        <time>2026-06-18T07:13:34.000Z</time>
      </trkpt>
      <trkpt lat="48.69006" lon="1.30768">
        <ele>148.60000610352</ele>
        <time>2026-06-18T07:13:43.000Z</time>
      </trkpt>
      <trkpt lat="48.6902" lon="1.30753">
        <ele>148.60000610352</ele>
        <time>2026-06-18T07:13:46.000Z</time>
      </trkpt>
      <trkpt lat="48.69052" lon="1.30717">
        <ele>148.60000610352</ele>
        <time>2026-06-18T07:13:53.000Z</time>
      </trkpt>
      <trkpt lat="48.69076" lon="1.30684">
        <ele>148.80000305176</ele>
        <time>2026-06-18T07:13:59.000Z</time>
      </trkpt>
      <trkpt lat="48.6908" lon="1.30677">
        <ele>148.80000305176</ele>
        <time>2026-06-18T07:14:00.000Z</time>
      </trkpt>
      <trkpt lat="48.69099" lon="1.30629">
        <ele>149</ele>
        <time>2026-06-18T07:14:06.000Z</time>
      </trkpt>
      <trkpt lat="48.69114" lon="1.30564">
        <ele>148.39999389648</ele>
        <time>2026-06-18T07:14:13.000Z</time>
      </trkpt>
      <trkpt lat="48.69122" lon="1.30535">
        <ele>148</ele>
        <time>2026-06-18T07:14:16.000Z</time>
      </trkpt>
      <trkpt lat="48.69133" lon="1.30492">
        <ele>147.60000610352</ele>
        <time>2026-06-18T07:14:20.000Z</time>
      </trkpt>
      <trkpt lat="48.69143" lon="1.30455">
        <ele>146.80000305176</ele>
        <time>2026-06-18T07:14:23.000Z</time>
      </trkpt>
      <trkpt lat="48.69153" lon="1.30416">
        <ele>145.80000305176</ele>
        <time>2026-06-18T07:14:26.000Z</time>
      </trkpt>
      <trkpt lat="48.69156" lon="1.30404">
        <ele>145.39999389648</ele>
        <time>2026-06-18T07:14:27.000Z</time>
      </trkpt>
      <trkpt lat="48.69163" lon="1.30379">
        <ele>145.19999694824</ele>
        <time>2026-06-18T07:14:29.000Z</time>
      </trkpt>
      <trkpt lat="48.69175" lon="1.30334">
        <ele>144.39999389648</ele>
        <time>2026-06-18T07:14:33.000Z</time>
      </trkpt>
      <trkpt lat="48.69177" lon="1.30324">
        <ele>144.19999694824</ele>
        <time>2026-06-18T07:14:34.000Z</time>
      </trkpt>
      <trkpt lat="48.69187" lon="1.30276">
        <ele>144</ele>
        <time>2026-06-18T07:14:40.000Z</time>
      </trkpt>
      <trkpt lat="48.69199" lon="1.30191">
        <ele>144.80000305176</ele>
        <time>2026-06-18T07:14:48.000Z</time>
      </trkpt>
      <trkpt lat="48.692" lon="1.30181">
        <ele>145</ele>
        <time>2026-06-18T07:14:49.000Z</time>
      </trkpt>
      <trkpt lat="48.69204" lon="1.30104">
        <ele>145.19999694824</ele>
        <time>2026-06-18T07:14:57.000Z</time>
      </trkpt>
      <trkpt lat="48.69208" lon="1.30017">
        <ele>145.60000610352</ele>
        <time>2026-06-18T07:15:06.000Z</time>
      </trkpt>
      <trkpt lat="48.69214" lon="1.29952">
        <ele>146</ele>
        <time>2026-06-18T07:15:13.000Z</time>
      </trkpt>
      <trkpt lat="48.69229" lon="1.29908">
        <ele>146.19999694824</ele>
        <time>2026-06-18T07:15:18.000Z</time>
      </trkpt>
      <trkpt lat="48.69253" lon="1.2987">
        <ele>146</ele>
        <time>2026-06-18T07:15:23.000Z</time>
      </trkpt>
      <trkpt lat="48.69296" lon="1.29817">
        <ele>145.19999694824</ele>
        <time>2026-06-18T07:15:31.000Z</time>
      </trkpt>
      <trkpt lat="48.69301" lon="1.2981">
        <ele>145</ele>
        <time>2026-06-18T07:15:32.000Z</time>
      </trkpt>
      <trkpt lat="48.69325" lon="1.29774">
        <ele>144.60000610352</ele>
        <time>2026-06-18T07:15:37.000Z</time>
      </trkpt>
      <trkpt lat="48.69339" lon="1.29749">
        <ele>144.39999389648</ele>
        <time>2026-06-18T07:15:40.000Z</time>
      </trkpt>
      <trkpt lat="48.69367" lon="1.29701">
        <ele>143.80000305176</ele>
        <time>2026-06-18T07:15:46.000Z</time>
      </trkpt>
      <trkpt lat="48.69378" lon="1.29688">
        <ele>143.60000610352</ele>
        <time>2026-06-18T07:15:48.000Z</time>
      </trkpt>
      <trkpt lat="48.69383" lon="1.29682">
        <ele>143.60000610352</ele>
        <time>2026-06-18T07:15:49.000Z</time>
      </trkpt>
      <trkpt lat="48.69395" lon="1.2967">
        <ele>143.60000610352</ele>
        <time>2026-06-18T07:15:51.000Z</time>
      </trkpt>
      <trkpt lat="48.69408" lon="1.29661">
        <ele>143.60000610352</ele>
        <time>2026-06-18T07:15:53.000Z</time>
      </trkpt>
      <trkpt lat="48.69459" lon="1.29629">
        <ele>143.60000610352</ele>
        <time>2026-06-18T07:16:01.000Z</time>
      </trkpt>
      <trkpt lat="48.69471" lon="1.29621">
        <ele>143.60000610352</ele>
        <time>2026-06-18T07:16:03.000Z</time>
      </trkpt>
      <trkpt lat="48.69511" lon="1.29588">
        <ele>144.19999694824</ele>
        <time>2026-06-18T07:16:10.000Z</time>
      </trkpt>
      <trkpt lat="48.69526" lon="1.29569">
        <ele>144.60000610352</ele>
        <time>2026-06-18T07:16:13.000Z</time>
      </trkpt>
      <trkpt lat="48.69539" lon="1.29548">
        <ele>144.80000305176</ele>
        <time>2026-06-18T07:16:16.000Z</time>
      </trkpt>
      <trkpt lat="48.69554" lon="1.29521">
        <ele>145</ele>
        <time>2026-06-18T07:16:20.000Z</time>
      </trkpt>
      <trkpt lat="48.69561" lon="1.29504">
        <ele>145</ele>
        <time>2026-06-18T07:16:22.000Z</time>
      </trkpt>
      <trkpt lat="48.6957" lon="1.29479">
        <ele>145</ele>
        <time>2026-06-18T07:16:25.000Z</time>
      </trkpt>
      <trkpt lat="48.69576" lon="1.29463">
        <ele>145</ele>
        <time>2026-06-18T07:16:27.000Z</time>
      </trkpt>
      <trkpt lat="48.69582" lon="1.29447">
        <ele>145</ele>
        <time>2026-06-18T07:16:29.000Z</time>
      </trkpt>
      <trkpt lat="48.69591" lon="1.29424">
        <ele>145.19999694824</ele>
        <time>2026-06-18T07:16:32.000Z</time>
      </trkpt>
      <trkpt lat="48.6961" lon="1.29368">
        <ele>145.39999389648</ele>
        <time>2026-06-18T07:16:39.000Z</time>
      </trkpt>
      <trkpt lat="48.69616" lon="1.29353">
        <ele>145.80000305176</ele>
        <time>2026-06-18T07:16:41.000Z</time>
      </trkpt>
      <trkpt lat="48.6962" lon="1.29341">
        <ele>145.80000305176</ele>
        <time>2026-06-18T07:16:43.000Z</time>
      </trkpt>
      <trkpt lat="48.69632" lon="1.29306">
        <ele>145.80000305176</ele>
        <time>2026-06-18T07:16:47.000Z</time>
      </trkpt>
      <trkpt lat="48.69657" lon="1.29257">
        <ele>145.80000305176</ele>
        <time>2026-06-18T07:16:54.000Z</time>
      </trkpt>
      <trkpt lat="48.69697" lon="1.29201">
        <ele>145.80000305176</ele>
        <time>2026-06-18T07:17:03.000Z</time>
      </trkpt>
      <trkpt lat="48.69723" lon="1.29156">
        <ele>146</ele>
        <time>2026-06-18T07:17:10.000Z</time>
      </trkpt>
      <trkpt lat="48.69754" lon="1.29102">
        <ele>145.80000305176</ele>
        <time>2026-06-18T07:17:18.000Z</time>
      </trkpt>
      <trkpt lat="48.69762" lon="1.29088">
        <ele>146</ele>
        <time>2026-06-18T07:17:20.000Z</time>
      </trkpt>
      <trkpt lat="48.69789" lon="1.2904">
        <ele>146.19999694824</ele>
        <time>2026-06-18T07:17:27.000Z</time>
      </trkpt>
      <trkpt lat="48.69823" lon="1.28983">
        <ele>146.39999389648</ele>
        <time>2026-06-18T07:17:36.000Z</time>
      </trkpt>
      <trkpt lat="48.69846" lon="1.28958">
        <ele>146.60000610352</ele>
        <time>2026-06-18T07:17:42.000Z</time>
      </trkpt>
      <trkpt lat="48.69865" lon="1.28942">
        <ele>147</ele>
        <time>2026-06-18T07:17:47.000Z</time>
      </trkpt>
      <trkpt lat="48.69872" lon="1.28936">
        <ele>147.19999694824</ele>
        <time>2026-06-18T07:17:49.000Z</time>
      </trkpt>
      <trkpt lat="48.69905" lon="1.28918">
        <ele>147.60000610352</ele>
        <time>2026-06-18T07:17:56.000Z</time>
      </trkpt>
      <trkpt lat="48.69915" lon="1.28914">
        <ele>147.60000610352</ele>
        <time>2026-06-18T07:17:58.000Z</time>
      </trkpt>
      <trkpt lat="48.69946" lon="1.28898">
        <ele>147.80000305176</ele>
        <time>2026-06-18T07:18:04.000Z</time>
      </trkpt>
      <trkpt lat="48.69982" lon="1.28879">
        <ele>148.19999694824</ele>
        <time>2026-06-18T07:18:11.000Z</time>
      </trkpt>
      <trkpt lat="48.70016" lon="1.28849">
        <ele>148.80000305176</ele>
        <time>2026-06-18T07:18:18.000Z</time>
      </trkpt>
      <trkpt lat="48.70021" lon="1.28845">
        <ele>148.80000305176</ele>
        <time>2026-06-18T07:18:19.000Z</time>
      </trkpt>
      <trkpt lat="48.70056" lon="1.28818">
        <ele>149.19999694824</ele>
        <time>2026-06-18T07:18:26.000Z</time>
      </trkpt>
      <trkpt lat="48.70066" lon="1.28809">
        <ele>149.19999694824</ele>
        <time>2026-06-18T07:18:28.000Z</time>
      </trkpt>
      <trkpt lat="48.70079" lon="1.28792">
        <ele>149.19999694824</ele>
        <time>2026-06-18T07:18:31.000Z</time>
      </trkpt>
      <trkpt lat="48.70083" lon="1.28786">
        <ele>149.19999694824</ele>
        <time>2026-06-18T07:18:32.000Z</time>
      </trkpt>
      <trkpt lat="48.70095" lon="1.28758">
        <ele>149.19999694824</ele>
        <time>2026-06-18T07:18:36.000Z</time>
      </trkpt>
      <trkpt lat="48.70117" lon="1.28698">
        <ele>148.80000305176</ele>
        <time>2026-06-18T07:18:44.000Z</time>
      </trkpt>
      <trkpt lat="48.70139" lon="1.28635">
        <ele>148.60000610352</ele>
        <time>2026-06-18T07:18:52.000Z</time>
      </trkpt>
      <trkpt lat="48.7016" lon="1.28571">
        <ele>148.60000610352</ele>
        <time>2026-06-18T07:19:00.000Z</time>
      </trkpt>
      <trkpt lat="48.70178" lon="1.28519">
        <ele>148.39999389648</ele>
        <time>2026-06-18T07:19:07.000Z</time>
      </trkpt>
      <trkpt lat="48.70202" lon="1.28449">
        <ele>148.39999389648</ele>
        <time>2026-06-18T07:19:16.000Z</time>
      </trkpt>
      <trkpt lat="48.70209" lon="1.28438">
        <ele>148.39999389648</ele>
        <time>2026-06-18T07:19:18.000Z</time>
      </trkpt>
      <trkpt lat="48.70218" lon="1.2843">
        <ele>148.39999389648</ele>
        <time>2026-06-18T07:19:20.000Z</time>
      </trkpt>
      <trkpt lat="48.70223" lon="1.28427">
        <ele>148.39999389648</ele>
        <time>2026-06-18T07:19:21.000Z</time>
      </trkpt>
      <trkpt lat="48.70237" lon="1.28423">
        <ele>148.39999389648</ele>
        <time>2026-06-18T07:19:24.000Z</time>
      </trkpt>
      <trkpt lat="48.70247" lon="1.28428">
        <ele>148.39999389648</ele>
        <time>2026-06-18T07:19:26.000Z</time>
      </trkpt>
      <trkpt lat="48.70251" lon="1.28433">
        <ele>148.39999389648</ele>
        <time>2026-06-18T07:19:27.000Z</time>
      </trkpt>
      <trkpt lat="48.70254" lon="1.28438">
        <ele>148.60000610352</ele>
        <time>2026-06-18T07:19:28.000Z</time>
      </trkpt>
      <trkpt lat="48.70266" lon="1.28461">
        <ele>148.60000610352</ele>
        <time>2026-06-18T07:19:32.000Z</time>
      </trkpt>
      <trkpt lat="48.7027" lon="1.28467">
        <ele>148.60000610352</ele>
        <time>2026-06-18T07:19:33.000Z</time>
      </trkpt>
      <trkpt lat="48.70278" lon="1.28474">
        <ele>148.80000305176</ele>
        <time>2026-06-18T07:19:35.000Z</time>
      </trkpt>
      <trkpt lat="48.70283" lon="1.28476">
        <ele>148.80000305176</ele>
        <time>2026-06-18T07:19:36.000Z</time>
      </trkpt>
      <trkpt lat="48.70288" lon="1.28477">
        <ele>148.80000305176</ele>
        <time>2026-06-18T07:19:37.000Z</time>
      </trkpt>
      <trkpt lat="48.70311" lon="1.28479">
        <ele>149</ele>
        <time>2026-06-18T07:19:41.000Z</time>
      </trkpt>
      <trkpt lat="48.70355" lon="1.28478">
        <ele>149</ele>
        <time>2026-06-18T07:19:48.000Z</time>
      </trkpt>
      <trkpt lat="48.70391" lon="1.28464">
        <ele>149</ele>
        <time>2026-06-18T07:19:54.000Z</time>
      </trkpt>
      <trkpt lat="48.70437" lon="1.28437">
        <ele>148.80000305176</ele>
        <time>2026-06-18T07:20:02.000Z</time>
      </trkpt>
      <trkpt lat="48.70489" lon="1.28403">
        <ele>148.80000305176</ele>
        <time>2026-06-18T07:20:11.000Z</time>
      </trkpt>
      <trkpt lat="48.70498" lon="1.28397">
        <ele>148.80000305176</ele>
        <time>2026-06-18T07:20:13.000Z</time>
      </trkpt>
      <trkpt lat="48.70552" lon="1.28361">
        <ele>148.80000305176</ele>
        <time>2026-06-18T07:20:22.000Z</time>
      </trkpt>
      <trkpt lat="48.70558" lon="1.28357">
        <ele>148.80000305176</ele>
        <time>2026-06-18T07:20:23.000Z</time>
      </trkpt>
      <trkpt lat="48.70612" lon="1.2832">
        <ele>148.60000610352</ele>
        <time>2026-06-18T07:20:32.000Z</time>
      </trkpt>
      <trkpt lat="48.7063" lon="1.28308">
        <ele>148.39999389648</ele>
        <time>2026-06-18T07:20:35.000Z</time>
      </trkpt>
      <trkpt lat="48.70682" lon="1.28273">
        <ele>148.39999389648</ele>
        <time>2026-06-18T07:20:44.000Z</time>
      </trkpt>
      <trkpt lat="48.70694" lon="1.28266">
        <ele>148.39999389648</ele>
        <time>2026-06-18T07:20:46.000Z</time>
      </trkpt>
      <trkpt lat="48.70747" lon="1.2823">
        <ele>148.39999389648</ele>
        <time>2026-06-18T07:20:55.000Z</time>
      </trkpt>
      <trkpt lat="48.70759" lon="1.28222">
        <ele>148.60000610352</ele>
        <time>2026-06-18T07:20:57.000Z</time>
      </trkpt>
      <trkpt lat="48.70811" lon="1.28187">
        <ele>148.39999389648</ele>
        <time>2026-06-18T07:21:06.000Z</time>
      </trkpt>
      <trkpt lat="48.70817" lon="1.28184">
        <ele>148.39999389648</ele>
        <time>2026-06-18T07:21:07.000Z</time>
      </trkpt>
      <trkpt lat="48.70869" lon="1.28149">
        <ele>148.60000610352</ele>
        <time>2026-06-18T07:21:16.000Z</time>
      </trkpt>
      <trkpt lat="48.70886" lon="1.28139">
        <ele>148.60000610352</ele>
        <time>2026-06-18T07:21:19.000Z</time>
      </trkpt>
      <trkpt lat="48.70939" lon="1.2811">
        <ele>148.60000610352</ele>
        <time>2026-06-18T07:21:28.000Z</time>
      </trkpt>
      <trkpt lat="48.70951" lon="1.28104">
        <ele>148.60000610352</ele>
        <time>2026-06-18T07:21:30.000Z</time>
      </trkpt>
      <trkpt lat="48.71006" lon="1.28078">
        <ele>149</ele>
        <time>2026-06-18T07:21:39.000Z</time>
      </trkpt>
      <trkpt lat="48.71018" lon="1.28075">
        <ele>148.80000305176</ele>
        <time>2026-06-18T07:21:41.000Z</time>
      </trkpt>
      <trkpt lat="48.71076" lon="1.28064">
        <ele>148.60000610352</ele>
        <time>2026-06-18T07:21:50.000Z</time>
      </trkpt>
      <trkpt lat="48.71083" lon="1.28063">
        <ele>148.39999389648</ele>
        <time>2026-06-18T07:21:51.000Z</time>
      </trkpt>
      <trkpt lat="48.7114" lon="1.28061">
        <ele>147.80000305176</ele>
        <time>2026-06-18T07:22:00.000Z</time>
      </trkpt>
      <trkpt lat="48.71147" lon="1.28061">
        <ele>148</ele>
        <time>2026-06-18T07:22:01.000Z</time>
      </trkpt>
      <trkpt lat="48.71202" lon="1.28059">
        <ele>148</ele>
        <time>2026-06-18T07:22:10.000Z</time>
      </trkpt>
      <trkpt lat="48.71208" lon="1.28058">
        <ele>148</ele>
        <time>2026-06-18T07:22:11.000Z</time>
      </trkpt>
      <trkpt lat="48.71256" lon="1.28039">
        <ele>148.19999694824</ele>
        <time>2026-06-18T07:22:19.000Z</time>
      </trkpt>
      <trkpt lat="48.71306" lon="1.28007">
        <ele>148.60000610352</ele>
        <time>2026-06-18T07:22:28.000Z</time>
      </trkpt>
      <trkpt lat="48.71316" lon="1.27999">
        <ele>148.80000305176</ele>
        <time>2026-06-18T07:22:30.000Z</time>
      </trkpt>
      <trkpt lat="48.71336" lon="1.27982">
        <ele>148.80000305176</ele>
        <time>2026-06-18T07:22:35.000Z</time>
      </trkpt>
      <trkpt lat="48.71347" lon="1.27973">
        <ele>148.80000305176</ele>
        <time>2026-06-18T07:22:40.000Z</time>
      </trkpt>
      <trkpt lat="48.71349" lon="1.27972">
        <ele>148.60000610352</ele>
        <time>2026-06-18T07:22:44.000Z</time>
      </trkpt>
      <trkpt lat="48.71353" lon="1.27966">
        <ele>148</ele>
        <time>2026-06-18T07:23:03.000Z</time>
      </trkpt>
      <trkpt lat="48.71358" lon="1.27961">
        <ele>147.80000305176</ele>
        <time>2026-06-18T07:23:05.000Z</time>
      </trkpt>
      <trkpt lat="48.71368" lon="1.27952">
        <ele>148</ele>
        <time>2026-06-18T07:23:08.000Z</time>
      </trkpt>
      <trkpt lat="48.71393" lon="1.27926">
        <ele>148</ele>
        <time>2026-06-18T07:23:14.000Z</time>
      </trkpt>
      <trkpt lat="48.7143" lon="1.2789">
        <ele>148.60000610352</ele>
        <time>2026-06-18T07:23:22.000Z</time>
      </trkpt>
      <trkpt lat="48.7145" lon="1.27872">
        <ele>149</ele>
        <time>2026-06-18T07:23:26.000Z</time>
      </trkpt>
      <trkpt lat="48.71477" lon="1.2785">
        <ele>149.19999694824</ele>
        <time>2026-06-18T07:23:31.000Z</time>
      </trkpt>
      <trkpt lat="48.71527" lon="1.27813">
        <ele>149.80000305176</ele>
        <time>2026-06-18T07:23:40.000Z</time>
      </trkpt>
      <trkpt lat="48.71539" lon="1.27806">
        <ele>149.80000305176</ele>
        <time>2026-06-18T07:23:42.000Z</time>
      </trkpt>
      <trkpt lat="48.71548" lon="1.278">
        <ele>150</ele>
        <time>2026-06-18T07:23:44.000Z</time>
      </trkpt>
      <trkpt lat="48.71599" lon="1.27768">
        <ele>150</ele>
        <time>2026-06-18T07:23:53.000Z</time>
      </trkpt>
      <trkpt lat="48.71651" lon="1.27737">
        <ele>150.19999694824</ele>
        <time>2026-06-18T07:24:02.000Z</time>
      </trkpt>
      <trkpt lat="48.71663" lon="1.2773">
        <ele>150.19999694824</ele>
        <time>2026-06-18T07:24:04.000Z</time>
      </trkpt>
      <trkpt lat="48.71717" lon="1.27699">
        <ele>150</ele>
        <time>2026-06-18T07:24:13.000Z</time>
      </trkpt>
      <trkpt lat="48.71735" lon="1.2769">
        <ele>149.80000305176</ele>
        <time>2026-06-18T07:24:16.000Z</time>
      </trkpt>
      <trkpt lat="48.71791" lon="1.27662">
        <ele>149.39999389648</ele>
        <time>2026-06-18T07:24:25.000Z</time>
      </trkpt>
      <trkpt lat="48.71824" lon="1.27644">
        <ele>149</ele>
        <time>2026-06-18T07:24:30.000Z</time>
      </trkpt>
      <trkpt lat="48.71837" lon="1.27637">
        <ele>148.80000305176</ele>
        <time>2026-06-18T07:24:32.000Z</time>
      </trkpt>
      <trkpt lat="48.71879" lon="1.2762">
        <ele>148</ele>
        <time>2026-06-18T07:24:38.000Z</time>
      </trkpt>
      <trkpt lat="48.71886" lon="1.27618">
        <ele>147.80000305176</ele>
        <time>2026-06-18T07:24:39.000Z</time>
      </trkpt>
      <trkpt lat="48.71934" lon="1.27606">
        <ele>147</ele>
        <time>2026-06-18T07:24:46.000Z</time>
      </trkpt>
      <trkpt lat="48.71947" lon="1.27602">
        <ele>146.80000305176</ele>
        <time>2026-06-18T07:24:48.000Z</time>
      </trkpt>
      <trkpt lat="48.71953" lon="1.27599">
        <ele>146.60000610352</ele>
        <time>2026-06-18T07:24:49.000Z</time>
      </trkpt>
      <trkpt lat="48.71959" lon="1.27595">
        <ele>146.60000610352</ele>
        <time>2026-06-18T07:24:50.000Z</time>
      </trkpt>
      <trkpt lat="48.71966" lon="1.2758">
        <ele>146.19999694824</ele>
        <time>2026-06-18T07:24:52.000Z</time>
      </trkpt>
      <trkpt lat="48.71968" lon="1.27571">
        <ele>146</ele>
        <time>2026-06-18T07:24:53.000Z</time>
      </trkpt>
      <trkpt lat="48.71973" lon="1.2755">
        <ele>145.80000305176</ele>
        <time>2026-06-18T07:24:55.000Z</time>
      </trkpt>
      <trkpt lat="48.71975" lon="1.2754">
        <ele>145.60000610352</ele>
        <time>2026-06-18T07:24:56.000Z</time>
      </trkpt>
      <trkpt lat="48.71983" lon="1.27519">
        <ele>145.39999389648</ele>
        <time>2026-06-18T07:24:58.000Z</time>
      </trkpt>
      <trkpt lat="48.72008" lon="1.27453">
        <ele>144.60000610352</ele>
        <time>2026-06-18T07:25:04.000Z</time>
      </trkpt>
      <trkpt lat="48.72026" lon="1.27409">
        <ele>143.60000610352</ele>
        <time>2026-06-18T07:25:08.000Z</time>
      </trkpt>
      <trkpt lat="48.72039" lon="1.2738">
        <ele>143.19999694824</ele>
        <time>2026-06-18T07:25:11.000Z</time>
      </trkpt>
      <trkpt lat="48.72069" lon="1.27321">
        <ele>142.60000610352</ele>
        <time>2026-06-18T07:25:17.000Z</time>
      </trkpt>
      <trkpt lat="48.72075" lon="1.27313">
        <ele>142.60000610352</ele>
        <time>2026-06-18T07:25:18.000Z</time>
      </trkpt>
      <trkpt lat="48.72093" lon="1.27294">
        <ele>142.60000610352</ele>
        <time>2026-06-18T07:25:21.000Z</time>
      </trkpt>
      <trkpt lat="48.72106" lon="1.27284">
        <ele>142.80000305176</ele>
        <time>2026-06-18T07:25:23.000Z</time>
      </trkpt>
      <trkpt lat="48.72155" lon="1.27254">
        <ele>144.80000305176</ele>
        <time>2026-06-18T07:25:31.000Z</time>
      </trkpt>
      <trkpt lat="48.72161" lon="1.2725">
        <ele>145</ele>
        <time>2026-06-18T07:25:32.000Z</time>
      </trkpt>
      <trkpt lat="48.72184" lon="1.27234">
        <ele>146</ele>
        <time>2026-06-18T07:25:36.000Z</time>
      </trkpt>
      <trkpt lat="48.72199" lon="1.27218">
        <ele>146.39999389648</ele>
        <time>2026-06-18T07:25:39.000Z</time>
      </trkpt>
      <trkpt lat="48.72234" lon="1.27175">
        <ele>147</ele>
        <time>2026-06-18T07:25:46.000Z</time>
      </trkpt>
      <trkpt lat="48.72248" lon="1.27157">
        <ele>147.19999694824</ele>
        <time>2026-06-18T07:25:49.000Z</time>
      </trkpt>
      <trkpt lat="48.72291" lon="1.27104">
        <ele>147.80000305176</ele>
        <time>2026-06-18T07:25:58.000Z</time>
      </trkpt>
      <trkpt lat="48.72306" lon="1.27086">
        <ele>147.80000305176</ele>
        <time>2026-06-18T07:26:01.000Z</time>
      </trkpt>
      <trkpt lat="48.72345" lon="1.27036">
        <ele>148.19999694824</ele>
        <time>2026-06-18T07:26:09.000Z</time>
      </trkpt>
      <trkpt lat="48.72355" lon="1.27022">
        <ele>148.39999389648</ele>
        <time>2026-06-18T07:26:11.000Z</time>
      </trkpt>
      <trkpt lat="48.72397" lon="1.26958">
        <ele>148.39999389648</ele>
        <time>2026-06-18T07:26:20.000Z</time>
      </trkpt>
      <trkpt lat="48.72402" lon="1.26951">
        <ele>148.39999389648</ele>
        <time>2026-06-18T07:26:21.000Z</time>
      </trkpt>
      <trkpt lat="48.72441" lon="1.26886">
        <ele>148.60000610352</ele>
        <time>2026-06-18T07:26:30.000Z</time>
      </trkpt>
      <trkpt lat="48.72453" lon="1.26866">
        <ele>148.60000610352</ele>
        <time>2026-06-18T07:26:33.000Z</time>
      </trkpt>
      <trkpt lat="48.72494" lon="1.26802">
        <ele>148.80000305176</ele>
        <time>2026-06-18T07:26:43.000Z</time>
      </trkpt>
      <trkpt lat="48.72498" lon="1.26796">
        <ele>148.80000305176</ele>
        <time>2026-06-18T07:26:44.000Z</time>
      </trkpt>
      <trkpt lat="48.7253" lon="1.26748">
        <ele>149.19999694824</ele>
        <time>2026-06-18T07:26:51.000Z</time>
      </trkpt>
      <trkpt lat="48.72534" lon="1.26741">
        <ele>149.19999694824</ele>
        <time>2026-06-18T07:26:52.000Z</time>
      </trkpt>
      <trkpt lat="48.72574" lon="1.26684">
        <ele>149.60000610352</ele>
        <time>2026-06-18T07:27:01.000Z</time>
      </trkpt>
      <trkpt lat="48.72589" lon="1.26666">
        <ele>149.60000610352</ele>
        <time>2026-06-18T07:27:04.000Z</time>
      </trkpt>
      <trkpt lat="48.72627" lon="1.26633">
        <ele>149.60000610352</ele>
        <time>2026-06-18T07:27:11.000Z</time>
      </trkpt>
      <trkpt lat="48.72673" lon="1.26617">
        <ele>149.39999389648</ele>
        <time>2026-06-18T07:27:18.000Z</time>
      </trkpt>
      <trkpt lat="48.72711" lon="1.26605">
        <ele>149.19999694824</ele>
        <time>2026-06-18T07:27:24.000Z</time>
      </trkpt>
      <trkpt lat="48.72731" lon="1.266">
        <ele>149.19999694824</ele>
        <time>2026-06-18T07:27:27.000Z</time>
      </trkpt>
      <trkpt lat="48.72789" lon="1.26583">
        <ele>148.60000610352</ele>
        <time>2026-06-18T07:27:36.000Z</time>
      </trkpt>
      <trkpt lat="48.72807" lon="1.26577">
        <ele>148.19999694824</ele>
        <time>2026-06-18T07:27:39.000Z</time>
      </trkpt>
      <trkpt lat="48.72814" lon="1.26575">
        <ele>148.19999694824</ele>
        <time>2026-06-18T07:27:40.000Z</time>
      </trkpt>
      <trkpt lat="48.7286" lon="1.26565">
        <ele>147.39999389648</ele>
        <time>2026-06-18T07:27:48.000Z</time>
      </trkpt>
      <trkpt lat="48.72872" lon="1.26562">
        <ele>147</ele>
        <time>2026-06-18T07:27:51.000Z</time>
      </trkpt>
      <trkpt lat="48.72875" lon="1.26558">
        <ele>147</ele>
        <time>2026-06-18T07:27:52.000Z</time>
      </trkpt>
      <trkpt lat="48.72877" lon="1.26553">
        <ele>147</ele>
        <time>2026-06-18T07:27:53.000Z</time>
      </trkpt>
      <trkpt lat="48.72875" lon="1.26522">
        <ele>146.60000610352</ele>
        <time>2026-06-18T07:27:57.000Z</time>
      </trkpt>
      <trkpt lat="48.72866" lon="1.26459">
        <ele>146.80000305176</ele>
        <time>2026-06-18T07:28:04.000Z</time>
      </trkpt>
      <trkpt lat="48.72851" lon="1.26375">
        <ele>147</ele>
        <time>2026-06-18T07:28:13.000Z</time>
      </trkpt>
      <trkpt lat="48.72839" lon="1.26314">
        <ele>147</ele>
        <time>2026-06-18T07:28:20.000Z</time>
      </trkpt>
      <trkpt lat="48.72822" lon="1.26232">
        <ele>147.39999389648</ele>
        <time>2026-06-18T07:28:30.000Z</time>
      </trkpt>
      <trkpt lat="48.7282" lon="1.26225">
        <ele>147.39999389648</ele>
        <time>2026-06-18T07:28:31.000Z</time>
      </trkpt>
      <trkpt lat="48.7282" lon="1.26213">
        <ele>147.39999389648</ele>
        <time>2026-06-18T07:28:33.000Z</time>
      </trkpt>
      <trkpt lat="48.72822" lon="1.26208">
        <ele>147.60000610352</ele>
        <time>2026-06-18T07:28:34.000Z</time>
      </trkpt>
      <trkpt lat="48.72825" lon="1.26203">
        <ele>147.60000610352</ele>
        <time>2026-06-18T07:28:35.000Z</time>
      </trkpt>
      <trkpt lat="48.72834" lon="1.26198">
        <ele>147.60000610352</ele>
        <time>2026-06-18T07:28:37.000Z</time>
      </trkpt>
      <trkpt lat="48.72838" lon="1.26196">
        <ele>147.80000305176</ele>
        <time>2026-06-18T07:28:38.000Z</time>
      </trkpt>
      <trkpt lat="48.72861" lon="1.26189">
        <ele>147.80000305176</ele>
        <time>2026-06-18T07:28:42.000Z</time>
      </trkpt>
      <trkpt lat="48.72887" lon="1.26182">
        <ele>148.19999694824</ele>
        <time>2026-06-18T07:28:47.000Z</time>
      </trkpt>
      <trkpt lat="48.72891" lon="1.26181">
        <ele>148.39999389648</ele>
        <time>2026-06-18T07:28:48.000Z</time>
      </trkpt>
      <trkpt lat="48.72902" lon="1.26173">
        <ele>148.60000610352</ele>
        <time>2026-06-18T07:28:52.000Z</time>
      </trkpt>
      <trkpt lat="48.7291" lon="1.26146">
        <ele>148.80000305176</ele>
        <time>2026-06-18T07:28:57.000Z</time>
      </trkpt>
      <trkpt lat="48.72919" lon="1.26138">
        <ele>148.80000305176</ele>
        <time>2026-06-18T07:28:59.000Z</time>
      </trkpt>
      <trkpt lat="48.72933" lon="1.26132">
        <ele>149.19999694824</ele>
        <time>2026-06-18T07:29:02.000Z</time>
      </trkpt>
      <trkpt lat="48.72949" lon="1.26125">
        <ele>149.39999389648</ele>
        <time>2026-06-18T07:29:05.000Z</time>
      </trkpt>
      <trkpt lat="48.72966" lon="1.26116">
        <ele>149.39999389648</ele>
        <time>2026-06-18T07:29:08.000Z</time>
      </trkpt>
      <trkpt lat="48.7302" lon="1.26087">
        <ele>149.60000610352</ele>
        <time>2026-06-18T07:29:17.000Z</time>
      </trkpt>
      <trkpt lat="48.73068" lon="1.26061">
        <ele>149.60000610352</ele>
        <time>2026-06-18T07:29:25.000Z</time>
      </trkpt>
      <trkpt lat="48.7312" lon="1.26036">
        <ele>149.39999389648</ele>
        <time>2026-06-18T07:29:33.000Z</time>
      </trkpt>
      <trkpt lat="48.73126" lon="1.26033">
        <ele>149.39999389648</ele>
        <time>2026-06-18T07:29:34.000Z</time>
      </trkpt>
      <trkpt lat="48.73186" lon="1.26017">
        <ele>148.60000610352</ele>
        <time>2026-06-18T07:29:43.000Z</time>
      </trkpt>
      <trkpt lat="48.732" lon="1.26014">
        <ele>148.19999694824</ele>
        <time>2026-06-18T07:29:45.000Z</time>
      </trkpt>
      <trkpt lat="48.7325" lon="1.26004">
        <ele>147.80000305176</ele>
        <time>2026-06-18T07:29:52.000Z</time>
      </trkpt>
      <trkpt lat="48.7329" lon="1.25998">
        <ele>147.19999694824</ele>
        <time>2026-06-18T07:29:58.000Z</time>
      </trkpt>
      <trkpt lat="48.73297" lon="1.25997">
        <ele>147.19999694824</ele>
        <time>2026-06-18T07:29:59.000Z</time>
      </trkpt>
      <trkpt lat="48.73355" lon="1.25985">
        <ele>146.39999389648</ele>
        <time>2026-06-18T07:30:08.000Z</time>
      </trkpt>
      <trkpt lat="48.73369" lon="1.25982">
        <ele>146.39999389648</ele>
        <time>2026-06-18T07:30:10.000Z</time>
      </trkpt>
      <trkpt lat="48.73423" lon="1.2597">
        <ele>146.19999694824</ele>
        <time>2026-06-18T07:30:18.000Z</time>
      </trkpt>
      <trkpt lat="48.73435" lon="1.25968">
        <ele>146.19999694824</ele>
        <time>2026-06-18T07:30:20.000Z</time>
      </trkpt>
      <trkpt lat="48.73495" lon="1.25955">
        <ele>146.19999694824</ele>
        <time>2026-06-18T07:30:29.000Z</time>
      </trkpt>
      <trkpt lat="48.73514" lon="1.25951">
        <ele>146.39999389648</ele>
        <time>2026-06-18T07:30:32.000Z</time>
      </trkpt>
      <trkpt lat="48.73552" lon="1.25949">
        <ele>146.39999389648</ele>
        <time>2026-06-18T07:30:38.000Z</time>
      </trkpt>
      <trkpt lat="48.73565" lon="1.25953">
        <ele>146.39999389648</ele>
        <time>2026-06-18T07:30:40.000Z</time>
      </trkpt>
      <trkpt lat="48.73584" lon="1.25964">
        <ele>146.60000610352</ele>
        <time>2026-06-18T07:30:43.000Z</time>
      </trkpt>
      <trkpt lat="48.73636" lon="1.26">
        <ele>147.60000610352</ele>
        <time>2026-06-18T07:30:52.000Z</time>
      </trkpt>
      <trkpt lat="48.73643" lon="1.26003">
        <ele>147.60000610352</ele>
        <time>2026-06-18T07:30:53.000Z</time>
      </trkpt>
      <trkpt lat="48.73686" lon="1.26017">
        <ele>148</ele>
        <time>2026-06-18T07:31:00.000Z</time>
      </trkpt>
      <trkpt lat="48.73722" lon="1.26017">
        <ele>148.19999694824</ele>
        <time>2026-06-18T07:31:06.000Z</time>
      </trkpt>
      <trkpt lat="48.7374" lon="1.26016">
        <ele>148.39999389648</ele>
        <time>2026-06-18T07:31:09.000Z</time>
      </trkpt>
      <trkpt lat="48.73785" lon="1.26001">
        <ele>148.60000610352</ele>
        <time>2026-06-18T07:31:17.000Z</time>
      </trkpt>
      <trkpt lat="48.73822" lon="1.25977">
        <ele>149.19999694824</ele>
        <time>2026-06-18T07:31:24.000Z</time>
      </trkpt>
      <trkpt lat="48.73827" lon="1.25973">
        <ele>149.39999389648</ele>
        <time>2026-06-18T07:31:25.000Z</time>
      </trkpt>
      <trkpt lat="48.73879" lon="1.25933">
        <ele>150</ele>
        <time>2026-06-18T07:31:35.000Z</time>
      </trkpt>
      <trkpt lat="48.73884" lon="1.25929">
        <ele>150</ele>
        <time>2026-06-18T07:31:36.000Z</time>
      </trkpt>
      <trkpt lat="48.73933" lon="1.25891">
        <ele>150</ele>
        <time>2026-06-18T07:31:45.000Z</time>
      </trkpt>
      <trkpt lat="48.73944" lon="1.25883">
        <ele>150.19999694824</ele>
        <time>2026-06-18T07:31:47.000Z</time>
      </trkpt>
      <trkpt lat="48.73993" lon="1.25847">
        <ele>150.19999694824</ele>
        <time>2026-06-18T07:31:56.000Z</time>
      </trkpt>
      <trkpt lat="48.74014" lon="1.2583">
        <ele>150.39999389648</ele>
        <time>2026-06-18T07:32:00.000Z</time>
      </trkpt>
      <trkpt lat="48.74064" lon="1.25788">
        <ele>150.80000305176</ele>
        <time>2026-06-18T07:32:09.000Z</time>
      </trkpt>
      <trkpt lat="48.74074" lon="1.25777">
        <ele>151</ele>
        <time>2026-06-18T07:32:11.000Z</time>
      </trkpt>
      <trkpt lat="48.74119" lon="1.25726">
        <ele>151</ele>
        <time>2026-06-18T07:32:20.000Z</time>
      </trkpt>
      <trkpt lat="48.74133" lon="1.25709">
        <ele>151</ele>
        <time>2026-06-18T07:32:23.000Z</time>
      </trkpt>
      <trkpt lat="48.74173" lon="1.25659">
        <ele>150.60000610352</ele>
        <time>2026-06-18T07:32:32.000Z</time>
      </trkpt>
      <trkpt lat="48.74216" lon="1.25605">
        <ele>150</ele>
        <time>2026-06-18T07:32:41.000Z</time>
      </trkpt>
      <trkpt lat="48.74225" lon="1.25596">
        <ele>150</ele>
        <time>2026-06-18T07:32:43.000Z</time>
      </trkpt>
      <trkpt lat="48.7427" lon="1.25541">
        <ele>149.80000305176</ele>
        <time>2026-06-18T07:32:51.000Z</time>
      </trkpt>
      <trkpt lat="48.74276" lon="1.25534">
        <ele>149.80000305176</ele>
        <time>2026-06-18T07:32:52.000Z</time>
      </trkpt>
      <trkpt lat="48.74321" lon="1.25483">
        <ele>149.39999389648</ele>
        <time>2026-06-18T07:33:00.000Z</time>
      </trkpt>
      <trkpt lat="48.74332" lon="1.2547">
        <ele>149.39999389648</ele>
        <time>2026-06-18T07:33:02.000Z</time>
      </trkpt>
      <trkpt lat="48.74378" lon="1.2542">
        <ele>148.80000305176</ele>
        <time>2026-06-18T07:33:10.000Z</time>
      </trkpt>
      <trkpt lat="48.74396" lon="1.25401">
        <ele>148.60000610352</ele>
        <time>2026-06-18T07:33:13.000Z</time>
      </trkpt>
      <trkpt lat="48.74403" lon="1.25395">
        <ele>148.39999389648</ele>
        <time>2026-06-18T07:33:14.000Z</time>
      </trkpt>
      <trkpt lat="48.74454" lon="1.25351">
        <ele>147.60000610352</ele>
        <time>2026-06-18T07:33:22.000Z</time>
      </trkpt>
      <trkpt lat="48.74461" lon="1.25345">
        <ele>147.39999389648</ele>
        <time>2026-06-18T07:33:23.000Z</time>
      </trkpt>
      <trkpt lat="48.74467" lon="1.2534">
        <ele>147.39999389648</ele>
        <time>2026-06-18T07:33:24.000Z</time>
      </trkpt>
      <trkpt lat="48.74519" lon="1.25302">
        <ele>146.80000305176</ele>
        <time>2026-06-18T07:33:32.000Z</time>
      </trkpt>
      <trkpt lat="48.74525" lon="1.25297">
        <ele>146.80000305176</ele>
        <time>2026-06-18T07:33:33.000Z</time>
      </trkpt>
      <trkpt lat="48.74561" lon="1.25273">
        <ele>146.60000610352</ele>
        <time>2026-06-18T07:33:39.000Z</time>
      </trkpt>
      <trkpt lat="48.74617" lon="1.2524">
        <ele>147.19999694824</ele>
        <time>2026-06-18T07:33:48.000Z</time>
      </trkpt>
      <trkpt lat="48.74623" lon="1.25237">
        <ele>147.19999694824</ele>
        <time>2026-06-18T07:33:49.000Z</time>
      </trkpt>
      <trkpt lat="48.74675" lon="1.25213">
        <ele>147.19999694824</ele>
        <time>2026-06-18T07:33:57.000Z</time>
      </trkpt>
      <trkpt lat="48.74682" lon="1.2521">
        <ele>147.19999694824</ele>
        <time>2026-06-18T07:33:58.000Z</time>
      </trkpt>
      <trkpt lat="48.74734" lon="1.25185">
        <ele>147</ele>
        <time>2026-06-18T07:34:06.000Z</time>
      </trkpt>
      <trkpt lat="48.74748" lon="1.25179">
        <ele>147</ele>
        <time>2026-06-18T07:34:08.000Z</time>
      </trkpt>
      <trkpt lat="48.74794" lon="1.25161">
        <ele>146.39999389648</ele>
        <time>2026-06-18T07:34:15.000Z</time>
      </trkpt>
      <trkpt lat="48.74821" lon="1.25152">
        <ele>146.19999694824</ele>
        <time>2026-06-18T07:34:19.000Z</time>
      </trkpt>
      <trkpt lat="48.74877" lon="1.25136">
        <ele>145.39999389648</ele>
        <time>2026-06-18T07:34:27.000Z</time>
      </trkpt>
      <trkpt lat="48.7489" lon="1.25132">
        <ele>145.19999694824</ele>
        <time>2026-06-18T07:34:29.000Z</time>
      </trkpt>
      <trkpt lat="48.74944" lon="1.25115">
        <ele>145</ele>
        <time>2026-06-18T07:34:37.000Z</time>
      </trkpt>
      <trkpt lat="48.74957" lon="1.25109">
        <ele>145</ele>
        <time>2026-06-18T07:34:39.000Z</time>
      </trkpt>
      <trkpt lat="48.74994" lon="1.25083">
        <ele>145.19999694824</ele>
        <time>2026-06-18T07:34:45.000Z</time>
      </trkpt>
      <trkpt lat="48.7502" lon="1.25049">
        <ele>145.39999389648</ele>
        <time>2026-06-18T07:34:50.000Z</time>
      </trkpt>
      <trkpt lat="48.75059" lon="1.24991">
        <ele>145.19999694824</ele>
        <time>2026-06-18T07:34:58.000Z</time>
      </trkpt>
      <trkpt lat="48.75064" lon="1.24984">
        <ele>145</ele>
        <time>2026-06-18T07:34:59.000Z</time>
      </trkpt>
      <trkpt lat="48.75094" lon="1.24952">
        <ele>144.80000305176</ele>
        <time>2026-06-18T07:35:05.000Z</time>
      </trkpt>
      <trkpt lat="48.75126" lon="1.24931">
        <ele>144.39999389648</ele>
        <time>2026-06-18T07:35:11.000Z</time>
      </trkpt>
      <trkpt lat="48.75133" lon="1.2493">
        <ele>144.39999389648</ele>
        <time>2026-06-18T07:35:12.000Z</time>
      </trkpt>
      <trkpt lat="48.75156" lon="1.24924">
        <ele>144.39999389648</ele>
        <time>2026-06-18T07:35:16.000Z</time>
      </trkpt>
      <trkpt lat="48.75168" lon="1.24919">
        <ele>144.39999389648</ele>
        <time>2026-06-18T07:35:18.000Z</time>
      </trkpt>
      <trkpt lat="48.75179" lon="1.24908">
        <ele>144.60000610352</ele>
        <time>2026-06-18T07:35:20.000Z</time>
      </trkpt>
      <trkpt lat="48.75185" lon="1.24902">
        <ele>144.60000610352</ele>
        <time>2026-06-18T07:35:21.000Z</time>
      </trkpt>
      <trkpt lat="48.75191" lon="1.24896">
        <ele>144.19999694824</ele>
        <time>2026-06-18T07:35:22.000Z</time>
      </trkpt>
      <trkpt lat="48.75231" lon="1.24851">
        <ele>144.19999694824</ele>
        <time>2026-06-18T07:35:29.000Z</time>
      </trkpt>
      <trkpt lat="48.75264" lon="1.24807">
        <ele>144</ele>
        <time>2026-06-18T07:35:36.000Z</time>
      </trkpt>
      <trkpt lat="48.75292" lon="1.24765">
        <ele>144.19999694824</ele>
        <time>2026-06-18T07:35:43.000Z</time>
      </trkpt>
      <trkpt lat="48.75327" lon="1.24711">
        <ele>144.60000610352</ele>
        <time>2026-06-18T07:35:51.000Z</time>
      </trkpt>
      <trkpt lat="48.75361" lon="1.24637">
        <ele>145</ele>
        <time>2026-06-18T07:36:01.000Z</time>
      </trkpt>
      <trkpt lat="48.75369" lon="1.24625">
        <ele>145</ele>
        <time>2026-06-18T07:36:03.000Z</time>
      </trkpt>
      <trkpt lat="48.75379" lon="1.24616">
        <ele>145</ele>
        <time>2026-06-18T07:36:05.000Z</time>
      </trkpt>
      <trkpt lat="48.7539" lon="1.24609">
        <ele>144.80000305176</ele>
        <time>2026-06-18T07:36:07.000Z</time>
      </trkpt>
      <trkpt lat="48.75405" lon="1.24605">
        <ele>144.80000305176</ele>
        <time>2026-06-18T07:36:10.000Z</time>
      </trkpt>
      <trkpt lat="48.75447" lon="1.24591">
        <ele>144.60000610352</ele>
        <time>2026-06-18T07:36:18.000Z</time>
      </trkpt>
      <trkpt lat="48.75483" lon="1.24582">
        <ele>144.39999389648</ele>
        <time>2026-06-18T07:36:24.000Z</time>
      </trkpt>
      <trkpt lat="48.75489" lon="1.24583">
        <ele>144.39999389648</ele>
        <time>2026-06-18T07:36:25.000Z</time>
      </trkpt>
      <trkpt lat="48.75495" lon="1.24587">
        <ele>144.19999694824</ele>
        <time>2026-06-18T07:36:26.000Z</time>
      </trkpt>
      <trkpt lat="48.75511" lon="1.24602">
        <ele>143.60000610352</ele>
        <time>2026-06-18T07:36:29.000Z</time>
      </trkpt>
      <trkpt lat="48.75516" lon="1.24605">
        <ele>143.19999694824</ele>
        <time>2026-06-18T07:36:30.000Z</time>
      </trkpt>
      <trkpt lat="48.75527" lon="1.2461">
        <ele>143.19999694824</ele>
        <time>2026-06-18T07:36:32.000Z</time>
      </trkpt>
      <trkpt lat="48.75532" lon="1.24611">
        <ele>143</ele>
        <time>2026-06-18T07:36:33.000Z</time>
      </trkpt>
      <trkpt lat="48.75553" lon="1.24619">
        <ele>143</ele>
        <time>2026-06-18T07:36:37.000Z</time>
      </trkpt>
      <trkpt lat="48.75563" lon="1.24626">
        <ele>143</ele>
        <time>2026-06-18T07:36:39.000Z</time>
      </trkpt>
      <trkpt lat="48.75572" lon="1.24637">
        <ele>143</ele>
        <time>2026-06-18T07:36:41.000Z</time>
      </trkpt>
      <trkpt lat="48.75578" lon="1.24653">
        <ele>143.19999694824</ele>
        <time>2026-06-18T07:36:43.000Z</time>
      </trkpt>
      <trkpt lat="48.75586" lon="1.24665">
        <ele>143.19999694824</ele>
        <time>2026-06-18T07:36:45.000Z</time>
      </trkpt>
      <trkpt lat="48.75591" lon="1.24667">
        <ele>143.19999694824</ele>
        <time>2026-06-18T07:36:46.000Z</time>
      </trkpt>
      <trkpt lat="48.75596" lon="1.24665">
        <ele>143.19999694824</ele>
        <time>2026-06-18T07:36:47.000Z</time>
      </trkpt>
      <trkpt lat="48.75606" lon="1.24655">
        <ele>143.39999389648</ele>
        <time>2026-06-18T07:36:49.000Z</time>
      </trkpt>
      <trkpt lat="48.75622" lon="1.24618">
        <ele>143.39999389648</ele>
        <time>2026-06-18T07:36:54.000Z</time>
      </trkpt>
      <trkpt lat="48.75631" lon="1.24607">
        <ele>143.60000610352</ele>
        <time>2026-06-18T07:36:56.000Z</time>
      </trkpt>
      <trkpt lat="48.75641" lon="1.246">
        <ele>143.60000610352</ele>
        <time>2026-06-18T07:36:58.000Z</time>
      </trkpt>
      <trkpt lat="48.75673" lon="1.24569">
        <ele>143.39999389648</ele>
        <time>2026-06-18T07:37:04.000Z</time>
      </trkpt>
      <trkpt lat="48.75682" lon="1.24556">
        <ele>143.39999389648</ele>
        <time>2026-06-18T07:37:06.000Z</time>
      </trkpt>
      <trkpt lat="48.75697" lon="1.24534">
        <ele>143.19999694824</ele>
        <time>2026-06-18T07:37:09.000Z</time>
      </trkpt>
      <trkpt lat="48.75708" lon="1.24524">
        <ele>143.19999694824</ele>
        <time>2026-06-18T07:37:11.000Z</time>
      </trkpt>
      <trkpt lat="48.75722" lon="1.24518">
        <ele>143</ele>
        <time>2026-06-18T07:37:13.000Z</time>
      </trkpt>
      <trkpt lat="48.75757" lon="1.2451">
        <ele>142.19999694824</ele>
        <time>2026-06-18T07:37:18.000Z</time>
      </trkpt>
      <trkpt lat="48.75771" lon="1.24509">
        <ele>142</ele>
        <time>2026-06-18T07:37:20.000Z</time>
      </trkpt>
      <trkpt lat="48.75792" lon="1.24512">
        <ele>141</ele>
        <time>2026-06-18T07:37:23.000Z</time>
      </trkpt>
      <trkpt lat="48.75805" lon="1.24516">
        <ele>140.60000610352</ele>
        <time>2026-06-18T07:37:25.000Z</time>
      </trkpt>
      <trkpt lat="48.75811" lon="1.24517">
        <ele>140.19999694824</ele>
        <time>2026-06-18T07:37:26.000Z</time>
      </trkpt>
      <trkpt lat="48.75817" lon="1.24516">
        <ele>139</ele>
        <time>2026-06-18T07:37:27.000Z</time>
      </trkpt>
      <trkpt lat="48.75822" lon="1.24513">
        <ele>138.60000610352</ele>
        <time>2026-06-18T07:37:28.000Z</time>
      </trkpt>
      <trkpt lat="48.75826" lon="1.24509">
        <ele>138</ele>
        <time>2026-06-18T07:37:29.000Z</time>
      </trkpt>
      <trkpt lat="48.75829" lon="1.24504">
        <ele>137.80000305176</ele>
        <time>2026-06-18T07:37:30.000Z</time>
      </trkpt>
      <trkpt lat="48.75831" lon="1.245">
        <ele>136.80000305176</ele>
        <time>2026-06-18T07:37:31.000Z</time>
      </trkpt>
      <trkpt lat="48.75836" lon="1.24492">
        <ele>135.39999389648</ele>
        <time>2026-06-18T07:37:34.000Z</time>
      </trkpt>
      <trkpt lat="48.75836" lon="1.24491">
        <ele>135.19999694824</ele>
        <time>2026-06-18T07:37:35.000Z</time>
      </trkpt>
      <trkpt lat="48.75837" lon="1.2449">
        <ele>134.19999694824</ele>
        <time>2026-06-18T07:37:37.000Z</time>
      </trkpt>
      <trkpt lat="48.75837" lon="1.2449">
        <ele>133.19999694824</ele>
        <time>2026-06-18T07:37:40.000Z</time>
      </trkpt>
      <trkpt lat="48.75837" lon="1.2449">
        <ele>132.80000305176</ele>
        <time>2026-06-18T07:37:41.000Z</time>
      </trkpt>
      <trkpt lat="48.75841" lon="1.24484">
        <ele>132</ele>
        <time>2026-06-18T07:38:02.000Z</time>
      </trkpt>
      <trkpt lat="48.75855" lon="1.24464">
        <ele>132</ele>
        <time>2026-06-18T07:38:06.000Z</time>
      </trkpt>
      <trkpt lat="48.75864" lon="1.24452">
        <ele>131.60000610352</ele>
        <time>2026-06-18T07:38:08.000Z</time>
      </trkpt>
      <trkpt lat="48.75871" lon="1.24436">
        <ele>131.19999694824</ele>
        <time>2026-06-18T07:38:10.000Z</time>
      </trkpt>
      <trkpt lat="48.75874" lon="1.24428">
        <ele>131</ele>
        <time>2026-06-18T07:38:11.000Z</time>
      </trkpt>
      <trkpt lat="48.75877" lon="1.24419">
        <ele>130.60000610352</ele>
        <time>2026-06-18T07:38:12.000Z</time>
      </trkpt>
      <trkpt lat="48.75889" lon="1.2437">
        <ele>129.19999694824</ele>
        <time>2026-06-18T07:38:17.000Z</time>
      </trkpt>
      <trkpt lat="48.75892" lon="1.24361">
        <ele>129</ele>
        <time>2026-06-18T07:38:18.000Z</time>
      </trkpt>
      <trkpt lat="48.75902" lon="1.24324">
        <ele>128.19999694824</ele>
        <time>2026-06-18T07:38:22.000Z</time>
      </trkpt>
      <trkpt lat="48.75916" lon="1.24273">
        <ele>126.80000305176</ele>
        <time>2026-06-18T07:38:27.000Z</time>
      </trkpt>
      <trkpt lat="48.7592" lon="1.24262">
        <ele>126.59999847412</ele>
        <time>2026-06-18T07:38:28.000Z</time>
      </trkpt>
      <trkpt lat="48.75932" lon="1.24217">
        <ele>125.80000305176</ele>
        <time>2026-06-18T07:38:32.000Z</time>
      </trkpt>
      <trkpt lat="48.75942" lon="1.24185">
        <ele>124.80000305176</ele>
        <time>2026-06-18T07:38:35.000Z</time>
      </trkpt>
      <trkpt lat="48.75945" lon="1.24175">
        <ele>124.40000152588</ele>
        <time>2026-06-18T07:38:36.000Z</time>
      </trkpt>
      <trkpt lat="48.75957" lon="1.24131">
        <ele>123.19999694824</ele>
        <time>2026-06-18T07:38:40.000Z</time>
      </trkpt>
      <trkpt lat="48.7597" lon="1.24083">
        <ele>122</ele>
        <time>2026-06-18T07:38:44.000Z</time>
      </trkpt>
      <trkpt lat="48.75984" lon="1.24035">
        <ele>121</ele>
        <time>2026-06-18T07:38:48.000Z</time>
      </trkpt>
      <trkpt lat="48.7599" lon="1.24012">
        <ele>119.80000305176</ele>
        <time>2026-06-18T07:38:50.000Z</time>
      </trkpt>
      <trkpt lat="48.75999" lon="1.2398">
        <ele>118.59999847412</ele>
        <time>2026-06-18T07:38:53.000Z</time>
      </trkpt>
      <trkpt lat="48.76003" lon="1.2396">
        <ele>117.80000305176</ele>
        <time>2026-06-18T07:38:55.000Z</time>
      </trkpt>
      <trkpt lat="48.76005" lon="1.23951">
        <ele>117.19999694824</ele>
        <time>2026-06-18T07:38:56.000Z</time>
      </trkpt>
      <trkpt lat="48.76009" lon="1.23931">
        <ele>116.59999847412</ele>
        <time>2026-06-18T07:38:58.000Z</time>
      </trkpt>
      <trkpt lat="48.76016" lon="1.23915">
        <ele>116</ele>
        <time>2026-06-18T07:39:00.000Z</time>
      </trkpt>
      <trkpt lat="48.76021" lon="1.23908">
        <ele>116</ele>
        <time>2026-06-18T07:39:01.000Z</time>
      </trkpt>
      <trkpt lat="48.76025" lon="1.23899">
        <ele>115.59999847412</ele>
        <time>2026-06-18T07:39:02.000Z</time>
      </trkpt>
      <trkpt lat="48.76028" lon="1.23881">
        <ele>115.40000152588</ele>
        <time>2026-06-18T07:39:04.000Z</time>
      </trkpt>
      <trkpt lat="48.76029" lon="1.23859">
        <ele>115.40000152588</ele>
        <time>2026-06-18T07:39:06.000Z</time>
      </trkpt>
      <trkpt lat="48.76033" lon="1.23837">
        <ele>115.19999694824</ele>
        <time>2026-06-18T07:39:08.000Z</time>
      </trkpt>
      <trkpt lat="48.76037" lon="1.23827">
        <ele>115</ele>
        <time>2026-06-18T07:39:09.000Z</time>
      </trkpt>
      <trkpt lat="48.76053" lon="1.23776">
        <ele>115</ele>
        <time>2026-06-18T07:39:14.000Z</time>
      </trkpt>
      <trkpt lat="48.76064" lon="1.23731">
        <ele>115.19999694824</ele>
        <time>2026-06-18T07:39:19.000Z</time>
      </trkpt>
      <trkpt lat="48.76068" lon="1.23715">
        <ele>115.40000152588</ele>
        <time>2026-06-18T07:39:21.000Z</time>
      </trkpt>
      <trkpt lat="48.76075" lon="1.23692">
        <ele>115.59999847412</ele>
        <time>2026-06-18T07:39:24.000Z</time>
      </trkpt>
      <trkpt lat="48.76079" lon="1.23679">
        <ele>115.80000305176</ele>
        <time>2026-06-18T07:39:26.000Z</time>
      </trkpt>
      <trkpt lat="48.76083" lon="1.23675">
        <ele>116</ele>
        <time>2026-06-18T07:39:27.000Z</time>
      </trkpt>
      <trkpt lat="48.76087" lon="1.23672">
        <ele>116</ele>
        <time>2026-06-18T07:39:28.000Z</time>
      </trkpt>
      <trkpt lat="48.76092" lon="1.23673">
        <ele>116.19999694824</ele>
        <time>2026-06-18T07:39:29.000Z</time>
      </trkpt>
      <trkpt lat="48.76096" lon="1.23676">
        <ele>116.19999694824</ele>
        <time>2026-06-18T07:39:30.000Z</time>
      </trkpt>
      <trkpt lat="48.76105" lon="1.23686">
        <ele>116.19999694824</ele>
        <time>2026-06-18T07:39:32.000Z</time>
      </trkpt>
      <trkpt lat="48.76123" lon="1.23707">
        <ele>116.19999694824</ele>
        <time>2026-06-18T07:39:36.000Z</time>
      </trkpt>
      <trkpt lat="48.76155" lon="1.23745">
        <ele>115</ele>
        <time>2026-06-18T07:39:42.000Z</time>
      </trkpt>
      <trkpt lat="48.7616" lon="1.23752">
        <ele>114.59999847412</ele>
        <time>2026-06-18T07:39:43.000Z</time>
      </trkpt>
      <trkpt lat="48.76168" lon="1.23766">
        <ele>114</ele>
        <time>2026-06-18T07:39:45.000Z</time>
      </trkpt>
      <trkpt lat="48.76173" lon="1.23777">
        <ele>113.40000152588</ele>
        <time>2026-06-18T07:39:47.000Z</time>
      </trkpt>
      <trkpt lat="48.76175" lon="1.23782">
        <ele>112.80000305176</ele>
        <time>2026-06-18T07:39:48.000Z</time>
      </trkpt>
      <trkpt lat="48.76178" lon="1.23792">
        <ele>111.80000305176</ele>
        <time>2026-06-18T07:39:50.000Z</time>
      </trkpt>
      <trkpt lat="48.7618" lon="1.23799">
        <ele>111</ele>
        <time>2026-06-18T07:39:52.000Z</time>
      </trkpt>
      <trkpt lat="48.76181" lon="1.23801">
        <ele>110.40000152588</ele>
        <time>2026-06-18T07:39:53.000Z</time>
      </trkpt>
      <trkpt lat="48.76182" lon="1.23805">
        <ele>109.80000305176</ele>
        <time>2026-06-18T07:39:56.000Z</time>
      </trkpt>
      <trkpt lat="48.76182" lon="1.23805">
        <ele>109.40000152588</ele>
        <time>2026-06-18T07:39:58.000Z</time>
      </trkpt>
      <trkpt lat="48.76184" lon="1.23809">
        <ele>109</ele>
        <time>2026-06-18T07:40:01.000Z</time>
      </trkpt>
      <trkpt lat="48.76187" lon="1.23811">
        <ele>109</ele>
        <time>2026-06-18T07:40:03.000Z</time>
      </trkpt>
      <trkpt lat="48.76192" lon="1.23807">
        <ele>108.80000305176</ele>
        <time>2026-06-18T07:40:05.000Z</time>
      </trkpt>
      <trkpt lat="48.76194" lon="1.23803">
        <ele>108.59999847412</ele>
        <time>2026-06-18T07:40:06.000Z</time>
      </trkpt>
      <trkpt lat="48.762" lon="1.23785">
        <ele>108.40000152588</ele>
        <time>2026-06-18T07:40:09.000Z</time>
      </trkpt>
      <trkpt lat="48.76202" lon="1.23777">
        <ele>108.19999694824</ele>
        <time>2026-06-18T07:40:10.000Z</time>
      </trkpt>
      <trkpt lat="48.7622" lon="1.23725">
        <ele>107.59999847412</ele>
        <time>2026-06-18T07:40:17.000Z</time>
      </trkpt>
      <trkpt lat="48.76233" lon="1.23688">
        <ele>107.40000152588</ele>
        <time>2026-06-18T07:40:22.000Z</time>
      </trkpt>
      <trkpt lat="48.76242" lon="1.23658">
        <ele>107.19999694824</ele>
        <time>2026-06-18T07:40:26.000Z</time>
      </trkpt>
      <trkpt lat="48.76244" lon="1.23649">
        <ele>107.19999694824</ele>
        <time>2026-06-18T07:40:27.000Z</time>
      </trkpt>
      <trkpt lat="48.76245" lon="1.23641">
        <ele>107.19999694824</ele>
        <time>2026-06-18T07:40:28.000Z</time>
      </trkpt>
      <trkpt lat="48.76247" lon="1.23597">
        <ele>107.19999694824</ele>
        <time>2026-06-18T07:40:33.000Z</time>
      </trkpt>
      <trkpt lat="48.76251" lon="1.2354">
        <ele>107.19999694824</ele>
        <time>2026-06-18T07:40:40.000Z</time>
      </trkpt>
      <trkpt lat="48.76254" lon="1.23483">
        <ele>107.19999694824</ele>
        <time>2026-06-18T07:40:47.000Z</time>
      </trkpt>
      <trkpt lat="48.76256" lon="1.2342">
        <ele>107.80000305176</ele>
        <time>2026-06-18T07:40:55.000Z</time>
      </trkpt>
      <trkpt lat="48.76259" lon="1.2339">
        <ele>107.80000305176</ele>
        <time>2026-06-18T07:40:59.000Z</time>
      </trkpt>
      <trkpt lat="48.7626" lon="1.23376">
        <ele>107.59999847412</ele>
        <time>2026-06-18T07:41:01.000Z</time>
      </trkpt>
      <trkpt lat="48.76262" lon="1.23347">
        <ele>107.59999847412</ele>
        <time>2026-06-18T07:41:05.000Z</time>
      </trkpt>
      <trkpt lat="48.76265" lon="1.23334">
        <ele>107.59999847412</ele>
        <time>2026-06-18T07:41:07.000Z</time>
      </trkpt>
      <trkpt lat="48.76274" lon="1.23326">
        <ele>107.80000305176</ele>
        <time>2026-06-18T07:41:09.000Z</time>
      </trkpt>
      <trkpt lat="48.76286" lon="1.23316">
        <ele>108</ele>
        <time>2026-06-18T07:41:12.000Z</time>
      </trkpt>
      <trkpt lat="48.76306" lon="1.23299">
        <ele>108.40000152588</ele>
        <time>2026-06-18T07:41:18.000Z</time>
      </trkpt>
      <trkpt lat="48.76315" lon="1.23293">
        <ele>108.59999847412</ele>
        <time>2026-06-18T07:41:21.000Z</time>
      </trkpt>
      <trkpt lat="48.76324" lon="1.23286">
        <ele>108.59999847412</ele>
        <time>2026-06-18T07:41:23.000Z</time>
      </trkpt>
      <trkpt lat="48.76332" lon="1.23275">
        <ele>108.59999847412</ele>
        <time>2026-06-18T07:41:25.000Z</time>
      </trkpt>
      <trkpt lat="48.76335" lon="1.23267">
        <ele>108.59999847412</ele>
        <time>2026-06-18T07:41:26.000Z</time>
      </trkpt>
      <trkpt lat="48.76335" lon="1.23258">
        <ele>108.59999847412</ele>
        <time>2026-06-18T07:41:27.000Z</time>
      </trkpt>
      <trkpt lat="48.76334" lon="1.23241">
        <ele>108.40000152588</ele>
        <time>2026-06-18T07:41:29.000Z</time>
      </trkpt>
      <trkpt lat="48.76324" lon="1.2319">
        <ele>108</ele>
        <time>2026-06-18T07:41:35.000Z</time>
      </trkpt>
      <trkpt lat="48.76312" lon="1.23121">
        <ele>107.80000305176</ele>
        <time>2026-06-18T07:41:43.000Z</time>
      </trkpt>
      <trkpt lat="48.76301" lon="1.23068">
        <ele>108</ele>
        <time>2026-06-18T07:41:49.000Z</time>
      </trkpt>
      <trkpt lat="48.76297" lon="1.23041">
        <ele>108.19999694824</ele>
        <time>2026-06-18T07:41:52.000Z</time>
      </trkpt>
      <trkpt lat="48.76294" lon="1.23004">
        <ele>108.19999694824</ele>
        <time>2026-06-18T07:41:56.000Z</time>
      </trkpt>
      <trkpt lat="48.76289" lon="1.22949">
        <ele>108.40000152588</ele>
        <time>2026-06-18T07:42:03.000Z</time>
      </trkpt>
      <trkpt lat="48.76287" lon="1.22919">
        <ele>108.59999847412</ele>
        <time>2026-06-18T07:42:08.000Z</time>
      </trkpt>
      <trkpt lat="48.76287" lon="1.22912">
        <ele>108.59999847412</ele>
        <time>2026-06-18T07:42:09.000Z</time>
      </trkpt>
      <trkpt lat="48.76291" lon="1.22876">
        <ele>108.59999847412</ele>
        <time>2026-06-18T07:42:14.000Z</time>
      </trkpt>
      <trkpt lat="48.76299" lon="1.22804">
        <ele>108.40000152588</ele>
        <time>2026-06-18T07:42:22.000Z</time>
      </trkpt>
      <trkpt lat="48.76309" lon="1.22715">
        <ele>108.19999694824</ele>
        <time>2026-06-18T07:42:32.000Z</time>
      </trkpt>
      <trkpt lat="48.76317" lon="1.22633">
        <ele>108.40000152588</ele>
        <time>2026-06-18T07:42:41.000Z</time>
      </trkpt>
      <trkpt lat="48.76319" lon="1.2262">
        <ele>108.40000152588</ele>
        <time>2026-06-18T07:42:43.000Z</time>
      </trkpt>
      <trkpt lat="48.7632" lon="1.22607">
        <ele>108.40000152588</ele>
        <time>2026-06-18T07:42:47.000Z</time>
      </trkpt>
      <trkpt lat="48.76324" lon="1.22585">
        <ele>108.40000152588</ele>
        <time>2026-06-18T07:42:53.000Z</time>
      </trkpt>
      <trkpt lat="48.76329" lon="1.22542">
        <ele>108.59999847412</ele>
        <time>2026-06-18T07:43:00.000Z</time>
      </trkpt>
      <trkpt lat="48.76335" lon="1.22491">
        <ele>108.80000305176</ele>
        <time>2026-06-18T07:43:07.000Z</time>
      </trkpt>
      <trkpt lat="48.76341" lon="1.22432">
        <ele>108.80000305176</ele>
        <time>2026-06-18T07:43:15.000Z</time>
      </trkpt>
      <trkpt lat="48.76347" lon="1.22376">
        <ele>109</ele>
        <time>2026-06-18T07:43:22.000Z</time>
      </trkpt>
      <trkpt lat="48.76357" lon="1.22307">
        <ele>109.19999694824</ele>
        <time>2026-06-18T07:43:31.000Z</time>
      </trkpt>
      <trkpt lat="48.76361" lon="1.22283">
        <ele>109.40000152588</ele>
        <time>2026-06-18T07:43:36.000Z</time>
      </trkpt>
      <trkpt lat="48.76367" lon="1.22247">
        <ele>109.59999847412</ele>
        <time>2026-06-18T07:43:42.000Z</time>
      </trkpt>
      <trkpt lat="48.76374" lon="1.22199">
        <ele>109.59999847412</ele>
        <time>2026-06-18T07:43:50.000Z</time>
      </trkpt>
      <trkpt lat="48.76383" lon="1.2213">
        <ele>109.80000305176</ele>
        <time>2026-06-18T07:44:00.000Z</time>
      </trkpt>
      <trkpt lat="48.76383" lon="1.22122">
        <ele>109.80000305176</ele>
        <time>2026-06-18T07:44:01.000Z</time>
      </trkpt>
      <trkpt lat="48.76391" lon="1.22072">
        <ele>110.19999694824</ele>
        <time>2026-06-18T07:44:08.000Z</time>
      </trkpt>
      <trkpt lat="48.764" lon="1.22002">
        <ele>109.80000305176</ele>
        <time>2026-06-18T07:44:18.000Z</time>
      </trkpt>
      <trkpt lat="48.76404" lon="1.21953">
        <ele>110</ele>
        <time>2026-06-18T07:44:24.000Z</time>
      </trkpt>
      <trkpt lat="48.76409" lon="1.21896">
        <ele>110.80000305176</ele>
        <time>2026-06-18T07:44:31.000Z</time>
      </trkpt>
      <trkpt lat="48.76408" lon="1.21888">
        <ele>110.80000305176</ele>
        <time>2026-06-18T07:44:32.000Z</time>
      </trkpt>
      <trkpt lat="48.76406" lon="1.2188">
        <ele>110.80000305176</ele>
        <time>2026-06-18T07:44:33.000Z</time>
      </trkpt>
      <trkpt lat="48.76403" lon="1.21875">
        <ele>111</ele>
        <time>2026-06-18T07:44:34.000Z</time>
      </trkpt>
      <trkpt lat="48.76399" lon="1.21871">
        <ele>111</ele>
        <time>2026-06-18T07:44:35.000Z</time>
      </trkpt>
      <trkpt lat="48.76388" lon="1.2187">
        <ele>111.19999694824</ele>
        <time>2026-06-18T07:44:37.000Z</time>
      </trkpt>
      <trkpt lat="48.76376" lon="1.21873">
        <ele>111.19999694824</ele>
        <time>2026-06-18T07:44:39.000Z</time>
      </trkpt>
      <trkpt lat="48.76371" lon="1.21876">
        <ele>111.19999694824</ele>
        <time>2026-06-18T07:44:40.000Z</time>
      </trkpt>
      <trkpt lat="48.7635" lon="1.21885">
        <ele>110.80000305176</ele>
        <time>2026-06-18T07:44:44.000Z</time>
      </trkpt>
      <trkpt lat="48.76333" lon="1.21885">
        <ele>110.80000305176</ele>
        <time>2026-06-18T07:44:47.000Z</time>
      </trkpt>
      <trkpt lat="48.76322" lon="1.21882">
        <ele>110.80000305176</ele>
        <time>2026-06-18T07:44:49.000Z</time>
      </trkpt>
      <trkpt lat="48.7627" lon="1.21873">
        <ele>110.59999847412</ele>
        <time>2026-06-18T07:44:58.000Z</time>
      </trkpt>
      <trkpt lat="48.7622" lon="1.2187">
        <ele>110.80000305176</ele>
        <time>2026-06-18T07:45:07.000Z</time>
      </trkpt>
      <trkpt lat="48.76215" lon="1.21869">
        <ele>110.80000305176</ele>
        <time>2026-06-18T07:45:08.000Z</time>
      </trkpt>
      <trkpt lat="48.76181" lon="1.21856">
        <ele>110.80000305176</ele>
        <time>2026-06-18T07:45:14.000Z</time>
      </trkpt>
      <trkpt lat="48.76175" lon="1.21856">
        <ele>110.80000305176</ele>
        <time>2026-06-18T07:45:15.000Z</time>
      </trkpt>
      <trkpt lat="48.76169" lon="1.21858">
        <ele>110.59999847412</ele>
        <time>2026-06-18T07:45:16.000Z</time>
      </trkpt>
      <trkpt lat="48.76158" lon="1.21863">
        <ele>110.59999847412</ele>
        <time>2026-06-18T07:45:18.000Z</time>
      </trkpt>
      <trkpt lat="48.76153" lon="1.21867">
        <ele>110.40000152588</ele>
        <time>2026-06-18T07:45:19.000Z</time>
      </trkpt>
      <trkpt lat="48.76119" lon="1.21899">
        <ele>110</ele>
        <time>2026-06-18T07:45:26.000Z</time>
      </trkpt>
      <trkpt lat="48.76115" lon="1.21903">
        <ele>110</ele>
        <time>2026-06-18T07:45:27.000Z</time>
      </trkpt>
      <trkpt lat="48.76085" lon="1.21933">
        <ele>109.59999847412</ele>
        <time>2026-06-18T07:45:34.000Z</time>
      </trkpt>
      <trkpt lat="48.76063" lon="1.21955">
        <ele>109.19999694824</ele>
        <time>2026-06-18T07:45:40.000Z</time>
      </trkpt>
      <trkpt lat="48.76052" lon="1.21966">
        <ele>109</ele>
        <time>2026-06-18T07:45:45.000Z</time>
      </trkpt>
      <trkpt lat="48.76042" lon="1.21971">
        <ele>108.80000305176</ele>
        <time>2026-06-18T07:45:52.000Z</time>
      </trkpt>
      <trkpt lat="48.7604" lon="1.21973">
        <ele>108.80000305176</ele>
        <time>2026-06-18T07:45:53.000Z</time>
      </trkpt>
      <trkpt lat="48.76028" lon="1.21977">
        <ele>109</ele>
        <time>2026-06-18T07:45:57.000Z</time>
      </trkpt>
      <trkpt lat="48.76004" lon="1.21977">
        <ele>109.19999694824</ele>
        <time>2026-06-18T07:46:02.000Z</time>
      </trkpt>
      <trkpt lat="48.75978" lon="1.21977">
        <ele>109.40000152588</ele>
        <time>2026-06-18T07:46:08.000Z</time>
      </trkpt>
      <trkpt lat="48.75974" lon="1.21978">
        <ele>109.59999847412</ele>
        <time>2026-06-18T07:46:09.000Z</time>
      </trkpt>
      <trkpt lat="48.75957" lon="1.21979">
        <ele>109.59999847412</ele>
        <time>2026-06-18T07:46:15.000Z</time>
      </trkpt>
      <trkpt lat="48.75955" lon="1.21979">
        <ele>109.59999847412</ele>
        <time>2026-06-18T07:46:19.000Z</time>
      </trkpt>
      <trkpt lat="48.75955" lon="1.21979">
        <ele>109.59999847412</ele>
        <time>2026-06-18T07:46:30.000Z</time>
      </trkpt>
      <trkpt lat="48.75953" lon="1.21978">
        <ele>109.59999847412</ele>
        <time>2026-06-18T07:46:44.000Z</time>
      </trkpt>
      <trkpt lat="48.75952" lon="1.21978">
        <ele>110</ele>
        <time>2026-06-18T07:46:50.000Z</time>
      </trkpt>
      <trkpt lat="48.75947" lon="1.21977">
        <ele>109.80000305176</ele>
        <time>2026-06-18T07:46:54.000Z</time>
      </trkpt>
      <trkpt lat="48.75945" lon="1.21976">
        <ele>109.19999694824</ele>
        <time>2026-06-18T07:47:04.000Z</time>
      </trkpt>
      <trkpt lat="48.75943" lon="1.21976">
        <ele>109</ele>
        <time>2026-06-18T07:47:13.000Z</time>
      </trkpt>
      <trkpt lat="48.75934" lon="1.21974">
        <ele>109</ele>
        <time>2026-06-18T07:47:22.000Z</time>
      </trkpt>
      <trkpt lat="48.75931" lon="1.2197">
        <ele>109.19999694824</ele>
        <time>2026-06-18T07:47:27.000Z</time>
      </trkpt>
      <trkpt lat="48.75927" lon="1.21964">
        <ele>109.19999694824</ele>
        <time>2026-06-18T07:47:32.000Z</time>
      </trkpt>
      <trkpt lat="48.75919" lon="1.21951">
        <ele>109.19999694824</ele>
        <time>2026-06-18T07:47:42.000Z</time>
      </trkpt>
      <trkpt lat="48.7592" lon="1.21949">
        <ele>109.19999694824</ele>
        <time>2026-06-18T07:47:43.000Z</time>
      </trkpt>
      <trkpt lat="48.7592" lon="1.21947">
        <ele>108.80000305176</ele>
        <time>2026-06-18T07:47:47.000Z</time>
      </trkpt>
      <trkpt lat="48.75921" lon="1.21945">
        <ele>108.80000305176</ele>
        <time>2026-06-18T07:47:51.000Z</time>
      </trkpt>
      <trkpt lat="48.75922" lon="1.21943">
        <ele>108.59999847412</ele>
        <time>2026-06-18T07:47:52.000Z</time>
      </trkpt>
      <trkpt lat="48.75929" lon="1.21923">
        <ele>108.59999847412</ele>
        <time>2026-06-18T07:47:57.000Z</time>
      </trkpt>
      <trkpt lat="48.75942" lon="1.21896">
        <ele>108.59999847412</ele>
        <time>2026-06-18T07:48:02.000Z</time>
      </trkpt>
      <trkpt lat="48.75949" lon="1.21884">
        <ele>108.80000305176</ele>
        <time>2026-06-18T07:48:04.000Z</time>
      </trkpt>
      <trkpt lat="48.75957" lon="1.21873">
        <ele>109</ele>
        <time>2026-06-18T07:48:06.000Z</time>
      </trkpt>
      <trkpt lat="48.75973" lon="1.21855">
        <ele>109</ele>
        <time>2026-06-18T07:48:10.000Z</time>
      </trkpt>
      <trkpt lat="48.75997" lon="1.21824">
        <ele>109.19999694824</ele>
        <time>2026-06-18T07:48:17.000Z</time>
      </trkpt>
      <trkpt lat="48.76013" lon="1.21799">
        <ele>109.19999694824</ele>
        <time>2026-06-18T07:48:23.000Z</time>
      </trkpt>
      <trkpt lat="48.7603" lon="1.21768">
        <ele>109</ele>
        <time>2026-06-18T07:48:31.000Z</time>
      </trkpt>
      <trkpt lat="48.76038" lon="1.21753">
        <ele>108.80000305176</ele>
        <time>2026-06-18T07:48:36.000Z</time>
      </trkpt>
      <trkpt lat="48.76038" lon="1.21753">
        <ele>108.80000305176</ele>
        <time>2026-06-18T07:48:37.000Z</time>
      </trkpt>
      <trkpt lat="48.76041" lon="1.21754">
        <ele>108.80000305176</ele>
        <time>2026-06-18T07:48:43.000Z</time>
      </trkpt>
      <trkpt lat="48.76042" lon="1.21754">
        <ele>108.80000305176</ele>
        <time>2026-06-18T07:48:44.000Z</time>
      </trkpt>
      <trkpt lat="48.76044" lon="1.21753">
        <ele>108.59999847412</ele>
        <time>2026-06-18T07:48:50.000Z</time>
      </trkpt>
      <trkpt lat="48.76044" lon="1.21753">
        <ele>108.80000305176</ele>
        <time>2026-06-18T07:49:32.000Z</time>
      </trkpt>
      <trkpt lat="48.76045" lon="1.21756">
        <ele>108.80000305176</ele>
        <time>2026-06-18T07:49:35.000Z</time>
      </trkpt>
      <trkpt lat="48.76046" lon="1.21757">
        <ele>109</ele>
        <time>2026-06-18T07:49:42.000Z</time>
      </trkpt>
      <trkpt lat="48.7605" lon="1.2176">
        <ele>109.80000305176</ele>
        <time>2026-06-18T07:53:10.000Z</time>
      </trkpt>
      <trkpt lat="48.76047" lon="1.21748">
        <ele>110</ele>
        <time>2026-06-18T07:53:42.000Z</time>
      </trkpt>
      <trkpt lat="48.76048" lon="1.21736">
        <ele>110</ele>
        <time>2026-06-18T07:53:46.000Z</time>
      </trkpt>
      <trkpt lat="48.76051" lon="1.21722">
        <ele>110</ele>
        <time>2026-06-18T07:53:49.000Z</time>
      </trkpt>
      <trkpt lat="48.76054" lon="1.21711">
        <ele>110.19999694824</ele>
        <time>2026-06-18T07:53:52.000Z</time>
      </trkpt>
      <trkpt lat="48.76062" lon="1.21679">
        <ele>110</ele>
        <time>2026-06-18T07:54:00.000Z</time>
      </trkpt>
      <trkpt lat="48.76071" lon="1.21653">
        <ele>109.80000305176</ele>
        <time>2026-06-18T07:54:08.000Z</time>
      </trkpt>
      <trkpt lat="48.76088" lon="1.21629">
        <ele>109.80000305176</ele>
        <time>2026-06-18T07:54:16.000Z</time>
      </trkpt>
      <trkpt lat="48.76112" lon="1.21601">
        <ele>109.59999847412</ele>
        <time>2026-06-18T07:54:25.000Z</time>
      </trkpt>
      <trkpt lat="48.76128" lon="1.21577">
        <ele>109.80000305176</ele>
        <time>2026-06-18T07:54:32.000Z</time>
      </trkpt>
      <trkpt lat="48.76139" lon="1.21556">
        <ele>110.19999694824</ele>
        <time>2026-06-18T07:54:38.000Z</time>
      </trkpt>
      <trkpt lat="48.76157" lon="1.2153">
        <ele>110.19999694824</ele>
        <time>2026-06-18T07:54:45.000Z</time>
      </trkpt>
      <trkpt lat="48.76172" lon="1.21507">
        <ele>110.19999694824</ele>
        <time>2026-06-18T07:54:51.000Z</time>
      </trkpt>
      <trkpt lat="48.76189" lon="1.2149">
        <ele>110.40000152588</ele>
        <time>2026-06-18T07:54:57.000Z</time>
      </trkpt>
      <trkpt lat="48.76215" lon="1.21466">
        <ele>110.40000152588</ele>
        <time>2026-06-18T07:55:05.000Z</time>
      </trkpt>
      <trkpt lat="48.76238" lon="1.21435">
        <ele>110.40000152588</ele>
        <time>2026-06-18T07:55:14.000Z</time>
      </trkpt>
      <trkpt lat="48.76264" lon="1.21389">
        <ele>110.40000152588</ele>
        <time>2026-06-18T07:55:24.000Z</time>
      </trkpt>
      <trkpt lat="48.76285" lon="1.21357">
        <ele>110.40000152588</ele>
        <time>2026-06-18T07:55:32.000Z</time>
      </trkpt>
      <trkpt lat="48.76302" lon="1.21327">
        <ele>110.59999847412</ele>
        <time>2026-06-18T07:55:38.000Z</time>
      </trkpt>
      <trkpt lat="48.76313" lon="1.21296">
        <ele>110.59999847412</ele>
        <time>2026-06-18T07:55:44.000Z</time>
      </trkpt>
      <trkpt lat="48.76324" lon="1.21264">
        <ele>110.80000305176</ele>
        <time>2026-06-18T07:55:49.000Z</time>
      </trkpt>
      <trkpt lat="48.76326" lon="1.21251">
        <ele>110.80000305176</ele>
        <time>2026-06-18T07:55:51.000Z</time>
      </trkpt>
      <trkpt lat="48.76328" lon="1.21238">
        <ele>111</ele>
        <time>2026-06-18T07:55:53.000Z</time>
      </trkpt>
      <trkpt lat="48.76332" lon="1.21216">
        <ele>111.40000152588</ele>
        <time>2026-06-18T07:55:57.000Z</time>
      </trkpt>
      <trkpt lat="48.76334" lon="1.21211">
        <ele>111.40000152588</ele>
        <time>2026-06-18T07:55:58.000Z</time>
      </trkpt>
      <trkpt lat="48.76337" lon="1.21183">
        <ele>111.80000305176</ele>
        <time>2026-06-18T07:56:03.000Z</time>
      </trkpt>
      <trkpt lat="48.76341" lon="1.21137">
        <ele>111.80000305176</ele>
        <time>2026-06-18T07:56:10.000Z</time>
      </trkpt>
      <trkpt lat="48.76343" lon="1.21103">
        <ele>111.80000305176</ele>
        <time>2026-06-18T07:56:15.000Z</time>
      </trkpt>
      <trkpt lat="48.76344" lon="1.21096">
        <ele>111.59999847412</ele>
        <time>2026-06-18T07:56:16.000Z</time>
      </trkpt>
      <trkpt lat="48.76345" lon="1.2109">
        <ele>111.59999847412</ele>
        <time>2026-06-18T07:56:17.000Z</time>
      </trkpt>
      <trkpt lat="48.76348" lon="1.21069">
        <ele>111.59999847412</ele>
        <time>2026-06-18T07:56:20.000Z</time>
      </trkpt>
      <trkpt lat="48.7635" lon="1.21056">
        <ele>111.59999847412</ele>
        <time>2026-06-18T07:56:22.000Z</time>
      </trkpt>
      <trkpt lat="48.76353" lon="1.21036">
        <ele>111.59999847412</ele>
        <time>2026-06-18T07:56:25.000Z</time>
      </trkpt>
      <trkpt lat="48.76358" lon="1.21018">
        <ele>111.59999847412</ele>
        <time>2026-06-18T07:56:28.000Z</time>
      </trkpt>
      <trkpt lat="48.76366" lon="1.20987">
        <ele>111.80000305176</ele>
        <time>2026-06-18T07:56:32.000Z</time>
      </trkpt>
      <trkpt lat="48.76379" lon="1.20946">
        <ele>112.19999694824</ele>
        <time>2026-06-18T07:56:38.000Z</time>
      </trkpt>
      <trkpt lat="48.76391" lon="1.20913">
        <ele>112.19999694824</ele>
        <time>2026-06-18T07:56:44.000Z</time>
      </trkpt>
      <trkpt lat="48.76393" lon="1.20908">
        <ele>112.19999694824</ele>
        <time>2026-06-18T07:56:45.000Z</time>
      </trkpt>
      <trkpt lat="48.76397" lon="1.209">
        <ele>112.19999694824</ele>
        <time>2026-06-18T07:56:46.000Z</time>
      </trkpt>
      <trkpt lat="48.76402" lon="1.20888">
        <ele>112.40000152588</ele>
        <time>2026-06-18T07:56:48.000Z</time>
      </trkpt>
      <trkpt lat="48.76406" lon="1.20874">
        <ele>112.40000152588</ele>
        <time>2026-06-18T07:56:50.000Z</time>
      </trkpt>
      <trkpt lat="48.7642" lon="1.20824">
        <ele>112.59999847412</ele>
        <time>2026-06-18T07:56:57.000Z</time>
      </trkpt>
      <trkpt lat="48.76427" lon="1.20789">
        <ele>112.80000305176</ele>
        <time>2026-06-18T07:57:02.000Z</time>
      </trkpt>
      <trkpt lat="48.7643" lon="1.20783">
        <ele>112.80000305176</ele>
        <time>2026-06-18T07:57:03.000Z</time>
      </trkpt>
      <trkpt lat="48.76452" lon="1.20719">
        <ele>113</ele>
        <time>2026-06-18T07:57:12.000Z</time>
      </trkpt>
      <trkpt lat="48.76469" lon="1.2068">
        <ele>113</ele>
        <time>2026-06-18T07:57:18.000Z</time>
      </trkpt>
      <trkpt lat="48.76472" lon="1.20674">
        <ele>113</ele>
        <time>2026-06-18T07:57:19.000Z</time>
      </trkpt>
      <trkpt lat="48.76492" lon="1.20631">
        <ele>113</ele>
        <time>2026-06-18T07:57:26.000Z</time>
      </trkpt>
      <trkpt lat="48.76494" lon="1.20625">
        <ele>113</ele>
        <time>2026-06-18T07:57:27.000Z</time>
      </trkpt>
      <trkpt lat="48.76503" lon="1.20599">
        <ele>113</ele>
        <time>2026-06-18T07:57:31.000Z</time>
      </trkpt>
      <trkpt lat="48.76505" lon="1.20588">
        <ele>113</ele>
        <time>2026-06-18T07:57:33.000Z</time>
      </trkpt>
      <trkpt lat="48.76508" lon="1.2057">
        <ele>113.19999694824</ele>
        <time>2026-06-18T07:57:36.000Z</time>
      </trkpt>
      <trkpt lat="48.76509" lon="1.20555">
        <ele>113.19999694824</ele>
        <time>2026-06-18T07:57:38.000Z</time>
      </trkpt>
      <trkpt lat="48.76512" lon="1.20539">
        <ele>113.19999694824</ele>
        <time>2026-06-18T07:57:40.000Z</time>
      </trkpt>
      <trkpt lat="48.76518" lon="1.20513">
        <ele>113.19999694824</ele>
        <time>2026-06-18T07:57:43.000Z</time>
      </trkpt>
      <trkpt lat="48.76531" lon="1.20467">
        <ele>113</ele>
        <time>2026-06-18T07:57:49.000Z</time>
      </trkpt>
      <trkpt lat="48.76552" lon="1.2041">
        <ele>113.40000152588</ele>
        <time>2026-06-18T07:57:57.000Z</time>
      </trkpt>
      <trkpt lat="48.76556" lon="1.20396">
        <ele>113.59999847412</ele>
        <time>2026-06-18T07:57:59.000Z</time>
      </trkpt>
      <trkpt lat="48.76557" lon="1.20389">
        <ele>113.80000305176</ele>
        <time>2026-06-18T07:58:00.000Z</time>
      </trkpt>
      <trkpt lat="48.7656" lon="1.20375">
        <ele>113.80000305176</ele>
        <time>2026-06-18T07:58:02.000Z</time>
      </trkpt>
      <trkpt lat="48.76565" lon="1.20353">
        <ele>113.80000305176</ele>
        <time>2026-06-18T07:58:05.000Z</time>
      </trkpt>
      <trkpt lat="48.76568" lon="1.2034">
        <ele>113.80000305176</ele>
        <time>2026-06-18T07:58:07.000Z</time>
      </trkpt>
      <trkpt lat="48.76575" lon="1.20319">
        <ele>113.80000305176</ele>
        <time>2026-06-18T07:58:10.000Z</time>
      </trkpt>
      <trkpt lat="48.76591" lon="1.20269">
        <ele>114</ele>
        <time>2026-06-18T07:58:17.000Z</time>
      </trkpt>
      <trkpt lat="48.76593" lon="1.20262">
        <ele>114</ele>
        <time>2026-06-18T07:58:18.000Z</time>
      </trkpt>
      <trkpt lat="48.76601" lon="1.20237">
        <ele>114.19999694824</ele>
        <time>2026-06-18T07:58:22.000Z</time>
      </trkpt>
      <trkpt lat="48.76605" lon="1.20222">
        <ele>114.19999694824</ele>
        <time>2026-06-18T07:58:24.000Z</time>
      </trkpt>
      <trkpt lat="48.76608" lon="1.20196">
        <ele>114.40000152588</ele>
        <time>2026-06-18T07:58:27.000Z</time>
      </trkpt>
      <trkpt lat="48.7662" lon="1.20141">
        <ele>114.40000152588</ele>
        <time>2026-06-18T07:58:34.000Z</time>
      </trkpt>
      <trkpt lat="48.76627" lon="1.20119">
        <ele>114.59999847412</ele>
        <time>2026-06-18T07:58:37.000Z</time>
      </trkpt>
      <trkpt lat="48.76637" lon="1.20091">
        <ele>114.80000305176</ele>
        <time>2026-06-18T07:58:41.000Z</time>
      </trkpt>
      <trkpt lat="48.76657" lon="1.20035">
        <ele>114.59999847412</ele>
        <time>2026-06-18T07:58:48.000Z</time>
      </trkpt>
      <trkpt lat="48.7668" lon="1.19991">
        <ele>114.40000152588</ele>
        <time>2026-06-18T07:58:55.000Z</time>
      </trkpt>
      <trkpt lat="48.76693" lon="1.19971">
        <ele>114.59999847412</ele>
        <time>2026-06-18T07:59:00.000Z</time>
      </trkpt>
      <trkpt lat="48.76699" lon="1.19961">
        <ele>114.59999847412</ele>
        <time>2026-06-18T07:59:02.000Z</time>
      </trkpt>
      <trkpt lat="48.76703" lon="1.19949">
        <ele>114.59999847412</ele>
        <time>2026-06-18T07:59:04.000Z</time>
      </trkpt>
      <trkpt lat="48.76705" lon="1.19943">
        <ele>114.59999847412</ele>
        <time>2026-06-18T07:59:05.000Z</time>
      </trkpt>
      <trkpt lat="48.76707" lon="1.19936">
        <ele>114.59999847412</ele>
        <time>2026-06-18T07:59:06.000Z</time>
      </trkpt>
      <trkpt lat="48.76714" lon="1.19919">
        <ele>114.40000152588</ele>
        <time>2026-06-18T07:59:09.000Z</time>
      </trkpt>
      <trkpt lat="48.76716" lon="1.19914">
        <ele>114.40000152588</ele>
        <time>2026-06-18T07:59:10.000Z</time>
      </trkpt>
      <trkpt lat="48.76716" lon="1.19909">
        <ele>114.19999694824</ele>
        <time>2026-06-18T07:59:11.000Z</time>
      </trkpt>
      <trkpt lat="48.76713" lon="1.19903">
        <ele>114.19999694824</ele>
        <time>2026-06-18T07:59:13.000Z</time>
      </trkpt>
      <trkpt lat="48.76696" lon="1.19894">
        <ele>114.40000152588</ele>
        <time>2026-06-18T07:59:17.000Z</time>
      </trkpt>
      <trkpt lat="48.76659" lon="1.19868">
        <ele>114.59999847412</ele>
        <time>2026-06-18T07:59:26.000Z</time>
      </trkpt>
      <trkpt lat="48.76629" lon="1.19846">
        <ele>114.80000305176</ele>
        <time>2026-06-18T07:59:32.000Z</time>
      </trkpt>
      <trkpt lat="48.76585" lon="1.19814">
        <ele>114.80000305176</ele>
        <time>2026-06-18T07:59:42.000Z</time>
      </trkpt>
      <trkpt lat="48.76582" lon="1.19811">
        <ele>114.80000305176</ele>
        <time>2026-06-18T07:59:43.000Z</time>
      </trkpt>
      <trkpt lat="48.76579" lon="1.19794">
        <ele>114.80000305176</ele>
        <time>2026-06-18T07:59:45.000Z</time>
      </trkpt>
      <trkpt lat="48.76583" lon="1.19779">
        <ele>114.80000305176</ele>
        <time>2026-06-18T07:59:47.000Z</time>
      </trkpt>
      <trkpt lat="48.76588" lon="1.19765">
        <ele>115</ele>
        <time>2026-06-18T07:59:49.000Z</time>
      </trkpt>
      <trkpt lat="48.76617" lon="1.1969">
        <ele>115</ele>
        <time>2026-06-18T07:59:59.000Z</time>
      </trkpt>
      <trkpt lat="48.76647" lon="1.19619">
        <ele>114.80000305176</ele>
        <time>2026-06-18T08:00:09.000Z</time>
      </trkpt>
      <trkpt lat="48.76677" lon="1.19544">
        <ele>115</ele>
        <time>2026-06-18T08:00:20.000Z</time>
      </trkpt>
      <trkpt lat="48.76679" lon="1.19537">
        <ele>115</ele>
        <time>2026-06-18T08:00:21.000Z</time>
      </trkpt>
      <trkpt lat="48.76712" lon="1.19474">
        <ele>114.59999847412</ele>
        <time>2026-06-18T08:00:31.000Z</time>
      </trkpt>
      <trkpt lat="48.76738" lon="1.1942">
        <ele>114.59999847412</ele>
        <time>2026-06-18T08:00:39.000Z</time>
      </trkpt>
      <trkpt lat="48.76757" lon="1.19373">
        <ele>115</ele>
        <time>2026-06-18T08:00:46.000Z</time>
      </trkpt>
      <trkpt lat="48.76756" lon="1.19366">
        <ele>115</ele>
        <time>2026-06-18T08:00:47.000Z</time>
      </trkpt>
      <trkpt lat="48.76753" lon="1.1936">
        <ele>115</ele>
        <time>2026-06-18T08:00:48.000Z</time>
      </trkpt>
      <trkpt lat="48.76744" lon="1.19349">
        <ele>115</ele>
        <time>2026-06-18T08:00:50.000Z</time>
      </trkpt>
      <trkpt lat="48.76712" lon="1.19301">
        <ele>115.40000152588</ele>
        <time>2026-06-18T08:00:58.000Z</time>
      </trkpt>
      <trkpt lat="48.767" lon="1.19285">
        <ele>115.59999847412</ele>
        <time>2026-06-18T08:01:01.000Z</time>
      </trkpt>
      <trkpt lat="48.76696" lon="1.1928">
        <ele>115.80000305176</ele>
        <time>2026-06-18T08:01:02.000Z</time>
      </trkpt>
      <trkpt lat="48.76686" lon="1.19263">
        <ele>116</ele>
        <time>2026-06-18T08:01:05.000Z</time>
      </trkpt>
      <trkpt lat="48.76677" lon="1.19235">
        <ele>116.19999694824</ele>
        <time>2026-06-18T08:01:09.000Z</time>
      </trkpt>
      <trkpt lat="48.76675" lon="1.19221">
        <ele>116.19999694824</ele>
        <time>2026-06-18T08:01:11.000Z</time>
      </trkpt>
      <trkpt lat="48.76674" lon="1.19214">
        <ele>116.40000152588</ele>
        <time>2026-06-18T08:01:12.000Z</time>
      </trkpt>
      <trkpt lat="48.76673" lon="1.19201">
        <ele>116.59999847412</ele>
        <time>2026-06-18T08:01:14.000Z</time>
      </trkpt>
      <trkpt lat="48.76674" lon="1.19189">
        <ele>116.80000305176</ele>
        <time>2026-06-18T08:01:16.000Z</time>
      </trkpt>
      <trkpt lat="48.76676" lon="1.19178">
        <ele>117</ele>
        <time>2026-06-18T08:01:18.000Z</time>
      </trkpt>
      <trkpt lat="48.76682" lon="1.19156">
        <ele>117.80000305176</ele>
        <time>2026-06-18T08:01:22.000Z</time>
      </trkpt>
      <trkpt lat="48.76684" lon="1.19151">
        <ele>118</ele>
        <time>2026-06-18T08:01:23.000Z</time>
      </trkpt>
      <trkpt lat="48.76687" lon="1.19124">
        <ele>119.19999694824</ele>
        <time>2026-06-18T08:01:28.000Z</time>
      </trkpt>
      <trkpt lat="48.7669" lon="1.19098">
        <ele>120.40000152588</ele>
        <time>2026-06-18T08:01:33.000Z</time>
      </trkpt>
      <trkpt lat="48.76691" lon="1.19093">
        <ele>120.59999847412</ele>
        <time>2026-06-18T08:01:34.000Z</time>
      </trkpt>
      <trkpt lat="48.76695" lon="1.19066">
        <ele>121.40000152588</ele>
        <time>2026-06-18T08:01:39.000Z</time>
      </trkpt>
      <trkpt lat="48.76695" lon="1.1906">
        <ele>121.59999847412</ele>
        <time>2026-06-18T08:01:40.000Z</time>
      </trkpt>
      <trkpt lat="48.767" lon="1.19034">
        <ele>122.59999847412</ele>
        <time>2026-06-18T08:01:45.000Z</time>
      </trkpt>
      <trkpt lat="48.76705" lon="1.19003">
        <ele>123.80000305176</ele>
        <time>2026-06-18T08:01:51.000Z</time>
      </trkpt>
      <trkpt lat="48.76707" lon="1.18983">
        <ele>124.59999847412</ele>
        <time>2026-06-18T08:01:55.000Z</time>
      </trkpt>
      <trkpt lat="48.76707" lon="1.18978">
        <ele>124.80000305176</ele>
        <time>2026-06-18T08:01:56.000Z</time>
      </trkpt>
      <trkpt lat="48.76708" lon="1.18959">
        <ele>125.80000305176</ele>
        <time>2026-06-18T08:02:00.000Z</time>
      </trkpt>
      <trkpt lat="48.76708" lon="1.18954">
        <ele>126</ele>
        <time>2026-06-18T08:02:01.000Z</time>
      </trkpt>
      <trkpt lat="48.76704" lon="1.18934">
        <ele>127</ele>
        <time>2026-06-18T08:02:05.000Z</time>
      </trkpt>
      <trkpt lat="48.76693" lon="1.18911">
        <ele>128</ele>
        <time>2026-06-18T08:02:10.000Z</time>
      </trkpt>
      <trkpt lat="48.7669" lon="1.18903">
        <ele>128.60000610352</ele>
        <time>2026-06-18T08:02:12.000Z</time>
      </trkpt>
      <trkpt lat="48.76678" lon="1.18898">
        <ele>129</ele>
        <time>2026-06-18T08:02:15.000Z</time>
      </trkpt>
      <trkpt lat="48.76671" lon="1.18897">
        <ele>129.39999389648</ele>
        <time>2026-06-18T08:02:17.000Z</time>
      </trkpt>
      <trkpt lat="48.76651" lon="1.189">
        <ele>130.19999694824</ele>
        <time>2026-06-18T08:02:23.000Z</time>
      </trkpt>
      <trkpt lat="48.76638" lon="1.18914">
        <ele>131</ele>
        <time>2026-06-18T08:02:29.000Z</time>
      </trkpt>
      <trkpt lat="48.76625" lon="1.18936">
        <ele>131.60000610352</ele>
        <time>2026-06-18T08:02:35.000Z</time>
      </trkpt>
      <trkpt lat="48.76623" lon="1.1894">
        <ele>131.80000305176</ele>
        <time>2026-06-18T08:02:36.000Z</time>
      </trkpt>
      <trkpt lat="48.76617" lon="1.18956">
        <ele>132.19999694824</ele>
        <time>2026-06-18T08:02:40.000Z</time>
      </trkpt>
      <trkpt lat="48.76606" lon="1.18987">
        <ele>133</ele>
        <time>2026-06-18T08:02:47.000Z</time>
      </trkpt>
      <trkpt lat="48.76605" lon="1.18992">
        <ele>133.19999694824</ele>
        <time>2026-06-18T08:02:48.000Z</time>
      </trkpt>
      <trkpt lat="48.76598" lon="1.19011">
        <ele>133.60000610352</ele>
        <time>2026-06-18T08:02:52.000Z</time>
      </trkpt>
      <trkpt lat="48.76586" lon="1.19048">
        <ele>134.19999694824</ele>
        <time>2026-06-18T08:02:59.000Z</time>
      </trkpt>
      <trkpt lat="48.76584" lon="1.19052">
        <ele>134.39999389648</ele>
        <time>2026-06-18T08:03:00.000Z</time>
      </trkpt>
      <trkpt lat="48.76579" lon="1.19079">
        <ele>135.19999694824</ele>
        <time>2026-06-18T08:03:06.000Z</time>
      </trkpt>
      <trkpt lat="48.76577" lon="1.19084">
        <ele>135.39999389648</ele>
        <time>2026-06-18T08:03:07.000Z</time>
      </trkpt>
      <trkpt lat="48.76564" lon="1.1911">
        <ele>135.80000305176</ele>
        <time>2026-06-18T08:03:13.000Z</time>
      </trkpt>
      <trkpt lat="48.76557" lon="1.19113">
        <ele>136</ele>
        <time>2026-06-18T08:03:15.000Z</time>
      </trkpt>
      <trkpt lat="48.76549" lon="1.19114">
        <ele>136.39999389648</ele>
        <time>2026-06-18T08:03:17.000Z</time>
      </trkpt>
      <trkpt lat="48.76545" lon="1.19116">
        <ele>136.80000305176</ele>
        <time>2026-06-18T08:03:18.000Z</time>
      </trkpt>
      <trkpt lat="48.76534" lon="1.19121">
        <ele>137.39999389648</ele>
        <time>2026-06-18T08:03:22.000Z</time>
      </trkpt>
      <trkpt lat="48.76529" lon="1.19119">
        <ele>138.19999694824</ele>
        <time>2026-06-18T08:03:24.000Z</time>
      </trkpt>
      <trkpt lat="48.76524" lon="1.19117">
        <ele>138.60000610352</ele>
        <time>2026-06-18T08:03:26.000Z</time>
      </trkpt>
      <trkpt lat="48.76519" lon="1.19112">
        <ele>139.39999389648</ele>
        <time>2026-06-18T08:03:28.000Z</time>
      </trkpt>
      <trkpt lat="48.76515" lon="1.19108">
        <ele>139.80000305176</ele>
        <time>2026-06-18T08:03:30.000Z</time>
      </trkpt>
      <trkpt lat="48.76504" lon="1.1908">
        <ele>140.80000305176</ele>
        <time>2026-06-18T08:03:36.000Z</time>
      </trkpt>
      <trkpt lat="48.76501" lon="1.1906">
        <ele>141.80000305176</ele>
        <time>2026-06-18T08:03:40.000Z</time>
      </trkpt>
      <trkpt lat="48.76502" lon="1.19055">
        <ele>142</ele>
        <time>2026-06-18T08:03:41.000Z</time>
      </trkpt>
      <trkpt lat="48.76504" lon="1.19022">
        <ele>143</ele>
        <time>2026-06-18T08:03:47.000Z</time>
      </trkpt>
      <trkpt lat="48.76505" lon="1.19017">
        <ele>143</ele>
        <time>2026-06-18T08:03:48.000Z</time>
      </trkpt>
      <trkpt lat="48.76506" lon="1.18974">
        <ele>143.60000610352</ele>
        <time>2026-06-18T08:03:56.000Z</time>
      </trkpt>
      <trkpt lat="48.76508" lon="1.1894">
        <ele>144</ele>
        <time>2026-06-18T08:04:02.000Z</time>
      </trkpt>
      <trkpt lat="48.76508" lon="1.18934">
        <ele>144</ele>
        <time>2026-06-18T08:04:03.000Z</time>
      </trkpt>
      <trkpt lat="48.76499" lon="1.18914">
        <ele>144.19999694824</ele>
        <time>2026-06-18T08:04:07.000Z</time>
      </trkpt>
      <trkpt lat="48.76484" lon="1.18887">
        <ele>144.60000610352</ele>
        <time>2026-06-18T08:04:12.000Z</time>
      </trkpt>
      <trkpt lat="48.76481" lon="1.18882">
        <ele>144.60000610352</ele>
        <time>2026-06-18T08:04:13.000Z</time>
      </trkpt>
      <trkpt lat="48.76463" lon="1.18859">
        <ele>145</ele>
        <time>2026-06-18T08:04:18.000Z</time>
      </trkpt>
      <trkpt lat="48.7646" lon="1.18855">
        <ele>145</ele>
        <time>2026-06-18T08:04:19.000Z</time>
      </trkpt>
      <trkpt lat="48.76454" lon="1.18848">
        <ele>145.19999694824</ele>
        <time>2026-06-18T08:04:21.000Z</time>
      </trkpt>
      <trkpt lat="48.76431" lon="1.18822">
        <ele>146.19999694824</ele>
        <time>2026-06-18T08:04:28.000Z</time>
      </trkpt>
      <trkpt lat="48.76412" lon="1.18796">
        <ele>147.19999694824</ele>
        <time>2026-06-18T08:04:35.000Z</time>
      </trkpt>
      <trkpt lat="48.7641" lon="1.18791">
        <ele>147.39999389648</ele>
        <time>2026-06-18T08:04:36.000Z</time>
      </trkpt>
      <trkpt lat="48.764" lon="1.1877">
        <ele>148</ele>
        <time>2026-06-18T08:04:41.000Z</time>
      </trkpt>
      <trkpt lat="48.76397" lon="1.18769">
        <ele>148</ele>
        <time>2026-06-18T08:04:42.000Z</time>
      </trkpt>
      <trkpt lat="48.76386" lon="1.1877">
        <ele>148.39999389648</ele>
        <time>2026-06-18T08:04:45.000Z</time>
      </trkpt>
      <trkpt lat="48.76373" lon="1.18765">
        <ele>148.60000610352</ele>
        <time>2026-06-18T08:04:49.000Z</time>
      </trkpt>
      <trkpt lat="48.76352" lon="1.1874">
        <ele>149.19999694824</ele>
        <time>2026-06-18T08:04:56.000Z</time>
      </trkpt>
      <trkpt lat="48.76348" lon="1.18737">
        <ele>149.39999389648</ele>
        <time>2026-06-18T08:04:57.000Z</time>
      </trkpt>
      <trkpt lat="48.76325" lon="1.18713">
        <ele>150.60000610352</ele>
        <time>2026-06-18T08:05:04.000Z</time>
      </trkpt>
      <trkpt lat="48.76293" lon="1.18681">
        <ele>151.80000305176</ele>
        <time>2026-06-18T08:05:13.000Z</time>
      </trkpt>
      <trkpt lat="48.76262" lon="1.18648">
        <ele>152.80000305176</ele>
        <time>2026-06-18T08:05:22.000Z</time>
      </trkpt>
      <trkpt lat="48.76258" lon="1.18644">
        <ele>153</ele>
        <time>2026-06-18T08:05:23.000Z</time>
      </trkpt>
      <trkpt lat="48.76237" lon="1.1863">
        <ele>153.39999389648</ele>
        <time>2026-06-18T08:05:28.000Z</time>
      </trkpt>
      <trkpt lat="48.76227" lon="1.18627">
        <ele>153.60000610352</ele>
        <time>2026-06-18T08:05:30.000Z</time>
      </trkpt>
      <trkpt lat="48.76204" lon="1.1862">
        <ele>154</ele>
        <time>2026-06-18T08:05:35.000Z</time>
      </trkpt>
      <trkpt lat="48.76199" lon="1.18619">
        <ele>154</ele>
        <time>2026-06-18T08:05:36.000Z</time>
      </trkpt>
      <trkpt lat="48.76177" lon="1.18616">
        <ele>154.39999389648</ele>
        <time>2026-06-18T08:05:41.000Z</time>
      </trkpt>
      <trkpt lat="48.7615" lon="1.18613">
        <ele>155</ele>
        <time>2026-06-18T08:05:47.000Z</time>
      </trkpt>
      <trkpt lat="48.76146" lon="1.18612">
        <ele>155</ele>
        <time>2026-06-18T08:05:48.000Z</time>
      </trkpt>
      <trkpt lat="48.76128" lon="1.18609">
        <ele>155.19999694824</ele>
        <time>2026-06-18T08:05:52.000Z</time>
      </trkpt>
      <trkpt lat="48.76115" lon="1.18605">
        <ele>155.60000610352</ele>
        <time>2026-06-18T08:05:55.000Z</time>
      </trkpt>
      <trkpt lat="48.76078" lon="1.18598">
        <ele>156</ele>
        <time>2026-06-18T08:06:03.000Z</time>
      </trkpt>
      <trkpt lat="48.76069" lon="1.18596">
        <ele>156</ele>
        <time>2026-06-18T08:06:05.000Z</time>
      </trkpt>
      <trkpt lat="48.76043" lon="1.18584">
        <ele>156.39999389648</ele>
        <time>2026-06-18T08:06:11.000Z</time>
      </trkpt>
      <trkpt lat="48.76013" lon="1.18567">
        <ele>157</ele>
        <time>2026-06-18T08:06:18.000Z</time>
      </trkpt>
      <trkpt lat="48.76" lon="1.1856">
        <ele>157.19999694824</ele>
        <time>2026-06-18T08:06:21.000Z</time>
      </trkpt>
      <trkpt lat="48.75971" lon="1.18545">
        <ele>158</ele>
        <time>2026-06-18T08:06:28.000Z</time>
      </trkpt>
      <trkpt lat="48.75959" lon="1.18537">
        <ele>158.60000610352</ele>
        <time>2026-06-18T08:06:31.000Z</time>
      </trkpt>
      <trkpt lat="48.75955" lon="1.18535">
        <ele>158.80000305176</ele>
        <time>2026-06-18T08:06:32.000Z</time>
      </trkpt>
      <trkpt lat="48.75947" lon="1.1853">
        <ele>159</ele>
        <time>2026-06-18T08:06:34.000Z</time>
      </trkpt>
      <trkpt lat="48.75915" lon="1.18512">
        <ele>159.80000305176</ele>
        <time>2026-06-18T08:06:42.000Z</time>
      </trkpt>
      <trkpt lat="48.75898" lon="1.18504">
        <ele>160.19999694824</ele>
        <time>2026-06-18T08:06:46.000Z</time>
      </trkpt>
      <trkpt lat="48.75864" lon="1.18486">
        <ele>161</ele>
        <time>2026-06-18T08:06:54.000Z</time>
      </trkpt>
      <trkpt lat="48.75847" lon="1.18479">
        <ele>161.19999694824</ele>
        <time>2026-06-18T08:06:58.000Z</time>
      </trkpt>
      <trkpt lat="48.75826" lon="1.1847">
        <ele>161.60000610352</ele>
        <time>2026-06-18T08:07:03.000Z</time>
      </trkpt>
      <trkpt lat="48.75784" lon="1.18453">
        <ele>162.39999389648</ele>
        <time>2026-06-18T08:07:12.000Z</time>
      </trkpt>
      <trkpt lat="48.7578" lon="1.18451">
        <ele>162.60000610352</ele>
        <time>2026-06-18T08:07:13.000Z</time>
      </trkpt>
      <trkpt lat="48.75775" lon="1.18449">
        <ele>162.60000610352</ele>
        <time>2026-06-18T08:07:14.000Z</time>
      </trkpt>
      <trkpt lat="48.75733" lon="1.18433">
        <ele>163</ele>
        <time>2026-06-18T08:07:23.000Z</time>
      </trkpt>
      <trkpt lat="48.75715" lon="1.18426">
        <ele>163.39999389648</ele>
        <time>2026-06-18T08:07:27.000Z</time>
      </trkpt>
      <trkpt lat="48.75682" lon="1.18412">
        <ele>164.19999694824</ele>
        <time>2026-06-18T08:07:34.000Z</time>
      </trkpt>
      <trkpt lat="48.75673" lon="1.18408">
        <ele>164.39999389648</ele>
        <time>2026-06-18T08:07:36.000Z</time>
      </trkpt>
      <trkpt lat="48.75633" lon="1.18391">
        <ele>164.80000305176</ele>
        <time>2026-06-18T08:07:45.000Z</time>
      </trkpt>
      <trkpt lat="48.75591" lon="1.18373">
        <ele>165.19999694824</ele>
        <time>2026-06-18T08:07:54.000Z</time>
      </trkpt>
      <trkpt lat="48.75586" lon="1.18371">
        <ele>165.39999389648</ele>
        <time>2026-06-18T08:07:55.000Z</time>
      </trkpt>
      <trkpt lat="48.75563" lon="1.18363">
        <ele>165.60000610352</ele>
        <time>2026-06-18T08:08:00.000Z</time>
      </trkpt>
      <trkpt lat="48.75513" lon="1.18349">
        <ele>166</ele>
        <time>2026-06-18T08:08:11.000Z</time>
      </trkpt>
      <trkpt lat="48.75473" lon="1.1834">
        <ele>166.19999694824</ele>
        <time>2026-06-18T08:08:19.000Z</time>
      </trkpt>
      <trkpt lat="48.75437" lon="1.18332">
        <ele>166.39999389648</ele>
        <time>2026-06-18T08:08:26.000Z</time>
      </trkpt>
      <trkpt lat="48.75382" lon="1.1832">
        <ele>167</ele>
        <time>2026-06-18T08:08:37.000Z</time>
      </trkpt>
      <trkpt lat="48.75377" lon="1.18319">
        <ele>167</ele>
        <time>2026-06-18T08:08:38.000Z</time>
      </trkpt>
      <trkpt lat="48.75322" lon="1.18308">
        <ele>167.19999694824</ele>
        <time>2026-06-18T08:08:49.000Z</time>
      </trkpt>
      <trkpt lat="48.75292" lon="1.18303">
        <ele>167.60000610352</ele>
        <time>2026-06-18T08:08:55.000Z</time>
      </trkpt>
      <trkpt lat="48.75268" lon="1.18298">
        <ele>167.80000305176</ele>
        <time>2026-06-18T08:08:59.000Z</time>
      </trkpt>
      <trkpt lat="48.75209" lon="1.18286">
        <ele>167.19999694824</ele>
        <time>2026-06-18T08:09:10.000Z</time>
      </trkpt>
      <trkpt lat="48.75205" lon="1.18285">
        <ele>167.19999694824</ele>
        <time>2026-06-18T08:09:11.000Z</time>
      </trkpt>
      <trkpt lat="48.75176" lon="1.1828">
        <ele>167.19999694824</ele>
        <time>2026-06-18T08:09:16.000Z</time>
      </trkpt>
      <trkpt lat="48.75152" lon="1.18276">
        <ele>167.19999694824</ele>
        <time>2026-06-18T08:09:20.000Z</time>
      </trkpt>
      <trkpt lat="48.75094" lon="1.1827">
        <ele>167</ele>
        <time>2026-06-18T08:09:30.000Z</time>
      </trkpt>
      <trkpt lat="48.7506" lon="1.1828">
        <ele>166.80000305176</ele>
        <time>2026-06-18T08:09:36.000Z</time>
      </trkpt>
      <trkpt lat="48.75028" lon="1.18301">
        <ele>166.60000610352</ele>
        <time>2026-06-18T08:09:42.000Z</time>
      </trkpt>
      <trkpt lat="48.75012" lon="1.18313">
        <ele>166.39999389648</ele>
        <time>2026-06-18T08:09:45.000Z</time>
      </trkpt>
      <trkpt lat="48.74961" lon="1.18352">
        <ele>166.19999694824</ele>
        <time>2026-06-18T08:09:55.000Z</time>
      </trkpt>
      <trkpt lat="48.74951" lon="1.18358">
        <ele>166.19999694824</ele>
        <time>2026-06-18T08:09:57.000Z</time>
      </trkpt>
      <trkpt lat="48.74901" lon="1.18384">
        <ele>165.80000305176</ele>
        <time>2026-06-18T08:10:06.000Z</time>
      </trkpt>
      <trkpt lat="48.7485" lon="1.18394">
        <ele>165.80000305176</ele>
        <time>2026-06-18T08:10:15.000Z</time>
      </trkpt>
      <trkpt lat="48.748" lon="1.18392">
        <ele>165.60000610352</ele>
        <time>2026-06-18T08:10:23.000Z</time>
      </trkpt>
      <trkpt lat="48.74744" lon="1.18386">
        <ele>165.39999389648</ele>
        <time>2026-06-18T08:10:32.000Z</time>
      </trkpt>
      <trkpt lat="48.74719" lon="1.18384">
        <ele>165.19999694824</ele>
        <time>2026-06-18T08:10:36.000Z</time>
      </trkpt>
      <trkpt lat="48.74664" lon="1.18378">
        <ele>164.60000610352</ele>
        <time>2026-06-18T08:10:45.000Z</time>
      </trkpt>
      <trkpt lat="48.7464" lon="1.18376">
        <ele>164.39999389648</ele>
        <time>2026-06-18T08:10:49.000Z</time>
      </trkpt>
      <trkpt lat="48.74634" lon="1.18375">
        <ele>164.39999389648</ele>
        <time>2026-06-18T08:10:50.000Z</time>
      </trkpt>
      <trkpt lat="48.74576" lon="1.18369">
        <ele>164.39999389648</ele>
        <time>2026-06-18T08:11:00.000Z</time>
      </trkpt>
      <trkpt lat="48.74525" lon="1.18357">
        <ele>164.80000305176</ele>
        <time>2026-06-18T08:11:09.000Z</time>
      </trkpt>
      <trkpt lat="48.74484" lon="1.18338">
        <ele>165</ele>
        <time>2026-06-18T08:11:17.000Z</time>
      </trkpt>
      <trkpt lat="48.74478" lon="1.18335">
        <ele>165</ele>
        <time>2026-06-18T08:11:18.000Z</time>
      </trkpt>
      <trkpt lat="48.74447" lon="1.18321">
        <ele>165.39999389648</ele>
        <time>2026-06-18T08:11:24.000Z</time>
      </trkpt>
      <trkpt lat="48.74433" lon="1.18314">
        <ele>166</ele>
        <time>2026-06-18T08:11:27.000Z</time>
      </trkpt>
      <trkpt lat="48.74388" lon="1.18294">
        <ele>166.60000610352</ele>
        <time>2026-06-18T08:11:36.000Z</time>
      </trkpt>
      <trkpt lat="48.74378" lon="1.18289">
        <ele>166.80000305176</ele>
        <time>2026-06-18T08:11:38.000Z</time>
      </trkpt>
      <trkpt lat="48.7435" lon="1.18275">
        <ele>167.60000610352</ele>
        <time>2026-06-18T08:11:44.000Z</time>
      </trkpt>
      <trkpt lat="48.7434" lon="1.18269">
        <ele>167.80000305176</ele>
        <time>2026-06-18T08:11:46.000Z</time>
      </trkpt>
      <trkpt lat="48.74307" lon="1.18252">
        <ele>168</ele>
        <time>2026-06-18T08:11:53.000Z</time>
      </trkpt>
      <trkpt lat="48.74265" lon="1.18219">
        <ele>168.60000610352</ele>
        <time>2026-06-18T08:12:02.000Z</time>
      </trkpt>
      <trkpt lat="48.74233" lon="1.18192">
        <ele>168.80000305176</ele>
        <time>2026-06-18T08:12:09.000Z</time>
      </trkpt>
      <trkpt lat="48.74224" lon="1.18184">
        <ele>169</ele>
        <time>2026-06-18T08:12:11.000Z</time>
      </trkpt>
      <trkpt lat="48.74184" lon="1.18151">
        <ele>169.80000305176</ele>
        <time>2026-06-18T08:12:20.000Z</time>
      </trkpt>
      <trkpt lat="48.74179" lon="1.18148">
        <ele>169.80000305176</ele>
        <time>2026-06-18T08:12:21.000Z</time>
      </trkpt>
      <trkpt lat="48.74145" lon="1.18125">
        <ele>170.19999694824</ele>
        <time>2026-06-18T08:12:28.000Z</time>
      </trkpt>
      <trkpt lat="48.7412" lon="1.18109">
        <ele>170.60000610352</ele>
        <time>2026-06-18T08:12:33.000Z</time>
      </trkpt>
      <trkpt lat="48.741" lon="1.18098">
        <ele>170.60000610352</ele>
        <time>2026-06-18T08:12:37.000Z</time>
      </trkpt>
      <trkpt lat="48.7405" lon="1.18065">
        <ele>170.60000610352</ele>
        <time>2026-06-18T08:12:47.000Z</time>
      </trkpt>
      <trkpt lat="48.74035" lon="1.18055">
        <ele>170.60000610352</ele>
        <time>2026-06-18T08:12:50.000Z</time>
      </trkpt>
      <trkpt lat="48.73985" lon="1.18022">
        <ele>170.60000610352</ele>
        <time>2026-06-18T08:13:00.000Z</time>
      </trkpt>
      <trkpt lat="48.73964" lon="1.18009">
        <ele>170.80000305176</ele>
        <time>2026-06-18T08:13:04.000Z</time>
      </trkpt>
      <trkpt lat="48.73938" lon="1.17993">
        <ele>170.80000305176</ele>
        <time>2026-06-18T08:13:09.000Z</time>
      </trkpt>
      <trkpt lat="48.73886" lon="1.17964">
        <ele>170.60000610352</ele>
        <time>2026-06-18T08:13:19.000Z</time>
      </trkpt>
      <trkpt lat="48.73871" lon="1.17957">
        <ele>170.60000610352</ele>
        <time>2026-06-18T08:13:22.000Z</time>
      </trkpt>
      <trkpt lat="48.73821" lon="1.17933">
        <ele>170</ele>
        <time>2026-06-18T08:13:31.000Z</time>
      </trkpt>
      <trkpt lat="48.73799" lon="1.1792">
        <ele>169.80000305176</ele>
        <time>2026-06-18T08:13:35.000Z</time>
      </trkpt>
      <trkpt lat="48.73772" lon="1.17901">
        <ele>169.80000305176</ele>
        <time>2026-06-18T08:13:40.000Z</time>
      </trkpt>
      <trkpt lat="48.73748" lon="1.1788">
        <ele>169.39999389648</ele>
        <time>2026-06-18T08:13:45.000Z</time>
      </trkpt>
      <trkpt lat="48.73741" lon="1.17872">
        <ele>169.19999694824</ele>
        <time>2026-06-18T08:13:46.000Z</time>
      </trkpt>
      <trkpt lat="48.73718" lon="1.17851">
        <ele>168.80000305176</ele>
        <time>2026-06-18T08:13:50.000Z</time>
      </trkpt>
      <trkpt lat="48.73707" lon="1.17839">
        <ele>168.19999694824</ele>
        <time>2026-06-18T08:13:52.000Z</time>
      </trkpt>
      <trkpt lat="48.73678" lon="1.17811">
        <ele>167.80000305176</ele>
        <time>2026-06-18T08:13:56.000Z</time>
      </trkpt>
      <trkpt lat="48.7367" lon="1.17804">
        <ele>167.60000610352</ele>
        <time>2026-06-18T08:13:57.000Z</time>
      </trkpt>
      <trkpt lat="48.73639" lon="1.17769">
        <ele>166.39999389648</ele>
        <time>2026-06-18T08:14:02.000Z</time>
      </trkpt>
      <trkpt lat="48.73633" lon="1.17762">
        <ele>166.19999694824</ele>
        <time>2026-06-18T08:14:03.000Z</time>
      </trkpt>
      <trkpt lat="48.73587" lon="1.17715">
        <ele>165.80000305176</ele>
        <time>2026-06-18T08:14:11.000Z</time>
      </trkpt>
      <trkpt lat="48.7357" lon="1.17697">
        <ele>165.80000305176</ele>
        <time>2026-06-18T08:14:14.000Z</time>
      </trkpt>
      <trkpt lat="48.73532" lon="1.17659">
        <ele>165.80000305176</ele>
        <time>2026-06-18T08:14:21.000Z</time>
      </trkpt>
      <trkpt lat="48.73501" lon="1.17635">
        <ele>166</ele>
        <time>2026-06-18T08:14:27.000Z</time>
      </trkpt>
      <trkpt lat="48.7348" lon="1.17624">
        <ele>166.19999694824</ele>
        <time>2026-06-18T08:14:31.000Z</time>
      </trkpt>
      <trkpt lat="48.7347" lon="1.1762">
        <ele>166.39999389648</ele>
        <time>2026-06-18T08:14:33.000Z</time>
      </trkpt>
      <trkpt lat="48.73431" lon="1.17611">
        <ele>167.39999389648</ele>
        <time>2026-06-18T08:14:41.000Z</time>
      </trkpt>
      <trkpt lat="48.73416" lon="1.17609">
        <ele>167.60000610352</ele>
        <time>2026-06-18T08:14:44.000Z</time>
      </trkpt>
      <trkpt lat="48.73379" lon="1.17606">
        <ele>168.19999694824</ele>
        <time>2026-06-18T08:14:51.000Z</time>
      </trkpt>
      <trkpt lat="48.73359" lon="1.17604">
        <ele>168.60000610352</ele>
        <time>2026-06-18T08:14:55.000Z</time>
      </trkpt>
      <trkpt lat="48.73335" lon="1.17602">
        <ele>169.19999694824</ele>
        <time>2026-06-18T08:15:00.000Z</time>
      </trkpt>
      <trkpt lat="48.73305" lon="1.176">
        <ele>169.60000610352</ele>
        <time>2026-06-18T08:15:06.000Z</time>
      </trkpt>
      <trkpt lat="48.7329" lon="1.17602">
        <ele>170</ele>
        <time>2026-06-18T08:15:09.000Z</time>
      </trkpt>
      <trkpt lat="48.73275" lon="1.17606">
        <ele>170.60000610352</ele>
        <time>2026-06-18T08:15:12.000Z</time>
      </trkpt>
      <trkpt lat="48.73252" lon="1.17617">
        <ele>171.19999694824</ele>
        <time>2026-06-18T08:15:17.000Z</time>
      </trkpt>
      <trkpt lat="48.73232" lon="1.17629">
        <ele>171.80000305176</ele>
        <time>2026-06-18T08:15:22.000Z</time>
      </trkpt>
      <trkpt lat="48.73208" lon="1.17644">
        <ele>172.19999694824</ele>
        <time>2026-06-18T08:15:27.000Z</time>
      </trkpt>
      <trkpt lat="48.73168" lon="1.17669">
        <ele>172.80000305176</ele>
        <time>2026-06-18T08:15:36.000Z</time>
      </trkpt>
      <trkpt lat="48.73163" lon="1.17671">
        <ele>172.80000305176</ele>
        <time>2026-06-18T08:15:37.000Z</time>
      </trkpt>
      <trkpt lat="48.73118" lon="1.17688">
        <ele>173.39999389648</ele>
        <time>2026-06-18T08:15:46.000Z</time>
      </trkpt>
      <trkpt lat="48.73088" lon="1.17694">
        <ele>173.80000305176</ele>
        <time>2026-06-18T08:15:52.000Z</time>
      </trkpt>
      <trkpt lat="48.73062" lon="1.17699">
        <ele>174</ele>
        <time>2026-06-18T08:15:57.000Z</time>
      </trkpt>
      <trkpt lat="48.73004" lon="1.17711">
        <ele>174.60000610352</ele>
        <time>2026-06-18T08:16:08.000Z</time>
      </trkpt>
      <trkpt lat="48.72982" lon="1.17713">
        <ele>174.60000610352</ele>
        <time>2026-06-18T08:16:12.000Z</time>
      </trkpt>
      <trkpt lat="48.72955" lon="1.1771">
        <ele>174.60000610352</ele>
        <time>2026-06-18T08:16:17.000Z</time>
      </trkpt>
      <trkpt lat="48.72939" lon="1.17707">
        <ele>174.80000305176</ele>
        <time>2026-06-18T08:16:20.000Z</time>
      </trkpt>
      <trkpt lat="48.72895" lon="1.17698">
        <ele>175</ele>
        <time>2026-06-18T08:16:28.000Z</time>
      </trkpt>
      <trkpt lat="48.7284" lon="1.17682">
        <ele>175.60000610352</ele>
        <time>2026-06-18T08:16:38.000Z</time>
      </trkpt>
      <trkpt lat="48.72815" lon="1.17675">
        <ele>176</ele>
        <time>2026-06-18T08:16:42.000Z</time>
      </trkpt>
      <trkpt lat="48.72774" lon="1.17662">
        <ele>176.39999389648</ele>
        <time>2026-06-18T08:16:50.000Z</time>
      </trkpt>
      <trkpt lat="48.72746" lon="1.17661">
        <ele>176.60000610352</ele>
        <time>2026-06-18T08:16:55.000Z</time>
      </trkpt>
      <trkpt lat="48.72735" lon="1.17664">
        <ele>176.60000610352</ele>
        <time>2026-06-18T08:16:57.000Z</time>
      </trkpt>
      <trkpt lat="48.727" lon="1.1768">
        <ele>177</ele>
        <time>2026-06-18T08:17:04.000Z</time>
      </trkpt>
      <trkpt lat="48.72676" lon="1.17694">
        <ele>177.19999694824</ele>
        <time>2026-06-18T08:17:09.000Z</time>
      </trkpt>
      <trkpt lat="48.7266" lon="1.17703">
        <ele>177.39999389648</ele>
        <time>2026-06-18T08:17:12.000Z</time>
      </trkpt>
      <trkpt lat="48.72612" lon="1.1772">
        <ele>177.80000305176</ele>
        <time>2026-06-18T08:17:21.000Z</time>
      </trkpt>
      <trkpt lat="48.72561" lon="1.17731">
        <ele>177.80000305176</ele>
        <time>2026-06-18T08:17:30.000Z</time>
      </trkpt>
      <trkpt lat="48.72503" lon="1.17743">
        <ele>177.60000610352</ele>
        <time>2026-06-18T08:17:40.000Z</time>
      </trkpt>
      <trkpt lat="48.72444" lon="1.17756">
        <ele>177.39999389648</ele>
        <time>2026-06-18T08:17:50.000Z</time>
      </trkpt>
      <trkpt lat="48.72432" lon="1.17758">
        <ele>177.19999694824</ele>
        <time>2026-06-18T08:17:52.000Z</time>
      </trkpt>
      <trkpt lat="48.72374" lon="1.17767">
        <ele>177</ele>
        <time>2026-06-18T08:18:01.000Z</time>
      </trkpt>
      <trkpt lat="48.72367" lon="1.17769">
        <ele>176.80000305176</ele>
        <time>2026-06-18T08:18:02.000Z</time>
      </trkpt>
      <trkpt lat="48.72311" lon="1.17777">
        <ele>176</ele>
        <time>2026-06-18T08:18:10.000Z</time>
      </trkpt>
      <trkpt lat="48.72304" lon="1.17778">
        <ele>176</ele>
        <time>2026-06-18T08:18:11.000Z</time>
      </trkpt>
      <trkpt lat="48.72248" lon="1.17787">
        <ele>175</ele>
        <time>2026-06-18T08:18:18.000Z</time>
      </trkpt>
      <trkpt lat="48.7224" lon="1.17788">
        <ele>175</ele>
        <time>2026-06-18T08:18:19.000Z</time>
      </trkpt>
      <trkpt lat="48.72198" lon="1.17792">
        <ele>173.80000305176</ele>
        <time>2026-06-18T08:18:24.000Z</time>
      </trkpt>
      <trkpt lat="48.72189" lon="1.17791">
        <ele>173.60000610352</ele>
        <time>2026-06-18T08:18:25.000Z</time>
      </trkpt>
      <trkpt lat="48.72155" lon="1.17788">
        <ele>172.80000305176</ele>
        <time>2026-06-18T08:18:29.000Z</time>
      </trkpt>
      <trkpt lat="48.72113" lon="1.17783">
        <ele>172</ele>
        <time>2026-06-18T08:18:34.000Z</time>
      </trkpt>
      <trkpt lat="48.72105" lon="1.17782">
        <ele>171.80000305176</ele>
        <time>2026-06-18T08:18:35.000Z</time>
      </trkpt>
      <trkpt lat="48.72057" lon="1.17777">
        <ele>170.60000610352</ele>
        <time>2026-06-18T08:18:41.000Z</time>
      </trkpt>
      <trkpt lat="48.72041" lon="1.17775">
        <ele>170</ele>
        <time>2026-06-18T08:18:43.000Z</time>
      </trkpt>
      <trkpt lat="48.71983" lon="1.17768">
        <ele>169.80000305176</ele>
        <time>2026-06-18T08:18:51.000Z</time>
      </trkpt>
      <trkpt lat="48.71969" lon="1.17766">
        <ele>169.80000305176</ele>
        <time>2026-06-18T08:18:53.000Z</time>
      </trkpt>
      <trkpt lat="48.7191" lon="1.1776">
        <ele>169.80000305176</ele>
        <time>2026-06-18T08:19:02.000Z</time>
      </trkpt>
      <trkpt lat="48.71865" lon="1.17755">
        <ele>169.80000305176</ele>
        <time>2026-06-18T08:19:10.000Z</time>
      </trkpt>
      <trkpt lat="48.71834" lon="1.17752">
        <ele>170.39999389648</ele>
        <time>2026-06-18T08:19:16.000Z</time>
      </trkpt>
      <trkpt lat="48.71823" lon="1.1775">
        <ele>170.80000305176</ele>
        <time>2026-06-18T08:19:18.000Z</time>
      </trkpt>
      <trkpt lat="48.71792" lon="1.17744">
        <ele>171.80000305176</ele>
        <time>2026-06-18T08:19:24.000Z</time>
      </trkpt>
      <trkpt lat="48.71777" lon="1.17739">
        <ele>172</ele>
        <time>2026-06-18T08:19:27.000Z</time>
      </trkpt>
      <trkpt lat="48.71737" lon="1.17723">
        <ele>173</ele>
        <time>2026-06-18T08:19:35.000Z</time>
      </trkpt>
      <trkpt lat="48.717" lon="1.17707">
        <ele>173.80000305176</ele>
        <time>2026-06-18T08:19:42.000Z</time>
      </trkpt>
      <trkpt lat="48.71689" lon="1.17702">
        <ele>174</ele>
        <time>2026-06-18T08:19:44.000Z</time>
      </trkpt>
      <trkpt lat="48.71678" lon="1.17697">
        <ele>174</ele>
        <time>2026-06-18T08:19:46.000Z</time>
      </trkpt>
      <trkpt lat="48.71645" lon="1.17682">
        <ele>174.39999389648</ele>
        <time>2026-06-18T08:19:52.000Z</time>
      </trkpt>
      <trkpt lat="48.71596" lon="1.17662">
        <ele>174.80000305176</ele>
        <time>2026-06-18T08:20:01.000Z</time>
      </trkpt>
      <trkpt lat="48.71545" lon="1.17639">
        <ele>175</ele>
        <time>2026-06-18T08:20:11.000Z</time>
      </trkpt>
      <trkpt lat="48.7154" lon="1.17636">
        <ele>175</ele>
        <time>2026-06-18T08:20:12.000Z</time>
      </trkpt>
      <trkpt lat="48.71491" lon="1.17606">
        <ele>176</ele>
        <time>2026-06-18T08:20:22.000Z</time>
      </trkpt>
      <trkpt lat="48.71482" lon="1.17599">
        <ele>176.19999694824</ele>
        <time>2026-06-18T08:20:24.000Z</time>
      </trkpt>
      <trkpt lat="48.7145" lon="1.1757">
        <ele>177</ele>
        <time>2026-06-18T08:20:31.000Z</time>
      </trkpt>
      <trkpt lat="48.71446" lon="1.17566">
        <ele>177.19999694824</ele>
        <time>2026-06-18T08:20:32.000Z</time>
      </trkpt>
      <trkpt lat="48.71403" lon="1.17531">
        <ele>178</ele>
        <time>2026-06-18T08:20:41.000Z</time>
      </trkpt>
      <trkpt lat="48.71358" lon="1.17505">
        <ele>178.39999389648</ele>
        <time>2026-06-18T08:20:50.000Z</time>
      </trkpt>
      <trkpt lat="48.71305" lon="1.17486">
        <ele>178.80000305176</ele>
        <time>2026-06-18T08:21:00.000Z</time>
      </trkpt>
      <trkpt lat="48.71251" lon="1.1747">
        <ele>179</ele>
        <time>2026-06-18T08:21:10.000Z</time>
      </trkpt>
      <trkpt lat="48.71246" lon="1.17468">
        <ele>179.19999694824</ele>
        <time>2026-06-18T08:21:11.000Z</time>
      </trkpt>
      <trkpt lat="48.7123" lon="1.17464">
        <ele>179.39999389648</ele>
        <time>2026-06-18T08:21:14.000Z</time>
      </trkpt>
      <trkpt lat="48.71187" lon="1.17453">
        <ele>179.60000610352</ele>
        <time>2026-06-18T08:21:22.000Z</time>
      </trkpt>
      <trkpt lat="48.71132" lon="1.1744">
        <ele>180.19999694824</ele>
        <time>2026-06-18T08:21:32.000Z</time>
      </trkpt>
      <trkpt lat="48.71126" lon="1.17439">
        <ele>180.19999694824</ele>
        <time>2026-06-18T08:21:33.000Z</time>
      </trkpt>
      <trkpt lat="48.7109" lon="1.17436">
        <ele>180.39999389648</ele>
        <time>2026-06-18T08:21:40.000Z</time>
      </trkpt>
      <trkpt lat="48.71076" lon="1.17436">
        <ele>180.39999389648</ele>
        <time>2026-06-18T08:21:42.000Z</time>
      </trkpt>
      <trkpt lat="48.71019" lon="1.17438">
        <ele>180.80000305176</ele>
        <time>2026-06-18T08:21:52.000Z</time>
      </trkpt>
      <trkpt lat="48.70961" lon="1.17443">
        <ele>181</ele>
        <time>2026-06-18T08:22:02.000Z</time>
      </trkpt>
      <trkpt lat="48.70955" lon="1.17445">
        <ele>181</ele>
        <time>2026-06-18T08:22:03.000Z</time>
      </trkpt>
      <trkpt lat="48.70905" lon="1.17464">
        <ele>181</ele>
        <time>2026-06-18T08:22:12.000Z</time>
      </trkpt>
      <trkpt lat="48.70849" lon="1.17488">
        <ele>180.80000305176</ele>
        <time>2026-06-18T08:22:22.000Z</time>
      </trkpt>
      <trkpt lat="48.70832" lon="1.17495">
        <ele>180.60000610352</ele>
        <time>2026-06-18T08:22:25.000Z</time>
      </trkpt>
      <trkpt lat="48.70777" lon="1.17521">
        <ele>180.19999694824</ele>
        <time>2026-06-18T08:22:35.000Z</time>
      </trkpt>
      <trkpt lat="48.70724" lon="1.17545">
        <ele>179.39999389648</ele>
        <time>2026-06-18T08:22:45.000Z</time>
      </trkpt>
      <trkpt lat="48.70711" lon="1.17551">
        <ele>179.39999389648</ele>
        <time>2026-06-18T08:22:47.000Z</time>
      </trkpt>
      <trkpt lat="48.70663" lon="1.17572">
        <ele>178.60000610352</ele>
        <time>2026-06-18T08:22:55.000Z</time>
      </trkpt>
      <trkpt lat="48.70644" lon="1.1758">
        <ele>178.19999694824</ele>
        <time>2026-06-18T08:22:58.000Z</time>
      </trkpt>
      <trkpt lat="48.70612" lon="1.17594">
        <ele>177.60000610352</ele>
        <time>2026-06-18T08:23:03.000Z</time>
      </trkpt>
      <trkpt lat="48.70586" lon="1.17603">
        <ele>177</ele>
        <time>2026-06-18T08:23:07.000Z</time>
      </trkpt>
      <trkpt lat="48.70562" lon="1.17608">
        <ele>176.39999389648</ele>
        <time>2026-06-18T08:23:11.000Z</time>
      </trkpt>
      <trkpt lat="48.70531" lon="1.17609">
        <ele>175.80000305176</ele>
        <time>2026-06-18T08:23:17.000Z</time>
      </trkpt>
      <trkpt lat="48.70517" lon="1.17607">
        <ele>175.80000305176</ele>
        <time>2026-06-18T08:23:20.000Z</time>
      </trkpt>
      <trkpt lat="48.70509" lon="1.17599">
        <ele>175.60000610352</ele>
        <time>2026-06-18T08:23:22.000Z</time>
      </trkpt>
      <trkpt lat="48.705" lon="1.1757">
        <ele>175.19999694824</ele>
        <time>2026-06-18T08:23:26.000Z</time>
      </trkpt>
      <trkpt lat="48.70493" lon="1.1753">
        <ele>175.19999694824</ele>
        <time>2026-06-18T08:23:31.000Z</time>
      </trkpt>
      <trkpt lat="48.70488" lon="1.17517">
        <ele>175</ele>
        <time>2026-06-18T08:23:33.000Z</time>
      </trkpt>
      <trkpt lat="48.7047" lon="1.17461">
        <ele>175.19999694824</ele>
        <time>2026-06-18T08:23:41.000Z</time>
      </trkpt>
      <trkpt lat="48.70456" lon="1.1741">
        <ele>175.60000610352</ele>
        <time>2026-06-18T08:23:48.000Z</time>
      </trkpt>
      <trkpt lat="48.70452" lon="1.17397">
        <ele>175.80000305176</ele>
        <time>2026-06-18T08:23:50.000Z</time>
      </trkpt>
      <trkpt lat="48.70446" lon="1.17376">
        <ele>176</ele>
        <time>2026-06-18T08:23:53.000Z</time>
      </trkpt>
      <trkpt lat="48.70443" lon="1.17369">
        <ele>176</ele>
        <time>2026-06-18T08:23:54.000Z</time>
      </trkpt>
      <trkpt lat="48.7043" lon="1.17344">
        <ele>176.39999389648</ele>
        <time>2026-06-18T08:23:58.000Z</time>
      </trkpt>
      <trkpt lat="48.70428" lon="1.17339">
        <ele>176.60000610352</ele>
        <time>2026-06-18T08:23:59.000Z</time>
      </trkpt>
      <trkpt lat="48.70414" lon="1.17312">
        <ele>177</ele>
        <time>2026-06-18T08:24:03.000Z</time>
      </trkpt>
      <trkpt lat="48.7041" lon="1.17305">
        <ele>177.19999694824</ele>
        <time>2026-06-18T08:24:04.000Z</time>
      </trkpt>
      <trkpt lat="48.70391" lon="1.17267">
        <ele>178</ele>
        <time>2026-06-18T08:24:10.000Z</time>
      </trkpt>
      <trkpt lat="48.70384" lon="1.17246">
        <ele>178.19999694824</ele>
        <time>2026-06-18T08:24:13.000Z</time>
      </trkpt>
      <trkpt lat="48.70376" lon="1.17224">
        <ele>178.39999389648</ele>
        <time>2026-06-18T08:24:16.000Z</time>
      </trkpt>
      <trkpt lat="48.70352" lon="1.17184">
        <ele>179</ele>
        <time>2026-06-18T08:24:22.000Z</time>
      </trkpt>
      <trkpt lat="48.70322" lon="1.17131">
        <ele>179</ele>
        <time>2026-06-18T08:24:30.000Z</time>
      </trkpt>
      <trkpt lat="48.70297" lon="1.17085">
        <ele>179</ele>
        <time>2026-06-18T08:24:37.000Z</time>
      </trkpt>
      <trkpt lat="48.70293" lon="1.1708">
        <ele>178.80000305176</ele>
        <time>2026-06-18T08:24:38.000Z</time>
      </trkpt>
      <trkpt lat="48.70283" lon="1.17066">
        <ele>178.60000610352</ele>
        <time>2026-06-18T08:24:40.000Z</time>
      </trkpt>
      <trkpt lat="48.7028" lon="1.17059">
        <ele>178.60000610352</ele>
        <time>2026-06-18T08:24:41.000Z</time>
      </trkpt>
      <trkpt lat="48.70264" lon="1.17008">
        <ele>178</ele>
        <time>2026-06-18T08:24:48.000Z</time>
      </trkpt>
      <trkpt lat="48.70261" lon="1.17">
        <ele>178</ele>
        <time>2026-06-18T08:24:49.000Z</time>
      </trkpt>
      <trkpt lat="48.70237" lon="1.16935">
        <ele>177.60000610352</ele>
        <time>2026-06-18T08:24:57.000Z</time>
      </trkpt>
      <trkpt lat="48.70212" lon="1.16867">
        <ele>177.60000610352</ele>
        <time>2026-06-18T08:25:06.000Z</time>
      </trkpt>
      <trkpt lat="48.70198" lon="1.16789">
        <ele>177.60000610352</ele>
        <time>2026-06-18T08:25:15.000Z</time>
      </trkpt>
      <trkpt lat="48.70195" lon="1.167">
        <ele>177.80000305176</ele>
        <time>2026-06-18T08:25:25.000Z</time>
      </trkpt>
      <trkpt lat="48.70204" lon="1.16632">
        <ele>178.19999694824</ele>
        <time>2026-06-18T08:25:33.000Z</time>
      </trkpt>
      <trkpt lat="48.70224" lon="1.16579">
        <ele>178.60000610352</ele>
        <time>2026-06-18T08:25:40.000Z</time>
      </trkpt>
      <trkpt lat="48.70249" lon="1.16527">
        <ele>179</ele>
        <time>2026-06-18T08:25:47.000Z</time>
      </trkpt>
      <trkpt lat="48.70268" lon="1.1647">
        <ele>179.19999694824</ele>
        <time>2026-06-18T08:25:54.000Z</time>
      </trkpt>
      <trkpt lat="48.70274" lon="1.16444">
        <ele>179.19999694824</ele>
        <time>2026-06-18T08:25:57.000Z</time>
      </trkpt>
      <trkpt lat="48.70281" lon="1.16411">
        <ele>179.39999389648</ele>
        <time>2026-06-18T08:26:01.000Z</time>
      </trkpt>
      <trkpt lat="48.70287" lon="1.1634">
        <ele>179.39999389648</ele>
        <time>2026-06-18T08:26:09.000Z</time>
      </trkpt>
      <trkpt lat="48.70288" lon="1.16253">
        <ele>179.39999389648</ele>
        <time>2026-06-18T08:26:19.000Z</time>
      </trkpt>
      <trkpt lat="48.70287" lon="1.16191">
        <ele>179.39999389648</ele>
        <time>2026-06-18T08:26:26.000Z</time>
      </trkpt>
      <trkpt lat="48.70286" lon="1.16136">
        <ele>179.60000610352</ele>
        <time>2026-06-18T08:26:32.000Z</time>
      </trkpt>
      <trkpt lat="48.70291" lon="1.16073">
        <ele>179.60000610352</ele>
        <time>2026-06-18T08:26:39.000Z</time>
      </trkpt>
      <trkpt lat="48.70297" lon="1.16044">
        <ele>179.80000305176</ele>
        <time>2026-06-18T08:26:42.000Z</time>
      </trkpt>
      <trkpt lat="48.70302" lon="1.16028">
        <ele>179.80000305176</ele>
        <time>2026-06-18T08:26:45.000Z</time>
      </trkpt>
      <trkpt lat="48.7032" lon="1.15982">
        <ele>180.39999389648</ele>
        <time>2026-06-18T08:26:51.000Z</time>
      </trkpt>
      <trkpt lat="48.70326" lon="1.15967">
        <ele>180.60000610352</ele>
        <time>2026-06-18T08:26:53.000Z</time>
      </trkpt>
      <trkpt lat="48.7035" lon="1.15898">
        <ele>181.39999389648</ele>
        <time>2026-06-18T08:27:02.000Z</time>
      </trkpt>
      <trkpt lat="48.70356" lon="1.15845">
        <ele>181.39999389648</ele>
        <time>2026-06-18T08:27:08.000Z</time>
      </trkpt>
      <trkpt lat="48.70355" lon="1.15763">
        <ele>181.39999389648</ele>
        <time>2026-06-18T08:27:17.000Z</time>
      </trkpt>
      <trkpt lat="48.70344" lon="1.15702">
        <ele>181.39999389648</ele>
        <time>2026-06-18T08:27:24.000Z</time>
      </trkpt>
      <trkpt lat="48.70322" lon="1.15619">
        <ele>181.19999694824</ele>
        <time>2026-06-18T08:27:34.000Z</time>
      </trkpt>
      <trkpt lat="48.70315" lon="1.15594">
        <ele>181</ele>
        <time>2026-06-18T08:27:37.000Z</time>
      </trkpt>
      <trkpt lat="48.70293" lon="1.1551">
        <ele>181</ele>
        <time>2026-06-18T08:27:47.000Z</time>
      </trkpt>
      <trkpt lat="48.70291" lon="1.15501">
        <ele>181</ele>
        <time>2026-06-18T08:27:48.000Z</time>
      </trkpt>
      <trkpt lat="48.70284" lon="1.15476">
        <ele>181</ele>
        <time>2026-06-18T08:27:51.000Z</time>
      </trkpt>
      <trkpt lat="48.70265" lon="1.15392">
        <ele>181.39999389648</ele>
        <time>2026-06-18T08:28:01.000Z</time>
      </trkpt>
      <trkpt lat="48.70264" lon="1.15384">
        <ele>181.39999389648</ele>
        <time>2026-06-18T08:28:02.000Z</time>
      </trkpt>
      <trkpt lat="48.7026" lon="1.15367">
        <ele>181.60000610352</ele>
        <time>2026-06-18T08:28:04.000Z</time>
      </trkpt>
      <trkpt lat="48.7025" lon="1.15308">
        <ele>181.80000305176</ele>
        <time>2026-06-18T08:28:11.000Z</time>
      </trkpt>
      <trkpt lat="48.70234" lon="1.15232">
        <ele>182.39999389648</ele>
        <time>2026-06-18T08:28:20.000Z</time>
      </trkpt>
      <trkpt lat="48.70229" lon="1.15207">
        <ele>182.60000610352</ele>
        <time>2026-06-18T08:28:23.000Z</time>
      </trkpt>
      <trkpt lat="48.70216" lon="1.15148">
        <ele>182.60000610352</ele>
        <time>2026-06-18T08:28:30.000Z</time>
      </trkpt>
      <trkpt lat="48.70194" lon="1.15082">
        <ele>182.80000305176</ele>
        <time>2026-06-18T08:28:38.000Z</time>
      </trkpt>
      <trkpt lat="48.70167" lon="1.15024">
        <ele>183.60000610352</ele>
        <time>2026-06-18T08:28:46.000Z</time>
      </trkpt>
      <trkpt lat="48.70151" lon="1.1499">
        <ele>183.80000305176</ele>
        <time>2026-06-18T08:28:50.000Z</time>
      </trkpt>
      <trkpt lat="48.70119" lon="1.14918">
        <ele>184</ele>
        <time>2026-06-18T08:29:00.000Z</time>
      </trkpt>
      <trkpt lat="48.70116" lon="1.1491">
        <ele>184</ele>
        <time>2026-06-18T08:29:01.000Z</time>
      </trkpt>
      <trkpt lat="48.70086" lon="1.14834">
        <ele>184.39999389648</ele>
        <time>2026-06-18T08:29:11.000Z</time>
      </trkpt>
      <trkpt lat="48.70084" lon="1.14827">
        <ele>184.60000610352</ele>
        <time>2026-06-18T08:29:12.000Z</time>
      </trkpt>
      <trkpt lat="48.70061" lon="1.14753">
        <ele>184.80000305176</ele>
        <time>2026-06-18T08:29:21.000Z</time>
      </trkpt>
      <trkpt lat="48.70041" lon="1.14691">
        <ele>184.80000305176</ele>
        <time>2026-06-18T08:29:29.000Z</time>
      </trkpt>
      <trkpt lat="48.70015" lon="1.1461">
        <ele>185</ele>
        <time>2026-06-18T08:29:39.000Z</time>
      </trkpt>
      <trkpt lat="48.69986" lon="1.14538">
        <ele>185.19999694824</ele>
        <time>2026-06-18T08:29:48.000Z</time>
      </trkpt>
      <trkpt lat="48.69953" lon="1.14483">
        <ele>185.39999389648</ele>
        <time>2026-06-18T08:29:56.000Z</time>
      </trkpt>
      <trkpt lat="48.69945" lon="1.14471">
        <ele>185.60000610352</ele>
        <time>2026-06-18T08:29:58.000Z</time>
      </trkpt>
      <trkpt lat="48.69911" lon="1.14421">
        <ele>185.80000305176</ele>
        <time>2026-06-18T08:30:06.000Z</time>
      </trkpt>
      <trkpt lat="48.69876" lon="1.14369">
        <ele>186.39999389648</ele>
        <time>2026-06-18T08:30:15.000Z</time>
      </trkpt>
      <trkpt lat="48.69864" lon="1.14351">
        <ele>186.60000610352</ele>
        <time>2026-06-18T08:30:18.000Z</time>
      </trkpt>
      <trkpt lat="48.69833" lon="1.143">
        <ele>187.19999694824</ele>
        <time>2026-06-18T08:30:26.000Z</time>
      </trkpt>
      <trkpt lat="48.69804" lon="1.14247">
        <ele>187.39999389648</ele>
        <time>2026-06-18T08:30:34.000Z</time>
      </trkpt>
      <trkpt lat="48.69767" lon="1.14178">
        <ele>187.60000610352</ele>
        <time>2026-06-18T08:30:44.000Z</time>
      </trkpt>
      <trkpt lat="48.69763" lon="1.14171">
        <ele>187.80000305176</ele>
        <time>2026-06-18T08:30:45.000Z</time>
      </trkpt>
      <trkpt lat="48.69759" lon="1.14164">
        <ele>187.80000305176</ele>
        <time>2026-06-18T08:30:46.000Z</time>
      </trkpt>
      <trkpt lat="48.69722" lon="1.14094">
        <ele>188.19999694824</ele>
        <time>2026-06-18T08:30:56.000Z</time>
      </trkpt>
      <trkpt lat="48.69718" lon="1.14087">
        <ele>188.39999389648</ele>
        <time>2026-06-18T08:30:57.000Z</time>
      </trkpt>
      <trkpt lat="48.69683" lon="1.14019">
        <ele>188.80000305176</ele>
        <time>2026-06-18T08:31:07.000Z</time>
      </trkpt>
      <trkpt lat="48.69679" lon="1.14012">
        <ele>188.80000305176</ele>
        <time>2026-06-18T08:31:08.000Z</time>
      </trkpt>
      <trkpt lat="48.69676" lon="1.14005">
        <ele>189</ele>
        <time>2026-06-18T08:31:09.000Z</time>
      </trkpt>
      <trkpt lat="48.69639" lon="1.13937">
        <ele>189.39999389648</ele>
        <time>2026-06-18T08:31:19.000Z</time>
      </trkpt>
      <trkpt lat="48.69603" lon="1.13869">
        <ele>189.60000610352</ele>
        <time>2026-06-18T08:31:29.000Z</time>
      </trkpt>
      <trkpt lat="48.69596" lon="1.13855">
        <ele>189.80000305176</ele>
        <time>2026-06-18T08:31:31.000Z</time>
      </trkpt>
      <trkpt lat="48.69586" lon="1.13835">
        <ele>190</ele>
        <time>2026-06-18T08:31:34.000Z</time>
      </trkpt>
      <trkpt lat="48.69562" lon="1.13789">
        <ele>190.19999694824</ele>
        <time>2026-06-18T08:31:41.000Z</time>
      </trkpt>
      <trkpt lat="48.69527" lon="1.13721">
        <ele>190.39999389648</ele>
        <time>2026-06-18T08:31:51.000Z</time>
      </trkpt>
      <trkpt lat="48.6952" lon="1.13708">
        <ele>190.60000610352</ele>
        <time>2026-06-18T08:31:53.000Z</time>
      </trkpt>
      <trkpt lat="48.69486" lon="1.13642">
        <ele>191</ele>
        <time>2026-06-18T08:32:03.000Z</time>
      </trkpt>
      <trkpt lat="48.69483" lon="1.13636">
        <ele>191</ele>
        <time>2026-06-18T08:32:04.000Z</time>
      </trkpt>
      <trkpt lat="48.69448" lon="1.13569">
        <ele>191.19999694824</ele>
        <time>2026-06-18T08:32:14.000Z</time>
      </trkpt>
      <trkpt lat="48.6942" lon="1.13503">
        <ele>191.80000305176</ele>
        <time>2026-06-18T08:32:23.000Z</time>
      </trkpt>
      <trkpt lat="48.69404" lon="1.13434">
        <ele>191.60000610352</ele>
        <time>2026-06-18T08:32:31.000Z</time>
      </trkpt>
      <trkpt lat="48.69396" lon="1.1336">
        <ele>191.60000610352</ele>
        <time>2026-06-18T08:32:40.000Z</time>
      </trkpt>
      <trkpt lat="48.6939" lon="1.1327">
        <ele>192</ele>
        <time>2026-06-18T08:32:50.000Z</time>
      </trkpt>
      <trkpt lat="48.69387" lon="1.13225">
        <ele>192.19999694824</ele>
        <time>2026-06-18T08:32:55.000Z</time>
      </trkpt>
      <trkpt lat="48.69383" lon="1.1317">
        <ele>192</ele>
        <time>2026-06-18T08:33:01.000Z</time>
      </trkpt>
      <trkpt lat="48.69377" lon="1.13082">
        <ele>192.19999694824</ele>
        <time>2026-06-18T08:33:10.000Z</time>
      </trkpt>
      <trkpt lat="48.69377" lon="1.13073">
        <ele>192</ele>
        <time>2026-06-18T08:33:12.000Z</time>
      </trkpt>
      <trkpt lat="48.69371" lon="1.1299">
        <ele>192.19999694824</ele>
        <time>2026-06-18T08:33:21.000Z</time>
      </trkpt>
      <trkpt lat="48.6937" lon="1.12972">
        <ele>192.19999694824</ele>
        <time>2026-06-18T08:33:23.000Z</time>
      </trkpt>
      <trkpt lat="48.69364" lon="1.12889">
        <ele>192.39999389648</ele>
        <time>2026-06-18T08:33:32.000Z</time>
      </trkpt>
      <trkpt lat="48.69359" lon="1.1282">
        <ele>192.60000610352</ele>
        <time>2026-06-18T08:33:40.000Z</time>
      </trkpt>
      <trkpt lat="48.69353" lon="1.1274">
        <ele>193</ele>
        <time>2026-06-18T08:33:49.000Z</time>
      </trkpt>
      <trkpt lat="48.69349" lon="1.12705">
        <ele>193.19999694824</ele>
        <time>2026-06-18T08:33:53.000Z</time>
      </trkpt>
      <trkpt lat="48.69345" lon="1.12669">
        <ele>193.19999694824</ele>
        <time>2026-06-18T08:33:57.000Z</time>
      </trkpt>
      <trkpt lat="48.69337" lon="1.12588">
        <ele>193.19999694824</ele>
        <time>2026-06-18T08:34:06.000Z</time>
      </trkpt>
      <trkpt lat="48.69336" lon="1.12579">
        <ele>193.19999694824</ele>
        <time>2026-06-18T08:34:07.000Z</time>
      </trkpt>
      <trkpt lat="48.69327" lon="1.12498">
        <ele>192.80000305176</ele>
        <time>2026-06-18T08:34:16.000Z</time>
      </trkpt>
      <trkpt lat="48.69325" lon="1.12489">
        <ele>192.60000610352</ele>
        <time>2026-06-18T08:34:17.000Z</time>
      </trkpt>
      <trkpt lat="48.69317" lon="1.12418">
        <ele>192.39999389648</ele>
        <time>2026-06-18T08:34:25.000Z</time>
      </trkpt>
      <trkpt lat="48.69315" lon="1.124">
        <ele>192.39999389648</ele>
        <time>2026-06-18T08:34:27.000Z</time>
      </trkpt>
      <trkpt lat="48.69306" lon="1.12318">
        <ele>192.39999389648</ele>
        <time>2026-06-18T08:34:36.000Z</time>
      </trkpt>
      <trkpt lat="48.69304" lon="1.12299">
        <ele>192.39999389648</ele>
        <time>2026-06-18T08:34:38.000Z</time>
      </trkpt>
      <trkpt lat="48.69299" lon="1.12262">
        <ele>192.19999694824</ele>
        <time>2026-06-18T08:34:42.000Z</time>
      </trkpt>
      <trkpt lat="48.6929" lon="1.12188">
        <ele>191.80000305176</ele>
        <time>2026-06-18T08:34:50.000Z</time>
      </trkpt>
      <trkpt lat="48.6928" lon="1.12098">
        <ele>191.19999694824</ele>
        <time>2026-06-18T08:34:59.000Z</time>
      </trkpt>
      <trkpt lat="48.69278" lon="1.12079">
        <ele>191.19999694824</ele>
        <time>2026-06-18T08:35:01.000Z</time>
      </trkpt>
      <trkpt lat="48.69267" lon="1.1199">
        <ele>190.60000610352</ele>
        <time>2026-06-18T08:35:10.000Z</time>
      </trkpt>
      <trkpt lat="48.69262" lon="1.11956">
        <ele>190.39999389648</ele>
        <time>2026-06-18T08:35:14.000Z</time>
      </trkpt>
      <trkpt lat="48.69253" lon="1.11904">
        <ele>190.19999694824</ele>
        <time>2026-06-18T08:35:19.000Z</time>
      </trkpt>
      <trkpt lat="48.69238" lon="1.11818">
        <ele>189.60000610352</ele>
        <time>2026-06-18T08:35:28.000Z</time>
      </trkpt>
      <trkpt lat="48.69221" lon="1.11736">
        <ele>189.19999694824</ele>
        <time>2026-06-18T08:35:37.000Z</time>
      </trkpt>
      <trkpt lat="48.69214" lon="1.11707">
        <ele>189.19999694824</ele>
        <time>2026-06-18T08:35:40.000Z</time>
      </trkpt>
      <trkpt lat="48.69197" lon="1.1164">
        <ele>188.60000610352</ele>
        <time>2026-06-18T08:35:47.000Z</time>
      </trkpt>
      <trkpt lat="48.6918" lon="1.11563">
        <ele>188</ele>
        <time>2026-06-18T08:35:55.000Z</time>
      </trkpt>
      <trkpt lat="48.69174" lon="1.11534">
        <ele>187.80000305176</ele>
        <time>2026-06-18T08:35:58.000Z</time>
      </trkpt>
      <trkpt lat="48.69166" lon="1.1145">
        <ele>187.19999694824</ele>
        <time>2026-06-18T08:36:06.000Z</time>
      </trkpt>
      <trkpt lat="48.69167" lon="1.11428">
        <ele>187</ele>
        <time>2026-06-18T08:36:08.000Z</time>
      </trkpt>
      <trkpt lat="48.69171" lon="1.11367">
        <ele>186.60000610352</ele>
        <time>2026-06-18T08:36:13.000Z</time>
      </trkpt>
      <trkpt lat="48.6918" lon="1.1128">
        <ele>186.19999694824</ele>
        <time>2026-06-18T08:36:22.000Z</time>
      </trkpt>
      <trkpt lat="48.69184" lon="1.1124">
        <ele>186.19999694824</ele>
        <time>2026-06-18T08:36:26.000Z</time>
      </trkpt>
      <trkpt lat="48.6919" lon="1.11153">
        <ele>186.19999694824</ele>
        <time>2026-06-18T08:36:35.000Z</time>
      </trkpt>
      <trkpt lat="48.6919" lon="1.1107">
        <ele>186.19999694824</ele>
        <time>2026-06-18T08:36:43.000Z</time>
      </trkpt>
      <trkpt lat="48.6919" lon="1.1106">
        <ele>186.19999694824</ele>
        <time>2026-06-18T08:36:44.000Z</time>
      </trkpt>
      <trkpt lat="48.69185" lon="1.10992">
        <ele>186.39999389648</ele>
        <time>2026-06-18T08:36:51.000Z</time>
      </trkpt>
      <trkpt lat="48.6917" lon="1.10904">
        <ele>186.39999389648</ele>
        <time>2026-06-18T08:37:00.000Z</time>
      </trkpt>
      <trkpt lat="48.69165" lon="1.10885">
        <ele>186.60000610352</ele>
        <time>2026-06-18T08:37:02.000Z</time>
      </trkpt>
      <trkpt lat="48.69143" lon="1.10821">
        <ele>186.60000610352</ele>
        <time>2026-06-18T08:37:09.000Z</time>
      </trkpt>
      <trkpt lat="48.6911" lon="1.10753">
        <ele>186.39999389648</ele>
        <time>2026-06-18T08:37:17.000Z</time>
      </trkpt>
      <trkpt lat="48.69101" lon="1.10736">
        <ele>186.19999694824</ele>
        <time>2026-06-18T08:37:19.000Z</time>
      </trkpt>
      <trkpt lat="48.69093" lon="1.10719">
        <ele>185.80000305176</ele>
        <time>2026-06-18T08:37:21.000Z</time>
      </trkpt>
      <trkpt lat="48.69071" lon="1.10662">
        <ele>185</ele>
        <time>2026-06-18T08:37:27.000Z</time>
      </trkpt>
      <trkpt lat="48.69069" lon="1.10652">
        <ele>184.80000305176</ele>
        <time>2026-06-18T08:37:28.000Z</time>
      </trkpt>
      <trkpt lat="48.6906" lon="1.10599">
        <ele>184.19999694824</ele>
        <time>2026-06-18T08:37:33.000Z</time>
      </trkpt>
      <trkpt lat="48.69056" lon="1.10567">
        <ele>183.80000305176</ele>
        <time>2026-06-18T08:37:36.000Z</time>
      </trkpt>
      <trkpt lat="48.69043" lon="1.10485">
        <ele>183.19999694824</ele>
        <time>2026-06-18T08:37:44.000Z</time>
      </trkpt>
      <trkpt lat="48.69033" lon="1.10403">
        <ele>182.80000305176</ele>
        <time>2026-06-18T08:37:52.000Z</time>
      </trkpt>
      <trkpt lat="48.69032" lon="1.10392">
        <ele>182.80000305176</ele>
        <time>2026-06-18T08:37:53.000Z</time>
      </trkpt>
      <trkpt lat="48.69031" lon="1.10372">
        <ele>182.60000610352</ele>
        <time>2026-06-18T08:37:55.000Z</time>
      </trkpt>
      <trkpt lat="48.69029" lon="1.1029">
        <ele>182.80000305176</ele>
        <time>2026-06-18T08:38:03.000Z</time>
      </trkpt>
      <trkpt lat="48.69023" lon="1.10201">
        <ele>183.19999694824</ele>
        <time>2026-06-18T08:38:12.000Z</time>
      </trkpt>
      <trkpt lat="48.69021" lon="1.10181">
        <ele>183.19999694824</ele>
        <time>2026-06-18T08:38:14.000Z</time>
      </trkpt>
      <trkpt lat="48.69014" lon="1.10096">
        <ele>183.19999694824</ele>
        <time>2026-06-18T08:38:23.000Z</time>
      </trkpt>
      <trkpt lat="48.69011" lon="1.10068">
        <ele>183.39999389648</ele>
        <time>2026-06-18T08:38:26.000Z</time>
      </trkpt>
      <trkpt lat="48.69009" lon="1.09984">
        <ele>183.39999389648</ele>
        <time>2026-06-18T08:38:35.000Z</time>
      </trkpt>
      <trkpt lat="48.6901" lon="1.09931">
        <ele>184</ele>
        <time>2026-06-18T08:38:41.000Z</time>
      </trkpt>
      <trkpt lat="48.69011" lon="1.09907">
        <ele>184.19999694824</ele>
        <time>2026-06-18T08:38:43.000Z</time>
      </trkpt>
      <trkpt lat="48.69011" lon="1.09822">
        <ele>184.39999389648</ele>
        <time>2026-06-18T08:38:53.000Z</time>
      </trkpt>
      <trkpt lat="48.6901" lon="1.09737">
        <ele>185</ele>
        <time>2026-06-18T08:39:03.000Z</time>
      </trkpt>
      <trkpt lat="48.69011" lon="1.09711">
        <ele>185</ele>
        <time>2026-06-18T08:39:06.000Z</time>
      </trkpt>
      <trkpt lat="48.6901" lon="1.09667">
        <ele>185.60000610352</ele>
        <time>2026-06-18T08:39:11.000Z</time>
      </trkpt>
      <trkpt lat="48.69009" lon="1.09583">
        <ele>186</ele>
        <time>2026-06-18T08:39:20.000Z</time>
      </trkpt>
      <trkpt lat="48.69009" lon="1.09574">
        <ele>186</ele>
        <time>2026-06-18T08:39:21.000Z</time>
      </trkpt>
      <trkpt lat="48.69008" lon="1.09509">
        <ele>186.60000610352</ele>
        <time>2026-06-18T08:39:28.000Z</time>
      </trkpt>
      <trkpt lat="48.69003" lon="1.09427">
        <ele>186.80000305176</ele>
        <time>2026-06-18T08:39:37.000Z</time>
      </trkpt>
      <trkpt lat="48.68994" lon="1.09345">
        <ele>186.39999389648</ele>
        <time>2026-06-18T08:39:45.000Z</time>
      </trkpt>
      <trkpt lat="48.68993" lon="1.09337">
        <ele>186.39999389648</ele>
        <time>2026-06-18T08:39:46.000Z</time>
      </trkpt>
      <trkpt lat="48.68982" lon="1.09252">
        <ele>185.39999389648</ele>
        <time>2026-06-18T08:39:54.000Z</time>
      </trkpt>
      <trkpt lat="48.68978" lon="1.09221">
        <ele>185</ele>
        <time>2026-06-18T08:39:57.000Z</time>
      </trkpt>
      <trkpt lat="48.68969" lon="1.0914">
        <ele>184.39999389648</ele>
        <time>2026-06-18T08:40:05.000Z</time>
      </trkpt>
      <trkpt lat="48.68965" lon="1.09101">
        <ele>184.19999694824</ele>
        <time>2026-06-18T08:40:09.000Z</time>
      </trkpt>
      <trkpt lat="48.68964" lon="1.09081">
        <ele>184</ele>
        <time>2026-06-18T08:40:11.000Z</time>
      </trkpt>
      <trkpt lat="48.68964" lon="1.09029">
        <ele>184</ele>
        <time>2026-06-18T08:40:16.000Z</time>
      </trkpt>
      <trkpt lat="48.68973" lon="1.08953">
        <ele>183.80000305176</ele>
        <time>2026-06-18T08:40:23.000Z</time>
      </trkpt>
      <trkpt lat="48.68986" lon="1.08869">
        <ele>183.39999389648</ele>
        <time>2026-06-18T08:40:31.000Z</time>
      </trkpt>
      <trkpt lat="48.68989" lon="1.08837">
        <ele>183.39999389648</ele>
        <time>2026-06-18T08:40:34.000Z</time>
      </trkpt>
      <trkpt lat="48.68988" lon="1.08778">
        <ele>183.19999694824</ele>
        <time>2026-06-18T08:40:40.000Z</time>
      </trkpt>
      <trkpt lat="48.68978" lon="1.08691">
        <ele>183</ele>
        <time>2026-06-18T08:40:49.000Z</time>
      </trkpt>
      <trkpt lat="48.68976" lon="1.08682">
        <ele>183</ele>
        <time>2026-06-18T08:40:50.000Z</time>
      </trkpt>
      <trkpt lat="48.6896" lon="1.08598">
        <ele>182.80000305176</ele>
        <time>2026-06-18T08:40:59.000Z</time>
      </trkpt>
      <trkpt lat="48.68957" lon="1.0858">
        <ele>183</ele>
        <time>2026-06-18T08:41:01.000Z</time>
      </trkpt>
      <trkpt lat="48.68949" lon="1.08509">
        <ele>183.19999694824</ele>
        <time>2026-06-18T08:41:09.000Z</time>
      </trkpt>
      <trkpt lat="48.68954" lon="1.08423">
        <ele>182.80000305176</ele>
        <time>2026-06-18T08:41:18.000Z</time>
      </trkpt>
      <trkpt lat="48.68961" lon="1.08341">
        <ele>182.39999389648</ele>
        <time>2026-06-18T08:41:26.000Z</time>
      </trkpt>
      <trkpt lat="48.68961" lon="1.08332">
        <ele>182.19999694824</ele>
        <time>2026-06-18T08:41:27.000Z</time>
      </trkpt>
      <trkpt lat="48.68962" lon="1.08322">
        <ele>182.19999694824</ele>
        <time>2026-06-18T08:41:28.000Z</time>
      </trkpt>
      <trkpt lat="48.68967" lon="1.08267">
        <ele>181.60000610352</ele>
        <time>2026-06-18T08:41:34.000Z</time>
      </trkpt>
      <trkpt lat="48.68972" lon="1.08229">
        <ele>181.19999694824</ele>
        <time>2026-06-18T08:41:38.000Z</time>
      </trkpt>
      <trkpt lat="48.68978" lon="1.08183">
        <ele>181</ele>
        <time>2026-06-18T08:41:43.000Z</time>
      </trkpt>
      <trkpt lat="48.68987" lon="1.08117">
        <ele>180.19999694824</ele>
        <time>2026-06-18T08:41:50.000Z</time>
      </trkpt>
      <trkpt lat="48.68988" lon="1.08108">
        <ele>180.19999694824</ele>
        <time>2026-06-18T08:41:51.000Z</time>
      </trkpt>
      <trkpt lat="48.68991" lon="1.08053">
        <ele>179.39999389648</ele>
        <time>2026-06-18T08:41:57.000Z</time>
      </trkpt>
      <trkpt lat="48.68991" lon="1.08044">
        <ele>179.39999389648</ele>
        <time>2026-06-18T08:41:58.000Z</time>
      </trkpt>
      <trkpt lat="48.68988" lon="1.08007">
        <ele>179</ele>
        <time>2026-06-18T08:42:02.000Z</time>
      </trkpt>
      <trkpt lat="48.68989" lon="1.07965">
        <ele>178.39999389648</ele>
        <time>2026-06-18T08:42:07.000Z</time>
      </trkpt>
      <trkpt lat="48.68991" lon="1.07958">
        <ele>178.39999389648</ele>
        <time>2026-06-18T08:42:08.000Z</time>
      </trkpt>
      <trkpt lat="48.68996" lon="1.07942">
        <ele>178.19999694824</ele>
        <time>2026-06-18T08:42:10.000Z</time>
      </trkpt>
      <trkpt lat="48.69" lon="1.07916">
        <ele>178</ele>
        <time>2026-06-18T08:42:13.000Z</time>
      </trkpt>
      <trkpt lat="48.69003" lon="1.0785">
        <ele>176.80000305176</ele>
        <time>2026-06-18T08:42:19.000Z</time>
      </trkpt>
      <trkpt lat="48.69007" lon="1.07797">
        <ele>175.60000610352</ele>
        <time>2026-06-18T08:42:24.000Z</time>
      </trkpt>
      <trkpt lat="48.69009" lon="1.07766">
        <ele>174.60000610352</ele>
        <time>2026-06-18T08:42:27.000Z</time>
      </trkpt>
      <trkpt lat="48.6901" lon="1.07759">
        <ele>174.39999389648</ele>
        <time>2026-06-18T08:42:28.000Z</time>
      </trkpt>
      <trkpt lat="48.69012" lon="1.07727">
        <ele>173.39999389648</ele>
        <time>2026-06-18T08:42:32.000Z</time>
      </trkpt>
      <trkpt lat="48.69013" lon="1.07712">
        <ele>172.80000305176</ele>
        <time>2026-06-18T08:42:34.000Z</time>
      </trkpt>
      <trkpt lat="48.69014" lon="1.07704">
        <ele>172.39999389648</ele>
        <time>2026-06-18T08:42:35.000Z</time>
      </trkpt>
      <trkpt lat="48.69017" lon="1.07663">
        <ele>171.19999694824</ele>
        <time>2026-06-18T08:42:39.000Z</time>
      </trkpt>
      <trkpt lat="48.69017" lon="1.07663">
        <ele>171</ele>
        <time>2026-06-18T08:42:40.000Z</time>
      </trkpt>
      <trkpt lat="48.69024" lon="1.07586">
        <ele>170.39999389648</ele>
        <time>2026-06-18T08:42:47.000Z</time>
      </trkpt>
      <trkpt lat="48.69038" lon="1.07515">
        <ele>170.39999389648</ele>
        <time>2026-06-18T08:42:54.000Z</time>
      </trkpt>
      <trkpt lat="48.69039" lon="1.07508">
        <ele>170.60000610352</ele>
        <time>2026-06-18T08:42:55.000Z</time>
      </trkpt>
      <trkpt lat="48.69041" lon="1.0749">
        <ele>171</ele>
        <time>2026-06-18T08:42:57.000Z</time>
      </trkpt>
      <trkpt lat="48.69043" lon="1.07482">
        <ele>171</ele>
        <time>2026-06-18T08:42:58.000Z</time>
      </trkpt>
      <trkpt lat="48.69047" lon="1.07464">
        <ele>171.39999389648</ele>
        <time>2026-06-18T08:43:01.000Z</time>
      </trkpt>
      <trkpt lat="48.69052" lon="1.07445">
        <ele>172</ele>
        <time>2026-06-18T08:43:04.000Z</time>
      </trkpt>
      <trkpt lat="48.69055" lon="1.07426">
        <ele>172.19999694824</ele>
        <time>2026-06-18T08:43:07.000Z</time>
      </trkpt>
      <trkpt lat="48.69056" lon="1.07419">
        <ele>172.19999694824</ele>
        <time>2026-06-18T08:43:08.000Z</time>
      </trkpt>
      <trkpt lat="48.69058" lon="1.07398">
        <ele>172.39999389648</ele>
        <time>2026-06-18T08:43:11.000Z</time>
      </trkpt>
      <trkpt lat="48.69059" lon="1.07391">
        <ele>172.39999389648</ele>
        <time>2026-06-18T08:43:12.000Z</time>
      </trkpt>
      <trkpt lat="48.6906" lon="1.07371">
        <ele>172.39999389648</ele>
        <time>2026-06-18T08:43:15.000Z</time>
      </trkpt>
      <trkpt lat="48.69059" lon="1.07364">
        <ele>172.39999389648</ele>
        <time>2026-06-18T08:43:16.000Z</time>
      </trkpt>
      <trkpt lat="48.69057" lon="1.07357">
        <ele>172.39999389648</ele>
        <time>2026-06-18T08:43:17.000Z</time>
      </trkpt>
      <trkpt lat="48.69048" lon="1.07333">
        <ele>172.19999694824</ele>
        <time>2026-06-18T08:43:21.000Z</time>
      </trkpt>
      <trkpt lat="48.69042" lon="1.0732">
        <ele>172</ele>
        <time>2026-06-18T08:43:23.000Z</time>
      </trkpt>
      <trkpt lat="48.69035" lon="1.07312">
        <ele>171.80000305176</ele>
        <time>2026-06-18T08:43:25.000Z</time>
      </trkpt>
      <trkpt lat="48.69024" lon="1.07311">
        <ele>171.80000305176</ele>
        <time>2026-06-18T08:43:27.000Z</time>
      </trkpt>
      <trkpt lat="48.6902" lon="1.07311">
        <ele>171.80000305176</ele>
        <time>2026-06-18T08:43:28.000Z</time>
      </trkpt>
      <trkpt lat="48.69011" lon="1.07312">
        <ele>171.80000305176</ele>
        <time>2026-06-18T08:43:30.000Z</time>
      </trkpt>
      <trkpt lat="48.68999" lon="1.07312">
        <ele>171.80000305176</ele>
        <time>2026-06-18T08:43:33.000Z</time>
      </trkpt>
      <trkpt lat="48.68981" lon="1.07305">
        <ele>171.80000305176</ele>
        <time>2026-06-18T08:43:38.000Z</time>
      </trkpt>
      <trkpt lat="48.68954" lon="1.07297">
        <ele>171.80000305176</ele>
        <time>2026-06-18T08:43:44.000Z</time>
      </trkpt>
      <trkpt lat="48.68925" lon="1.07281">
        <ele>171.39999389648</ele>
        <time>2026-06-18T08:43:51.000Z</time>
      </trkpt>
      <trkpt lat="48.68921" lon="1.07278">
        <ele>171.39999389648</ele>
        <time>2026-06-18T08:43:52.000Z</time>
      </trkpt>
      <trkpt lat="48.68917" lon="1.07273">
        <ele>171.19999694824</ele>
        <time>2026-06-18T08:43:53.000Z</time>
      </trkpt>
      <trkpt lat="48.68911" lon="1.07262">
        <ele>171</ele>
        <time>2026-06-18T08:43:55.000Z</time>
      </trkpt>
      <trkpt lat="48.68894" lon="1.0723">
        <ele>171</ele>
        <time>2026-06-18T08:44:00.000Z</time>
      </trkpt>
      <trkpt lat="48.68863" lon="1.07175">
        <ele>170.60000610352</ele>
        <time>2026-06-18T08:44:08.000Z</time>
      </trkpt>
      <trkpt lat="48.68834" lon="1.07131">
        <ele>170.19999694824</ele>
        <time>2026-06-18T08:44:15.000Z</time>
      </trkpt>
      <trkpt lat="48.68826" lon="1.07122">
        <ele>170</ele>
        <time>2026-06-18T08:44:16.000Z</time>
      </trkpt>
      <trkpt lat="48.68791" lon="1.07076">
        <ele>169.80000305176</ele>
        <time>2026-06-18T08:44:23.000Z</time>
      </trkpt>
      <trkpt lat="48.68754" lon="1.07013">
        <ele>169.80000305176</ele>
        <time>2026-06-18T08:44:32.000Z</time>
      </trkpt>
      <trkpt lat="48.68751" lon="1.07007">
        <ele>169.80000305176</ele>
        <time>2026-06-18T08:44:33.000Z</time>
      </trkpt>
      <trkpt lat="48.68728" lon="1.06957">
        <ele>170.60000610352</ele>
        <time>2026-06-18T08:44:40.000Z</time>
      </trkpt>
      <trkpt lat="48.68707" lon="1.06893">
        <ele>171</ele>
        <time>2026-06-18T08:44:48.000Z</time>
      </trkpt>
      <trkpt lat="48.6869" lon="1.0683">
        <ele>169.80000305176</ele>
        <time>2026-06-18T08:44:55.000Z</time>
      </trkpt>
      <trkpt lat="48.6868" lon="1.06794">
        <ele>169</ele>
        <time>2026-06-18T08:44:59.000Z</time>
      </trkpt>
      <trkpt lat="48.68669" lon="1.06755">
        <ele>168.19999694824</ele>
        <time>2026-06-18T08:45:03.000Z</time>
      </trkpt>
      <trkpt lat="48.68666" lon="1.06745">
        <ele>168</ele>
        <time>2026-06-18T08:45:04.000Z</time>
      </trkpt>
      <trkpt lat="48.68655" lon="1.06702">
        <ele>167.19999694824</ele>
        <time>2026-06-18T08:45:08.000Z</time>
      </trkpt>
      <trkpt lat="48.6865" lon="1.06678">
        <ele>166.80000305176</ele>
        <time>2026-06-18T08:45:10.000Z</time>
      </trkpt>
      <trkpt lat="48.68645" lon="1.06645">
        <ele>166</ele>
        <time>2026-06-18T08:45:13.000Z</time>
      </trkpt>
      <trkpt lat="48.68637" lon="1.06604">
        <ele>165.60000610352</ele>
        <time>2026-06-18T08:45:17.000Z</time>
      </trkpt>
      <trkpt lat="48.68621" lon="1.06538">
        <ele>165.80000305176</ele>
        <time>2026-06-18T08:45:24.000Z</time>
      </trkpt>
      <trkpt lat="48.68602" lon="1.06484">
        <ele>166.80000305176</ele>
        <time>2026-06-18T08:45:31.000Z</time>
      </trkpt>
      <trkpt lat="48.686" lon="1.06477">
        <ele>167.19999694824</ele>
        <time>2026-06-18T08:45:32.000Z</time>
      </trkpt>
      <trkpt lat="48.68585" lon="1.06436">
        <ele>168</ele>
        <time>2026-06-18T08:45:38.000Z</time>
      </trkpt>
      <trkpt lat="48.68582" lon="1.06429">
        <ele>168.19999694824</ele>
        <time>2026-06-18T08:45:39.000Z</time>
      </trkpt>
      <trkpt lat="48.68571" lon="1.06402">
        <ele>169</ele>
        <time>2026-06-18T08:45:43.000Z</time>
      </trkpt>
      <trkpt lat="48.68569" lon="1.06396">
        <ele>169</ele>
        <time>2026-06-18T08:45:44.000Z</time>
      </trkpt>
      <trkpt lat="48.68567" lon="1.06389">
        <ele>169</ele>
        <time>2026-06-18T08:45:45.000Z</time>
      </trkpt>
      <trkpt lat="48.68554" lon="1.0635">
        <ele>170.60000610352</ele>
        <time>2026-06-18T08:45:51.000Z</time>
      </trkpt>
      <trkpt lat="48.68552" lon="1.06344">
        <ele>170.80000305176</ele>
        <time>2026-06-18T08:45:52.000Z</time>
      </trkpt>
      <trkpt lat="48.68545" lon="1.06317">
        <ele>171.60000610352</ele>
        <time>2026-06-18T08:45:56.000Z</time>
      </trkpt>
      <trkpt lat="48.68541" lon="1.06296">
        <ele>172.19999694824</ele>
        <time>2026-06-18T08:45:59.000Z</time>
      </trkpt>
      <trkpt lat="48.68539" lon="1.06281">
        <ele>172.80000305176</ele>
        <time>2026-06-18T08:46:01.000Z</time>
      </trkpt>
      <trkpt lat="48.68535" lon="1.06244">
        <ele>173.60000610352</ele>
        <time>2026-06-18T08:46:06.000Z</time>
      </trkpt>
      <trkpt lat="48.68534" lon="1.06222">
        <ele>173.80000305176</ele>
        <time>2026-06-18T08:46:09.000Z</time>
      </trkpt>
      <trkpt lat="48.68534" lon="1.06177">
        <ele>174</ele>
        <time>2026-06-18T08:46:15.000Z</time>
      </trkpt>
      <trkpt lat="48.68535" lon="1.06101">
        <ele>174</ele>
        <time>2026-06-18T08:46:24.000Z</time>
      </trkpt>
      <trkpt lat="48.68527" lon="1.06029">
        <ele>173.60000610352</ele>
        <time>2026-06-18T08:46:32.000Z</time>
      </trkpt>
      <trkpt lat="48.68515" lon="1.05943">
        <ele>172.80000305176</ele>
        <time>2026-06-18T08:46:41.000Z</time>
      </trkpt>
      <trkpt lat="48.68512" lon="1.05928">
        <ele>172.80000305176</ele>
        <time>2026-06-18T08:46:42.000Z</time>
      </trkpt>
      <trkpt lat="48.6851" lon="1.05919">
        <ele>172.60000610352</ele>
        <time>2026-06-18T08:46:43.000Z</time>
      </trkpt>
      <trkpt lat="48.68505" lon="1.05897">
        <ele>172.19999694824</ele>
        <time>2026-06-18T08:46:46.000Z</time>
      </trkpt>
      <trkpt lat="48.68493" lon="1.05856">
        <ele>171.60000610352</ele>
        <time>2026-06-18T08:46:51.000Z</time>
      </trkpt>
      <trkpt lat="48.68486" lon="1.05841">
        <ele>171.60000610352</ele>
        <time>2026-06-18T08:46:53.000Z</time>
      </trkpt>
      <trkpt lat="48.68468" lon="1.05813">
        <ele>171.80000305176</ele>
        <time>2026-06-18T08:46:57.000Z</time>
      </trkpt>
      <trkpt lat="48.68436" lon="1.05768">
        <ele>172.19999694824</ele>
        <time>2026-06-18T08:47:04.000Z</time>
      </trkpt>
      <trkpt lat="48.68414" lon="1.05732">
        <ele>172.60000610352</ele>
        <time>2026-06-18T08:47:09.000Z</time>
      </trkpt>
      <trkpt lat="48.6841" lon="1.05724">
        <ele>172.60000610352</ele>
        <time>2026-06-18T08:47:10.000Z</time>
      </trkpt>
      <trkpt lat="48.68396" lon="1.0568">
        <ele>172.80000305176</ele>
        <time>2026-06-18T08:47:15.000Z</time>
      </trkpt>
      <trkpt lat="48.68376" lon="1.05609">
        <ele>172.60000610352</ele>
        <time>2026-06-18T08:47:23.000Z</time>
      </trkpt>
      <trkpt lat="48.68365" lon="1.05561">
        <ele>173.19999694824</ele>
        <time>2026-06-18T08:47:29.000Z</time>
      </trkpt>
      <trkpt lat="48.68358" lon="1.05505">
        <ele>174</ele>
        <time>2026-06-18T08:47:36.000Z</time>
      </trkpt>
      <trkpt lat="48.68349" lon="1.05439">
        <ele>175</ele>
        <time>2026-06-18T08:47:44.000Z</time>
      </trkpt>
      <trkpt lat="48.68348" lon="1.05431">
        <ele>175</ele>
        <time>2026-06-18T08:47:45.000Z</time>
      </trkpt>
      <trkpt lat="48.68331" lon="1.05352">
        <ele>175</ele>
        <time>2026-06-18T08:47:54.000Z</time>
      </trkpt>
      <trkpt lat="48.68329" lon="1.05343">
        <ele>175</ele>
        <time>2026-06-18T08:47:55.000Z</time>
      </trkpt>
      <trkpt lat="48.6831" lon="1.05275">
        <ele>175.19999694824</ele>
        <time>2026-06-18T08:48:03.000Z</time>
      </trkpt>
      <trkpt lat="48.68287" lon="1.05198">
        <ele>175.39999389648</ele>
        <time>2026-06-18T08:48:12.000Z</time>
      </trkpt>
      <trkpt lat="48.68266" lon="1.05128">
        <ele>175.39999389648</ele>
        <time>2026-06-18T08:48:21.000Z</time>
      </trkpt>
      <trkpt lat="48.68243" lon="1.05078">
        <ele>175.39999389648</ele>
        <time>2026-06-18T08:48:28.000Z</time>
      </trkpt>
      <trkpt lat="48.68216" lon="1.05047">
        <ele>175.80000305176</ele>
        <time>2026-06-18T08:48:34.000Z</time>
      </trkpt>
      <trkpt lat="48.68206" lon="1.05039">
        <ele>176</ele>
        <time>2026-06-18T08:48:36.000Z</time>
      </trkpt>
      <trkpt lat="48.68168" lon="1.05007">
        <ele>176.39999389648</ele>
        <time>2026-06-18T08:48:44.000Z</time>
      </trkpt>
      <trkpt lat="48.68148" lon="1.04986">
        <ele>177</ele>
        <time>2026-06-18T08:48:49.000Z</time>
      </trkpt>
      <trkpt lat="48.68131" lon="1.04968">
        <ele>177.80000305176</ele>
        <time>2026-06-18T08:48:53.000Z</time>
      </trkpt>
      <trkpt lat="48.68123" lon="1.04958">
        <ele>178.39999389648</ele>
        <time>2026-06-18T08:48:55.000Z</time>
      </trkpt>
      <trkpt lat="48.6809" lon="1.0492">
        <ele>178.80000305176</ele>
        <time>2026-06-18T08:49:02.000Z</time>
      </trkpt>
      <trkpt lat="48.68056" lon="1.04877">
        <ele>178</ele>
        <time>2026-06-18T08:49:09.000Z</time>
      </trkpt>
      <trkpt lat="48.68017" lon="1.0483">
        <ele>178</ele>
        <time>2026-06-18T08:49:17.000Z</time>
      </trkpt>
      <trkpt lat="48.67983" lon="1.04785">
        <ele>178.60000610352</ele>
        <time>2026-06-18T08:49:25.000Z</time>
      </trkpt>
      <trkpt lat="48.67969" lon="1.04765">
        <ele>179.19999694824</ele>
        <time>2026-06-18T08:49:29.000Z</time>
      </trkpt>
      <trkpt lat="48.67963" lon="1.04756">
        <ele>179.39999389648</ele>
        <time>2026-06-18T08:49:31.000Z</time>
      </trkpt>
      <trkpt lat="48.67959" lon="1.04751">
        <ele>179.39999389648</ele>
        <time>2026-06-18T08:49:32.000Z</time>
      </trkpt>
      <trkpt lat="48.67939" lon="1.04728">
        <ele>180</ele>
        <time>2026-06-18T08:49:37.000Z</time>
      </trkpt>
      <trkpt lat="48.67924" lon="1.04715">
        <ele>180.60000610352</ele>
        <time>2026-06-18T08:49:40.000Z</time>
      </trkpt>
      <trkpt lat="48.67902" lon="1.04698">
        <ele>181.39999389648</ele>
        <time>2026-06-18T08:49:45.000Z</time>
      </trkpt>
      <trkpt lat="48.67892" lon="1.04693">
        <ele>181.60000610352</ele>
        <time>2026-06-18T08:49:47.000Z</time>
      </trkpt>
      <trkpt lat="48.67866" lon="1.04681">
        <ele>181.80000305176</ele>
        <time>2026-06-18T08:49:52.000Z</time>
      </trkpt>
      <trkpt lat="48.67813" lon="1.04669">
        <ele>182.39999389648</ele>
        <time>2026-06-18T08:50:02.000Z</time>
      </trkpt>
      <trkpt lat="48.67807" lon="1.04668">
        <ele>182.60000610352</ele>
        <time>2026-06-18T08:50:03.000Z</time>
      </trkpt>
      <trkpt lat="48.67753" lon="1.04661">
        <ele>182.80000305176</ele>
        <time>2026-06-18T08:50:13.000Z</time>
      </trkpt>
      <trkpt lat="48.67736" lon="1.04659">
        <ele>183</ele>
        <time>2026-06-18T08:50:16.000Z</time>
      </trkpt>
      <trkpt lat="48.6769" lon="1.04647">
        <ele>183</ele>
        <time>2026-06-18T08:50:24.000Z</time>
      </trkpt>
      <trkpt lat="48.67663" lon="1.04635">
        <ele>183</ele>
        <time>2026-06-18T08:50:29.000Z</time>
      </trkpt>
      <trkpt lat="48.67632" lon="1.04622">
        <ele>182.60000610352</ele>
        <time>2026-06-18T08:50:34.000Z</time>
      </trkpt>
      <trkpt lat="48.67585" lon="1.04589">
        <ele>182.39999389648</ele>
        <time>2026-06-18T08:50:42.000Z</time>
      </trkpt>
      <trkpt lat="48.67557" lon="1.04564">
        <ele>182.19999694824</ele>
        <time>2026-06-18T08:50:47.000Z</time>
      </trkpt>
      <trkpt lat="48.67546" lon="1.0455">
        <ele>182.19999694824</ele>
        <time>2026-06-18T08:50:49.000Z</time>
      </trkpt>
      <trkpt lat="48.67501" lon="1.04491">
        <ele>182.19999694824</ele>
        <time>2026-06-18T08:50:58.000Z</time>
      </trkpt>
      <trkpt lat="48.67456" lon="1.04431">
        <ele>182.39999389648</ele>
        <time>2026-06-18T08:51:07.000Z</time>
      </trkpt>
      <trkpt lat="48.67447" lon="1.04418">
        <ele>182.39999389648</ele>
        <time>2026-06-18T08:51:09.000Z</time>
      </trkpt>
      <trkpt lat="48.67404" lon="1.04359">
        <ele>182.80000305176</ele>
        <time>2026-06-18T08:51:18.000Z</time>
      </trkpt>
      <trkpt lat="48.67399" lon="1.04353">
        <ele>182.80000305176</ele>
        <time>2026-06-18T08:51:19.000Z</time>
      </trkpt>
      <trkpt lat="48.67361" lon="1.04305">
        <ele>183.39999389648</ele>
        <time>2026-06-18T08:51:27.000Z</time>
      </trkpt>
      <trkpt lat="48.67348" lon="1.04288">
        <ele>183.60000610352</ele>
        <time>2026-06-18T08:51:30.000Z</time>
      </trkpt>
      <trkpt lat="48.67305" lon="1.04225">
        <ele>184</ele>
        <time>2026-06-18T08:51:40.000Z</time>
      </trkpt>
      <trkpt lat="48.67301" lon="1.04218">
        <ele>184</ele>
        <time>2026-06-18T08:51:41.000Z</time>
      </trkpt>
      <trkpt lat="48.67265" lon="1.04152">
        <ele>184</ele>
        <time>2026-06-18T08:51:50.000Z</time>
      </trkpt>
      <trkpt lat="48.67258" lon="1.04136">
        <ele>183.80000305176</ele>
        <time>2026-06-18T08:51:52.000Z</time>
      </trkpt>
      <trkpt lat="48.67231" lon="1.04054">
        <ele>183.39999389648</ele>
        <time>2026-06-18T08:52:01.000Z</time>
      </trkpt>
      <trkpt lat="48.67211" lon="1.03971">
        <ele>183.19999694824</ele>
        <time>2026-06-18T08:52:10.000Z</time>
      </trkpt>
      <trkpt lat="48.67209" lon="1.03961">
        <ele>183</ele>
        <time>2026-06-18T08:52:11.000Z</time>
      </trkpt>
      <trkpt lat="48.67197" lon="1.03903">
        <ele>182.60000610352</ele>
        <time>2026-06-18T08:52:17.000Z</time>
      </trkpt>
      <trkpt lat="48.67188" lon="1.03863">
        <ele>182.19999694824</ele>
        <time>2026-06-18T08:52:21.000Z</time>
      </trkpt>
      <trkpt lat="48.67178" lon="1.03814">
        <ele>181.60000610352</ele>
        <time>2026-06-18T08:52:26.000Z</time>
      </trkpt>
      <trkpt lat="48.67171" lon="1.03784">
        <ele>181.39999389648</ele>
        <time>2026-06-18T08:52:29.000Z</time>
      </trkpt>
      <trkpt lat="48.67147" lon="1.03702">
        <ele>181</ele>
        <time>2026-06-18T08:52:38.000Z</time>
      </trkpt>
      <trkpt lat="48.67123" lon="1.03635">
        <ele>181</ele>
        <time>2026-06-18T08:52:46.000Z</time>
      </trkpt>
      <trkpt lat="48.67091" lon="1.03578">
        <ele>181.39999389648</ele>
        <time>2026-06-18T08:52:54.000Z</time>
      </trkpt>
      <trkpt lat="48.67055" lon="1.03539">
        <ele>181.60000610352</ele>
        <time>2026-06-18T08:53:01.000Z</time>
      </trkpt>
      <trkpt lat="48.67048" lon="1.03534">
        <ele>181.60000610352</ele>
        <time>2026-06-18T08:53:02.000Z</time>
      </trkpt>
      <trkpt lat="48.67027" lon="1.03524">
        <ele>181.39999389648</ele>
        <time>2026-06-18T08:53:05.000Z</time>
      </trkpt>
      <trkpt lat="48.66996" lon="1.03504">
        <ele>180.80000305176</ele>
        <time>2026-06-18T08:53:09.000Z</time>
      </trkpt>
      <trkpt lat="48.66981" lon="1.0349">
        <ele>180.60000610352</ele>
        <time>2026-06-18T08:53:11.000Z</time>
      </trkpt>
      <trkpt lat="48.66959" lon="1.03467">
        <ele>179.19999694824</ele>
        <time>2026-06-18T08:53:14.000Z</time>
      </trkpt>
      <trkpt lat="48.66952" lon="1.03459">
        <ele>179</ele>
        <time>2026-06-18T08:53:15.000Z</time>
      </trkpt>
      <trkpt lat="48.66929" lon="1.03436">
        <ele>178.19999694824</ele>
        <time>2026-06-18T08:53:18.000Z</time>
      </trkpt>
      <trkpt lat="48.66899" lon="1.03406">
        <ele>177</ele>
        <time>2026-06-18T08:53:22.000Z</time>
      </trkpt>
      <trkpt lat="48.66873" lon="1.03378">
        <ele>176.39999389648</ele>
        <time>2026-06-18T08:53:26.000Z</time>
      </trkpt>
      <trkpt lat="48.66839" lon="1.03345">
        <ele>176</ele>
        <time>2026-06-18T08:53:32.000Z</time>
      </trkpt>
      <trkpt lat="48.66797" lon="1.03302">
        <ele>176.19999694824</ele>
        <time>2026-06-18T08:53:40.000Z</time>
      </trkpt>
      <trkpt lat="48.66754" lon="1.0326">
        <ele>176.39999389648</ele>
        <time>2026-06-18T08:53:48.000Z</time>
      </trkpt>
      <trkpt lat="48.66743" lon="1.0325">
        <ele>176.60000610352</ele>
        <time>2026-06-18T08:53:50.000Z</time>
      </trkpt>
      <trkpt lat="48.66696" lon="1.03207">
        <ele>177</ele>
        <time>2026-06-18T08:53:59.000Z</time>
      </trkpt>
      <trkpt lat="48.66651" lon="1.03154">
        <ele>176.80000305176</ele>
        <time>2026-06-18T08:54:08.000Z</time>
      </trkpt>
      <trkpt lat="48.66646" lon="1.03148">
        <ele>176.80000305176</ele>
        <time>2026-06-18T08:54:09.000Z</time>
      </trkpt>
      <trkpt lat="48.66598" lon="1.03101">
        <ele>176.60000610352</ele>
        <time>2026-06-18T08:54:18.000Z</time>
      </trkpt>
      <trkpt lat="48.66572" lon="1.03076">
        <ele>176.39999389648</ele>
        <time>2026-06-18T08:54:23.000Z</time>
      </trkpt>
      <trkpt lat="48.6656" lon="1.03068">
        <ele>176.39999389648</ele>
        <time>2026-06-18T08:54:25.000Z</time>
      </trkpt>
      <trkpt lat="48.66524" lon="1.03031">
        <ele>177</ele>
        <time>2026-06-18T08:54:32.000Z</time>
      </trkpt>
      <trkpt lat="48.66511" lon="1.03014">
        <ele>177.39999389648</ele>
        <time>2026-06-18T08:54:35.000Z</time>
      </trkpt>
      <trkpt lat="48.66499" lon="1.02995">
        <ele>177.39999389648</ele>
        <time>2026-06-18T08:54:38.000Z</time>
      </trkpt>
      <trkpt lat="48.66495" lon="1.02988">
        <ele>177.39999389648</ele>
        <time>2026-06-18T08:54:39.000Z</time>
      </trkpt>
      <trkpt lat="48.66471" lon="1.02937">
        <ele>177.60000610352</ele>
        <time>2026-06-18T08:54:46.000Z</time>
      </trkpt>
      <trkpt lat="48.66468" lon="1.02928">
        <ele>177.60000610352</ele>
        <time>2026-06-18T08:54:47.000Z</time>
      </trkpt>
      <trkpt lat="48.66444" lon="1.02884">
        <ele>177.60000610352</ele>
        <time>2026-06-18T08:54:53.000Z</time>
      </trkpt>
      <trkpt lat="48.66413" lon="1.02822">
        <ele>177.60000610352</ele>
        <time>2026-06-18T08:55:01.000Z</time>
      </trkpt>
      <trkpt lat="48.66386" lon="1.0276">
        <ele>177.39999389648</ele>
        <time>2026-06-18T08:55:09.000Z</time>
      </trkpt>
      <trkpt lat="48.66383" lon="1.02753">
        <ele>177.39999389648</ele>
        <time>2026-06-18T08:55:10.000Z</time>
      </trkpt>
      <trkpt lat="48.66373" lon="1.02715">
        <ele>177.39999389648</ele>
        <time>2026-06-18T08:55:14.000Z</time>
      </trkpt>
      <trkpt lat="48.6637" lon="1.02706">
        <ele>177.39999389648</ele>
        <time>2026-06-18T08:55:15.000Z</time>
      </trkpt>
      <trkpt lat="48.66362" lon="1.02689">
        <ele>177.39999389648</ele>
        <time>2026-06-18T08:55:17.000Z</time>
      </trkpt>
      <trkpt lat="48.66356" lon="1.02671">
        <ele>177.60000610352</ele>
        <time>2026-06-18T08:55:19.000Z</time>
      </trkpt>
      <trkpt lat="48.66332" lon="1.02597">
        <ele>177.80000305176</ele>
        <time>2026-06-18T08:55:28.000Z</time>
      </trkpt>
      <trkpt lat="48.66307" lon="1.02522">
        <ele>177.39999389648</ele>
        <time>2026-06-18T08:55:37.000Z</time>
      </trkpt>
      <trkpt lat="48.66282" lon="1.02441">
        <ele>177.39999389648</ele>
        <time>2026-06-18T08:55:47.000Z</time>
      </trkpt>
      <trkpt lat="48.66277" lon="1.02424">
        <ele>177.60000610352</ele>
        <time>2026-06-18T08:55:49.000Z</time>
      </trkpt>
      <trkpt lat="48.66258" lon="1.02361">
        <ele>178</ele>
        <time>2026-06-18T08:55:57.000Z</time>
      </trkpt>
      <trkpt lat="48.66251" lon="1.02338">
        <ele>178.39999389648</ele>
        <time>2026-06-18T08:56:00.000Z</time>
      </trkpt>
      <trkpt lat="48.6624" lon="1.023">
        <ele>179</ele>
        <time>2026-06-18T08:56:05.000Z</time>
      </trkpt>
      <trkpt lat="48.6623" lon="1.02268">
        <ele>179.39999389648</ele>
        <time>2026-06-18T08:56:09.000Z</time>
      </trkpt>
      <trkpt lat="48.66213" lon="1.02216">
        <ele>180</ele>
        <time>2026-06-18T08:56:16.000Z</time>
      </trkpt>
      <trkpt lat="48.66207" lon="1.02194">
        <ele>180.39999389648</ele>
        <time>2026-06-18T08:56:19.000Z</time>
      </trkpt>
      <trkpt lat="48.66183" lon="1.02116">
        <ele>180.60000610352</ele>
        <time>2026-06-18T08:56:29.000Z</time>
      </trkpt>
      <trkpt lat="48.6618" lon="1.02108">
        <ele>180.80000305176</ele>
        <time>2026-06-18T08:56:30.000Z</time>
      </trkpt>
      <trkpt lat="48.6615" lon="1.02039">
        <ele>180.80000305176</ele>
        <time>2026-06-18T08:56:39.000Z</time>
      </trkpt>
      <trkpt lat="48.66112" lon="1.01978">
        <ele>180.80000305176</ele>
        <time>2026-06-18T08:56:48.000Z</time>
      </trkpt>
      <trkpt lat="48.66108" lon="1.01972">
        <ele>180.80000305176</ele>
        <time>2026-06-18T08:56:49.000Z</time>
      </trkpt>
      <trkpt lat="48.66069" lon="1.01926">
        <ele>180.19999694824</ele>
        <time>2026-06-18T08:56:57.000Z</time>
      </trkpt>
      <trkpt lat="48.66022" lon="1.01881">
        <ele>179.80000305176</ele>
        <time>2026-06-18T08:57:06.000Z</time>
      </trkpt>
      <trkpt lat="48.66012" lon="1.01872">
        <ele>179.60000610352</ele>
        <time>2026-06-18T08:57:08.000Z</time>
      </trkpt>
      <trkpt lat="48.65962" lon="1.01827">
        <ele>179.60000610352</ele>
        <time>2026-06-18T08:57:18.000Z</time>
      </trkpt>
      <trkpt lat="48.65914" lon="1.01781">
        <ele>180.19999694824</ele>
        <time>2026-06-18T08:57:28.000Z</time>
      </trkpt>
      <trkpt lat="48.65867" lon="1.0173">
        <ele>180.39999389648</ele>
        <time>2026-06-18T08:57:38.000Z</time>
      </trkpt>
      <trkpt lat="48.65821" lon="1.01679">
        <ele>180.80000305176</ele>
        <time>2026-06-18T08:57:48.000Z</time>
      </trkpt>
      <trkpt lat="48.65812" lon="1.01668">
        <ele>180.80000305176</ele>
        <time>2026-06-18T08:57:50.000Z</time>
      </trkpt>
      <trkpt lat="48.65774" lon="1.01616">
        <ele>181</ele>
        <time>2026-06-18T08:57:59.000Z</time>
      </trkpt>
      <trkpt lat="48.65761" lon="1.01598">
        <ele>181</ele>
        <time>2026-06-18T08:58:02.000Z</time>
      </trkpt>
      <trkpt lat="48.6574" lon="1.01569">
        <ele>181.19999694824</ele>
        <time>2026-06-18T08:58:07.000Z</time>
      </trkpt>
      <trkpt lat="48.65694" lon="1.01517">
        <ele>181.60000610352</ele>
        <time>2026-06-18T08:58:17.000Z</time>
      </trkpt>
      <trkpt lat="48.65646" lon="1.01468">
        <ele>182</ele>
        <time>2026-06-18T08:58:27.000Z</time>
      </trkpt>
      <trkpt lat="48.65636" lon="1.01459">
        <ele>182.19999694824</ele>
        <time>2026-06-18T08:58:29.000Z</time>
      </trkpt>
      <trkpt lat="48.65631" lon="1.01455">
        <ele>182.19999694824</ele>
        <time>2026-06-18T08:58:30.000Z</time>
      </trkpt>
      <trkpt lat="48.65585" lon="1.01407">
        <ele>183</ele>
        <time>2026-06-18T08:58:40.000Z</time>
      </trkpt>
      <trkpt lat="48.65581" lon="1.01403">
        <ele>183</ele>
        <time>2026-06-18T08:58:41.000Z</time>
      </trkpt>
      <trkpt lat="48.65572" lon="1.01393">
        <ele>183.19999694824</ele>
        <time>2026-06-18T08:58:43.000Z</time>
      </trkpt>
      <trkpt lat="48.65561" lon="1.01381">
        <ele>183.39999389648</ele>
        <time>2026-06-18T08:58:48.000Z</time>
      </trkpt>
      <trkpt lat="48.65555" lon="1.01376">
        <ele>183.39999389648</ele>
        <time>2026-06-18T08:58:52.000Z</time>
      </trkpt>
      <trkpt lat="48.65571" lon="1.01396">
        <ele>183.60000610352</ele>
        <time>2026-06-18T08:58:57.000Z</time>
      </trkpt>
      <trkpt lat="48.65593" lon="1.01424">
        <ele>183.39999389648</ele>
        <time>2026-06-18T08:59:03.000Z</time>
      </trkpt>
      <trkpt lat="48.65602" lon="1.01435">
        <ele>183.19999694824</ele>
        <time>2026-06-18T08:59:08.000Z</time>
      </trkpt>
      <trkpt lat="48.65606" lon="1.01438">
        <ele>183</ele>
        <time>2026-06-18T08:59:10.000Z</time>
      </trkpt>
      <trkpt lat="48.65607" lon="1.01436">
        <ele>183</ele>
        <time>2026-06-18T08:59:11.000Z</time>
      </trkpt>
      <trkpt lat="48.65602" lon="1.0143">
        <ele>183</ele>
        <time>2026-06-18T08:59:14.000Z</time>
      </trkpt>
      <trkpt lat="48.65589" lon="1.01413">
        <ele>183</ele>
        <time>2026-06-18T08:59:19.000Z</time>
      </trkpt>
      <trkpt lat="48.65588" lon="1.01412">
        <ele>183.19999694824</ele>
        <time>2026-06-18T08:59:22.000Z</time>
      </trkpt>
      <trkpt lat="48.65583" lon="1.01407">
        <ele>183.19999694824</ele>
        <time>2026-06-18T08:59:31.000Z</time>
      </trkpt>
      <trkpt lat="48.65568" lon="1.0139">
        <ele>183</ele>
        <time>2026-06-18T08:59:37.000Z</time>
      </trkpt>
      <trkpt lat="48.65548" lon="1.01366">
        <ele>183.19999694824</ele>
        <time>2026-06-18T08:59:43.000Z</time>
      </trkpt>
      <trkpt lat="48.65532" lon="1.01347">
        <ele>183.39999389648</ele>
        <time>2026-06-18T08:59:47.000Z</time>
      </trkpt>
      <trkpt lat="48.65528" lon="1.01342">
        <ele>183.39999389648</ele>
        <time>2026-06-18T08:59:48.000Z</time>
      </trkpt>
      <trkpt lat="48.65495" lon="1.0129">
        <ele>183.80000305176</ele>
        <time>2026-06-18T08:59:57.000Z</time>
      </trkpt>
      <trkpt lat="48.65481" lon="1.01266">
        <ele>184.19999694824</ele>
        <time>2026-06-18T09:00:01.000Z</time>
      </trkpt>
      <trkpt lat="48.6547" lon="1.01248">
        <ele>184.39999389648</ele>
        <time>2026-06-18T09:00:04.000Z</time>
      </trkpt>
      <trkpt lat="48.65437" lon="1.01199">
        <ele>185.39999389648</ele>
        <time>2026-06-18T09:00:12.000Z</time>
      </trkpt>
      <trkpt lat="48.65427" lon="1.01187">
        <ele>185.39999389648</ele>
        <time>2026-06-18T09:00:14.000Z</time>
      </trkpt>
      <trkpt lat="48.65393" lon="1.0114">
        <ele>185.60000610352</ele>
        <time>2026-06-18T09:00:21.000Z</time>
      </trkpt>
      <trkpt lat="48.6536" lon="1.01076">
        <ele>186.19999694824</ele>
        <time>2026-06-18T09:00:29.000Z</time>
      </trkpt>
      <trkpt lat="48.65349" lon="1.0105">
        <ele>186.39999389648</ele>
        <time>2026-06-18T09:00:32.000Z</time>
      </trkpt>
      <trkpt lat="48.65326" lon="1.00994">
        <ele>187</ele>
        <time>2026-06-18T09:00:38.000Z</time>
      </trkpt>
      <trkpt lat="48.65296" lon="1.00925">
        <ele>187.39999389648</ele>
        <time>2026-06-18T09:00:47.000Z</time>
      </trkpt>
      <trkpt lat="48.65292" lon="1.00917">
        <ele>187.39999389648</ele>
        <time>2026-06-18T09:00:48.000Z</time>
      </trkpt>
      <trkpt lat="48.65289" lon="1.00909">
        <ele>187.39999389648</ele>
        <time>2026-06-18T09:00:49.000Z</time>
      </trkpt>
      <trkpt lat="48.65266" lon="1.00852">
        <ele>187.60000610352</ele>
        <time>2026-06-18T09:00:56.000Z</time>
      </trkpt>
      <trkpt lat="48.65263" lon="1.00844">
        <ele>187.60000610352</ele>
        <time>2026-06-18T09:00:57.000Z</time>
      </trkpt>
      <trkpt lat="48.65237" lon="1.00766">
        <ele>188</ele>
        <time>2026-06-18T09:01:06.000Z</time>
      </trkpt>
      <trkpt lat="48.65209" lon="1.00694">
        <ele>188.39999389648</ele>
        <time>2026-06-18T09:01:14.000Z</time>
      </trkpt>
      <trkpt lat="48.65206" lon="1.00687">
        <ele>188.39999389648</ele>
        <time>2026-06-18T09:01:15.000Z</time>
      </trkpt>
      <trkpt lat="48.65176" lon="1.00615">
        <ele>188.80000305176</ele>
        <time>2026-06-18T09:01:23.000Z</time>
      </trkpt>
      <trkpt lat="48.65173" lon="1.00608">
        <ele>189</ele>
        <time>2026-06-18T09:01:24.000Z</time>
      </trkpt>
      <trkpt lat="48.65152" lon="1.00558">
        <ele>189.39999389648</ele>
        <time>2026-06-18T09:01:30.000Z</time>
      </trkpt>
      <trkpt lat="48.65136" lon="1.00527">
        <ele>189.60000610352</ele>
        <time>2026-06-18T09:01:34.000Z</time>
      </trkpt>
      <trkpt lat="48.65101" lon="1.00477">
        <ele>189.80000305176</ele>
        <time>2026-06-18T09:01:41.000Z</time>
      </trkpt>
      <trkpt lat="48.65057" lon="1.00428">
        <ele>189.80000305176</ele>
        <time>2026-06-18T09:01:48.000Z</time>
      </trkpt>
      <trkpt lat="48.6503" lon="1.00387">
        <ele>189.80000305176</ele>
        <time>2026-06-18T09:01:53.000Z</time>
      </trkpt>
      <trkpt lat="48.6501" lon="1.00329">
        <ele>190</ele>
        <time>2026-06-18T09:01:59.000Z</time>
      </trkpt>
      <trkpt lat="48.65004" lon="1.003">
        <ele>190.60000610352</ele>
        <time>2026-06-18T09:02:02.000Z</time>
      </trkpt>
      <trkpt lat="48.64998" lon="1.00265">
        <ele>191.19999694824</ele>
        <time>2026-06-18T09:02:06.000Z</time>
      </trkpt>
      <trkpt lat="48.64993" lon="1.00222">
        <ele>191.80000305176</ele>
        <time>2026-06-18T09:02:11.000Z</time>
      </trkpt>
      <trkpt lat="48.64991" lon="1.00197">
        <ele>192.60000610352</ele>
        <time>2026-06-18T09:02:14.000Z</time>
      </trkpt>
      <trkpt lat="48.6499" lon="1.00188">
        <ele>192.80000305176</ele>
        <time>2026-06-18T09:02:15.000Z</time>
      </trkpt>
      <trkpt lat="48.64987" lon="1.00147">
        <ele>193.80000305176</ele>
        <time>2026-06-18T09:02:20.000Z</time>
      </trkpt>
      <trkpt lat="48.64986" lon="1.00139">
        <ele>194</ele>
        <time>2026-06-18T09:02:21.000Z</time>
      </trkpt>
      <trkpt lat="48.64981" lon="1.00102">
        <ele>195</ele>
        <time>2026-06-18T09:02:26.000Z</time>
      </trkpt>
      <trkpt lat="48.64978" lon="1.0008">
        <ele>195.19999694824</ele>
        <time>2026-06-18T09:02:29.000Z</time>
      </trkpt>
      <trkpt lat="48.6497" lon="1.00027">
        <ele>195.80000305176</ele>
        <time>2026-06-18T09:02:36.000Z</time>
      </trkpt>
      <trkpt lat="48.64968" lon="1.00011">
        <ele>196</ele>
        <time>2026-06-18T09:02:38.000Z</time>
      </trkpt>
      <trkpt lat="48.64966" lon="0.99973">
        <ele>196.80000305176</ele>
        <time>2026-06-18T09:02:43.000Z</time>
      </trkpt>
      <trkpt lat="48.64966" lon="0.99943">
        <ele>197.19999694824</ele>
        <time>2026-06-18T09:02:47.000Z</time>
      </trkpt>
      <trkpt lat="48.64965" lon="0.99913">
        <ele>198</ele>
        <time>2026-06-18T09:02:51.000Z</time>
      </trkpt>
      <trkpt lat="48.64965" lon="0.99889">
        <ele>198.39999389648</ele>
        <time>2026-06-18T09:02:54.000Z</time>
      </trkpt>
      <trkpt lat="48.64964" lon="0.99843">
        <ele>199.39999389648</ele>
        <time>2026-06-18T09:03:00.000Z</time>
      </trkpt>
      <trkpt lat="48.64963" lon="0.99835">
        <ele>199.60000610352</ele>
        <time>2026-06-18T09:03:01.000Z</time>
      </trkpt>
      <trkpt lat="48.64954" lon="0.99779">
        <ele>200.19999694824</ele>
        <time>2026-06-18T09:03:08.000Z</time>
      </trkpt>
      <trkpt lat="48.64948" lon="0.99757">
        <ele>200.60000610352</ele>
        <time>2026-06-18T09:03:11.000Z</time>
      </trkpt>
      <trkpt lat="48.64933" lon="0.99722">
        <ele>201</ele>
        <time>2026-06-18T09:03:16.000Z</time>
      </trkpt>
      <trkpt lat="48.64907" lon="0.99658">
        <ele>201.39999389648</ele>
        <time>2026-06-18T09:03:25.000Z</time>
      </trkpt>
      <trkpt lat="48.64898" lon="0.99637">
        <ele>201.60000610352</ele>
        <time>2026-06-18T09:03:28.000Z</time>
      </trkpt>
      <trkpt lat="48.64878" lon="0.99597">
        <ele>201.80000305176</ele>
        <time>2026-06-18T09:03:34.000Z</time>
      </trkpt>
      <trkpt lat="48.64845" lon="0.99543">
        <ele>202</ele>
        <time>2026-06-18T09:03:43.000Z</time>
      </trkpt>
      <trkpt lat="48.64842" lon="0.99537">
        <ele>202</ele>
        <time>2026-06-18T09:03:44.000Z</time>
      </trkpt>
      <trkpt lat="48.64807" lon="0.99482">
        <ele>202.19999694824</ele>
        <time>2026-06-18T09:03:53.000Z</time>
      </trkpt>
      <trkpt lat="48.64788" lon="0.99441">
        <ele>202.60000610352</ele>
        <time>2026-06-18T09:03:59.000Z</time>
      </trkpt>
      <trkpt lat="48.64785" lon="0.99434">
        <ele>202.80000305176</ele>
        <time>2026-06-18T09:04:00.000Z</time>
      </trkpt>
      <trkpt lat="48.64761" lon="0.99361">
        <ele>203.80000305176</ele>
        <time>2026-06-18T09:04:10.000Z</time>
      </trkpt>
      <trkpt lat="48.64758" lon="0.99353">
        <ele>203.80000305176</ele>
        <time>2026-06-18T09:04:11.000Z</time>
      </trkpt>
      <trkpt lat="48.64741" lon="0.99294">
        <ele>204.60000610352</ele>
        <time>2026-06-18T09:04:19.000Z</time>
      </trkpt>
      <trkpt lat="48.64734" lon="0.99275">
        <ele>204.80000305176</ele>
        <time>2026-06-18T09:04:22.000Z</time>
      </trkpt>
      <trkpt lat="48.64726" lon="0.99254">
        <ele>205.19999694824</ele>
        <time>2026-06-18T09:04:25.000Z</time>
      </trkpt>
      <trkpt lat="48.6471" lon="0.99218">
        <ele>205.80000305176</ele>
        <time>2026-06-18T09:04:30.000Z</time>
      </trkpt>
      <trkpt lat="48.64708" lon="0.9921">
        <ele>205.80000305176</ele>
        <time>2026-06-18T09:04:31.000Z</time>
      </trkpt>
      <trkpt lat="48.64706" lon="0.99203">
        <ele>205.80000305176</ele>
        <time>2026-06-18T09:04:32.000Z</time>
      </trkpt>
      <trkpt lat="48.64689" lon="0.99156">
        <ele>206.39999389648</ele>
        <time>2026-06-18T09:04:38.000Z</time>
      </trkpt>
      <trkpt lat="48.64683" lon="0.9914">
        <ele>206.80000305176</ele>
        <time>2026-06-18T09:04:40.000Z</time>
      </trkpt>
      <trkpt lat="48.6468" lon="0.99123">
        <ele>207</ele>
        <time>2026-06-18T09:04:42.000Z</time>
      </trkpt>
      <trkpt lat="48.64678" lon="0.99114">
        <ele>207</ele>
        <time>2026-06-18T09:04:43.000Z</time>
      </trkpt>
      <trkpt lat="48.64668" lon="0.99054">
        <ele>207.60000610352</ele>
        <time>2026-06-18T09:04:50.000Z</time>
      </trkpt>
      <trkpt lat="48.64663" lon="0.99011">
        <ele>208</ele>
        <time>2026-06-18T09:04:55.000Z</time>
      </trkpt>
      <trkpt lat="48.64661" lon="0.99003">
        <ele>208</ele>
        <time>2026-06-18T09:04:56.000Z</time>
      </trkpt>
      <trkpt lat="48.6466" lon="0.98994">
        <ele>208</ele>
        <time>2026-06-18T09:04:57.000Z</time>
      </trkpt>
      <trkpt lat="48.64656" lon="0.98952">
        <ele>208.60000610352</ele>
        <time>2026-06-18T09:05:02.000Z</time>
      </trkpt>
      <trkpt lat="48.64644" lon="0.98862">
        <ele>208.39999389648</ele>
        <time>2026-06-18T09:05:12.000Z</time>
      </trkpt>
      <trkpt lat="48.64642" lon="0.98853">
        <ele>208.19999694824</ele>
        <time>2026-06-18T09:05:13.000Z</time>
      </trkpt>
      <trkpt lat="48.64631" lon="0.9881">
        <ele>208</ele>
        <time>2026-06-18T09:05:19.000Z</time>
      </trkpt>
      <trkpt lat="48.64629" lon="0.98803">
        <ele>208</ele>
        <time>2026-06-18T09:05:20.000Z</time>
      </trkpt>
      <trkpt lat="48.64612" lon="0.98762">
        <ele>207.60000610352</ele>
        <time>2026-06-18T09:05:26.000Z</time>
      </trkpt>
      <trkpt lat="48.64595" lon="0.98726">
        <ele>207.39999389648</ele>
        <time>2026-06-18T09:05:31.000Z</time>
      </trkpt>
      <trkpt lat="48.64592" lon="0.98719">
        <ele>207.39999389648</ele>
        <time>2026-06-18T09:05:32.000Z</time>
      </trkpt>
      <trkpt lat="48.64585" lon="0.98703">
        <ele>207.39999389648</ele>
        <time>2026-06-18T09:05:34.000Z</time>
      </trkpt>
      <trkpt lat="48.64574" lon="0.98682">
        <ele>207.19999694824</ele>
        <time>2026-06-18T09:05:37.000Z</time>
      </trkpt>
      <trkpt lat="48.64563" lon="0.98655">
        <ele>207</ele>
        <time>2026-06-18T09:05:40.000Z</time>
      </trkpt>
      <trkpt lat="48.64557" lon="0.98635">
        <ele>207</ele>
        <time>2026-06-18T09:05:42.000Z</time>
      </trkpt>
      <trkpt lat="48.64543" lon="0.98597">
        <ele>206.39999389648</ele>
        <time>2026-06-18T09:05:46.000Z</time>
      </trkpt>
      <trkpt lat="48.64538" lon="0.98575">
        <ele>206</ele>
        <time>2026-06-18T09:05:48.000Z</time>
      </trkpt>
      <trkpt lat="48.64536" lon="0.98562">
        <ele>205.80000305176</ele>
        <time>2026-06-18T09:05:49.000Z</time>
      </trkpt>
      <trkpt lat="48.6453" lon="0.98509">
        <ele>205.19999694824</ele>
        <time>2026-06-18T09:05:54.000Z</time>
      </trkpt>
      <trkpt lat="48.64528" lon="0.98489">
        <ele>205</ele>
        <time>2026-06-18T09:05:56.000Z</time>
      </trkpt>
      <trkpt lat="48.64525" lon="0.98471">
        <ele>204.60000610352</ele>
        <time>2026-06-18T09:05:58.000Z</time>
      </trkpt>
      <trkpt lat="48.64524" lon="0.98459">
        <ele>204.60000610352</ele>
        <time>2026-06-18T09:05:59.000Z</time>
      </trkpt>
      <trkpt lat="48.64523" lon="0.98449">
        <ele>204.60000610352</ele>
        <time>2026-06-18T09:06:00.000Z</time>
      </trkpt>
      <trkpt lat="48.6452" lon="0.98422">
        <ele>204.39999389648</ele>
        <time>2026-06-18T09:06:03.000Z</time>
      </trkpt>
      <trkpt lat="48.64519" lon="0.98403">
        <ele>204.39999389648</ele>
        <time>2026-06-18T09:06:05.000Z</time>
      </trkpt>
      <trkpt lat="48.64519" lon="0.98395">
        <ele>204.39999389648</ele>
        <time>2026-06-18T09:06:06.000Z</time>
      </trkpt>
      <trkpt lat="48.64512" lon="0.9834">
        <ele>204.19999694824</ele>
        <time>2026-06-18T09:06:12.000Z</time>
      </trkpt>
      <trkpt lat="48.64509" lon="0.98321">
        <ele>204.19999694824</ele>
        <time>2026-06-18T09:06:14.000Z</time>
      </trkpt>
      <trkpt lat="48.64503" lon="0.98285">
        <ele>204.19999694824</ele>
        <time>2026-06-18T09:06:18.000Z</time>
      </trkpt>
      <trkpt lat="48.64493" lon="0.98239">
        <ele>204.19999694824</ele>
        <time>2026-06-18T09:06:24.000Z</time>
      </trkpt>
      <trkpt lat="48.64489" lon="0.98218">
        <ele>204</ele>
        <time>2026-06-18T09:06:27.000Z</time>
      </trkpt>
      <trkpt lat="48.64482" lon="0.98194">
        <ele>204</ele>
        <time>2026-06-18T09:06:30.000Z</time>
      </trkpt>
      <trkpt lat="48.64479" lon="0.98186">
        <ele>204.19999694824</ele>
        <time>2026-06-18T09:06:31.000Z</time>
      </trkpt>
      <trkpt lat="48.64465" lon="0.98149">
        <ele>204.60000610352</ele>
        <time>2026-06-18T09:06:36.000Z</time>
      </trkpt>
      <trkpt lat="48.64444" lon="0.98094">
        <ele>205</ele>
        <time>2026-06-18T09:06:43.000Z</time>
      </trkpt>
      <trkpt lat="48.64423" lon="0.98044">
        <ele>205.19999694824</ele>
        <time>2026-06-18T09:06:50.000Z</time>
      </trkpt>
      <trkpt lat="48.64393" lon="0.97976">
        <ele>204.60000610352</ele>
        <time>2026-06-18T09:06:59.000Z</time>
      </trkpt>
      <trkpt lat="48.64387" lon="0.97961">
        <ele>204.60000610352</ele>
        <time>2026-06-18T09:07:01.000Z</time>
      </trkpt>
      <trkpt lat="48.64375" lon="0.97931">
        <ele>204.80000305176</ele>
        <time>2026-06-18T09:07:06.000Z</time>
      </trkpt>
      <trkpt lat="48.64371" lon="0.97912">
        <ele>205</ele>
        <time>2026-06-18T09:07:09.000Z</time>
      </trkpt>
      <trkpt lat="48.64367" lon="0.97899">
        <ele>205.19999694824</ele>
        <time>2026-06-18T09:07:11.000Z</time>
      </trkpt>
      <trkpt lat="48.64352" lon="0.97849">
        <ele>205.39999389648</ele>
        <time>2026-06-18T09:07:18.000Z</time>
      </trkpt>
      <trkpt lat="48.64348" lon="0.97837">
        <ele>205.39999389648</ele>
        <time>2026-06-18T09:07:20.000Z</time>
      </trkpt>
      <trkpt lat="48.64343" lon="0.97831">
        <ele>205.80000305176</ele>
        <time>2026-06-18T09:07:21.000Z</time>
      </trkpt>
      <trkpt lat="48.64343" lon="0.97831">
        <ele>205.60000610352</ele>
        <time>2026-06-18T09:07:22.000Z</time>
      </trkpt>
      <trkpt lat="48.64339" lon="0.97829">
        <ele>205.60000610352</ele>
        <time>2026-06-18T09:07:23.000Z</time>
      </trkpt>
      <trkpt lat="48.64328" lon="0.97835">
        <ele>206</ele>
        <time>2026-06-18T09:07:25.000Z</time>
      </trkpt>
      <trkpt lat="48.64323" lon="0.9784">
        <ele>206</ele>
        <time>2026-06-18T09:07:26.000Z</time>
      </trkpt>
      <trkpt lat="48.64315" lon="0.97851">
        <ele>206.39999389648</ele>
        <time>2026-06-18T09:07:28.000Z</time>
      </trkpt>
      <trkpt lat="48.64307" lon="0.97861">
        <ele>206.60000610352</ele>
        <time>2026-06-18T09:07:30.000Z</time>
      </trkpt>
      <trkpt lat="48.64299" lon="0.97869">
        <ele>206.80000305176</ele>
        <time>2026-06-18T09:07:32.000Z</time>
      </trkpt>
      <trkpt lat="48.64296" lon="0.97874">
        <ele>206.80000305176</ele>
        <time>2026-06-18T09:07:33.000Z</time>
      </trkpt>
      <trkpt lat="48.64288" lon="0.97883">
        <ele>207</ele>
        <time>2026-06-18T09:07:35.000Z</time>
      </trkpt>
      <trkpt lat="48.64283" lon="0.97894">
        <ele>207.19999694824</ele>
        <time>2026-06-18T09:07:37.000Z</time>
      </trkpt>
      <trkpt lat="48.6428" lon="0.979">
        <ele>207.19999694824</ele>
        <time>2026-06-18T09:07:38.000Z</time>
      </trkpt>
      <trkpt lat="48.64277" lon="0.97906">
        <ele>207.19999694824</ele>
        <time>2026-06-18T09:07:39.000Z</time>
      </trkpt>
      <trkpt lat="48.64269" lon="0.97921">
        <ele>207.80000305176</ele>
        <time>2026-06-18T09:07:42.000Z</time>
      </trkpt>
      <trkpt lat="48.64267" lon="0.97926">
        <ele>207.80000305176</ele>
        <time>2026-06-18T09:07:43.000Z</time>
      </trkpt>
      <trkpt lat="48.64253" lon="0.9796">
        <ele>208.60000610352</ele>
        <time>2026-06-18T09:07:48.000Z</time>
      </trkpt>
      <trkpt lat="48.6425" lon="0.97966">
        <ele>208.80000305176</ele>
        <time>2026-06-18T09:07:49.000Z</time>
      </trkpt>
      <trkpt lat="48.64245" lon="0.97978">
        <ele>209</ele>
        <time>2026-06-18T09:07:51.000Z</time>
      </trkpt>
      <trkpt lat="48.64236" lon="0.98005">
        <ele>209.60000610352</ele>
        <time>2026-06-18T09:07:55.000Z</time>
      </trkpt>
      <trkpt lat="48.64234" lon="0.98014">
        <ele>209.60000610352</ele>
        <time>2026-06-18T09:07:56.000Z</time>
      </trkpt>
      <trkpt lat="48.64232" lon="0.9803">
        <ele>209.80000305176</ele>
        <time>2026-06-18T09:07:58.000Z</time>
      </trkpt>
      <trkpt lat="48.64231" lon="0.98037">
        <ele>209.80000305176</ele>
        <time>2026-06-18T09:07:59.000Z</time>
      </trkpt>
      <trkpt lat="48.64226" lon="0.98044">
        <ele>210</ele>
        <time>2026-06-18T09:08:00.000Z</time>
      </trkpt>
      <trkpt lat="48.64218" lon="0.98058">
        <ele>210.19999694824</ele>
        <time>2026-06-18T09:08:02.000Z</time>
      </trkpt>
      <trkpt lat="48.64206" lon="0.98075">
        <ele>210.60000610352</ele>
        <time>2026-06-18T09:08:05.000Z</time>
      </trkpt>
      <trkpt lat="48.64202" lon="0.9808">
        <ele>211</ele>
        <time>2026-06-18T09:08:06.000Z</time>
      </trkpt>
      <trkpt lat="48.64194" lon="0.98089">
        <ele>211.19999694824</ele>
        <time>2026-06-18T09:08:08.000Z</time>
      </trkpt>
      <trkpt lat="48.64186" lon="0.98096">
        <ele>211.39999389648</ele>
        <time>2026-06-18T09:08:10.000Z</time>
      </trkpt>
      <trkpt lat="48.64179" lon="0.98104">
        <ele>212</ele>
        <time>2026-06-18T09:08:12.000Z</time>
      </trkpt>
      <trkpt lat="48.64172" lon="0.9811">
        <ele>212.60000610352</ele>
        <time>2026-06-18T09:08:14.000Z</time>
      </trkpt>
      <trkpt lat="48.64157" lon="0.98123">
        <ele>213.19999694824</ele>
        <time>2026-06-18T09:08:17.000Z</time>
      </trkpt>
      <trkpt lat="48.64152" lon="0.98128">
        <ele>213.19999694824</ele>
        <time>2026-06-18T09:08:18.000Z</time>
      </trkpt>
      <trkpt lat="48.64149" lon="0.98133">
        <ele>213.39999389648</ele>
        <time>2026-06-18T09:08:19.000Z</time>
      </trkpt>
      <trkpt lat="48.6414" lon="0.98143">
        <ele>213.80000305176</ele>
        <time>2026-06-18T09:08:21.000Z</time>
      </trkpt>
      <trkpt lat="48.64135" lon="0.98148">
        <ele>214</ele>
        <time>2026-06-18T09:08:22.000Z</time>
      </trkpt>
      <trkpt lat="48.64127" lon="0.98158">
        <ele>214.19999694824</ele>
        <time>2026-06-18T09:08:24.000Z</time>
      </trkpt>
      <trkpt lat="48.64119" lon="0.9817">
        <ele>214.39999389648</ele>
        <time>2026-06-18T09:08:26.000Z</time>
      </trkpt>
      <trkpt lat="48.64105" lon="0.98197">
        <ele>214.80000305176</ele>
        <time>2026-06-18T09:08:30.000Z</time>
      </trkpt>
      <trkpt lat="48.64097" lon="0.9821">
        <ele>215</ele>
        <time>2026-06-18T09:08:32.000Z</time>
      </trkpt>
      <trkpt lat="48.64093" lon="0.98218">
        <ele>215.19999694824</ele>
        <time>2026-06-18T09:08:33.000Z</time>
      </trkpt>
      <trkpt lat="48.64081" lon="0.98241">
        <ele>215.39999389648</ele>
        <time>2026-06-18T09:08:36.000Z</time>
      </trkpt>
      <trkpt lat="48.64077" lon="0.98248">
        <ele>215.39999389648</ele>
        <time>2026-06-18T09:08:37.000Z</time>
      </trkpt>
      <trkpt lat="48.64055" lon="0.9828">
        <ele>215.60000610352</ele>
        <time>2026-06-18T09:08:42.000Z</time>
      </trkpt>
      <trkpt lat="48.64031" lon="0.98316">
        <ele>215.80000305176</ele>
        <time>2026-06-18T09:08:48.000Z</time>
      </trkpt>
      <trkpt lat="48.63996" lon="0.98345">
        <ele>215.19999694824</ele>
        <time>2026-06-18T09:08:55.000Z</time>
      </trkpt>
      <trkpt lat="48.63959" lon="0.98367">
        <ele>215</ele>
        <time>2026-06-18T09:09:02.000Z</time>
      </trkpt>
      <trkpt lat="48.63921" lon="0.98383">
        <ele>214.80000305176</ele>
        <time>2026-06-18T09:09:09.000Z</time>
      </trkpt>
      <trkpt lat="48.63872" lon="0.98399">
        <ele>214.80000305176</ele>
        <time>2026-06-18T09:09:18.000Z</time>
      </trkpt>
      <trkpt lat="48.63842" lon="0.98415">
        <ele>214.60000610352</ele>
        <time>2026-06-18T09:09:24.000Z</time>
      </trkpt>
      <trkpt lat="48.63817" lon="0.98446">
        <ele>214.60000610352</ele>
        <time>2026-06-18T09:09:30.000Z</time>
      </trkpt>
      <trkpt lat="48.63788" lon="0.98495">
        <ele>214</ele>
        <time>2026-06-18T09:09:37.000Z</time>
      </trkpt>
      <trkpt lat="48.63784" lon="0.98502">
        <ele>214</ele>
        <time>2026-06-18T09:09:38.000Z</time>
      </trkpt>
      <trkpt lat="48.63747" lon="0.98562">
        <ele>213.39999389648</ele>
        <time>2026-06-18T09:09:47.000Z</time>
      </trkpt>
      <trkpt lat="48.63711" lon="0.98613">
        <ele>213</ele>
        <time>2026-06-18T09:09:55.000Z</time>
      </trkpt>
      <trkpt lat="48.63693" lon="0.98638">
        <ele>212.80000305176</ele>
        <time>2026-06-18T09:09:59.000Z</time>
      </trkpt>
      <trkpt lat="48.63669" lon="0.9867">
        <ele>212.60000610352</ele>
        <time>2026-06-18T09:10:04.000Z</time>
      </trkpt>
      <trkpt lat="48.63639" lon="0.98705">
        <ele>211.80000305176</ele>
        <time>2026-06-18T09:10:10.000Z</time>
      </trkpt>
      <trkpt lat="48.63635" lon="0.98711">
        <ele>211.80000305176</ele>
        <time>2026-06-18T09:10:11.000Z</time>
      </trkpt>
      <trkpt lat="48.63629" lon="0.98717">
        <ele>211.80000305176</ele>
        <time>2026-06-18T09:10:12.000Z</time>
      </trkpt>
      <trkpt lat="48.63597" lon="0.98754">
        <ele>210.80000305176</ele>
        <time>2026-06-18T09:10:18.000Z</time>
      </trkpt>
      <trkpt lat="48.63584" lon="0.98768">
        <ele>210.39999389648</ele>
        <time>2026-06-18T09:10:20.000Z</time>
      </trkpt>
      <trkpt lat="48.63558" lon="0.98797">
        <ele>209.39999389648</ele>
        <time>2026-06-18T09:10:24.000Z</time>
      </trkpt>
      <trkpt lat="48.63532" lon="0.98826">
        <ele>208.39999389648</ele>
        <time>2026-06-18T09:10:28.000Z</time>
      </trkpt>
      <trkpt lat="48.63511" lon="0.98849">
        <ele>207.39999389648</ele>
        <time>2026-06-18T09:10:31.000Z</time>
      </trkpt>
      <trkpt lat="48.63488" lon="0.98875">
        <ele>206.60000610352</ele>
        <time>2026-06-18T09:10:34.000Z</time>
      </trkpt>
      <trkpt lat="48.63482" lon="0.98882">
        <ele>206.39999389648</ele>
        <time>2026-06-18T09:10:35.000Z</time>
      </trkpt>
      <trkpt lat="48.63438" lon="0.9893">
        <ele>205.39999389648</ele>
        <time>2026-06-18T09:10:42.000Z</time>
      </trkpt>
      <trkpt lat="48.63432" lon="0.98936">
        <ele>205.19999694824</ele>
        <time>2026-06-18T09:10:43.000Z</time>
      </trkpt>
      <trkpt lat="48.63413" lon="0.98957">
        <ele>204.80000305176</ele>
        <time>2026-06-18T09:10:47.000Z</time>
      </trkpt>
      <trkpt lat="48.63369" lon="0.99003">
        <ele>205.60000610352</ele>
        <time>2026-06-18T09:10:57.000Z</time>
      </trkpt>
      <trkpt lat="48.6336" lon="0.99012">
        <ele>206</ele>
        <time>2026-06-18T09:10:59.000Z</time>
      </trkpt>
      <trkpt lat="48.63356" lon="0.99015">
        <ele>206.39999389648</ele>
        <time>2026-06-18T09:11:00.000Z</time>
      </trkpt>
      <trkpt lat="48.6334" lon="0.9903">
        <ele>207.19999694824</ele>
        <time>2026-06-18T09:11:04.000Z</time>
      </trkpt>
      <trkpt lat="48.63336" lon="0.99033">
        <ele>207.60000610352</ele>
        <time>2026-06-18T09:11:05.000Z</time>
      </trkpt>
      <trkpt lat="48.63316" lon="0.99049">
        <ele>208.60000610352</ele>
        <time>2026-06-18T09:11:10.000Z</time>
      </trkpt>
      <trkpt lat="48.63312" lon="0.99052">
        <ele>208.80000305176</ele>
        <time>2026-06-18T09:11:11.000Z</time>
      </trkpt>
      <trkpt lat="48.63285" lon="0.99074">
        <ele>209.60000610352</ele>
        <time>2026-06-18T09:11:18.000Z</time>
      </trkpt>
      <trkpt lat="48.63264" lon="0.99089">
        <ele>211</ele>
        <time>2026-06-18T09:11:23.000Z</time>
      </trkpt>
      <trkpt lat="48.6324" lon="0.99106">
        <ele>212</ele>
        <time>2026-06-18T09:11:29.000Z</time>
      </trkpt>
      <trkpt lat="48.63237" lon="0.99108">
        <ele>212</ele>
        <time>2026-06-18T09:11:30.000Z</time>
      </trkpt>
      <trkpt lat="48.63207" lon="0.99125">
        <ele>213.19999694824</ele>
        <time>2026-06-18T09:11:37.000Z</time>
      </trkpt>
      <trkpt lat="48.63203" lon="0.99127">
        <ele>213.39999389648</ele>
        <time>2026-06-18T09:11:38.000Z</time>
      </trkpt>
      <trkpt lat="48.63177" lon="0.99139">
        <ele>214.39999389648</ele>
        <time>2026-06-18T09:11:44.000Z</time>
      </trkpt>
      <trkpt lat="48.63148" lon="0.99153">
        <ele>215</ele>
        <time>2026-06-18T09:11:50.000Z</time>
      </trkpt>
      <trkpt lat="48.63129" lon="0.99163">
        <ele>215.39999389648</ele>
        <time>2026-06-18T09:11:54.000Z</time>
      </trkpt>
      <trkpt lat="48.63114" lon="0.9917">
        <ele>215.39999389648</ele>
        <time>2026-06-18T09:11:57.000Z</time>
      </trkpt>
      <trkpt lat="48.6311" lon="0.99172">
        <ele>215.60000610352</ele>
        <time>2026-06-18T09:11:58.000Z</time>
      </trkpt>
      <trkpt lat="48.63061" lon="0.99194">
        <ele>215.80000305176</ele>
        <time>2026-06-18T09:12:08.000Z</time>
      </trkpt>
      <trkpt lat="48.63021" lon="0.992">
        <ele>216.19999694824</ele>
        <time>2026-06-18T09:12:16.000Z</time>
      </trkpt>
      <trkpt lat="48.62988" lon="0.99203">
        <ele>216.39999389648</ele>
        <time>2026-06-18T09:12:22.000Z</time>
      </trkpt>
      <trkpt lat="48.62971" lon="0.99204">
        <ele>216.39999389648</ele>
        <time>2026-06-18T09:12:25.000Z</time>
      </trkpt>
      <trkpt lat="48.62915" lon="0.99207">
        <ele>216.39999389648</ele>
        <time>2026-06-18T09:12:35.000Z</time>
      </trkpt>
      <trkpt lat="48.62904" lon="0.99208">
        <ele>216.39999389648</ele>
        <time>2026-06-18T09:12:37.000Z</time>
      </trkpt>
      <trkpt lat="48.62848" lon="0.99211">
        <ele>216.80000305176</ele>
        <time>2026-06-18T09:12:47.000Z</time>
      </trkpt>
      <trkpt lat="48.62842" lon="0.99211">
        <ele>216.80000305176</ele>
        <time>2026-06-18T09:12:48.000Z</time>
      </trkpt>
      <trkpt lat="48.62792" lon="0.99219">
        <ele>217.19999694824</ele>
        <time>2026-06-18T09:12:57.000Z</time>
      </trkpt>
      <trkpt lat="48.62776" lon="0.99227">
        <ele>217.39999389648</ele>
        <time>2026-06-18T09:13:00.000Z</time>
      </trkpt>
      <trkpt lat="48.62749" lon="0.99243">
        <ele>218</ele>
        <time>2026-06-18T09:13:05.000Z</time>
      </trkpt>
      <trkpt lat="48.62738" lon="0.99247">
        <ele>218.60000610352</ele>
        <time>2026-06-18T09:13:07.000Z</time>
      </trkpt>
      <trkpt lat="48.62732" lon="0.9925">
        <ele>218.60000610352</ele>
        <time>2026-06-18T09:13:08.000Z</time>
      </trkpt>
      <trkpt lat="48.62723" lon="0.99258">
        <ele>219</ele>
        <time>2026-06-18T09:13:10.000Z</time>
      </trkpt>
      <trkpt lat="48.62711" lon="0.99268">
        <ele>219.60000610352</ele>
        <time>2026-06-18T09:13:13.000Z</time>
      </trkpt>
      <trkpt lat="48.62707" lon="0.9927">
        <ele>219.80000305176</ele>
        <time>2026-06-18T09:13:14.000Z</time>
      </trkpt>
      <trkpt lat="48.62681" lon="0.99286">
        <ele>220.39999389648</ele>
        <time>2026-06-18T09:13:19.000Z</time>
      </trkpt>
      <trkpt lat="48.62672" lon="0.99294">
        <ele>220.80000305176</ele>
        <time>2026-06-18T09:13:21.000Z</time>
      </trkpt>
      <trkpt lat="48.62648" lon="0.99311">
        <ele>221.19999694824</ele>
        <time>2026-06-18T09:13:25.000Z</time>
      </trkpt>
      <trkpt lat="48.62605" lon="0.99342">
        <ele>221.60000610352</ele>
        <time>2026-06-18T09:13:32.000Z</time>
      </trkpt>
      <trkpt lat="48.62559" lon="0.99378">
        <ele>221.60000610352</ele>
        <time>2026-06-18T09:13:40.000Z</time>
      </trkpt>
      <trkpt lat="48.62513" lon="0.9941">
        <ele>221</ele>
        <time>2026-06-18T09:13:48.000Z</time>
      </trkpt>
      <trkpt lat="48.62462" lon="0.99444">
        <ele>220</ele>
        <time>2026-06-18T09:13:57.000Z</time>
      </trkpt>
      <trkpt lat="48.62456" lon="0.99448">
        <ele>219.80000305176</ele>
        <time>2026-06-18T09:13:58.000Z</time>
      </trkpt>
      <trkpt lat="48.62414" lon="0.99475">
        <ele>219.60000610352</ele>
        <time>2026-06-18T09:14:04.000Z</time>
      </trkpt>
      <trkpt lat="48.62373" lon="0.9951">
        <ele>218.60000610352</ele>
        <time>2026-06-18T09:14:10.000Z</time>
      </trkpt>
      <trkpt lat="48.62357" lon="0.99521">
        <ele>218.39999389648</ele>
        <time>2026-06-18T09:14:13.000Z</time>
      </trkpt>
      <trkpt lat="48.62351" lon="0.99525">
        <ele>218.39999389648</ele>
        <time>2026-06-18T09:14:14.000Z</time>
      </trkpt>
      <trkpt lat="48.62329" lon="0.99546">
        <ele>218.60000610352</ele>
        <time>2026-06-18T09:14:18.000Z</time>
      </trkpt>
      <trkpt lat="48.62287" lon="0.99578">
        <ele>219.60000610352</ele>
        <time>2026-06-18T09:14:26.000Z</time>
      </trkpt>
      <trkpt lat="48.62281" lon="0.99582">
        <ele>219.80000305176</ele>
        <time>2026-06-18T09:14:27.000Z</time>
      </trkpt>
      <trkpt lat="48.62254" lon="0.996">
        <ele>220.60000610352</ele>
        <time>2026-06-18T09:14:32.000Z</time>
      </trkpt>
      <trkpt lat="48.62242" lon="0.99609">
        <ele>221.19999694824</ele>
        <time>2026-06-18T09:14:34.000Z</time>
      </trkpt>
      <trkpt lat="48.62218" lon="0.99623">
        <ele>221.39999389648</ele>
        <time>2026-06-18T09:14:38.000Z</time>
      </trkpt>
      <trkpt lat="48.62193" lon="0.9964">
        <ele>222</ele>
        <time>2026-06-18T09:14:42.000Z</time>
      </trkpt>
      <trkpt lat="48.62159" lon="0.99663">
        <ele>222.60000610352</ele>
        <time>2026-06-18T09:14:48.000Z</time>
      </trkpt>
      <trkpt lat="48.62154" lon="0.99668">
        <ele>222.60000610352</ele>
        <time>2026-06-18T09:14:49.000Z</time>
      </trkpt>
      <trkpt lat="48.62113" lon="0.99699">
        <ele>222.60000610352</ele>
        <time>2026-06-18T09:14:56.000Z</time>
      </trkpt>
      <trkpt lat="48.62082" lon="0.99721">
        <ele>222.80000305176</ele>
        <time>2026-06-18T09:15:02.000Z</time>
      </trkpt>
      <trkpt lat="48.62077" lon="0.99724">
        <ele>222.80000305176</ele>
        <time>2026-06-18T09:15:03.000Z</time>
      </trkpt>
      <trkpt lat="48.62059" lon="0.99733">
        <ele>223</ele>
        <time>2026-06-18T09:15:06.000Z</time>
      </trkpt>
      <trkpt lat="48.62048" lon="0.9974">
        <ele>223</ele>
        <time>2026-06-18T09:15:08.000Z</time>
      </trkpt>
      <trkpt lat="48.62026" lon="0.99758">
        <ele>223.19999694824</ele>
        <time>2026-06-18T09:15:12.000Z</time>
      </trkpt>
      <trkpt lat="48.62015" lon="0.99766">
        <ele>223.39999389648</ele>
        <time>2026-06-18T09:15:14.000Z</time>
      </trkpt>
      <trkpt lat="48.61993" lon="0.9978">
        <ele>223.39999389648</ele>
        <time>2026-06-18T09:15:18.000Z</time>
      </trkpt>
      <trkpt lat="48.61968" lon="0.99798">
        <ele>223.60000610352</ele>
        <time>2026-06-18T09:15:23.000Z</time>
      </trkpt>
      <trkpt lat="48.61962" lon="0.99802">
        <ele>223.60000610352</ele>
        <time>2026-06-18T09:15:24.000Z</time>
      </trkpt>
      <trkpt lat="48.61923" lon="0.99827">
        <ele>224</ele>
        <time>2026-06-18T09:15:30.000Z</time>
      </trkpt>
      <trkpt lat="48.61883" lon="0.99858">
        <ele>224.60000610352</ele>
        <time>2026-06-18T09:15:37.000Z</time>
      </trkpt>
      <trkpt lat="48.61877" lon="0.99861">
        <ele>224.60000610352</ele>
        <time>2026-06-18T09:15:38.000Z</time>
      </trkpt>
      <trkpt lat="48.61872" lon="0.99865">
        <ele>224.60000610352</ele>
        <time>2026-06-18T09:15:39.000Z</time>
      </trkpt>
      <trkpt lat="48.61849" lon="0.99885">
        <ele>224.80000305176</ele>
        <time>2026-06-18T09:15:43.000Z</time>
      </trkpt>
      <trkpt lat="48.61811" lon="0.99913">
        <ele>225.39999389648</ele>
        <time>2026-06-18T09:15:50.000Z</time>
      </trkpt>
      <trkpt lat="48.61797" lon="0.99924">
        <ele>225.39999389648</ele>
        <time>2026-06-18T09:15:53.000Z</time>
      </trkpt>
      <trkpt lat="48.61771" lon="0.9994">
        <ele>225.80000305176</ele>
        <time>2026-06-18T09:15:58.000Z</time>
      </trkpt>
      <trkpt lat="48.61748" lon="0.99954">
        <ele>225.80000305176</ele>
        <time>2026-06-18T09:16:02.000Z</time>
      </trkpt>
      <trkpt lat="48.61723" lon="0.99972">
        <ele>225.80000305176</ele>
        <time>2026-06-18T09:16:06.000Z</time>
      </trkpt>
      <trkpt lat="48.617" lon="0.99988">
        <ele>225.80000305176</ele>
        <time>2026-06-18T09:16:10.000Z</time>
      </trkpt>
      <trkpt lat="48.61696" lon="0.99991">
        <ele>225.80000305176</ele>
        <time>2026-06-18T09:16:11.000Z</time>
      </trkpt>
      <trkpt lat="48.61687" lon="0.99997">
        <ele>225.80000305176</ele>
        <time>2026-06-18T09:16:12.000Z</time>
      </trkpt>
      <trkpt lat="48.61677" lon="1.00004">
        <ele>226.19999694824</ele>
        <time>2026-06-18T09:16:15.000Z</time>
      </trkpt>
      <trkpt lat="48.61658" lon="1.00017">
        <ele>226.39999389648</ele>
        <time>2026-06-18T09:16:18.000Z</time>
      </trkpt>
      <trkpt lat="48.6164" lon="1.0003">
        <ele>226.80000305176</ele>
        <time>2026-06-18T09:16:21.000Z</time>
      </trkpt>
      <trkpt lat="48.61628" lon="1.0004">
        <ele>227</ele>
        <time>2026-06-18T09:16:23.000Z</time>
      </trkpt>
      <trkpt lat="48.61592" lon="1.00069">
        <ele>227</ele>
        <time>2026-06-18T09:16:29.000Z</time>
      </trkpt>
      <trkpt lat="48.61554" lon="1.00096">
        <ele>227.39999389648</ele>
        <time>2026-06-18T09:16:36.000Z</time>
      </trkpt>
      <trkpt lat="48.61526" lon="1.00115">
        <ele>227.39999389648</ele>
        <time>2026-06-18T09:16:41.000Z</time>
      </trkpt>
      <trkpt lat="48.61485" lon="1.00144">
        <ele>227.39999389648</ele>
        <time>2026-06-18T09:16:48.000Z</time>
      </trkpt>
      <trkpt lat="48.6145" lon="1.00168">
        <ele>227.60000610352</ele>
        <time>2026-06-18T09:16:54.000Z</time>
      </trkpt>
      <trkpt lat="48.61443" lon="1.00172">
        <ele>227.60000610352</ele>
        <time>2026-06-18T09:16:55.000Z</time>
      </trkpt>
      <trkpt lat="48.6141" lon="1.00198">
        <ele>228</ele>
        <time>2026-06-18T09:17:01.000Z</time>
      </trkpt>
      <trkpt lat="48.61404" lon="1.00202">
        <ele>228</ele>
        <time>2026-06-18T09:17:02.000Z</time>
      </trkpt>
      <trkpt lat="48.61382" lon="1.00218">
        <ele>228.19999694824</ele>
        <time>2026-06-18T09:17:06.000Z</time>
      </trkpt>
      <trkpt lat="48.61354" lon="1.00238">
        <ele>228.39999389648</ele>
        <time>2026-06-18T09:17:10.000Z</time>
      </trkpt>
      <trkpt lat="48.61314" lon="1.00267">
        <ele>228.19999694824</ele>
        <time>2026-06-18T09:17:17.000Z</time>
      </trkpt>
      <trkpt lat="48.61309" lon="1.0027">
        <ele>228.19999694824</ele>
        <time>2026-06-18T09:17:18.000Z</time>
      </trkpt>
      <trkpt lat="48.61304" lon="1.00273">
        <ele>228.19999694824</ele>
        <time>2026-06-18T09:17:19.000Z</time>
      </trkpt>
      <trkpt lat="48.61292" lon="1.0028">
        <ele>228</ele>
        <time>2026-06-18T09:17:21.000Z</time>
      </trkpt>
      <trkpt lat="48.61285" lon="1.00285">
        <ele>228</ele>
        <time>2026-06-18T09:17:22.000Z</time>
      </trkpt>
      <trkpt lat="48.61245" lon="1.00319">
        <ele>227.60000610352</ele>
        <time>2026-06-18T09:17:29.000Z</time>
      </trkpt>
      <trkpt lat="48.61208" lon="1.00343">
        <ele>227.60000610352</ele>
        <time>2026-06-18T09:17:35.000Z</time>
      </trkpt>
      <trkpt lat="48.61164" lon="1.00376">
        <ele>227.39999389648</ele>
        <time>2026-06-18T09:17:42.000Z</time>
      </trkpt>
      <trkpt lat="48.61152" lon="1.00384">
        <ele>227.19999694824</ele>
        <time>2026-06-18T09:17:44.000Z</time>
      </trkpt>
      <trkpt lat="48.61147" lon="1.00385">
        <ele>227.19999694824</ele>
        <time>2026-06-18T09:17:45.000Z</time>
      </trkpt>
      <trkpt lat="48.61136" lon="1.00392">
        <ele>226.80000305176</ele>
        <time>2026-06-18T09:17:47.000Z</time>
      </trkpt>
      <trkpt lat="48.61117" lon="1.00407">
        <ele>225.80000305176</ele>
        <time>2026-06-18T09:17:50.000Z</time>
      </trkpt>
      <trkpt lat="48.61106" lon="1.00416">
        <ele>225.60000610352</ele>
        <time>2026-06-18T09:17:52.000Z</time>
      </trkpt>
      <trkpt lat="48.61078" lon="1.00437">
        <ele>225</ele>
        <time>2026-06-18T09:17:56.000Z</time>
      </trkpt>
      <trkpt lat="48.6107" lon="1.00442">
        <ele>224.80000305176</ele>
        <time>2026-06-18T09:17:57.000Z</time>
      </trkpt>
      <trkpt lat="48.61024" lon="1.00473">
        <ele>224</ele>
        <time>2026-06-18T09:18:02.000Z</time>
      </trkpt>
      <trkpt lat="48.61015" lon="1.00479">
        <ele>223.80000305176</ele>
        <time>2026-06-18T09:18:03.000Z</time>
      </trkpt>
      <trkpt lat="48.60984" lon="1.00503">
        <ele>222.60000610352</ele>
        <time>2026-06-18T09:18:07.000Z</time>
      </trkpt>
      <trkpt lat="48.6095" lon="1.00533">
        <ele>221.39999389648</ele>
        <time>2026-06-18T09:18:11.000Z</time>
      </trkpt>
      <trkpt lat="48.60941" lon="1.00537">
        <ele>221</ele>
        <time>2026-06-18T09:18:12.000Z</time>
      </trkpt>
      <trkpt lat="48.60924" lon="1.00547">
        <ele>220.19999694824</ele>
        <time>2026-06-18T09:18:14.000Z</time>
      </trkpt>
      <trkpt lat="48.60896" lon="1.00567">
        <ele>219.19999694824</ele>
        <time>2026-06-18T09:18:18.000Z</time>
      </trkpt>
      <trkpt lat="48.60884" lon="1.00576">
        <ele>219.19999694824</ele>
        <time>2026-06-18T09:18:20.000Z</time>
      </trkpt>
      <trkpt lat="48.60859" lon="1.00595">
        <ele>219</ele>
        <time>2026-06-18T09:18:25.000Z</time>
      </trkpt>
      <trkpt lat="48.6085" lon="1.00601">
        <ele>219.19999694824</ele>
        <time>2026-06-18T09:18:27.000Z</time>
      </trkpt>
      <trkpt lat="48.60832" lon="1.00615">
        <ele>219.80000305176</ele>
        <time>2026-06-18T09:18:31.000Z</time>
      </trkpt>
      <trkpt lat="48.60823" lon="1.00623">
        <ele>220.19999694824</ele>
        <time>2026-06-18T09:18:33.000Z</time>
      </trkpt>
      <trkpt lat="48.60808" lon="1.0064">
        <ele>221.39999389648</ele>
        <time>2026-06-18T09:18:37.000Z</time>
      </trkpt>
      <trkpt lat="48.608" lon="1.00651">
        <ele>222</ele>
        <time>2026-06-18T09:18:39.000Z</time>
      </trkpt>
      <trkpt lat="48.60797" lon="1.00655">
        <ele>222.39999389648</ele>
        <time>2026-06-18T09:18:40.000Z</time>
      </trkpt>
      <trkpt lat="48.60794" lon="1.0066">
        <ele>222.39999389648</ele>
        <time>2026-06-18T09:18:41.000Z</time>
      </trkpt>
      <trkpt lat="48.60791" lon="1.00666">
        <ele>222.80000305176</ele>
        <time>2026-06-18T09:18:42.000Z</time>
      </trkpt>
      <trkpt lat="48.60777" lon="1.00687">
        <ele>223.39999389648</ele>
        <time>2026-06-18T09:18:46.000Z</time>
      </trkpt>
      <trkpt lat="48.60774" lon="1.00692">
        <ele>223.80000305176</ele>
        <time>2026-06-18T09:18:47.000Z</time>
      </trkpt>
      <trkpt lat="48.60759" lon="1.00712">
        <ele>224.80000305176</ele>
        <time>2026-06-18T09:18:51.000Z</time>
      </trkpt>
      <trkpt lat="48.60739" lon="1.00736">
        <ele>225.60000610352</ele>
        <time>2026-06-18T09:18:56.000Z</time>
      </trkpt>
      <trkpt lat="48.60731" lon="1.00743">
        <ele>226</ele>
        <time>2026-06-18T09:18:58.000Z</time>
      </trkpt>
      <trkpt lat="48.60698" lon="1.00774">
        <ele>227.19999694824</ele>
        <time>2026-06-18T09:19:06.000Z</time>
      </trkpt>
      <trkpt lat="48.60693" lon="1.00778">
        <ele>227.19999694824</ele>
        <time>2026-06-18T09:19:07.000Z</time>
      </trkpt>
      <trkpt lat="48.60664" lon="1.00808">
        <ele>228.19999694824</ele>
        <time>2026-06-18T09:19:14.000Z</time>
      </trkpt>
      <trkpt lat="48.6066" lon="1.00813">
        <ele>228.19999694824</ele>
        <time>2026-06-18T09:19:15.000Z</time>
      </trkpt>
      <trkpt lat="48.60625" lon="1.00861">
        <ele>228.60000610352</ele>
        <time>2026-06-18T09:19:23.000Z</time>
      </trkpt>
      <trkpt lat="48.60586" lon="1.0091">
        <ele>229</ele>
        <time>2026-06-18T09:19:32.000Z</time>
      </trkpt>
      <trkpt lat="48.60545" lon="1.00943">
        <ele>229</ele>
        <time>2026-06-18T09:19:40.000Z</time>
      </trkpt>
      <trkpt lat="48.60499" lon="1.00979">
        <ele>229.19999694824</ele>
        <time>2026-06-18T09:19:49.000Z</time>
      </trkpt>
      <trkpt lat="48.60459" lon="1.01015">
        <ele>229.39999389648</ele>
        <time>2026-06-18T09:19:57.000Z</time>
      </trkpt>
      <trkpt lat="48.60425" lon="1.01047">
        <ele>229.19999694824</ele>
        <time>2026-06-18T09:20:04.000Z</time>
      </trkpt>
      <trkpt lat="48.604" lon="1.01068">
        <ele>229</ele>
        <time>2026-06-18T09:20:09.000Z</time>
      </trkpt>
      <trkpt lat="48.60382" lon="1.01083">
        <ele>228.80000305176</ele>
        <time>2026-06-18T09:20:12.000Z</time>
      </trkpt>
      <trkpt lat="48.60376" lon="1.01087">
        <ele>228.80000305176</ele>
        <time>2026-06-18T09:20:13.000Z</time>
      </trkpt>
      <trkpt lat="48.60337" lon="1.0111">
        <ele>228.19999694824</ele>
        <time>2026-06-18T09:20:21.000Z</time>
      </trkpt>
      <trkpt lat="48.60326" lon="1.01117">
        <ele>228.19999694824</ele>
        <time>2026-06-18T09:20:23.000Z</time>
      </trkpt>
      <trkpt lat="48.60282" lon="1.01144">
        <ele>227.60000610352</ele>
        <time>2026-06-18T09:20:31.000Z</time>
      </trkpt>
      <trkpt lat="48.60231" lon="1.01184">
        <ele>227.19999694824</ele>
        <time>2026-06-18T09:20:41.000Z</time>
      </trkpt>
      <trkpt lat="48.60182" lon="1.01231">
        <ele>227.39999389648</ele>
        <time>2026-06-18T09:20:51.000Z</time>
      </trkpt>
      <trkpt lat="48.60154" lon="1.01261">
        <ele>227.60000610352</ele>
        <time>2026-06-18T09:20:57.000Z</time>
      </trkpt>
      <trkpt lat="48.60128" lon="1.01284">
        <ele>227.60000610352</ele>
        <time>2026-06-18T09:21:02.000Z</time>
      </trkpt>
      <trkpt lat="48.60105" lon="1.01297">
        <ele>227.39999389648</ele>
        <time>2026-06-18T09:21:06.000Z</time>
      </trkpt>
      <trkpt lat="48.60099" lon="1.01298">
        <ele>227.39999389648</ele>
        <time>2026-06-18T09:21:07.000Z</time>
      </trkpt>
      <trkpt lat="48.60092" lon="1.01298">
        <ele>227.39999389648</ele>
        <time>2026-06-18T09:21:08.000Z</time>
      </trkpt>
      <trkpt lat="48.60069" lon="1.01294">
        <ele>227.39999389648</ele>
        <time>2026-06-18T09:21:12.000Z</time>
      </trkpt>
      <trkpt lat="48.60064" lon="1.01293">
        <ele>227.60000610352</ele>
        <time>2026-06-18T09:21:13.000Z</time>
      </trkpt>
      <trkpt lat="48.60052" lon="1.01296">
        <ele>227.60000610352</ele>
        <time>2026-06-18T09:21:15.000Z</time>
      </trkpt>
      <trkpt lat="48.60046" lon="1.01299">
        <ele>227.80000305176</ele>
        <time>2026-06-18T09:21:16.000Z</time>
      </trkpt>
      <trkpt lat="48.60041" lon="1.01302">
        <ele>227.80000305176</ele>
        <time>2026-06-18T09:21:17.000Z</time>
      </trkpt>
      <trkpt lat="48.60022" lon="1.01324">
        <ele>228</ele>
        <time>2026-06-18T09:21:21.000Z</time>
      </trkpt>
      <trkpt lat="48.59981" lon="1.01378">
        <ele>228.39999389648</ele>
        <time>2026-06-18T09:21:30.000Z</time>
      </trkpt>
      <trkpt lat="48.59976" lon="1.01384">
        <ele>228.39999389648</ele>
        <time>2026-06-18T09:21:31.000Z</time>
      </trkpt>
      <trkpt lat="48.59933" lon="1.01436">
        <ele>228</ele>
        <time>2026-06-18T09:21:40.000Z</time>
      </trkpt>
      <trkpt lat="48.5992" lon="1.01449">
        <ele>228</ele>
        <time>2026-06-18T09:21:42.000Z</time>
      </trkpt>
      <trkpt lat="48.59885" lon="1.01479">
        <ele>227.39999389648</ele>
        <time>2026-06-18T09:21:49.000Z</time>
      </trkpt>
      <trkpt lat="48.59866" lon="1.01491">
        <ele>227.19999694824</ele>
        <time>2026-06-18T09:21:52.000Z</time>
      </trkpt>
      <trkpt lat="48.5986" lon="1.01494">
        <ele>227.19999694824</ele>
        <time>2026-06-18T09:21:53.000Z</time>
      </trkpt>
      <trkpt lat="48.59852" lon="1.01496">
        <ele>227.19999694824</ele>
        <time>2026-06-18T09:21:54.000Z</time>
      </trkpt>
      <trkpt lat="48.59845" lon="1.01497">
        <ele>226.80000305176</ele>
        <time>2026-06-18T09:21:55.000Z</time>
      </trkpt>
      <trkpt lat="48.59831" lon="1.01492">
        <ele>226.39999389648</ele>
        <time>2026-06-18T09:21:57.000Z</time>
      </trkpt>
      <trkpt lat="48.59825" lon="1.01487">
        <ele>226.39999389648</ele>
        <time>2026-06-18T09:21:58.000Z</time>
      </trkpt>
      <trkpt lat="48.59807" lon="1.01462">
        <ele>226.19999694824</ele>
        <time>2026-06-18T09:22:02.000Z</time>
      </trkpt>
      <trkpt lat="48.59783" lon="1.01425">
        <ele>226.19999694824</ele>
        <time>2026-06-18T09:22:08.000Z</time>
      </trkpt>
      <trkpt lat="48.59748" lon="1.01375">
        <ele>226.80000305176</ele>
        <time>2026-06-18T09:22:16.000Z</time>
      </trkpt>
      <trkpt lat="48.59733" lon="1.0136">
        <ele>227</ele>
        <time>2026-06-18T09:22:19.000Z</time>
      </trkpt>
      <trkpt lat="48.59722" lon="1.01355">
        <ele>227.19999694824</ele>
        <time>2026-06-18T09:22:21.000Z</time>
      </trkpt>
      <trkpt lat="48.59711" lon="1.01355">
        <ele>227.39999389648</ele>
        <time>2026-06-18T09:22:23.000Z</time>
      </trkpt>
      <trkpt lat="48.59705" lon="1.01358">
        <ele>227.39999389648</ele>
        <time>2026-06-18T09:22:24.000Z</time>
      </trkpt>
      <trkpt lat="48.59673" lon="1.01382">
        <ele>228.60000610352</ele>
        <time>2026-06-18T09:22:30.000Z</time>
      </trkpt>
      <trkpt lat="48.59669" lon="1.01387">
        <ele>228.60000610352</ele>
        <time>2026-06-18T09:22:31.000Z</time>
      </trkpt>
      <trkpt lat="48.59636" lon="1.01419">
        <ele>229.60000610352</ele>
        <time>2026-06-18T09:22:38.000Z</time>
      </trkpt>
      <trkpt lat="48.59615" lon="1.01438">
        <ele>230.19999694824</ele>
        <time>2026-06-18T09:22:43.000Z</time>
      </trkpt>
      <trkpt lat="48.59592" lon="1.01451">
        <ele>230.60000610352</ele>
        <time>2026-06-18T09:22:48.000Z</time>
      </trkpt>
      <trkpt lat="48.59587" lon="1.01452">
        <ele>230.60000610352</ele>
        <time>2026-06-18T09:22:49.000Z</time>
      </trkpt>
      <trkpt lat="48.59566" lon="1.01451">
        <ele>231</ele>
        <time>2026-06-18T09:22:53.000Z</time>
      </trkpt>
      <trkpt lat="48.59556" lon="1.01449">
        <ele>231</ele>
        <time>2026-06-18T09:22:55.000Z</time>
      </trkpt>
      <trkpt lat="48.59529" lon="1.01438">
        <ele>231.19999694824</ele>
        <time>2026-06-18T09:23:00.000Z</time>
      </trkpt>
      <trkpt lat="48.59514" lon="1.01429">
        <ele>231.39999389648</ele>
        <time>2026-06-18T09:23:03.000Z</time>
      </trkpt>
      <trkpt lat="48.59509" lon="1.01425">
        <ele>231.39999389648</ele>
        <time>2026-06-18T09:23:04.000Z</time>
      </trkpt>
      <trkpt lat="48.59499" lon="1.01416">
        <ele>231.39999389648</ele>
        <time>2026-06-18T09:23:06.000Z</time>
      </trkpt>
      <trkpt lat="48.59495" lon="1.01412">
        <ele>231.39999389648</ele>
        <time>2026-06-18T09:23:07.000Z</time>
      </trkpt>
      <trkpt lat="48.5949" lon="1.01408">
        <ele>231.39999389648</ele>
        <time>2026-06-18T09:23:08.000Z</time>
      </trkpt>
      <trkpt lat="48.59466" lon="1.01386">
        <ele>231.39999389648</ele>
        <time>2026-06-18T09:23:13.000Z</time>
      </trkpt>
      <trkpt lat="48.59457" lon="1.01376">
        <ele>231.60000610352</ele>
        <time>2026-06-18T09:23:15.000Z</time>
      </trkpt>
      <trkpt lat="48.59438" lon="1.01356">
        <ele>231.60000610352</ele>
        <time>2026-06-18T09:23:19.000Z</time>
      </trkpt>
      <trkpt lat="48.5943" lon="1.0135">
        <ele>231.60000610352</ele>
        <time>2026-06-18T09:23:20.000Z</time>
      </trkpt>
      <trkpt lat="48.59425" lon="1.01349">
        <ele>231.60000610352</ele>
        <time>2026-06-18T09:23:21.000Z</time>
      </trkpt>
      <trkpt lat="48.59412" lon="1.01348">
        <ele>231.80000305176</ele>
        <time>2026-06-18T09:23:24.000Z</time>
      </trkpt>
      <trkpt lat="48.59401" lon="1.01349">
        <ele>231.80000305176</ele>
        <time>2026-06-18T09:23:26.000Z</time>
      </trkpt>
      <trkpt lat="48.59378" lon="1.01359">
        <ele>232.19999694824</ele>
        <time>2026-06-18T09:23:30.000Z</time>
      </trkpt>
      <trkpt lat="48.5937" lon="1.01371">
        <ele>232.19999694824</ele>
        <time>2026-06-18T09:23:32.000Z</time>
      </trkpt>
      <trkpt lat="48.59367" lon="1.01378">
        <ele>232.19999694824</ele>
        <time>2026-06-18T09:23:33.000Z</time>
      </trkpt>
      <trkpt lat="48.59344" lon="1.01447">
        <ele>232.60000610352</ele>
        <time>2026-06-18T09:23:41.000Z</time>
      </trkpt>
      <trkpt lat="48.59323" lon="1.01498">
        <ele>232.39999389648</ele>
        <time>2026-06-18T09:23:47.000Z</time>
      </trkpt>
      <trkpt lat="48.59304" lon="1.01541">
        <ele>232.19999694824</ele>
        <time>2026-06-18T09:23:52.000Z</time>
      </trkpt>
      <trkpt lat="48.59296" lon="1.01555">
        <ele>232</ele>
        <time>2026-06-18T09:23:54.000Z</time>
      </trkpt>
      <trkpt lat="48.59257" lon="1.01622">
        <ele>230.60000610352</ele>
        <time>2026-06-18T09:24:02.000Z</time>
      </trkpt>
      <trkpt lat="48.59253" lon="1.01628">
        <ele>230.39999389648</ele>
        <time>2026-06-18T09:24:03.000Z</time>
      </trkpt>
      <trkpt lat="48.59235" lon="1.01646">
        <ele>229.80000305176</ele>
        <time>2026-06-18T09:24:06.000Z</time>
      </trkpt>
      <trkpt lat="48.59224" lon="1.01654">
        <ele>229.60000610352</ele>
        <time>2026-06-18T09:24:08.000Z</time>
      </trkpt>
      <trkpt lat="48.59188" lon="1.01686">
        <ele>229.39999389648</ele>
        <time>2026-06-18T09:24:14.000Z</time>
      </trkpt>
      <trkpt lat="48.59148" lon="1.0172">
        <ele>230.19999694824</ele>
        <time>2026-06-18T09:24:22.000Z</time>
      </trkpt>
      <trkpt lat="48.5912" lon="1.01745">
        <ele>231</ele>
        <time>2026-06-18T09:24:29.000Z</time>
      </trkpt>
      <trkpt lat="48.59103" lon="1.0176">
        <ele>231</ele>
        <time>2026-06-18T09:24:35.000Z</time>
      </trkpt>
      <trkpt lat="48.59077" lon="1.01778">
        <ele>231</ele>
        <time>2026-06-18T09:24:41.000Z</time>
      </trkpt>
      <trkpt lat="48.5905" lon="1.01796">
        <ele>231</ele>
        <time>2026-06-18T09:24:46.000Z</time>
      </trkpt>
      <trkpt lat="48.59045" lon="1.018">
        <ele>230.80000305176</ele>
        <time>2026-06-18T09:24:47.000Z</time>
      </trkpt>
      <trkpt lat="48.59001" lon="1.0182">
        <ele>230.39999389648</ele>
        <time>2026-06-18T09:24:54.000Z</time>
      </trkpt>
      <trkpt lat="48.58957" lon="1.01839">
        <ele>230.19999694824</ele>
        <time>2026-06-18T09:25:01.000Z</time>
      </trkpt>
      <trkpt lat="48.58924" lon="1.01872">
        <ele>230.19999694824</ele>
        <time>2026-06-18T09:25:07.000Z</time>
      </trkpt>
      <trkpt lat="48.58888" lon="1.01911">
        <ele>230</ele>
        <time>2026-06-18T09:25:13.000Z</time>
      </trkpt>
      <trkpt lat="48.58888" lon="1.01911">
        <ele>230</ele>
        <time>2026-06-18T09:25:14.000Z</time>
      </trkpt>
      <trkpt lat="48.58865" lon="1.01938">
        <ele>229.39999389648</ele>
        <time>2026-06-18T09:25:18.000Z</time>
      </trkpt>
      <trkpt lat="48.58845" lon="1.01963">
        <ele>229.39999389648</ele>
        <time>2026-06-18T09:25:22.000Z</time>
      </trkpt>
      <trkpt lat="48.58796" lon="1.02015">
        <ele>228.60000610352</ele>
        <time>2026-06-18T09:25:31.000Z</time>
      </trkpt>
      <trkpt lat="48.5879" lon="1.02021">
        <ele>228.39999389648</ele>
        <time>2026-06-18T09:25:32.000Z</time>
      </trkpt>
      <trkpt lat="48.58738" lon="1.02065">
        <ele>227.19999694824</ele>
        <time>2026-06-18T09:25:41.000Z</time>
      </trkpt>
      <trkpt lat="48.58705" lon="1.02089">
        <ele>226.39999389648</ele>
        <time>2026-06-18T09:25:46.000Z</time>
      </trkpt>
      <trkpt lat="48.5869" lon="1.02094">
        <ele>226.19999694824</ele>
        <time>2026-06-18T09:25:48.000Z</time>
      </trkpt>
      <trkpt lat="48.58665" lon="1.021">
        <ele>225.80000305176</ele>
        <time>2026-06-18T09:25:51.000Z</time>
      </trkpt>
      <trkpt lat="48.5863" lon="1.02115">
        <ele>225.19999694824</ele>
        <time>2026-06-18T09:25:55.000Z</time>
      </trkpt>
      <trkpt lat="48.58621" lon="1.02119">
        <ele>225.19999694824</ele>
        <time>2026-06-18T09:25:56.000Z</time>
      </trkpt>
      <trkpt lat="48.58584" lon="1.02138">
        <ele>224.39999389648</ele>
        <time>2026-06-18T09:26:00.000Z</time>
      </trkpt>
      <trkpt lat="48.58575" lon="1.02144">
        <ele>224</ele>
        <time>2026-06-18T09:26:01.000Z</time>
      </trkpt>
      <trkpt lat="48.58542" lon="1.02161">
        <ele>223.39999389648</ele>
        <time>2026-06-18T09:26:05.000Z</time>
      </trkpt>
      <trkpt lat="48.58506" lon="1.02179">
        <ele>223.39999389648</ele>
        <time>2026-06-18T09:26:11.000Z</time>
      </trkpt>
      <trkpt lat="48.58481" lon="1.02189">
        <ele>224.60000610352</ele>
        <time>2026-06-18T09:26:17.000Z</time>
      </trkpt>
      <trkpt lat="48.58472" lon="1.02193">
        <ele>225.39999389648</ele>
        <time>2026-06-18T09:26:19.000Z</time>
      </trkpt>
      <trkpt lat="48.58464" lon="1.02197">
        <ele>226</ele>
        <time>2026-06-18T09:26:21.000Z</time>
      </trkpt>
      <trkpt lat="48.58453" lon="1.02202">
        <ele>226.39999389648</ele>
        <time>2026-06-18T09:26:23.000Z</time>
      </trkpt>
      <trkpt lat="48.58439" lon="1.02209">
        <ele>227.60000610352</ele>
        <time>2026-06-18T09:26:26.000Z</time>
      </trkpt>
      <trkpt lat="48.58432" lon="1.02213">
        <ele>227.80000305176</ele>
        <time>2026-06-18T09:26:27.000Z</time>
      </trkpt>
      <trkpt lat="48.58409" lon="1.0222">
        <ele>228.60000610352</ele>
        <time>2026-06-18T09:26:31.000Z</time>
      </trkpt>
      <trkpt lat="48.58378" lon="1.02238">
        <ele>229.39999389648</ele>
        <time>2026-06-18T09:26:36.000Z</time>
      </trkpt>
      <trkpt lat="48.58365" lon="1.02246">
        <ele>229.39999389648</ele>
        <time>2026-06-18T09:26:38.000Z</time>
      </trkpt>
      <trkpt lat="48.58357" lon="1.0225">
        <ele>229.39999389648</ele>
        <time>2026-06-18T09:26:39.000Z</time>
      </trkpt>
      <trkpt lat="48.5835" lon="1.02252">
        <ele>229.60000610352</ele>
        <time>2026-06-18T09:26:40.000Z</time>
      </trkpt>
      <trkpt lat="48.58324" lon="1.02268">
        <ele>229.80000305176</ele>
        <time>2026-06-18T09:26:45.000Z</time>
      </trkpt>
      <trkpt lat="48.58306" lon="1.02272">
        <ele>229.80000305176</ele>
        <time>2026-06-18T09:26:48.000Z</time>
      </trkpt>
      <trkpt lat="48.58287" lon="1.02282">
        <ele>230.39999389648</ele>
        <time>2026-06-18T09:26:51.000Z</time>
      </trkpt>
      <trkpt lat="48.58279" lon="1.02289">
        <ele>230.60000610352</ele>
        <time>2026-06-18T09:26:53.000Z</time>
      </trkpt>
      <trkpt lat="48.58251" lon="1.023">
        <ele>231.19999694824</ele>
        <time>2026-06-18T09:26:58.000Z</time>
      </trkpt>
      <trkpt lat="48.58242" lon="1.02305">
        <ele>231.60000610352</ele>
        <time>2026-06-18T09:27:00.000Z</time>
      </trkpt>
      <trkpt lat="48.58219" lon="1.02317">
        <ele>232.39999389648</ele>
        <time>2026-06-18T09:27:04.000Z</time>
      </trkpt>
      <trkpt lat="48.58198" lon="1.02331">
        <ele>232.60000610352</ele>
        <time>2026-06-18T09:27:07.000Z</time>
      </trkpt>
      <trkpt lat="48.58173" lon="1.0234">
        <ele>232.80000305176</ele>
        <time>2026-06-18T09:27:11.000Z</time>
      </trkpt>
      <trkpt lat="48.58165" lon="1.02342">
        <ele>232.80000305176</ele>
        <time>2026-06-18T09:27:12.000Z</time>
      </trkpt>
      <trkpt lat="48.58156" lon="1.02344">
        <ele>233</ele>
        <time>2026-06-18T09:27:13.000Z</time>
      </trkpt>
      <trkpt lat="48.5814" lon="1.0235">
        <ele>233</ele>
        <time>2026-06-18T09:27:15.000Z</time>
      </trkpt>
      <trkpt lat="48.58118" lon="1.02365">
        <ele>232.80000305176</ele>
        <time>2026-06-18T09:27:19.000Z</time>
      </trkpt>
      <trkpt lat="48.58095" lon="1.0238">
        <ele>232.80000305176</ele>
        <time>2026-06-18T09:27:23.000Z</time>
      </trkpt>
      <trkpt lat="48.58064" lon="1.02398">
        <ele>232.80000305176</ele>
        <time>2026-06-18T09:27:29.000Z</time>
      </trkpt>
      <trkpt lat="48.58033" lon="1.02414">
        <ele>232.80000305176</ele>
        <time>2026-06-18T09:27:34.000Z</time>
      </trkpt>
      <trkpt lat="48.5802" lon="1.02418">
        <ele>233</ele>
        <time>2026-06-18T09:27:36.000Z</time>
      </trkpt>
      <trkpt lat="48.57974" lon="1.02439">
        <ele>233.39999389648</ele>
        <time>2026-06-18T09:27:43.000Z</time>
      </trkpt>
      <trkpt lat="48.57944" lon="1.02455">
        <ele>233.39999389648</ele>
        <time>2026-06-18T09:27:47.000Z</time>
      </trkpt>
      <trkpt lat="48.579" lon="1.02473">
        <ele>233.39999389648</ele>
        <time>2026-06-18T09:27:53.000Z</time>
      </trkpt>
      <trkpt lat="48.57876" lon="1.02491">
        <ele>233.39999389648</ele>
        <time>2026-06-18T09:27:57.000Z</time>
      </trkpt>
      <trkpt lat="48.57868" lon="1.02495">
        <ele>233.39999389648</ele>
        <time>2026-06-18T09:27:58.000Z</time>
      </trkpt>
      <trkpt lat="48.57823" lon="1.02516">
        <ele>233.39999389648</ele>
        <time>2026-06-18T09:28:04.000Z</time>
      </trkpt>
      <trkpt lat="48.57785" lon="1.0254">
        <ele>233.19999694824</ele>
        <time>2026-06-18T09:28:11.000Z</time>
      </trkpt>
      <trkpt lat="48.57745" lon="1.02562">
        <ele>232.80000305176</ele>
        <time>2026-06-18T09:28:17.000Z</time>
      </trkpt>
      <trkpt lat="48.57728" lon="1.02574">
        <ele>232.39999389648</ele>
        <time>2026-06-18T09:28:20.000Z</time>
      </trkpt>
      <trkpt lat="48.57721" lon="1.02577">
        <ele>232.19999694824</ele>
        <time>2026-06-18T09:28:21.000Z</time>
      </trkpt>
      <trkpt lat="48.57708" lon="1.02581">
        <ele>232</ele>
        <time>2026-06-18T09:28:23.000Z</time>
      </trkpt>
      <trkpt lat="48.57687" lon="1.02589">
        <ele>231.80000305176</ele>
        <time>2026-06-18T09:28:26.000Z</time>
      </trkpt>
      <trkpt lat="48.57648" lon="1.02605">
        <ele>231.80000305176</ele>
        <time>2026-06-18T09:28:33.000Z</time>
      </trkpt>
      <trkpt lat="48.57642" lon="1.02608">
        <ele>232</ele>
        <time>2026-06-18T09:28:34.000Z</time>
      </trkpt>
      <trkpt lat="48.57617" lon="1.02621">
        <ele>232.39999389648</ele>
        <time>2026-06-18T09:28:39.000Z</time>
      </trkpt>
      <trkpt lat="48.57605" lon="1.02626">
        <ele>232.80000305176</ele>
        <time>2026-06-18T09:28:41.000Z</time>
      </trkpt>
      <trkpt lat="48.57589" lon="1.02634">
        <ele>233.39999389648</ele>
        <time>2026-06-18T09:28:44.000Z</time>
      </trkpt>
      <trkpt lat="48.57552" lon="1.02652">
        <ele>234</ele>
        <time>2026-06-18T09:28:50.000Z</time>
      </trkpt>
      <trkpt lat="48.57504" lon="1.02674">
        <ele>234.60000610352</ele>
        <time>2026-06-18T09:28:56.000Z</time>
      </trkpt>
      <trkpt lat="48.57483" lon="1.02692">
        <ele>234.80000305176</ele>
        <time>2026-06-18T09:29:01.000Z</time>
      </trkpt>
      <trkpt lat="48.57467" lon="1.02698">
        <ele>235</ele>
        <time>2026-06-18T09:29:06.000Z</time>
      </trkpt>
      <trkpt lat="48.57444" lon="1.02712">
        <ele>235.60000610352</ele>
        <time>2026-06-18T09:29:11.000Z</time>
      </trkpt>
      <trkpt lat="48.57439" lon="1.02714">
        <ele>235.60000610352</ele>
        <time>2026-06-18T09:29:12.000Z</time>
      </trkpt>
      <trkpt lat="48.57424" lon="1.02718">
        <ele>235.60000610352</ele>
        <time>2026-06-18T09:29:14.000Z</time>
      </trkpt>
      <trkpt lat="48.57406" lon="1.02725">
        <ele>235.80000305176</ele>
        <time>2026-06-18T09:29:17.000Z</time>
      </trkpt>
      <trkpt lat="48.57372" lon="1.02744">
        <ele>235.80000305176</ele>
        <time>2026-06-18T09:29:23.000Z</time>
      </trkpt>
      <trkpt lat="48.57345" lon="1.02765">
        <ele>235.60000610352</ele>
        <time>2026-06-18T09:29:28.000Z</time>
      </trkpt>
      <trkpt lat="48.57303" lon="1.02781">
        <ele>235.39999389648</ele>
        <time>2026-06-18T09:29:34.000Z</time>
      </trkpt>
      <trkpt lat="48.57255" lon="1.02802">
        <ele>235</ele>
        <time>2026-06-18T09:29:40.000Z</time>
      </trkpt>
      <trkpt lat="48.57235" lon="1.02807">
        <ele>234.80000305176</ele>
        <time>2026-06-18T09:29:43.000Z</time>
      </trkpt>
      <trkpt lat="48.57217" lon="1.02811">
        <ele>234.60000610352</ele>
        <time>2026-06-18T09:29:46.000Z</time>
      </trkpt>
      <trkpt lat="48.57176" lon="1.02816">
        <ele>235</ele>
        <time>2026-06-18T09:29:53.000Z</time>
      </trkpt>
      <trkpt lat="48.5712" lon="1.02827">
        <ele>235.39999389648</ele>
        <time>2026-06-18T09:30:03.000Z</time>
      </trkpt>
      <trkpt lat="48.57072" lon="1.02848">
        <ele>235.80000305176</ele>
        <time>2026-06-18T09:30:11.000Z</time>
      </trkpt>
      <trkpt lat="48.57039" lon="1.02865">
        <ele>235.60000610352</ele>
        <time>2026-06-18T09:30:19.000Z</time>
      </trkpt>
      <trkpt lat="48.57026" lon="1.02865">
        <ele>235.39999389648</ele>
        <time>2026-06-18T09:30:23.000Z</time>
      </trkpt>
      <trkpt lat="48.57023" lon="1.02861">
        <ele>235.19999694824</ele>
        <time>2026-06-18T09:30:24.000Z</time>
      </trkpt>
      <trkpt lat="48.5702" lon="1.0285">
        <ele>235.19999694824</ele>
        <time>2026-06-18T09:30:26.000Z</time>
      </trkpt>
      <trkpt lat="48.57009" lon="1.02816">
        <ele>235.39999389648</ele>
        <time>2026-06-18T09:30:31.000Z</time>
      </trkpt>
      <trkpt lat="48.57006" lon="1.0281">
        <ele>235.39999389648</ele>
        <time>2026-06-18T09:30:32.000Z</time>
      </trkpt>
      <trkpt lat="48.56994" lon="1.02792">
        <ele>235.60000610352</ele>
        <time>2026-06-18T09:30:35.000Z</time>
      </trkpt>
      <trkpt lat="48.5699" lon="1.02786">
        <ele>235.60000610352</ele>
        <time>2026-06-18T09:30:36.000Z</time>
      </trkpt>
      <trkpt lat="48.56952" lon="1.02737">
        <ele>236.39999389648</ele>
        <time>2026-06-18T09:30:45.000Z</time>
      </trkpt>
      <trkpt lat="48.56911" lon="1.02695">
        <ele>236</ele>
        <time>2026-06-18T09:30:54.000Z</time>
      </trkpt>
      <trkpt lat="48.56871" lon="1.02655">
        <ele>235.60000610352</ele>
        <time>2026-06-18T09:31:03.000Z</time>
      </trkpt>
      <trkpt lat="48.56862" lon="1.02645">
        <ele>235.19999694824</ele>
        <time>2026-06-18T09:31:05.000Z</time>
      </trkpt>
      <trkpt lat="48.56827" lon="1.02612">
        <ele>235</ele>
        <time>2026-06-18T09:31:11.000Z</time>
      </trkpt>
      <trkpt lat="48.56812" lon="1.02598">
        <ele>234.39999389648</ele>
        <time>2026-06-18T09:31:15.000Z</time>
      </trkpt>
      <trkpt lat="48.5679" lon="1.02575">
        <ele>234.19999694824</ele>
        <time>2026-06-18T09:31:19.000Z</time>
      </trkpt>
      <trkpt lat="48.56785" lon="1.02568">
        <ele>234</ele>
        <time>2026-06-18T09:31:20.000Z</time>
      </trkpt>
      <trkpt lat="48.5678" lon="1.02552">
        <ele>234</ele>
        <time>2026-06-18T09:31:22.000Z</time>
      </trkpt>
      <trkpt lat="48.56775" lon="1.02537">
        <ele>233.60000610352</ele>
        <time>2026-06-18T09:31:24.000Z</time>
      </trkpt>
      <trkpt lat="48.56771" lon="1.02532">
        <ele>233.60000610352</ele>
        <time>2026-06-18T09:31:25.000Z</time>
      </trkpt>
      <trkpt lat="48.56765" lon="1.0253">
        <ele>233.39999389648</ele>
        <time>2026-06-18T09:31:26.000Z</time>
      </trkpt>
      <trkpt lat="48.56752" lon="1.02532">
        <ele>233</ele>
        <time>2026-06-18T09:31:28.000Z</time>
      </trkpt>
      <trkpt lat="48.56746" lon="1.02535">
        <ele>232.80000305176</ele>
        <time>2026-06-18T09:31:29.000Z</time>
      </trkpt>
      <trkpt lat="48.56738" lon="1.02546">
        <ele>232.60000610352</ele>
        <time>2026-06-18T09:31:31.000Z</time>
      </trkpt>
      <trkpt lat="48.56731" lon="1.0256">
        <ele>232.19999694824</ele>
        <time>2026-06-18T09:31:33.000Z</time>
      </trkpt>
      <trkpt lat="48.56721" lon="1.02575">
        <ele>232.19999694824</ele>
        <time>2026-06-18T09:31:35.000Z</time>
      </trkpt>
      <trkpt lat="48.56703" lon="1.0261">
        <ele>231.80000305176</ele>
        <time>2026-06-18T09:31:39.000Z</time>
      </trkpt>
      <trkpt lat="48.56699" lon="1.0262">
        <ele>231.60000610352</ele>
        <time>2026-06-18T09:31:40.000Z</time>
      </trkpt>
      <trkpt lat="48.56688" lon="1.02651">
        <ele>231.19999694824</ele>
        <time>2026-06-18T09:31:43.000Z</time>
      </trkpt>
      <trkpt lat="48.56675" lon="1.02691">
        <ele>230.80000305176</ele>
        <time>2026-06-18T09:31:47.000Z</time>
      </trkpt>
      <trkpt lat="48.56655" lon="1.02749">
        <ele>230</ele>
        <time>2026-06-18T09:31:53.000Z</time>
      </trkpt>
      <trkpt lat="48.56652" lon="1.02758">
        <ele>230</ele>
        <time>2026-06-18T09:31:54.000Z</time>
      </trkpt>
      <trkpt lat="48.56623" lon="1.02832">
        <ele>229.39999389648</ele>
        <time>2026-06-18T09:32:03.000Z</time>
      </trkpt>
      <trkpt lat="48.56608" lon="1.02871">
        <ele>229</ele>
        <time>2026-06-18T09:32:08.000Z</time>
      </trkpt>
      <trkpt lat="48.56591" lon="1.02915">
        <ele>228.80000305176</ele>
        <time>2026-06-18T09:32:14.000Z</time>
      </trkpt>
      <trkpt lat="48.56579" lon="1.02947">
        <ele>228.60000610352</ele>
        <time>2026-06-18T09:32:18.000Z</time>
      </trkpt>
      <trkpt lat="48.56558" lon="1.02996">
        <ele>228</ele>
        <time>2026-06-18T09:32:24.000Z</time>
      </trkpt>
      <trkpt lat="48.56554" lon="1.03003">
        <ele>228</ele>
        <time>2026-06-18T09:32:25.000Z</time>
      </trkpt>
      <trkpt lat="48.56524" lon="1.03055">
        <ele>227.39999389648</ele>
        <time>2026-06-18T09:32:32.000Z</time>
      </trkpt>
      <trkpt lat="48.56495" lon="1.031">
        <ele>227</ele>
        <time>2026-06-18T09:32:39.000Z</time>
      </trkpt>
      <trkpt lat="48.5649" lon="1.03106">
        <ele>226.80000305176</ele>
        <time>2026-06-18T09:32:40.000Z</time>
      </trkpt>
      <trkpt lat="48.56452" lon="1.03141">
        <ele>225.80000305176</ele>
        <time>2026-06-18T09:32:47.000Z</time>
      </trkpt>
      <trkpt lat="48.5641" lon="1.03175">
        <ele>225.39999389648</ele>
        <time>2026-06-18T09:32:54.000Z</time>
      </trkpt>
      <trkpt lat="48.5637" lon="1.03195">
        <ele>225</ele>
        <time>2026-06-18T09:33:01.000Z</time>
      </trkpt>
      <trkpt lat="48.56337" lon="1.03211">
        <ele>224.80000305176</ele>
        <time>2026-06-18T09:33:07.000Z</time>
      </trkpt>
      <trkpt lat="48.56332" lon="1.03214">
        <ele>224.39999389648</ele>
        <time>2026-06-18T09:33:08.000Z</time>
      </trkpt>
      <trkpt lat="48.56315" lon="1.03222">
        <ele>224.39999389648</ele>
        <time>2026-06-18T09:33:11.000Z</time>
      </trkpt>
      <trkpt lat="48.56282" lon="1.03237">
        <ele>224.19999694824</ele>
        <time>2026-06-18T09:33:17.000Z</time>
      </trkpt>
      <trkpt lat="48.56246" lon="1.03252">
        <ele>224</ele>
        <time>2026-06-18T09:33:24.000Z</time>
      </trkpt>
      <trkpt lat="48.56234" lon="1.03257">
        <ele>224</ele>
        <time>2026-06-18T09:33:27.000Z</time>
      </trkpt>
      <trkpt lat="48.56227" lon="1.03256">
        <ele>224.19999694824</ele>
        <time>2026-06-18T09:33:29.000Z</time>
      </trkpt>
      <trkpt lat="48.56219" lon="1.0325">
        <ele>224.39999389648</ele>
        <time>2026-06-18T09:33:33.000Z</time>
      </trkpt>
      <trkpt lat="48.56217" lon="1.03248">
        <ele>224.39999389648</ele>
        <time>2026-06-18T09:33:34.000Z</time>
      </trkpt>
      <trkpt lat="48.56213" lon="1.03248">
        <ele>224.60000610352</ele>
        <time>2026-06-18T09:33:36.000Z</time>
      </trkpt>
      <trkpt lat="48.56212" lon="1.03249">
        <ele>224.60000610352</ele>
        <time>2026-06-18T09:33:37.000Z</time>
      </trkpt>
      <trkpt lat="48.56211" lon="1.03252">
        <ele>224.80000305176</ele>
        <time>2026-06-18T09:33:38.000Z</time>
      </trkpt>
      <trkpt lat="48.56211" lon="1.03258">
        <ele>224.80000305176</ele>
        <time>2026-06-18T09:33:40.000Z</time>
      </trkpt>
      <trkpt lat="48.56211" lon="1.03261">
        <ele>224.80000305176</ele>
        <time>2026-06-18T09:33:41.000Z</time>
      </trkpt>
      <trkpt lat="48.56213" lon="1.03264">
        <ele>224.80000305176</ele>
        <time>2026-06-18T09:33:42.000Z</time>
      </trkpt>
      <trkpt lat="48.56217" lon="1.03273">
        <ele>225</ele>
        <time>2026-06-18T09:33:44.000Z</time>
      </trkpt>
      <trkpt lat="48.56219" lon="1.03297">
        <ele>224.39999389648</ele>
        <time>2026-06-18T09:33:48.000Z</time>
      </trkpt>
      <trkpt lat="48.56221" lon="1.03352">
        <ele>223.80000305176</ele>
        <time>2026-06-18T09:33:57.000Z</time>
      </trkpt>
      <trkpt lat="48.56221" lon="1.03377">
        <ele>223.60000610352</ele>
        <time>2026-06-18T09:34:01.000Z</time>
      </trkpt>
      <trkpt lat="48.56219" lon="1.03404">
        <ele>223.60000610352</ele>
        <time>2026-06-18T09:34:05.000Z</time>
      </trkpt>
      <trkpt lat="48.56218" lon="1.03424">
        <ele>223.39999389648</ele>
        <time>2026-06-18T09:34:08.000Z</time>
      </trkpt>
      <trkpt lat="48.56218" lon="1.0343">
        <ele>223.39999389648</ele>
        <time>2026-06-18T09:34:09.000Z</time>
      </trkpt>
      <trkpt lat="48.56218" lon="1.03452">
        <ele>223.39999389648</ele>
        <time>2026-06-18T09:34:12.000Z</time>
      </trkpt>
      <trkpt lat="48.56214" lon="1.035">
        <ele>223.39999389648</ele>
        <time>2026-06-18T09:34:18.000Z</time>
      </trkpt>
      <trkpt lat="48.56209" lon="1.03568">
        <ele>223.39999389648</ele>
        <time>2026-06-18T09:34:26.000Z</time>
      </trkpt>
      <trkpt lat="48.56207" lon="1.03595">
        <ele>223.19999694824</ele>
        <time>2026-06-18T09:34:31.000Z</time>
      </trkpt>
      <trkpt lat="48.56205" lon="1.03607">
        <ele>223.39999389648</ele>
        <time>2026-06-18T09:34:36.000Z</time>
      </trkpt>
      <trkpt lat="48.56205" lon="1.03607">
        <ele>223.39999389648</ele>
        <time>2026-06-18T09:34:42.000Z</time>
      </trkpt>
      <trkpt lat="48.56205" lon="1.03619">
        <ele>223.39999389648</ele>
        <time>2026-06-18T09:34:48.000Z</time>
      </trkpt>
      <trkpt lat="48.56204" lon="1.03622">
        <ele>223.39999389648</ele>
        <time>2026-06-18T09:34:49.000Z</time>
      </trkpt>
      <trkpt lat="48.56201" lon="1.03642">
        <ele>223.39999389648</ele>
        <time>2026-06-18T09:34:53.000Z</time>
      </trkpt>
      <trkpt lat="48.56199" lon="1.03654">
        <ele>223.39999389648</ele>
        <time>2026-06-18T09:34:55.000Z</time>
      </trkpt>
      <trkpt lat="48.56196" lon="1.03676">
        <ele>223.39999389648</ele>
        <time>2026-06-18T09:34:58.000Z</time>
      </trkpt>
      <trkpt lat="48.56194" lon="1.03683">
        <ele>223.39999389648</ele>
        <time>2026-06-18T09:34:59.000Z</time>
      </trkpt>
      <trkpt lat="48.56191" lon="1.03694">
        <ele>223.60000610352</ele>
        <time>2026-06-18T09:35:01.000Z</time>
      </trkpt>
      <trkpt lat="48.56189" lon="1.03707">
        <ele>223.80000305176</ele>
        <time>2026-06-18T09:35:03.000Z</time>
      </trkpt>
      <trkpt lat="48.56185" lon="1.03745">
        <ele>224.19999694824</ele>
        <time>2026-06-18T09:35:08.000Z</time>
      </trkpt>
      <trkpt lat="48.56185" lon="1.03752">
        <ele>224.19999694824</ele>
        <time>2026-06-18T09:35:09.000Z</time>
      </trkpt>
      <trkpt lat="48.56185" lon="1.03792">
        <ele>224.39999389648</ele>
        <time>2026-06-18T09:35:16.000Z</time>
      </trkpt>
      <trkpt lat="48.56184" lon="1.03829">
        <ele>224.39999389648</ele>
        <time>2026-06-18T09:35:23.000Z</time>
      </trkpt>
      <trkpt lat="48.56186" lon="1.03843">
        <ele>224.60000610352</ele>
        <time>2026-06-18T09:35:26.000Z</time>
      </trkpt>
      <trkpt lat="48.56188" lon="1.03855">
        <ele>224.60000610352</ele>
        <time>2026-06-18T09:35:29.000Z</time>
      </trkpt>
      <trkpt lat="48.56188" lon="1.03858">
        <ele>224.80000305176</ele>
        <time>2026-06-18T09:35:30.000Z</time>
      </trkpt>
      <trkpt lat="48.56185" lon="1.03862">
        <ele>224.80000305176</ele>
        <time>2026-06-18T09:35:32.000Z</time>
      </trkpt>
      <trkpt lat="48.56173" lon="1.03861">
        <ele>224.60000610352</ele>
        <time>2026-06-18T09:35:36.000Z</time>
      </trkpt>
      <trkpt lat="48.5615" lon="1.03851">
        <ele>224.19999694824</ele>
        <time>2026-06-18T09:35:42.000Z</time>
      </trkpt>
      <trkpt lat="48.56119" lon="1.03832">
        <ele>223.80000305176</ele>
        <time>2026-06-18T09:35:49.000Z</time>
      </trkpt>
      <trkpt lat="48.561" lon="1.03826">
        <ele>223.80000305176</ele>
        <time>2026-06-18T09:35:53.000Z</time>
      </trkpt>
      <trkpt lat="48.56093" lon="1.03822">
        <ele>224</ele>
        <time>2026-06-18T09:35:55.000Z</time>
      </trkpt>
      <trkpt lat="48.56085" lon="1.03818">
        <ele>224</ele>
        <time>2026-06-18T09:35:57.000Z</time>
      </trkpt>
      <trkpt lat="48.5608" lon="1.03813">
        <ele>224</ele>
        <time>2026-06-18T09:35:59.000Z</time>
      </trkpt>
      <trkpt lat="48.56064" lon="1.038">
        <ele>224.60000610352</ele>
        <time>2026-06-18T09:36:04.000Z</time>
      </trkpt>
      <trkpt lat="48.56051" lon="1.03791">
        <ele>225.60000610352</ele>
        <time>2026-06-18T09:36:08.000Z</time>
      </trkpt>
      <trkpt lat="48.56041" lon="1.03784">
        <ele>225.80000305176</ele>
        <time>2026-06-18T09:36:11.000Z</time>
      </trkpt>
      <trkpt lat="48.56026" lon="1.03773">
        <ele>227</ele>
        <time>2026-06-18T09:36:15.000Z</time>
      </trkpt>
      <trkpt lat="48.56019" lon="1.03767">
        <ele>227.39999389648</ele>
        <time>2026-06-18T09:36:17.000Z</time>
      </trkpt>
      <trkpt lat="48.5601" lon="1.03764">
        <ele>227.80000305176</ele>
        <time>2026-06-18T09:36:20.000Z</time>
      </trkpt>
      <trkpt lat="48.56006" lon="1.03767">
        <ele>227.80000305176</ele>
        <time>2026-06-18T09:36:21.000Z</time>
      </trkpt>
      <trkpt lat="48.56004" lon="1.03771">
        <ele>228</ele>
        <time>2026-06-18T09:36:22.000Z</time>
      </trkpt>
      <trkpt lat="48.56004" lon="1.03775">
        <ele>228</ele>
        <time>2026-06-18T09:36:23.000Z</time>
      </trkpt>
      <trkpt lat="48.56004" lon="1.0378">
        <ele>228</ele>
        <time>2026-06-18T09:36:24.000Z</time>
      </trkpt>
      <trkpt lat="48.56004" lon="1.03785">
        <ele>228</ele>
        <time>2026-06-18T09:36:29.000Z</time>
      </trkpt>
      <trkpt lat="48.56002" lon="1.03788">
        <ele>227.80000305176</ele>
        <time>2026-06-18T09:36:36.000Z</time>
      </trkpt>
      <trkpt lat="48.56017" lon="1.03782">
        <ele>231.60000610352</ele>
        <time>2026-06-18T10:20:06.000Z</time>
      </trkpt>
      <trkpt lat="48.56017" lon="1.03782">
        <ele>231.60000610352</ele>
        <time>2026-06-18T10:20:08.000Z</time>
      </trkpt>
      <trkpt lat="48.56016" lon="1.03782">
        <ele>231.60000610352</ele>
        <time>2026-06-18T10:20:10.000Z</time>
      </trkpt>
      <trkpt lat="48.56016" lon="1.03782">
        <ele>231.60000610352</ele>
        <time>2026-06-18T10:20:11.000Z</time>
      </trkpt>
      <trkpt lat="48.56016" lon="1.03781">
        <ele>232.19999694824</ele>
        <time>2026-06-18T10:20:16.000Z</time>
      </trkpt>
      <trkpt lat="48.56016" lon="1.03781">
        <ele>232.19999694824</ele>
        <time>2026-06-18T10:20:18.000Z</time>
      </trkpt>
      <trkpt lat="48.56015" lon="1.03781">
        <ele>232.39999389648</ele>
        <time>2026-06-18T10:20:22.000Z</time>
      </trkpt>
      <trkpt lat="48.56016" lon="1.0378">
        <ele>232.39999389648</ele>
        <time>2026-06-18T10:20:31.000Z</time>
      </trkpt>
      <trkpt lat="48.56017" lon="1.03778">
        <ele>232.39999389648</ele>
        <time>2026-06-18T10:20:37.000Z</time>
      </trkpt>
      <trkpt lat="48.56018" lon="1.03774">
        <ele>232.39999389648</ele>
        <time>2026-06-18T10:20:40.000Z</time>
      </trkpt>
      <trkpt lat="48.56019" lon="1.03768">
        <ele>232.39999389648</ele>
        <time>2026-06-18T10:20:44.000Z</time>
      </trkpt>
      <trkpt lat="48.56017" lon="1.03757">
        <ele>232.60000610352</ele>
        <time>2026-06-18T10:20:48.000Z</time>
      </trkpt>
      <trkpt lat="48.56016" lon="1.03753">
        <ele>232.60000610352</ele>
        <time>2026-06-18T10:20:49.000Z</time>
      </trkpt>
      <trkpt lat="48.56014" lon="1.0373">
        <ele>232.80000305176</ele>
        <time>2026-06-18T10:20:54.000Z</time>
      </trkpt>
      <trkpt lat="48.56014" lon="1.03718">
        <ele>232.80000305176</ele>
        <time>2026-06-18T10:20:57.000Z</time>
      </trkpt>
      <trkpt lat="48.56015" lon="1.03709">
        <ele>232.80000305176</ele>
        <time>2026-06-18T10:20:59.000Z</time>
      </trkpt>
      <trkpt lat="48.56013" lon="1.0367">
        <ele>233.19999694824</ele>
        <time>2026-06-18T10:21:07.000Z</time>
      </trkpt>
      <trkpt lat="48.56018" lon="1.03628">
        <ele>233.39999389648</ele>
        <time>2026-06-18T10:21:15.000Z</time>
      </trkpt>
      <trkpt lat="48.56023" lon="1.03603">
        <ele>233.60000610352</ele>
        <time>2026-06-18T10:21:21.000Z</time>
      </trkpt>
      <trkpt lat="48.56027" lon="1.03575">
        <ele>233.60000610352</ele>
        <time>2026-06-18T10:21:26.000Z</time>
      </trkpt>
      <trkpt lat="48.56027" lon="1.03562">
        <ele>233.60000610352</ele>
        <time>2026-06-18T10:21:28.000Z</time>
      </trkpt>
      <trkpt lat="48.56026" lon="1.03544">
        <ele>233.60000610352</ele>
        <time>2026-06-18T10:21:31.000Z</time>
      </trkpt>
      <trkpt lat="48.56024" lon="1.03514">
        <ele>233.60000610352</ele>
        <time>2026-06-18T10:21:36.000Z</time>
      </trkpt>
      <trkpt lat="48.56022" lon="1.03459">
        <ele>233</ele>
        <time>2026-06-18T10:21:45.000Z</time>
      </trkpt>
      <trkpt lat="48.56027" lon="1.03429">
        <ele>233</ele>
        <time>2026-06-18T10:21:50.000Z</time>
      </trkpt>
      <trkpt lat="48.56036" lon="1.03397">
        <ele>232.60000610352</ele>
        <time>2026-06-18T10:21:56.000Z</time>
      </trkpt>
      <trkpt lat="48.56045" lon="1.03367">
        <ele>232.60000610352</ele>
        <time>2026-06-18T10:22:02.000Z</time>
      </trkpt>
      <trkpt lat="48.5606" lon="1.03311">
        <ele>232.60000610352</ele>
        <time>2026-06-18T10:22:12.000Z</time>
      </trkpt>
      <trkpt lat="48.56072" lon="1.03277">
        <ele>233.19999694824</ele>
        <time>2026-06-18T10:22:19.000Z</time>
      </trkpt>
      <trkpt lat="48.56083" lon="1.03254">
        <ele>233</ele>
        <time>2026-06-18T10:22:25.000Z</time>
      </trkpt>
      <trkpt lat="48.56086" lon="1.03253">
        <ele>233</ele>
        <time>2026-06-18T10:22:26.000Z</time>
      </trkpt>
      <trkpt lat="48.56096" lon="1.03254">
        <ele>233.19999694824</ele>
        <time>2026-06-18T10:22:29.000Z</time>
      </trkpt>
      <trkpt lat="48.56114" lon="1.03264">
        <ele>233</ele>
        <time>2026-06-18T10:22:34.000Z</time>
      </trkpt>
      <trkpt lat="48.56134" lon="1.03267">
        <ele>232.80000305176</ele>
        <time>2026-06-18T10:22:38.000Z</time>
      </trkpt>
      <trkpt lat="48.5614" lon="1.03266">
        <ele>232.60000610352</ele>
        <time>2026-06-18T10:22:39.000Z</time>
      </trkpt>
      <trkpt lat="48.56153" lon="1.03265">
        <ele>232.39999389648</ele>
        <time>2026-06-18T10:22:41.000Z</time>
      </trkpt>
      <trkpt lat="48.56167" lon="1.03263">
        <ele>232.39999389648</ele>
        <time>2026-06-18T10:22:43.000Z</time>
      </trkpt>
      <trkpt lat="48.56199" lon="1.03263">
        <ele>231.60000610352</ele>
        <time>2026-06-18T10:22:48.000Z</time>
      </trkpt>
      <trkpt lat="48.56209" lon="1.03262">
        <ele>230.80000305176</ele>
        <time>2026-06-18T10:22:51.000Z</time>
      </trkpt>
      <trkpt lat="48.56213" lon="1.03266">
        <ele>230.80000305176</ele>
        <time>2026-06-18T10:22:52.000Z</time>
      </trkpt>
      <trkpt lat="48.56215" lon="1.03272">
        <ele>230.19999694824</ele>
        <time>2026-06-18T10:22:53.000Z</time>
      </trkpt>
      <trkpt lat="48.56216" lon="1.03279">
        <ele>230</ele>
        <time>2026-06-18T10:22:54.000Z</time>
      </trkpt>
      <trkpt lat="48.5622" lon="1.03314">
        <ele>229.19999694824</ele>
        <time>2026-06-18T10:23:00.000Z</time>
      </trkpt>
      <trkpt lat="48.5622" lon="1.0332">
        <ele>229.19999694824</ele>
        <time>2026-06-18T10:23:01.000Z</time>
      </trkpt>
      <trkpt lat="48.56221" lon="1.03347">
        <ele>228.60000610352</ele>
        <time>2026-06-18T10:23:06.000Z</time>
      </trkpt>
      <trkpt lat="48.5622" lon="1.03391">
        <ele>228</ele>
        <time>2026-06-18T10:23:13.000Z</time>
      </trkpt>
      <trkpt lat="48.56219" lon="1.03397">
        <ele>228</ele>
        <time>2026-06-18T10:23:14.000Z</time>
      </trkpt>
      <trkpt lat="48.56216" lon="1.03461">
        <ele>227.80000305176</ele>
        <time>2026-06-18T10:23:23.000Z</time>
      </trkpt>
      <trkpt lat="48.56211" lon="1.0353">
        <ele>227.39999389648</ele>
        <time>2026-06-18T10:23:32.000Z</time>
      </trkpt>
      <trkpt lat="48.56206" lon="1.0359">
        <ele>227.39999389648</ele>
        <time>2026-06-18T10:23:40.000Z</time>
      </trkpt>
      <trkpt lat="48.562" lon="1.03642">
        <ele>227.60000610352</ele>
        <time>2026-06-18T10:23:47.000Z</time>
      </trkpt>
      <trkpt lat="48.56197" lon="1.03675">
        <ele>227.60000610352</ele>
        <time>2026-06-18T10:23:51.000Z</time>
      </trkpt>
      <trkpt lat="48.56195" lon="1.03689">
        <ele>227.80000305176</ele>
        <time>2026-06-18T10:23:53.000Z</time>
      </trkpt>
      <trkpt lat="48.56188" lon="1.03739">
        <ele>228</ele>
        <time>2026-06-18T10:24:00.000Z</time>
      </trkpt>
      <trkpt lat="48.56187" lon="1.03752">
        <ele>228</ele>
        <time>2026-06-18T10:24:02.000Z</time>
      </trkpt>
      <trkpt lat="48.56186" lon="1.0378">
        <ele>227.80000305176</ele>
        <time>2026-06-18T10:24:06.000Z</time>
      </trkpt>
      <trkpt lat="48.56186" lon="1.03797">
        <ele>227.80000305176</ele>
        <time>2026-06-18T10:24:08.000Z</time>
      </trkpt>
      <trkpt lat="48.56187" lon="1.03821">
        <ele>227.60000610352</ele>
        <time>2026-06-18T10:24:12.000Z</time>
      </trkpt>
      <trkpt lat="48.56189" lon="1.03854">
        <ele>227.60000610352</ele>
        <time>2026-06-18T10:24:17.000Z</time>
      </trkpt>
      <trkpt lat="48.56193" lon="1.03866">
        <ele>227.60000610352</ele>
        <time>2026-06-18T10:24:19.000Z</time>
      </trkpt>
      <trkpt lat="48.56194" lon="1.03871">
        <ele>227.60000610352</ele>
        <time>2026-06-18T10:24:20.000Z</time>
      </trkpt>
      <trkpt lat="48.56202" lon="1.03889">
        <ele>227.60000610352</ele>
        <time>2026-06-18T10:24:24.000Z</time>
      </trkpt>
      <trkpt lat="48.5622" lon="1.03913">
        <ele>227.60000610352</ele>
        <time>2026-06-18T10:24:30.000Z</time>
      </trkpt>
      <trkpt lat="48.5623" lon="1.03928">
        <ele>227.39999389648</ele>
        <time>2026-06-18T10:24:33.000Z</time>
      </trkpt>
      <trkpt lat="48.56237" lon="1.03937">
        <ele>227.39999389648</ele>
        <time>2026-06-18T10:24:35.000Z</time>
      </trkpt>
      <trkpt lat="48.56251" lon="1.03963">
        <ele>227.39999389648</ele>
        <time>2026-06-18T10:24:39.000Z</time>
      </trkpt>
      <trkpt lat="48.56259" lon="1.03971">
        <ele>227.19999694824</ele>
        <time>2026-06-18T10:24:41.000Z</time>
      </trkpt>
      <trkpt lat="48.56268" lon="1.0397">
        <ele>227.19999694824</ele>
        <time>2026-06-18T10:24:43.000Z</time>
      </trkpt>
      <trkpt lat="48.56272" lon="1.03968">
        <ele>227.19999694824</ele>
        <time>2026-06-18T10:24:44.000Z</time>
      </trkpt>
      <trkpt lat="48.56294" lon="1.03959">
        <ele>227.39999389648</ele>
        <time>2026-06-18T10:24:50.000Z</time>
      </trkpt>
      <trkpt lat="48.56313" lon="1.03954">
        <ele>227.60000610352</ele>
        <time>2026-06-18T10:24:55.000Z</time>
      </trkpt>
      <trkpt lat="48.56337" lon="1.03946">
        <ele>228</ele>
        <time>2026-06-18T10:25:02.000Z</time>
      </trkpt>
      <trkpt lat="48.56357" lon="1.03939">
        <ele>228.19999694824</ele>
        <time>2026-06-18T10:25:07.000Z</time>
      </trkpt>
      <trkpt lat="48.56372" lon="1.03943">
        <ele>228.60000610352</ele>
        <time>2026-06-18T10:25:11.000Z</time>
      </trkpt>
      <trkpt lat="48.56398" lon="1.03966">
        <ele>228.80000305176</ele>
        <time>2026-06-18T10:25:18.000Z</time>
      </trkpt>
      <trkpt lat="48.56412" lon="1.03984">
        <ele>228.80000305176</ele>
        <time>2026-06-18T10:25:22.000Z</time>
      </trkpt>
      <trkpt lat="48.56437" lon="1.04014">
        <ele>229.39999389648</ele>
        <time>2026-06-18T10:25:29.000Z</time>
      </trkpt>
      <trkpt lat="48.56464" lon="1.0404">
        <ele>230</ele>
        <time>2026-06-18T10:25:36.000Z</time>
      </trkpt>
      <trkpt lat="48.56476" lon="1.0405">
        <ele>230.19999694824</ele>
        <time>2026-06-18T10:25:39.000Z</time>
      </trkpt>
      <trkpt lat="48.56485" lon="1.04056">
        <ele>230.19999694824</ele>
        <time>2026-06-18T10:25:41.000Z</time>
      </trkpt>
      <trkpt lat="48.56524" lon="1.04085">
        <ele>230.60000610352</ele>
        <time>2026-06-18T10:25:50.000Z</time>
      </trkpt>
      <trkpt lat="48.56561" lon="1.04116">
        <ele>230.80000305176</ele>
        <time>2026-06-18T10:25:59.000Z</time>
      </trkpt>
      <trkpt lat="48.566" lon="1.04152">
        <ele>230.80000305176</ele>
        <time>2026-06-18T10:26:08.000Z</time>
      </trkpt>
      <trkpt lat="48.56638" lon="1.04186">
        <ele>230.39999389648</ele>
        <time>2026-06-18T10:26:16.000Z</time>
      </trkpt>
      <trkpt lat="48.56689" lon="1.04231">
        <ele>229.80000305176</ele>
        <time>2026-06-18T10:26:27.000Z</time>
      </trkpt>
      <trkpt lat="48.56698" lon="1.04237">
        <ele>229.60000610352</ele>
        <time>2026-06-18T10:26:29.000Z</time>
      </trkpt>
      <trkpt lat="48.56722" lon="1.0425">
        <ele>229.19999694824</ele>
        <time>2026-06-18T10:26:34.000Z</time>
      </trkpt>
      <trkpt lat="48.56731" lon="1.04253">
        <ele>229</ele>
        <time>2026-06-18T10:26:36.000Z</time>
      </trkpt>
      <trkpt lat="48.56755" lon="1.0426">
        <ele>228.80000305176</ele>
        <time>2026-06-18T10:26:41.000Z</time>
      </trkpt>
      <trkpt lat="48.56798" lon="1.04264">
        <ele>228.60000610352</ele>
        <time>2026-06-18T10:26:49.000Z</time>
      </trkpt>
      <trkpt lat="48.56851" lon="1.04264">
        <ele>229</ele>
        <time>2026-06-18T10:26:59.000Z</time>
      </trkpt>
      <trkpt lat="48.56902" lon="1.04282">
        <ele>228.80000305176</ele>
        <time>2026-06-18T10:27:08.000Z</time>
      </trkpt>
      <trkpt lat="48.56957" lon="1.04316">
        <ele>228.80000305176</ele>
        <time>2026-06-18T10:27:18.000Z</time>
      </trkpt>
      <trkpt lat="48.57001" lon="1.04356">
        <ele>228.39999389648</ele>
        <time>2026-06-18T10:27:26.000Z</time>
      </trkpt>
      <trkpt lat="48.57021" lon="1.04376">
        <ele>228</ele>
        <time>2026-06-18T10:27:30.000Z</time>
      </trkpt>
      <trkpt lat="48.57056" lon="1.0441">
        <ele>227.19999694824</ele>
        <time>2026-06-18T10:27:37.000Z</time>
      </trkpt>
      <trkpt lat="48.57079" lon="1.04433">
        <ele>226.80000305176</ele>
        <time>2026-06-18T10:27:41.000Z</time>
      </trkpt>
      <trkpt lat="48.57105" lon="1.04465">
        <ele>226</ele>
        <time>2026-06-18T10:27:46.000Z</time>
      </trkpt>
      <trkpt lat="48.57124" lon="1.04495">
        <ele>225.80000305176</ele>
        <time>2026-06-18T10:27:50.000Z</time>
      </trkpt>
      <trkpt lat="48.57138" lon="1.04518">
        <ele>225.19999694824</ele>
        <time>2026-06-18T10:27:53.000Z</time>
      </trkpt>
      <trkpt lat="48.57159" lon="1.04548">
        <ele>224.60000610352</ele>
        <time>2026-06-18T10:27:58.000Z</time>
      </trkpt>
      <trkpt lat="48.57163" lon="1.04561">
        <ele>224.19999694824</ele>
        <time>2026-06-18T10:28:00.000Z</time>
      </trkpt>
      <trkpt lat="48.57162" lon="1.04569">
        <ele>224</ele>
        <time>2026-06-18T10:28:01.000Z</time>
      </trkpt>
      <trkpt lat="48.57159" lon="1.04596">
        <ele>223.39999389648</ele>
        <time>2026-06-18T10:28:04.000Z</time>
      </trkpt>
      <trkpt lat="48.57157" lon="1.04633">
        <ele>223</ele>
        <time>2026-06-18T10:28:08.000Z</time>
      </trkpt>
      <trkpt lat="48.57158" lon="1.04666">
        <ele>222.60000610352</ele>
        <time>2026-06-18T10:28:11.000Z</time>
      </trkpt>
      <trkpt lat="48.57159" lon="1.04708">
        <ele>222.19999694824</ele>
        <time>2026-06-18T10:28:15.000Z</time>
      </trkpt>
      <trkpt lat="48.57162" lon="1.04749">
        <ele>221.39999389648</ele>
        <time>2026-06-18T10:28:19.000Z</time>
      </trkpt>
      <trkpt lat="48.57164" lon="1.04776">
        <ele>221</ele>
        <time>2026-06-18T10:28:22.000Z</time>
      </trkpt>
      <trkpt lat="48.57161" lon="1.04789">
        <ele>220.80000305176</ele>
        <time>2026-06-18T10:28:24.000Z</time>
      </trkpt>
      <trkpt lat="48.57157" lon="1.04797">
        <ele>220.80000305176</ele>
        <time>2026-06-18T10:28:25.000Z</time>
      </trkpt>
      <trkpt lat="48.57156" lon="1.04803">
        <ele>220.80000305176</ele>
        <time>2026-06-18T10:28:26.000Z</time>
      </trkpt>
      <trkpt lat="48.57158" lon="1.04815">
        <ele>220.80000305176</ele>
        <time>2026-06-18T10:28:28.000Z</time>
      </trkpt>
      <trkpt lat="48.57175" lon="1.04838">
        <ele>220.60000610352</ele>
        <time>2026-06-18T10:28:32.000Z</time>
      </trkpt>
      <trkpt lat="48.57183" lon="1.0485">
        <ele>220.39999389648</ele>
        <time>2026-06-18T10:28:34.000Z</time>
      </trkpt>
      <trkpt lat="48.57193" lon="1.04875">
        <ele>220.19999694824</ele>
        <time>2026-06-18T10:28:37.000Z</time>
      </trkpt>
      <trkpt lat="48.57208" lon="1.04931">
        <ele>219.39999389648</ele>
        <time>2026-06-18T10:28:43.000Z</time>
      </trkpt>
      <trkpt lat="48.57213" lon="1.04951">
        <ele>219</ele>
        <time>2026-06-18T10:28:45.000Z</time>
      </trkpt>
      <trkpt lat="48.57223" lon="1.04991">
        <ele>218.19999694824</ele>
        <time>2026-06-18T10:28:49.000Z</time>
      </trkpt>
      <trkpt lat="48.57236" lon="1.05038">
        <ele>217.80000305176</ele>
        <time>2026-06-18T10:28:54.000Z</time>
      </trkpt>
      <trkpt lat="48.57252" lon="1.05079">
        <ele>217.60000610352</ele>
        <time>2026-06-18T10:28:59.000Z</time>
      </trkpt>
      <trkpt lat="48.57284" lon="1.05142">
        <ele>217.60000610352</ele>
        <time>2026-06-18T10:29:07.000Z</time>
      </trkpt>
      <trkpt lat="48.57319" lon="1.05212">
        <ele>217.39999389648</ele>
        <time>2026-06-18T10:29:16.000Z</time>
      </trkpt>
      <trkpt lat="48.57323" lon="1.0522">
        <ele>217.39999389648</ele>
        <time>2026-06-18T10:29:17.000Z</time>
      </trkpt>
      <trkpt lat="48.57334" lon="1.05243">
        <ele>217.60000610352</ele>
        <time>2026-06-18T10:29:20.000Z</time>
      </trkpt>
      <trkpt lat="48.57358" lon="1.05296">
        <ele>218</ele>
        <time>2026-06-18T10:29:27.000Z</time>
      </trkpt>
      <trkpt lat="48.57383" lon="1.05366">
        <ele>218.80000305176</ele>
        <time>2026-06-18T10:29:36.000Z</time>
      </trkpt>
      <trkpt lat="48.57393" lon="1.05397">
        <ele>219.39999389648</ele>
        <time>2026-06-18T10:29:40.000Z</time>
      </trkpt>
      <trkpt lat="48.57415" lon="1.05457">
        <ele>219.60000610352</ele>
        <time>2026-06-18T10:29:47.000Z</time>
      </trkpt>
      <trkpt lat="48.57446" lon="1.05516">
        <ele>219.60000610352</ele>
        <time>2026-06-18T10:29:55.000Z</time>
      </trkpt>
      <trkpt lat="48.57468" lon="1.05558">
        <ele>219.80000305176</ele>
        <time>2026-06-18T10:30:01.000Z</time>
      </trkpt>
      <trkpt lat="48.57492" lon="1.05597">
        <ele>220.39999389648</ele>
        <time>2026-06-18T10:30:07.000Z</time>
      </trkpt>
      <trkpt lat="48.57495" lon="1.05603">
        <ele>220.60000610352</ele>
        <time>2026-06-18T10:30:08.000Z</time>
      </trkpt>
      <trkpt lat="48.57532" lon="1.05673">
        <ele>220.80000305176</ele>
        <time>2026-06-18T10:30:18.000Z</time>
      </trkpt>
      <trkpt lat="48.57564" lon="1.05746">
        <ele>221.39999389648</ele>
        <time>2026-06-18T10:30:28.000Z</time>
      </trkpt>
      <trkpt lat="48.57583" lon="1.05791">
        <ele>221.60000610352</ele>
        <time>2026-06-18T10:30:34.000Z</time>
      </trkpt>
      <trkpt lat="48.5759" lon="1.05805">
        <ele>221.60000610352</ele>
        <time>2026-06-18T10:30:36.000Z</time>
      </trkpt>
      <trkpt lat="48.57614" lon="1.05854">
        <ele>222</ele>
        <time>2026-06-18T10:30:43.000Z</time>
      </trkpt>
      <trkpt lat="48.57647" lon="1.05921">
        <ele>222.19999694824</ele>
        <time>2026-06-18T10:30:53.000Z</time>
      </trkpt>
      <trkpt lat="48.57651" lon="1.05927">
        <ele>222.39999389648</ele>
        <time>2026-06-18T10:30:54.000Z</time>
      </trkpt>
      <trkpt lat="48.57667" lon="1.05959">
        <ele>222.60000610352</ele>
        <time>2026-06-18T10:30:59.000Z</time>
      </trkpt>
      <trkpt lat="48.57686" lon="1.05996">
        <ele>223.19999694824</ele>
        <time>2026-06-18T10:31:05.000Z</time>
      </trkpt>
      <trkpt lat="48.57695" lon="1.06015">
        <ele>223.60000610352</ele>
        <time>2026-06-18T10:31:08.000Z</time>
      </trkpt>
      <trkpt lat="48.57717" lon="1.06059">
        <ele>224.39999389648</ele>
        <time>2026-06-18T10:31:15.000Z</time>
      </trkpt>
      <trkpt lat="48.57723" lon="1.06071">
        <ele>224.60000610352</ele>
        <time>2026-06-18T10:31:17.000Z</time>
      </trkpt>
      <trkpt lat="48.57729" lon="1.06084">
        <ele>224.80000305176</ele>
        <time>2026-06-18T10:31:19.000Z</time>
      </trkpt>
      <trkpt lat="48.57753" lon="1.06131">
        <ele>225</ele>
        <time>2026-06-18T10:31:26.000Z</time>
      </trkpt>
      <trkpt lat="48.57788" lon="1.06194">
        <ele>225.19999694824</ele>
        <time>2026-06-18T10:31:35.000Z</time>
      </trkpt>
      <trkpt lat="48.57796" lon="1.06208">
        <ele>225.19999694824</ele>
        <time>2026-06-18T10:31:37.000Z</time>
      </trkpt>
      <trkpt lat="48.57829" lon="1.06257">
        <ele>224.80000305176</ele>
        <time>2026-06-18T10:31:44.000Z</time>
      </trkpt>
      <trkpt lat="48.57856" lon="1.06296">
        <ele>224</ele>
        <time>2026-06-18T10:31:49.000Z</time>
      </trkpt>
      <trkpt lat="48.57874" lon="1.06322">
        <ele>223.60000610352</ele>
        <time>2026-06-18T10:31:52.000Z</time>
      </trkpt>
      <trkpt lat="48.57891" lon="1.06347">
        <ele>223.39999389648</ele>
        <time>2026-06-18T10:31:55.000Z</time>
      </trkpt>
      <trkpt lat="48.57937" lon="1.06404">
        <ele>223</ele>
        <time>2026-06-18T10:32:02.000Z</time>
      </trkpt>
      <trkpt lat="48.57944" lon="1.06411">
        <ele>222.80000305176</ele>
        <time>2026-06-18T10:32:03.000Z</time>
      </trkpt>
      <trkpt lat="48.57963" lon="1.0643">
        <ele>222.60000610352</ele>
        <time>2026-06-18T10:32:06.000Z</time>
      </trkpt>
      <trkpt lat="48.58009" lon="1.06473">
        <ele>222.19999694824</ele>
        <time>2026-06-18T10:32:12.000Z</time>
      </trkpt>
      <trkpt lat="48.58056" lon="1.06516">
        <ele>221.60000610352</ele>
        <time>2026-06-18T10:32:20.000Z</time>
      </trkpt>
      <trkpt lat="48.58062" lon="1.06522">
        <ele>221.60000610352</ele>
        <time>2026-06-18T10:32:21.000Z</time>
      </trkpt>
      <trkpt lat="48.58075" lon="1.06534">
        <ele>221.39999389648</ele>
        <time>2026-06-18T10:32:23.000Z</time>
      </trkpt>
      <trkpt lat="48.58082" lon="1.06541">
        <ele>221.39999389648</ele>
        <time>2026-06-18T10:32:24.000Z</time>
      </trkpt>
      <trkpt lat="48.58104" lon="1.0657">
        <ele>221</ele>
        <time>2026-06-18T10:32:28.000Z</time>
      </trkpt>
      <trkpt lat="48.58141" lon="1.06632">
        <ele>220.60000610352</ele>
        <time>2026-06-18T10:32:35.000Z</time>
      </trkpt>
      <trkpt lat="48.58147" lon="1.0664">
        <ele>220.60000610352</ele>
        <time>2026-06-18T10:32:36.000Z</time>
      </trkpt>
      <trkpt lat="48.58152" lon="1.06648">
        <ele>220.60000610352</ele>
        <time>2026-06-18T10:32:37.000Z</time>
      </trkpt>
      <trkpt lat="48.58157" lon="1.06654">
        <ele>220.39999389648</ele>
        <time>2026-06-18T10:32:38.000Z</time>
      </trkpt>
      <trkpt lat="48.58193" lon="1.06693">
        <ele>220</ele>
        <time>2026-06-18T10:32:44.000Z</time>
      </trkpt>
      <trkpt lat="48.5824" lon="1.06726">
        <ele>219.80000305176</ele>
        <time>2026-06-18T10:32:51.000Z</time>
      </trkpt>
      <trkpt lat="48.58291" lon="1.06762">
        <ele>219.80000305176</ele>
        <time>2026-06-18T10:32:59.000Z</time>
      </trkpt>
      <trkpt lat="48.58297" lon="1.06768">
        <ele>219.80000305176</ele>
        <time>2026-06-18T10:33:00.000Z</time>
      </trkpt>
      <trkpt lat="48.58314" lon="1.06788">
        <ele>220</ele>
        <time>2026-06-18T10:33:03.000Z</time>
      </trkpt>
      <trkpt lat="48.58328" lon="1.0681">
        <ele>220.19999694824</ele>
        <time>2026-06-18T10:33:06.000Z</time>
      </trkpt>
      <trkpt lat="48.58363" lon="1.06878">
        <ele>220.39999389648</ele>
        <time>2026-06-18T10:33:14.000Z</time>
      </trkpt>
      <trkpt lat="48.58369" lon="1.06888">
        <ele>220.39999389648</ele>
        <time>2026-06-18T10:33:16.000Z</time>
      </trkpt>
      <trkpt lat="48.58409" lon="1.06953">
        <ele>220.19999694824</ele>
        <time>2026-06-18T10:33:25.000Z</time>
      </trkpt>
      <trkpt lat="48.58414" lon="1.0696">
        <ele>220.19999694824</ele>
        <time>2026-06-18T10:33:26.000Z</time>
      </trkpt>
      <trkpt lat="48.58455" lon="1.07014">
        <ele>220.39999389648</ele>
        <time>2026-06-18T10:33:35.000Z</time>
      </trkpt>
      <trkpt lat="48.58494" lon="1.0707">
        <ele>221</ele>
        <time>2026-06-18T10:33:44.000Z</time>
      </trkpt>
      <trkpt lat="48.58507" lon="1.0709">
        <ele>221</ele>
        <time>2026-06-18T10:33:47.000Z</time>
      </trkpt>
      <trkpt lat="48.58541" lon="1.07146">
        <ele>221.19999694824</ele>
        <time>2026-06-18T10:33:55.000Z</time>
      </trkpt>
      <trkpt lat="48.5858" lon="1.07215">
        <ele>221.19999694824</ele>
        <time>2026-06-18T10:34:04.000Z</time>
      </trkpt>
      <trkpt lat="48.58599" lon="1.07251">
        <ele>221.19999694824</ele>
        <time>2026-06-18T10:34:08.000Z</time>
      </trkpt>
      <trkpt lat="48.58633" lon="1.07313">
        <ele>220.80000305176</ele>
        <time>2026-06-18T10:34:15.000Z</time>
      </trkpt>
      <trkpt lat="48.5867" lon="1.0738">
        <ele>220.60000610352</ele>
        <time>2026-06-18T10:34:23.000Z</time>
      </trkpt>
      <trkpt lat="48.58684" lon="1.07407">
        <ele>220.39999389648</ele>
        <time>2026-06-18T10:34:26.000Z</time>
      </trkpt>
      <trkpt lat="48.5872" lon="1.0748">
        <ele>220</ele>
        <time>2026-06-18T10:34:34.000Z</time>
      </trkpt>
      <trkpt lat="48.58732" lon="1.07508">
        <ele>219.80000305176</ele>
        <time>2026-06-18T10:34:37.000Z</time>
      </trkpt>
      <trkpt lat="48.58763" lon="1.0758">
        <ele>219</ele>
        <time>2026-06-18T10:34:45.000Z</time>
      </trkpt>
      <trkpt lat="48.58775" lon="1.07606">
        <ele>218.80000305176</ele>
        <time>2026-06-18T10:34:48.000Z</time>
      </trkpt>
      <trkpt lat="48.58785" lon="1.07622">
        <ele>218.80000305176</ele>
        <time>2026-06-18T10:34:50.000Z</time>
      </trkpt>
      <trkpt lat="48.58812" lon="1.07661">
        <ele>218.39999389648</ele>
        <time>2026-06-18T10:34:55.000Z</time>
      </trkpt>
      <trkpt lat="48.58853" lon="1.07711">
        <ele>217.80000305176</ele>
        <time>2026-06-18T10:35:02.000Z</time>
      </trkpt>
      <trkpt lat="48.58863" lon="1.07723">
        <ele>217.60000610352</ele>
        <time>2026-06-18T10:35:04.000Z</time>
      </trkpt>
      <trkpt lat="48.58897" lon="1.0777">
        <ele>218.39999389648</ele>
        <time>2026-06-18T10:35:11.000Z</time>
      </trkpt>
      <trkpt lat="48.58928" lon="1.07817">
        <ele>218.80000305176</ele>
        <time>2026-06-18T10:35:18.000Z</time>
      </trkpt>
      <trkpt lat="48.58959" lon="1.07865">
        <ele>218.39999389648</ele>
        <time>2026-06-18T10:35:24.000Z</time>
      </trkpt>
      <trkpt lat="48.58997" lon="1.07933">
        <ele>217.80000305176</ele>
        <time>2026-06-18T10:35:31.000Z</time>
      </trkpt>
      <trkpt lat="48.59006" lon="1.07954">
        <ele>217.80000305176</ele>
        <time>2026-06-18T10:35:33.000Z</time>
      </trkpt>
      <trkpt lat="48.59033" lon="1.08015">
        <ele>217.60000610352</ele>
        <time>2026-06-18T10:35:39.000Z</time>
      </trkpt>
      <trkpt lat="48.59049" lon="1.08051">
        <ele>217.19999694824</ele>
        <time>2026-06-18T10:35:43.000Z</time>
      </trkpt>
      <trkpt lat="48.59061" lon="1.08075">
        <ele>216.80000305176</ele>
        <time>2026-06-18T10:35:46.000Z</time>
      </trkpt>
      <trkpt lat="48.59066" lon="1.08082">
        <ele>216.39999389648</ele>
        <time>2026-06-18T10:35:47.000Z</time>
      </trkpt>
      <trkpt lat="48.59085" lon="1.08113">
        <ele>215.60000610352</ele>
        <time>2026-06-18T10:35:51.000Z</time>
      </trkpt>
      <trkpt lat="48.591" lon="1.08139">
        <ele>215.19999694824</ele>
        <time>2026-06-18T10:35:54.000Z</time>
      </trkpt>
      <trkpt lat="48.5913" lon="1.08189">
        <ele>214.39999389648</ele>
        <time>2026-06-18T10:36:00.000Z</time>
      </trkpt>
      <trkpt lat="48.59135" lon="1.08198">
        <ele>214.19999694824</ele>
        <time>2026-06-18T10:36:01.000Z</time>
      </trkpt>
      <trkpt lat="48.59171" lon="1.08256">
        <ele>213.19999694824</ele>
        <time>2026-06-18T10:36:08.000Z</time>
      </trkpt>
      <trkpt lat="48.59181" lon="1.08273">
        <ele>213.19999694824</ele>
        <time>2026-06-18T10:36:09.000Z</time>
      </trkpt>
      <trkpt lat="48.59221" lon="1.08337">
        <ele>212.19999694824</ele>
        <time>2026-06-18T10:36:18.000Z</time>
      </trkpt>
      <trkpt lat="48.59227" lon="1.08345">
        <ele>212.19999694824</ele>
        <time>2026-06-18T10:36:19.000Z</time>
      </trkpt>
      <trkpt lat="48.59231" lon="1.08352">
        <ele>212</ele>
        <time>2026-06-18T10:36:20.000Z</time>
      </trkpt>
      <trkpt lat="48.59272" lon="1.08411">
        <ele>211.60000610352</ele>
        <time>2026-06-18T10:36:28.000Z</time>
      </trkpt>
      <trkpt lat="48.59315" lon="1.08463">
        <ele>211.60000610352</ele>
        <time>2026-06-18T10:36:36.000Z</time>
      </trkpt>
      <trkpt lat="48.59359" lon="1.08513">
        <ele>212</ele>
        <time>2026-06-18T10:36:44.000Z</time>
      </trkpt>
      <trkpt lat="48.59383" lon="1.08538">
        <ele>212</ele>
        <time>2026-06-18T10:36:48.000Z</time>
      </trkpt>
      <trkpt lat="48.59426" lon="1.08581">
        <ele>211.60000610352</ele>
        <time>2026-06-18T10:36:55.000Z</time>
      </trkpt>
      <trkpt lat="48.59472" lon="1.08626">
        <ele>211</ele>
        <time>2026-06-18T10:37:02.000Z</time>
      </trkpt>
      <trkpt lat="48.59492" lon="1.08645">
        <ele>210.80000305176</ele>
        <time>2026-06-18T10:37:05.000Z</time>
      </trkpt>
      <trkpt lat="48.59539" lon="1.08694">
        <ele>210.39999389648</ele>
        <time>2026-06-18T10:37:12.000Z</time>
      </trkpt>
      <trkpt lat="48.59544" lon="1.08701">
        <ele>210.39999389648</ele>
        <time>2026-06-18T10:37:13.000Z</time>
      </trkpt>
      <trkpt lat="48.59586" lon="1.0875">
        <ele>210.60000610352</ele>
        <time>2026-06-18T10:37:21.000Z</time>
      </trkpt>
      <trkpt lat="48.59628" lon="1.088">
        <ele>210.80000305176</ele>
        <time>2026-06-18T10:37:29.000Z</time>
      </trkpt>
      <trkpt lat="48.59633" lon="1.08806">
        <ele>210.80000305176</ele>
        <time>2026-06-18T10:37:30.000Z</time>
      </trkpt>
      <trkpt lat="48.59673" lon="1.08856">
        <ele>211</ele>
        <time>2026-06-18T10:37:38.000Z</time>
      </trkpt>
      <trkpt lat="48.59719" lon="1.0891">
        <ele>211.39999389648</ele>
        <time>2026-06-18T10:37:47.000Z</time>
      </trkpt>
      <trkpt lat="48.59724" lon="1.08916">
        <ele>211.39999389648</ele>
        <time>2026-06-18T10:37:48.000Z</time>
      </trkpt>
      <trkpt lat="48.5977" lon="1.0897">
        <ele>211.60000610352</ele>
        <time>2026-06-18T10:37:57.000Z</time>
      </trkpt>
      <trkpt lat="48.59775" lon="1.08976">
        <ele>211.60000610352</ele>
        <time>2026-06-18T10:37:58.000Z</time>
      </trkpt>
      <trkpt lat="48.59818" lon="1.09028">
        <ele>211.39999389648</ele>
        <time>2026-06-18T10:38:06.000Z</time>
      </trkpt>
      <trkpt lat="48.59824" lon="1.09034">
        <ele>211.39999389648</ele>
        <time>2026-06-18T10:38:07.000Z</time>
      </trkpt>
      <trkpt lat="48.59854" lon="1.09077">
        <ele>211</ele>
        <time>2026-06-18T10:38:12.000Z</time>
      </trkpt>
      <trkpt lat="48.59863" lon="1.09093">
        <ele>210.80000305176</ele>
        <time>2026-06-18T10:38:14.000Z</time>
      </trkpt>
      <trkpt lat="48.59883" lon="1.09148">
        <ele>210</ele>
        <time>2026-06-18T10:38:20.000Z</time>
      </trkpt>
      <trkpt lat="48.59886" lon="1.09158">
        <ele>210.19999694824</ele>
        <time>2026-06-18T10:38:21.000Z</time>
      </trkpt>
      <trkpt lat="48.59896" lon="1.09188">
        <ele>210</ele>
        <time>2026-06-18T10:38:24.000Z</time>
      </trkpt>
      <trkpt lat="48.59916" lon="1.09245">
        <ele>209.39999389648</ele>
        <time>2026-06-18T10:38:30.000Z</time>
      </trkpt>
      <trkpt lat="48.5992" lon="1.09254">
        <ele>209.19999694824</ele>
        <time>2026-06-18T10:38:31.000Z</time>
      </trkpt>
      <trkpt lat="48.59954" lon="1.09325">
        <ele>208.39999389648</ele>
        <time>2026-06-18T10:38:39.000Z</time>
      </trkpt>
      <trkpt lat="48.59976" lon="1.09372">
        <ele>208.19999694824</ele>
        <time>2026-06-18T10:38:45.000Z</time>
      </trkpt>
      <trkpt lat="48.59979" lon="1.09381">
        <ele>208.19999694824</ele>
        <time>2026-06-18T10:38:46.000Z</time>
      </trkpt>
      <trkpt lat="48.59989" lon="1.09403">
        <ele>208</ele>
        <time>2026-06-18T10:38:49.000Z</time>
      </trkpt>
      <trkpt lat="48.59992" lon="1.09416">
        <ele>208</ele>
        <time>2026-06-18T10:38:51.000Z</time>
      </trkpt>
      <trkpt lat="48.59987" lon="1.09428">
        <ele>207.80000305176</ele>
        <time>2026-06-18T10:38:53.000Z</time>
      </trkpt>
      <trkpt lat="48.59984" lon="1.09432">
        <ele>207.80000305176</ele>
        <time>2026-06-18T10:38:54.000Z</time>
      </trkpt>
      <trkpt lat="48.59981" lon="1.09438">
        <ele>207.80000305176</ele>
        <time>2026-06-18T10:38:55.000Z</time>
      </trkpt>
      <trkpt lat="48.59977" lon="1.09452">
        <ele>207.80000305176</ele>
        <time>2026-06-18T10:38:57.000Z</time>
      </trkpt>
      <trkpt lat="48.59978" lon="1.09468">
        <ele>207.80000305176</ele>
        <time>2026-06-18T10:38:59.000Z</time>
      </trkpt>
      <trkpt lat="48.59981" lon="1.09485">
        <ele>207.60000610352</ele>
        <time>2026-06-18T10:39:01.000Z</time>
      </trkpt>
      <trkpt lat="48.59994" lon="1.0952">
        <ele>207.39999389648</ele>
        <time>2026-06-18T10:39:05.000Z</time>
      </trkpt>
      <trkpt lat="48.60011" lon="1.09554">
        <ele>207</ele>
        <time>2026-06-18T10:39:09.000Z</time>
      </trkpt>
      <trkpt lat="48.60026" lon="1.09587">
        <ele>206.80000305176</ele>
        <time>2026-06-18T10:39:13.000Z</time>
      </trkpt>
      <trkpt lat="48.60055" lon="1.09652">
        <ele>206.39999389648</ele>
        <time>2026-06-18T10:39:20.000Z</time>
      </trkpt>
      <trkpt lat="48.60075" lon="1.0971">
        <ele>206</ele>
        <time>2026-06-18T10:39:26.000Z</time>
      </trkpt>
      <trkpt lat="48.60081" lon="1.09729">
        <ele>206</ele>
        <time>2026-06-18T10:39:28.000Z</time>
      </trkpt>
      <trkpt lat="48.60106" lon="1.09805">
        <ele>205.60000610352</ele>
        <time>2026-06-18T10:39:36.000Z</time>
      </trkpt>
      <trkpt lat="48.60109" lon="1.09815">
        <ele>205.60000610352</ele>
        <time>2026-06-18T10:39:37.000Z</time>
      </trkpt>
      <trkpt lat="48.60134" lon="1.09892">
        <ele>205.19999694824</ele>
        <time>2026-06-18T10:39:44.000Z</time>
      </trkpt>
      <trkpt lat="48.60136" lon="1.099">
        <ele>205.19999694824</ele>
        <time>2026-06-18T10:39:45.000Z</time>
      </trkpt>
      <trkpt lat="48.60147" lon="1.09932">
        <ele>205</ele>
        <time>2026-06-18T10:39:48.000Z</time>
      </trkpt>
      <trkpt lat="48.60172" lon="1.1001">
        <ele>204.80000305176</ele>
        <time>2026-06-18T10:39:56.000Z</time>
      </trkpt>
      <trkpt lat="48.60178" lon="1.10032">
        <ele>204.39999389648</ele>
        <time>2026-06-18T10:39:58.000Z</time>
      </trkpt>
      <trkpt lat="48.60194" lon="1.10082">
        <ele>204</ele>
        <time>2026-06-18T10:40:03.000Z</time>
      </trkpt>
      <trkpt lat="48.60201" lon="1.10102">
        <ele>203.80000305176</ele>
        <time>2026-06-18T10:40:05.000Z</time>
      </trkpt>
      <trkpt lat="48.60222" lon="1.10169">
        <ele>203.39999389648</ele>
        <time>2026-06-18T10:40:13.000Z</time>
      </trkpt>
      <trkpt lat="48.60235" lon="1.10215">
        <ele>203.39999389648</ele>
        <time>2026-06-18T10:40:17.000Z</time>
      </trkpt>
      <trkpt lat="48.60241" lon="1.10233">
        <ele>203.39999389648</ele>
        <time>2026-06-18T10:40:19.000Z</time>
      </trkpt>
      <trkpt lat="48.60266" lon="1.10307">
        <ele>204</ele>
        <time>2026-06-18T10:40:27.000Z</time>
      </trkpt>
      <trkpt lat="48.6029" lon="1.10381">
        <ele>203.80000305176</ele>
        <time>2026-06-18T10:40:35.000Z</time>
      </trkpt>
      <trkpt lat="48.60299" lon="1.10409">
        <ele>203.80000305176</ele>
        <time>2026-06-18T10:40:38.000Z</time>
      </trkpt>
      <trkpt lat="48.60316" lon="1.10463">
        <ele>203.19999694824</ele>
        <time>2026-06-18T10:40:44.000Z</time>
      </trkpt>
      <trkpt lat="48.60323" lon="1.10485">
        <ele>203.19999694824</ele>
        <time>2026-06-18T10:40:46.000Z</time>
      </trkpt>
      <trkpt lat="48.60345" lon="1.10557">
        <ele>203</ele>
        <time>2026-06-18T10:40:55.000Z</time>
      </trkpt>
      <trkpt lat="48.6036" lon="1.10601">
        <ele>202.80000305176</ele>
        <time>2026-06-18T10:40:59.000Z</time>
      </trkpt>
      <trkpt lat="48.60367" lon="1.10616">
        <ele>202.80000305176</ele>
        <time>2026-06-18T10:41:01.000Z</time>
      </trkpt>
      <trkpt lat="48.60371" lon="1.10622">
        <ele>202.80000305176</ele>
        <time>2026-06-18T10:41:02.000Z</time>
      </trkpt>
      <trkpt lat="48.60376" lon="1.10627">
        <ele>202.60000610352</ele>
        <time>2026-06-18T10:41:03.000Z</time>
      </trkpt>
      <trkpt lat="48.60388" lon="1.10634">
        <ele>202.80000305176</ele>
        <time>2026-06-18T10:41:05.000Z</time>
      </trkpt>
      <trkpt lat="48.60394" lon="1.10636">
        <ele>202.80000305176</ele>
        <time>2026-06-18T10:41:06.000Z</time>
      </trkpt>
      <trkpt lat="48.60406" lon="1.10635">
        <ele>203</ele>
        <time>2026-06-18T10:41:08.000Z</time>
      </trkpt>
      <trkpt lat="48.60446" lon="1.10621">
        <ele>203.80000305176</ele>
        <time>2026-06-18T10:41:15.000Z</time>
      </trkpt>
      <trkpt lat="48.60446" lon="1.10621">
        <ele>204</ele>
        <time>2026-06-18T10:41:16.000Z</time>
      </trkpt>
      <trkpt lat="48.60475" lon="1.10614">
        <ele>204.39999389648</ele>
        <time>2026-06-18T10:41:20.000Z</time>
      </trkpt>
      <trkpt lat="48.60491" lon="1.10609">
        <ele>204.60000610352</ele>
        <time>2026-06-18T10:41:23.000Z</time>
      </trkpt>
      <trkpt lat="48.60503" lon="1.10607">
        <ele>205</ele>
        <time>2026-06-18T10:41:25.000Z</time>
      </trkpt>
      <trkpt lat="48.6051" lon="1.10607">
        <ele>205</ele>
        <time>2026-06-18T10:41:26.000Z</time>
      </trkpt>
      <trkpt lat="48.60529" lon="1.10603">
        <ele>205.39999389648</ele>
        <time>2026-06-18T10:41:29.000Z</time>
      </trkpt>
      <trkpt lat="48.60571" lon="1.10594">
        <ele>205.60000610352</ele>
        <time>2026-06-18T10:41:35.000Z</time>
      </trkpt>
      <trkpt lat="48.60585" lon="1.1059">
        <ele>205.60000610352</ele>
        <time>2026-06-18T10:41:37.000Z</time>
      </trkpt>
      <trkpt lat="48.60606" lon="1.10584">
        <ele>205.60000610352</ele>
        <time>2026-06-18T10:41:40.000Z</time>
      </trkpt>
      <trkpt lat="48.60647" lon="1.10574">
        <ele>205.19999694824</ele>
        <time>2026-06-18T10:41:46.000Z</time>
      </trkpt>
      <trkpt lat="48.60666" lon="1.1057">
        <ele>205.19999694824</ele>
        <time>2026-06-18T10:41:50.000Z</time>
      </trkpt>
      <trkpt lat="48.60695" lon="1.10564">
        <ele>205.39999389648</ele>
        <time>2026-06-18T10:41:54.000Z</time>
      </trkpt>
      <trkpt lat="48.60701" lon="1.10562">
        <ele>205.39999389648</ele>
        <time>2026-06-18T10:41:55.000Z</time>
      </trkpt>
      <trkpt lat="48.60707" lon="1.1056">
        <ele>205.39999389648</ele>
        <time>2026-06-18T10:41:56.000Z</time>
      </trkpt>
      <trkpt lat="48.6072" lon="1.10555">
        <ele>205.39999389648</ele>
        <time>2026-06-18T10:41:58.000Z</time>
      </trkpt>
      <trkpt lat="48.60737" lon="1.10552">
        <ele>205.60000610352</ele>
        <time>2026-06-18T10:42:00.000Z</time>
      </trkpt>
      <trkpt lat="48.60791" lon="1.10544">
        <ele>205.80000305176</ele>
        <time>2026-06-18T10:42:07.000Z</time>
      </trkpt>
      <trkpt lat="48.60845" lon="1.10543">
        <ele>205.80000305176</ele>
        <time>2026-06-18T10:42:14.000Z</time>
      </trkpt>
      <trkpt lat="48.60868" lon="1.10542">
        <ele>205.60000610352</ele>
        <time>2026-06-18T10:42:17.000Z</time>
      </trkpt>
      <trkpt lat="48.60876" lon="1.10542">
        <ele>205.60000610352</ele>
        <time>2026-06-18T10:42:18.000Z</time>
      </trkpt>
      <trkpt lat="48.60926" lon="1.10541">
        <ele>205.60000610352</ele>
        <time>2026-06-18T10:42:25.000Z</time>
      </trkpt>
      <trkpt lat="48.60983" lon="1.10546">
        <ele>205.39999389648</ele>
        <time>2026-06-18T10:42:33.000Z</time>
      </trkpt>
      <trkpt lat="48.61003" lon="1.10547">
        <ele>205.60000610352</ele>
        <time>2026-06-18T10:42:36.000Z</time>
      </trkpt>
      <trkpt lat="48.61058" lon="1.10545">
        <ele>205.60000610352</ele>
        <time>2026-06-18T10:42:45.000Z</time>
      </trkpt>
      <trkpt lat="48.61064" lon="1.10545">
        <ele>205.80000305176</ele>
        <time>2026-06-18T10:42:46.000Z</time>
      </trkpt>
      <trkpt lat="48.61093" lon="1.10544">
        <ele>206.39999389648</ele>
        <time>2026-06-18T10:42:51.000Z</time>
      </trkpt>
      <trkpt lat="48.61117" lon="1.10545">
        <ele>206.80000305176</ele>
        <time>2026-06-18T10:42:55.000Z</time>
      </trkpt>
      <trkpt lat="48.61161" lon="1.10566">
        <ele>207.19999694824</ele>
        <time>2026-06-18T10:43:02.000Z</time>
      </trkpt>
      <trkpt lat="48.61201" lon="1.10602">
        <ele>207</ele>
        <time>2026-06-18T10:43:09.000Z</time>
      </trkpt>
      <trkpt lat="48.61214" lon="1.10613">
        <ele>206.80000305176</ele>
        <time>2026-06-18T10:43:11.000Z</time>
      </trkpt>
      <trkpt lat="48.61263" lon="1.10652">
        <ele>206.80000305176</ele>
        <time>2026-06-18T10:43:19.000Z</time>
      </trkpt>
      <trkpt lat="48.61276" lon="1.10663">
        <ele>206.80000305176</ele>
        <time>2026-06-18T10:43:21.000Z</time>
      </trkpt>
      <trkpt lat="48.61326" lon="1.1071">
        <ele>206.19999694824</ele>
        <time>2026-06-18T10:43:29.000Z</time>
      </trkpt>
      <trkpt lat="48.61332" lon="1.10716">
        <ele>206.19999694824</ele>
        <time>2026-06-18T10:43:30.000Z</time>
      </trkpt>
      <trkpt lat="48.61379" lon="1.10764">
        <ele>205.80000305176</ele>
        <time>2026-06-18T10:43:38.000Z</time>
      </trkpt>
      <trkpt lat="48.61397" lon="1.10782">
        <ele>205.60000610352</ele>
        <time>2026-06-18T10:43:41.000Z</time>
      </trkpt>
      <trkpt lat="48.61421" lon="1.10806">
        <ele>205.19999694824</ele>
        <time>2026-06-18T10:43:46.000Z</time>
      </trkpt>
      <trkpt lat="48.61469" lon="1.10853">
        <ele>204.80000305176</ele>
        <time>2026-06-18T10:43:53.000Z</time>
      </trkpt>
      <trkpt lat="48.61475" lon="1.10858">
        <ele>204.80000305176</ele>
        <time>2026-06-18T10:43:54.000Z</time>
      </trkpt>
      <trkpt lat="48.61494" lon="1.10876">
        <ele>204.19999694824</ele>
        <time>2026-06-18T10:43:57.000Z</time>
      </trkpt>
      <trkpt lat="48.61538" lon="1.10916">
        <ele>203.80000305176</ele>
        <time>2026-06-18T10:44:04.000Z</time>
      </trkpt>
      <trkpt lat="48.6157" lon="1.10943">
        <ele>203.19999694824</ele>
        <time>2026-06-18T10:44:10.000Z</time>
      </trkpt>
      <trkpt lat="48.61587" lon="1.10958">
        <ele>203</ele>
        <time>2026-06-18T10:44:12.000Z</time>
      </trkpt>
      <trkpt lat="48.61634" lon="1.11">
        <ele>202.39999389648</ele>
        <time>2026-06-18T10:44:19.000Z</time>
      </trkpt>
      <trkpt lat="48.61647" lon="1.11011">
        <ele>202.19999694824</ele>
        <time>2026-06-18T10:44:21.000Z</time>
      </trkpt>
      <trkpt lat="48.61694" lon="1.11056">
        <ele>201.60000610352</ele>
        <time>2026-06-18T10:44:28.000Z</time>
      </trkpt>
      <trkpt lat="48.61734" lon="1.111">
        <ele>201</ele>
        <time>2026-06-18T10:44:34.000Z</time>
      </trkpt>
      <trkpt lat="48.61755" lon="1.11122">
        <ele>200.39999389648</ele>
        <time>2026-06-18T10:44:37.000Z</time>
      </trkpt>
      <trkpt lat="48.61776" lon="1.11144">
        <ele>200</ele>
        <time>2026-06-18T10:44:40.000Z</time>
      </trkpt>
      <trkpt lat="48.61821" lon="1.11196">
        <ele>199.39999389648</ele>
        <time>2026-06-18T10:44:47.000Z</time>
      </trkpt>
      <trkpt lat="48.61846" lon="1.11226">
        <ele>199.19999694824</ele>
        <time>2026-06-18T10:44:51.000Z</time>
      </trkpt>
      <trkpt lat="48.61851" lon="1.11232">
        <ele>199</ele>
        <time>2026-06-18T10:44:52.000Z</time>
      </trkpt>
      <trkpt lat="48.61856" lon="1.11238">
        <ele>199</ele>
        <time>2026-06-18T10:44:53.000Z</time>
      </trkpt>
      <trkpt lat="48.61862" lon="1.11244">
        <ele>199</ele>
        <time>2026-06-18T10:44:54.000Z</time>
      </trkpt>
      <trkpt lat="48.61881" lon="1.11263">
        <ele>199</ele>
        <time>2026-06-18T10:44:57.000Z</time>
      </trkpt>
      <trkpt lat="48.61923" lon="1.11311">
        <ele>198.80000305176</ele>
        <time>2026-06-18T10:45:03.000Z</time>
      </trkpt>
      <trkpt lat="48.61937" lon="1.11327">
        <ele>198.80000305176</ele>
        <time>2026-06-18T10:45:05.000Z</time>
      </trkpt>
      <trkpt lat="48.61954" lon="1.11347">
        <ele>198.39999389648</ele>
        <time>2026-06-18T10:45:08.000Z</time>
      </trkpt>
      <trkpt lat="48.61968" lon="1.11361">
        <ele>198.19999694824</ele>
        <time>2026-06-18T10:45:11.000Z</time>
      </trkpt>
      <trkpt lat="48.61982" lon="1.11374">
        <ele>198.19999694824</ele>
        <time>2026-06-18T10:45:13.000Z</time>
      </trkpt>
      <trkpt lat="48.61997" lon="1.1139">
        <ele>197.80000305176</ele>
        <time>2026-06-18T10:45:15.000Z</time>
      </trkpt>
      <trkpt lat="48.62025" lon="1.1141">
        <ele>197.60000610352</ele>
        <time>2026-06-18T10:45:18.000Z</time>
      </trkpt>
      <trkpt lat="48.62053" lon="1.11428">
        <ele>196.19999694824</ele>
        <time>2026-06-18T10:45:21.000Z</time>
      </trkpt>
      <trkpt lat="48.62085" lon="1.11446">
        <ele>195.39999389648</ele>
        <time>2026-06-18T10:45:25.000Z</time>
      </trkpt>
      <trkpt lat="48.62099" lon="1.11455">
        <ele>195.19999694824</ele>
        <time>2026-06-18T10:45:27.000Z</time>
      </trkpt>
      <trkpt lat="48.62136" lon="1.11474">
        <ele>194.60000610352</ele>
        <time>2026-06-18T10:45:32.000Z</time>
      </trkpt>
      <trkpt lat="48.62195" lon="1.11493">
        <ele>194.39999389648</ele>
        <time>2026-06-18T10:45:39.000Z</time>
      </trkpt>
      <trkpt lat="48.62204" lon="1.11497">
        <ele>194.19999694824</ele>
        <time>2026-06-18T10:45:40.000Z</time>
      </trkpt>
      <trkpt lat="48.62245" lon="1.11517">
        <ele>193.60000610352</ele>
        <time>2026-06-18T10:45:45.000Z</time>
      </trkpt>
      <trkpt lat="48.62277" lon="1.11539">
        <ele>193</ele>
        <time>2026-06-18T10:45:49.000Z</time>
      </trkpt>
      <trkpt lat="48.62291" lon="1.11551">
        <ele>192.60000610352</ele>
        <time>2026-06-18T10:45:51.000Z</time>
      </trkpt>
      <trkpt lat="48.62327" lon="1.11579">
        <ele>192</ele>
        <time>2026-06-18T10:45:56.000Z</time>
      </trkpt>
      <trkpt lat="48.62341" lon="1.11589">
        <ele>191.60000610352</ele>
        <time>2026-06-18T10:45:58.000Z</time>
      </trkpt>
      <trkpt lat="48.62382" lon="1.11623">
        <ele>191.39999389648</ele>
        <time>2026-06-18T10:46:04.000Z</time>
      </trkpt>
      <trkpt lat="48.62434" lon="1.11663">
        <ele>191</ele>
        <time>2026-06-18T10:46:11.000Z</time>
      </trkpt>
      <trkpt lat="48.62438" lon="1.11667">
        <ele>190.80000305176</ele>
        <time>2026-06-18T10:46:12.000Z</time>
      </trkpt>
      <trkpt lat="48.62464" lon="1.11684">
        <ele>190.19999694824</ele>
        <time>2026-06-18T10:46:15.000Z</time>
      </trkpt>
      <trkpt lat="48.62491" lon="1.117">
        <ele>189.60000610352</ele>
        <time>2026-06-18T10:46:18.000Z</time>
      </trkpt>
      <trkpt lat="48.62524" lon="1.11722">
        <ele>188.39999389648</ele>
        <time>2026-06-18T10:46:22.000Z</time>
      </trkpt>
      <trkpt lat="48.62533" lon="1.11727">
        <ele>188.39999389648</ele>
        <time>2026-06-18T10:46:23.000Z</time>
      </trkpt>
      <trkpt lat="48.62571" lon="1.11746">
        <ele>187.80000305176</ele>
        <time>2026-06-18T10:46:27.000Z</time>
      </trkpt>
      <trkpt lat="48.6258" lon="1.11751">
        <ele>187.19999694824</ele>
        <time>2026-06-18T10:46:28.000Z</time>
      </trkpt>
      <trkpt lat="48.62632" lon="1.11781">
        <ele>186.39999389648</ele>
        <time>2026-06-18T10:46:34.000Z</time>
      </trkpt>
      <trkpt lat="48.6264" lon="1.11788">
        <ele>186.19999694824</ele>
        <time>2026-06-18T10:46:35.000Z</time>
      </trkpt>
      <trkpt lat="48.6266" lon="1.11812">
        <ele>185.19999694824</ele>
        <time>2026-06-18T10:46:38.000Z</time>
      </trkpt>
      <trkpt lat="48.62665" lon="1.11821">
        <ele>185.19999694824</ele>
        <time>2026-06-18T10:46:39.000Z</time>
      </trkpt>
      <trkpt lat="48.62699" lon="1.11878">
        <ele>184.39999389648</ele>
        <time>2026-06-18T10:46:45.000Z</time>
      </trkpt>
      <trkpt lat="48.62721" lon="1.11929">
        <ele>184.39999389648</ele>
        <time>2026-06-18T10:46:50.000Z</time>
      </trkpt>
      <trkpt lat="48.62724" lon="1.1194">
        <ele>184.39999389648</ele>
        <time>2026-06-18T10:46:51.000Z</time>
      </trkpt>
      <trkpt lat="48.62732" lon="1.11973">
        <ele>184.19999694824</ele>
        <time>2026-06-18T10:46:54.000Z</time>
      </trkpt>
      <trkpt lat="48.62734" lon="1.11996">
        <ele>183.80000305176</ele>
        <time>2026-06-18T10:46:56.000Z</time>
      </trkpt>
      <trkpt lat="48.62739" lon="1.12085">
        <ele>183.60000610352</ele>
        <time>2026-06-18T10:47:03.000Z</time>
      </trkpt>
      <trkpt lat="48.62745" lon="1.12145">
        <ele>183.19999694824</ele>
        <time>2026-06-18T10:47:08.000Z</time>
      </trkpt>
      <trkpt lat="48.62748" lon="1.12156">
        <ele>183.19999694824</ele>
        <time>2026-06-18T10:47:09.000Z</time>
      </trkpt>
      <trkpt lat="48.62756" lon="1.12178">
        <ele>182.80000305176</ele>
        <time>2026-06-18T10:47:11.000Z</time>
      </trkpt>
      <trkpt lat="48.62767" lon="1.12197">
        <ele>182.39999389648</ele>
        <time>2026-06-18T10:47:13.000Z</time>
      </trkpt>
      <trkpt lat="48.62774" lon="1.12206">
        <ele>182.39999389648</ele>
        <time>2026-06-18T10:47:14.000Z</time>
      </trkpt>
      <trkpt lat="48.62781" lon="1.12213">
        <ele>182.19999694824</ele>
        <time>2026-06-18T10:47:15.000Z</time>
      </trkpt>
      <trkpt lat="48.62789" lon="1.12219">
        <ele>182.19999694824</ele>
        <time>2026-06-18T10:47:16.000Z</time>
      </trkpt>
      <trkpt lat="48.62837" lon="1.1225">
        <ele>181</ele>
        <time>2026-06-18T10:47:22.000Z</time>
      </trkpt>
      <trkpt lat="48.6286" lon="1.12263">
        <ele>180.60000610352</ele>
        <time>2026-06-18T10:47:25.000Z</time>
      </trkpt>
      <trkpt lat="48.62867" lon="1.12267">
        <ele>180.39999389648</ele>
        <time>2026-06-18T10:47:26.000Z</time>
      </trkpt>
      <trkpt lat="48.62879" lon="1.12273">
        <ele>180.39999389648</ele>
        <time>2026-06-18T10:47:28.000Z</time>
      </trkpt>
      <trkpt lat="48.62892" lon="1.12281">
        <ele>180.19999694824</ele>
        <time>2026-06-18T10:47:30.000Z</time>
      </trkpt>
      <trkpt lat="48.62924" lon="1.12301">
        <ele>180.60000610352</ele>
        <time>2026-06-18T10:47:35.000Z</time>
      </trkpt>
      <trkpt lat="48.6293" lon="1.12305">
        <ele>180.80000305176</ele>
        <time>2026-06-18T10:47:36.000Z</time>
      </trkpt>
      <trkpt lat="48.62951" lon="1.12317">
        <ele>181.80000305176</ele>
        <time>2026-06-18T10:47:40.000Z</time>
      </trkpt>
      <trkpt lat="48.62954" lon="1.1232">
        <ele>182.19999694824</ele>
        <time>2026-06-18T10:47:41.000Z</time>
      </trkpt>
      <trkpt lat="48.62969" lon="1.12329">
        <ele>183.39999389648</ele>
        <time>2026-06-18T10:47:45.000Z</time>
      </trkpt>
      <trkpt lat="48.62976" lon="1.12337">
        <ele>183.80000305176</ele>
        <time>2026-06-18T10:47:48.000Z</time>
      </trkpt>
      <trkpt lat="48.62977" lon="1.1234">
        <ele>184</ele>
        <time>2026-06-18T10:47:49.000Z</time>
      </trkpt>
      <trkpt lat="48.62976" lon="1.12357">
        <ele>184.60000610352</ele>
        <time>2026-06-18T10:47:52.000Z</time>
      </trkpt>
      <trkpt lat="48.62976" lon="1.12364">
        <ele>184.60000610352</ele>
        <time>2026-06-18T10:47:53.000Z</time>
      </trkpt>
      <trkpt lat="48.62976" lon="1.12372">
        <ele>184.60000610352</ele>
        <time>2026-06-18T10:47:54.000Z</time>
      </trkpt>
      <trkpt lat="48.62978" lon="1.1243">
        <ele>184.39999389648</ele>
        <time>2026-06-18T10:48:01.000Z</time>
      </trkpt>
      <trkpt lat="48.62978" lon="1.12498">
        <ele>183.80000305176</ele>
        <time>2026-06-18T10:48:09.000Z</time>
      </trkpt>
      <trkpt lat="48.62977" lon="1.12554">
        <ele>183.39999389648</ele>
        <time>2026-06-18T10:48:15.000Z</time>
      </trkpt>
      <trkpt lat="48.6298" lon="1.12618">
        <ele>183.39999389648</ele>
        <time>2026-06-18T10:48:22.000Z</time>
      </trkpt>
      <trkpt lat="48.62984" lon="1.12705">
        <ele>183.19999694824</ele>
        <time>2026-06-18T10:48:31.000Z</time>
      </trkpt>
      <trkpt lat="48.62989" lon="1.12747">
        <ele>182.60000610352</ele>
        <time>2026-06-18T10:48:35.000Z</time>
      </trkpt>
      <trkpt lat="48.62991" lon="1.12757">
        <ele>182.60000610352</ele>
        <time>2026-06-18T10:48:36.000Z</time>
      </trkpt>
      <trkpt lat="48.62994" lon="1.12767">
        <ele>182.39999389648</ele>
        <time>2026-06-18T10:48:37.000Z</time>
      </trkpt>
      <trkpt lat="48.63014" lon="1.1281">
        <ele>182</ele>
        <time>2026-06-18T10:48:42.000Z</time>
      </trkpt>
      <trkpt lat="48.63041" lon="1.12854">
        <ele>181.80000305176</ele>
        <time>2026-06-18T10:48:48.000Z</time>
      </trkpt>
      <trkpt lat="48.63052" lon="1.12876">
        <ele>181.80000305176</ele>
        <time>2026-06-18T10:48:51.000Z</time>
      </trkpt>
      <trkpt lat="48.63058" lon="1.12893">
        <ele>181.80000305176</ele>
        <time>2026-06-18T10:48:53.000Z</time>
      </trkpt>
      <trkpt lat="48.63062" lon="1.12932">
        <ele>181.80000305176</ele>
        <time>2026-06-18T10:48:57.000Z</time>
      </trkpt>
      <trkpt lat="48.63062" lon="1.12941">
        <ele>181.80000305176</ele>
        <time>2026-06-18T10:48:58.000Z</time>
      </trkpt>
      <trkpt lat="48.63063" lon="1.12988">
        <ele>182</ele>
        <time>2026-06-18T10:49:03.000Z</time>
      </trkpt>
      <trkpt lat="48.63063" lon="1.13052">
        <ele>182.19999694824</ele>
        <time>2026-06-18T10:49:09.000Z</time>
      </trkpt>
      <trkpt lat="48.63066" lon="1.13137">
        <ele>181.60000610352</ele>
        <time>2026-06-18T10:49:16.000Z</time>
      </trkpt>
      <trkpt lat="48.63066" lon="1.1315">
        <ele>181.60000610352</ele>
        <time>2026-06-18T10:49:17.000Z</time>
      </trkpt>
      <trkpt lat="48.63069" lon="1.13226">
        <ele>180.39999389648</ele>
        <time>2026-06-18T10:49:23.000Z</time>
      </trkpt>
      <trkpt lat="48.6307" lon="1.13263">
        <ele>180</ele>
        <time>2026-06-18T10:49:26.000Z</time>
      </trkpt>
      <trkpt lat="48.63071" lon="1.13312">
        <ele>179.39999389648</ele>
        <time>2026-06-18T10:49:30.000Z</time>
      </trkpt>
      <trkpt lat="48.63073" lon="1.13361">
        <ele>179.19999694824</ele>
        <time>2026-06-18T10:49:34.000Z</time>
      </trkpt>
      <trkpt lat="48.63075" lon="1.13442">
        <ele>179</ele>
        <time>2026-06-18T10:49:41.000Z</time>
      </trkpt>
      <trkpt lat="48.63075" lon="1.13452">
        <ele>179</ele>
        <time>2026-06-18T10:49:42.000Z</time>
      </trkpt>
      <trkpt lat="48.63074" lon="1.13493">
        <ele>179.80000305176</ele>
        <time>2026-06-18T10:49:46.000Z</time>
      </trkpt>
      <trkpt lat="48.63073" lon="1.13513">
        <ele>180.39999389648</ele>
        <time>2026-06-18T10:49:48.000Z</time>
      </trkpt>
      <trkpt lat="48.63073" lon="1.13543">
        <ele>181.19999694824</ele>
        <time>2026-06-18T10:49:51.000Z</time>
      </trkpt>
      <trkpt lat="48.63073" lon="1.13563">
        <ele>181.60000610352</ele>
        <time>2026-06-18T10:49:53.000Z</time>
      </trkpt>
      <trkpt lat="48.63073" lon="1.136">
        <ele>182.80000305176</ele>
        <time>2026-06-18T10:49:57.000Z</time>
      </trkpt>
      <trkpt lat="48.63073" lon="1.1361">
        <ele>183</ele>
        <time>2026-06-18T10:49:58.000Z</time>
      </trkpt>
      <trkpt lat="48.63073" lon="1.13646">
        <ele>184</ele>
        <time>2026-06-18T10:50:02.000Z</time>
      </trkpt>
      <trkpt lat="48.63072" lon="1.13683">
        <ele>184.80000305176</ele>
        <time>2026-06-18T10:50:06.000Z</time>
      </trkpt>
      <trkpt lat="48.63072" lon="1.13692">
        <ele>185.19999694824</ele>
        <time>2026-06-18T10:50:07.000Z</time>
      </trkpt>
      <trkpt lat="48.63071" lon="1.13735">
        <ele>185.80000305176</ele>
        <time>2026-06-18T10:50:12.000Z</time>
      </trkpt>
      <trkpt lat="48.63071" lon="1.13807">
        <ele>186</ele>
        <time>2026-06-18T10:50:20.000Z</time>
      </trkpt>
      <trkpt lat="48.6307" lon="1.13848">
        <ele>186.19999694824</ele>
        <time>2026-06-18T10:50:24.000Z</time>
      </trkpt>
      <trkpt lat="48.63073" lon="1.139">
        <ele>186</ele>
        <time>2026-06-18T10:50:29.000Z</time>
      </trkpt>
      <trkpt lat="48.63072" lon="1.13932">
        <ele>185.80000305176</ele>
        <time>2026-06-18T10:50:32.000Z</time>
      </trkpt>
      <trkpt lat="48.63074" lon="1.13966">
        <ele>185.39999389648</ele>
        <time>2026-06-18T10:50:35.000Z</time>
      </trkpt>
      <trkpt lat="48.63075" lon="1.14">
        <ele>185.19999694824</ele>
        <time>2026-06-18T10:50:38.000Z</time>
      </trkpt>
      <trkpt lat="48.63079" lon="1.14045">
        <ele>184.60000610352</ele>
        <time>2026-06-18T10:50:42.000Z</time>
      </trkpt>
      <trkpt lat="48.63085" lon="1.14078">
        <ele>184</ele>
        <time>2026-06-18T10:50:45.000Z</time>
      </trkpt>
      <trkpt lat="48.63093" lon="1.14121">
        <ele>183.80000305176</ele>
        <time>2026-06-18T10:50:49.000Z</time>
      </trkpt>
      <trkpt lat="48.63108" lon="1.14187">
        <ele>183.19999694824</ele>
        <time>2026-06-18T10:50:55.000Z</time>
      </trkpt>
      <trkpt lat="48.6311" lon="1.14198">
        <ele>183</ele>
        <time>2026-06-18T10:50:56.000Z</time>
      </trkpt>
      <trkpt lat="48.63127" lon="1.14273">
        <ele>182.19999694824</ele>
        <time>2026-06-18T10:51:03.000Z</time>
      </trkpt>
      <trkpt lat="48.63147" lon="1.14331">
        <ele>182</ele>
        <time>2026-06-18T10:51:09.000Z</time>
      </trkpt>
      <trkpt lat="48.63161" lon="1.14355">
        <ele>182.19999694824</ele>
        <time>2026-06-18T10:51:12.000Z</time>
      </trkpt>
      <trkpt lat="48.63172" lon="1.14372">
        <ele>182.39999389648</ele>
        <time>2026-06-18T10:51:15.000Z</time>
      </trkpt>
      <trkpt lat="48.63203" lon="1.14409">
        <ele>183.19999694824</ele>
        <time>2026-06-18T10:51:21.000Z</time>
      </trkpt>
      <trkpt lat="48.63213" lon="1.1442">
        <ele>183.60000610352</ele>
        <time>2026-06-18T10:51:23.000Z</time>
      </trkpt>
      <trkpt lat="48.63222" lon="1.14431">
        <ele>184.19999694824</ele>
        <time>2026-06-18T10:51:25.000Z</time>
      </trkpt>
      <trkpt lat="48.6325" lon="1.14464">
        <ele>185.60000610352</ele>
        <time>2026-06-18T10:51:31.000Z</time>
      </trkpt>
      <trkpt lat="48.63254" lon="1.14469">
        <ele>185.80000305176</ele>
        <time>2026-06-18T10:51:32.000Z</time>
      </trkpt>
      <trkpt lat="48.63281" lon="1.14501">
        <ele>186.80000305176</ele>
        <time>2026-06-18T10:51:38.000Z</time>
      </trkpt>
      <trkpt lat="48.63286" lon="1.14507">
        <ele>187</ele>
        <time>2026-06-18T10:51:39.000Z</time>
      </trkpt>
      <trkpt lat="48.63309" lon="1.14534">
        <ele>188</ele>
        <time>2026-06-18T10:51:44.000Z</time>
      </trkpt>
      <trkpt lat="48.63319" lon="1.14546">
        <ele>188.19999694824</ele>
        <time>2026-06-18T10:51:46.000Z</time>
      </trkpt>
      <trkpt lat="48.63352" lon="1.14586">
        <ele>188.60000610352</ele>
        <time>2026-06-18T10:51:53.000Z</time>
      </trkpt>
      <trkpt lat="48.63387" lon="1.14627">
        <ele>188.60000610352</ele>
        <time>2026-06-18T10:52:00.000Z</time>
      </trkpt>
      <trkpt lat="48.63411" lon="1.14655">
        <ele>188.19999694824</ele>
        <time>2026-06-18T10:52:06.000Z</time>
      </trkpt>
      <trkpt lat="48.63415" lon="1.14662">
        <ele>188.19999694824</ele>
        <time>2026-06-18T10:52:10.000Z</time>
      </trkpt>
      <trkpt lat="48.63418" lon="1.14668">
        <ele>188.39999389648</ele>
        <time>2026-06-18T10:52:16.000Z</time>
      </trkpt>
      <trkpt lat="48.63427" lon="1.1468">
        <ele>188.60000610352</ele>
        <time>2026-06-18T10:52:21.000Z</time>
      </trkpt>
      <trkpt lat="48.63439" lon="1.1471">
        <ele>189</ele>
        <time>2026-06-18T10:52:26.000Z</time>
      </trkpt>
      <trkpt lat="48.63447" lon="1.14732">
        <ele>189.19999694824</ele>
        <time>2026-06-18T10:52:29.000Z</time>
      </trkpt>
      <trkpt lat="48.63455" lon="1.14761">
        <ele>189.80000305176</ele>
        <time>2026-06-18T10:52:34.000Z</time>
      </trkpt>
      <trkpt lat="48.63459" lon="1.14774">
        <ele>189.80000305176</ele>
        <time>2026-06-18T10:52:35.000Z</time>
      </trkpt>
      <trkpt lat="48.63471" lon="1.14813">
        <ele>190</ele>
        <time>2026-06-18T10:52:40.000Z</time>
      </trkpt>
      <trkpt lat="48.63485" lon="1.14856">
        <ele>190.39999389648</ele>
        <time>2026-06-18T10:52:45.000Z</time>
      </trkpt>
      <trkpt lat="48.63494" lon="1.14883">
        <ele>190.39999389648</ele>
        <time>2026-06-18T10:52:48.000Z</time>
      </trkpt>
      <trkpt lat="48.63518" lon="1.14963">
        <ele>190.80000305176</ele>
        <time>2026-06-18T10:52:57.000Z</time>
      </trkpt>
      <trkpt lat="48.63521" lon="1.1497">
        <ele>190.80000305176</ele>
        <time>2026-06-18T10:52:58.000Z</time>
      </trkpt>
      <trkpt lat="48.63545" lon="1.15043">
        <ele>190.80000305176</ele>
        <time>2026-06-18T10:53:06.000Z</time>
      </trkpt>
      <trkpt lat="48.63572" lon="1.15127">
        <ele>191.39999389648</ele>
        <time>2026-06-18T10:53:15.000Z</time>
      </trkpt>
      <trkpt lat="48.63574" lon="1.15136">
        <ele>191.39999389648</ele>
        <time>2026-06-18T10:53:16.000Z</time>
      </trkpt>
      <trkpt lat="48.63593" lon="1.15192">
        <ele>191.60000610352</ele>
        <time>2026-06-18T10:53:22.000Z</time>
      </trkpt>
      <trkpt lat="48.63595" lon="1.15201">
        <ele>191.60000610352</ele>
        <time>2026-06-18T10:53:23.000Z</time>
      </trkpt>
      <trkpt lat="48.6362" lon="1.15277">
        <ele>191.39999389648</ele>
        <time>2026-06-18T10:53:31.000Z</time>
      </trkpt>
      <trkpt lat="48.63626" lon="1.15296">
        <ele>191.19999694824</ele>
        <time>2026-06-18T10:53:33.000Z</time>
      </trkpt>
      <trkpt lat="48.6365" lon="1.15372">
        <ele>191.19999694824</ele>
        <time>2026-06-18T10:53:41.000Z</time>
      </trkpt>
      <trkpt lat="48.63656" lon="1.1539">
        <ele>191.19999694824</ele>
        <time>2026-06-18T10:53:43.000Z</time>
      </trkpt>
      <trkpt lat="48.63676" lon="1.15456">
        <ele>191.60000610352</ele>
        <time>2026-06-18T10:53:50.000Z</time>
      </trkpt>
      <trkpt lat="48.63696" lon="1.15522">
        <ele>192</ele>
        <time>2026-06-18T10:53:57.000Z</time>
      </trkpt>
      <trkpt lat="48.63718" lon="1.15591">
        <ele>191.80000305176</ele>
        <time>2026-06-18T10:54:04.000Z</time>
      </trkpt>
      <trkpt lat="48.63743" lon="1.15664">
        <ele>191.39999389648</ele>
        <time>2026-06-18T10:54:11.000Z</time>
      </trkpt>
      <trkpt lat="48.63746" lon="1.15675">
        <ele>191.39999389648</ele>
        <time>2026-06-18T10:54:12.000Z</time>
      </trkpt>
      <trkpt lat="48.63771" lon="1.15753">
        <ele>190.39999389648</ele>
        <time>2026-06-18T10:54:19.000Z</time>
      </trkpt>
      <trkpt lat="48.63787" lon="1.15807">
        <ele>189.39999389648</ele>
        <time>2026-06-18T10:54:24.000Z</time>
      </trkpt>
      <trkpt lat="48.63791" lon="1.15818">
        <ele>189.19999694824</ele>
        <time>2026-06-18T10:54:25.000Z</time>
      </trkpt>
      <trkpt lat="48.63805" lon="1.1586">
        <ele>188.80000305176</ele>
        <time>2026-06-18T10:54:29.000Z</time>
      </trkpt>
      <trkpt lat="48.63831" lon="1.15944">
        <ele>188.60000610352</ele>
        <time>2026-06-18T10:54:37.000Z</time>
      </trkpt>
      <trkpt lat="48.63858" lon="1.16027">
        <ele>188.39999389648</ele>
        <time>2026-06-18T10:54:45.000Z</time>
      </trkpt>
      <trkpt lat="48.63861" lon="1.16038">
        <ele>188.39999389648</ele>
        <time>2026-06-18T10:54:46.000Z</time>
      </trkpt>
      <trkpt lat="48.63881" lon="1.16097">
        <ele>188.60000610352</ele>
        <time>2026-06-18T10:54:52.000Z</time>
      </trkpt>
      <trkpt lat="48.63905" lon="1.16171">
        <ele>189</ele>
        <time>2026-06-18T10:54:59.000Z</time>
      </trkpt>
      <trkpt lat="48.63908" lon="1.16181">
        <ele>189</ele>
        <time>2026-06-18T10:55:00.000Z</time>
      </trkpt>
      <trkpt lat="48.63932" lon="1.16261">
        <ele>189.60000610352</ele>
        <time>2026-06-18T10:55:08.000Z</time>
      </trkpt>
      <trkpt lat="48.63935" lon="1.16271">
        <ele>189.60000610352</ele>
        <time>2026-06-18T10:55:09.000Z</time>
      </trkpt>
      <trkpt lat="48.63962" lon="1.16352">
        <ele>189.60000610352</ele>
        <time>2026-06-18T10:55:17.000Z</time>
      </trkpt>
      <trkpt lat="48.63965" lon="1.16362">
        <ele>189.60000610352</ele>
        <time>2026-06-18T10:55:18.000Z</time>
      </trkpt>
      <trkpt lat="48.63983" lon="1.16421">
        <ele>190</ele>
        <time>2026-06-18T10:55:24.000Z</time>
      </trkpt>
      <trkpt lat="48.64005" lon="1.1649">
        <ele>190</ele>
        <time>2026-06-18T10:55:31.000Z</time>
      </trkpt>
      <trkpt lat="48.64027" lon="1.16559">
        <ele>189.80000305176</ele>
        <time>2026-06-18T10:55:38.000Z</time>
      </trkpt>
      <trkpt lat="48.64052" lon="1.16637">
        <ele>190</ele>
        <time>2026-06-18T10:55:46.000Z</time>
      </trkpt>
      <trkpt lat="48.6406" lon="1.16667">
        <ele>190.19999694824</ele>
        <time>2026-06-18T10:55:49.000Z</time>
      </trkpt>
      <trkpt lat="48.64061" lon="1.16688">
        <ele>190.39999389648</ele>
        <time>2026-06-18T10:55:51.000Z</time>
      </trkpt>
      <trkpt lat="48.64055" lon="1.16732">
        <ele>190.60000610352</ele>
        <time>2026-06-18T10:55:55.000Z</time>
      </trkpt>
      <trkpt lat="48.64053" lon="1.16754">
        <ele>190.60000610352</ele>
        <time>2026-06-18T10:55:57.000Z</time>
      </trkpt>
      <trkpt lat="48.64041" lon="1.16842">
        <ele>190.39999389648</ele>
        <time>2026-06-18T10:56:05.000Z</time>
      </trkpt>
      <trkpt lat="48.64029" lon="1.16931">
        <ele>190</ele>
        <time>2026-06-18T10:56:13.000Z</time>
      </trkpt>
      <trkpt lat="48.6402" lon="1.17001">
        <ele>189.80000305176</ele>
        <time>2026-06-18T10:56:19.000Z</time>
      </trkpt>
      <trkpt lat="48.64017" lon="1.17024">
        <ele>189.60000610352</ele>
        <time>2026-06-18T10:56:21.000Z</time>
      </trkpt>
      <trkpt lat="48.64013" lon="1.17064">
        <ele>189</ele>
        <time>2026-06-18T10:56:25.000Z</time>
      </trkpt>
      <trkpt lat="48.64006" lon="1.17119">
        <ele>188.60000610352</ele>
        <time>2026-06-18T10:56:30.000Z</time>
      </trkpt>
      <trkpt lat="48.64003" lon="1.1715">
        <ele>188.39999389648</ele>
        <time>2026-06-18T10:56:33.000Z</time>
      </trkpt>
      <trkpt lat="48.64001" lon="1.1716">
        <ele>188.39999389648</ele>
        <time>2026-06-18T10:56:34.000Z</time>
      </trkpt>
      <trkpt lat="48.63994" lon="1.17218">
        <ele>188</ele>
        <time>2026-06-18T10:56:40.000Z</time>
      </trkpt>
      <trkpt lat="48.63983" lon="1.17305">
        <ele>187.60000610352</ele>
        <time>2026-06-18T10:56:49.000Z</time>
      </trkpt>
      <trkpt lat="48.63981" lon="1.17323">
        <ele>187.60000610352</ele>
        <time>2026-06-18T10:56:51.000Z</time>
      </trkpt>
      <trkpt lat="48.63971" lon="1.17409">
        <ele>187.19999694824</ele>
        <time>2026-06-18T10:56:59.000Z</time>
      </trkpt>
      <trkpt lat="48.6396" lon="1.17498">
        <ele>186.19999694824</ele>
        <time>2026-06-18T10:57:07.000Z</time>
      </trkpt>
      <trkpt lat="48.63959" lon="1.17508">
        <ele>186.19999694824</ele>
        <time>2026-06-18T10:57:08.000Z</time>
      </trkpt>
      <trkpt lat="48.63952" lon="1.17567">
        <ele>185.19999694824</ele>
        <time>2026-06-18T10:57:13.000Z</time>
      </trkpt>
      <trkpt lat="48.63947" lon="1.17613">
        <ele>184.19999694824</ele>
        <time>2026-06-18T10:57:16.000Z</time>
      </trkpt>
      <trkpt lat="48.63946" lon="1.17624">
        <ele>184</ele>
        <time>2026-06-18T10:57:17.000Z</time>
      </trkpt>
      <trkpt lat="48.6394" lon="1.17668">
        <ele>182.80000305176</ele>
        <time>2026-06-18T10:57:20.000Z</time>
      </trkpt>
      <trkpt lat="48.63936" lon="1.17695">
        <ele>182.39999389648</ele>
        <time>2026-06-18T10:57:22.000Z</time>
      </trkpt>
      <trkpt lat="48.63931" lon="1.17733">
        <ele>181.19999694824</ele>
        <time>2026-06-18T10:57:25.000Z</time>
      </trkpt>
      <trkpt lat="48.63928" lon="1.17779">
        <ele>179.80000305176</ele>
        <time>2026-06-18T10:57:28.000Z</time>
      </trkpt>
      <trkpt lat="48.63927" lon="1.17836">
        <ele>178.80000305176</ele>
        <time>2026-06-18T10:57:32.000Z</time>
      </trkpt>
      <trkpt lat="48.63926" lon="1.17866">
        <ele>177.60000610352</ele>
        <time>2026-06-18T10:57:34.000Z</time>
      </trkpt>
      <trkpt lat="48.63926" lon="1.17911">
        <ele>176.19999694824</ele>
        <time>2026-06-18T10:57:37.000Z</time>
      </trkpt>
      <trkpt lat="48.63925" lon="1.17955">
        <ele>174.80000305176</ele>
        <time>2026-06-18T10:57:40.000Z</time>
      </trkpt>
      <trkpt lat="48.63926" lon="1.17985">
        <ele>173.19999694824</ele>
        <time>2026-06-18T10:57:42.000Z</time>
      </trkpt>
      <trkpt lat="48.63927" lon="1.17999">
        <ele>172.60000610352</ele>
        <time>2026-06-18T10:57:43.000Z</time>
      </trkpt>
      <trkpt lat="48.63929" lon="1.18012">
        <ele>172.19999694824</ele>
        <time>2026-06-18T10:57:44.000Z</time>
      </trkpt>
      <trkpt lat="48.63935" lon="1.18037">
        <ele>171.19999694824</ele>
        <time>2026-06-18T10:57:46.000Z</time>
      </trkpt>
      <trkpt lat="48.63937" lon="1.18046">
        <ele>171</ele>
        <time>2026-06-18T10:57:47.000Z</time>
      </trkpt>
      <trkpt lat="48.63939" lon="1.18054">
        <ele>170.19999694824</ele>
        <time>2026-06-18T10:57:48.000Z</time>
      </trkpt>
      <trkpt lat="48.63941" lon="1.18059">
        <ele>169.80000305176</ele>
        <time>2026-06-18T10:57:49.000Z</time>
      </trkpt>
      <trkpt lat="48.63941" lon="1.18064">
        <ele>169.19999694824</ele>
        <time>2026-06-18T10:57:50.000Z</time>
      </trkpt>
      <trkpt lat="48.6394" lon="1.18069">
        <ele>168.60000610352</ele>
        <time>2026-06-18T10:57:51.000Z</time>
      </trkpt>
      <trkpt lat="48.63935" lon="1.18079">
        <ele>167.80000305176</ele>
        <time>2026-06-18T10:57:53.000Z</time>
      </trkpt>
      <trkpt lat="48.63933" lon="1.18084">
        <ele>167.39999389648</ele>
        <time>2026-06-18T10:57:54.000Z</time>
      </trkpt>
      <trkpt lat="48.63921" lon="1.18106">
        <ele>166.60000610352</ele>
        <time>2026-06-18T10:57:58.000Z</time>
      </trkpt>
      <trkpt lat="48.63918" lon="1.18111">
        <ele>166.60000610352</ele>
        <time>2026-06-18T10:57:59.000Z</time>
      </trkpt>
      <trkpt lat="48.63913" lon="1.18121">
        <ele>166.60000610352</ele>
        <time>2026-06-18T10:58:01.000Z</time>
      </trkpt>
      <trkpt lat="48.63904" lon="1.18131">
        <ele>166.60000610352</ele>
        <time>2026-06-18T10:58:03.000Z</time>
      </trkpt>
      <trkpt lat="48.63899" lon="1.18135">
        <ele>166.60000610352</ele>
        <time>2026-06-18T10:58:04.000Z</time>
      </trkpt>
      <trkpt lat="48.63876" lon="1.18148">
        <ele>167</ele>
        <time>2026-06-18T10:58:09.000Z</time>
      </trkpt>
      <trkpt lat="48.63872" lon="1.18153">
        <ele>167</ele>
        <time>2026-06-18T10:58:10.000Z</time>
      </trkpt>
      <trkpt lat="48.63868" lon="1.18159">
        <ele>167</ele>
        <time>2026-06-18T10:58:11.000Z</time>
      </trkpt>
      <trkpt lat="48.63861" lon="1.1817">
        <ele>167</ele>
        <time>2026-06-18T10:58:13.000Z</time>
      </trkpt>
      <trkpt lat="48.63851" lon="1.18182">
        <ele>167</ele>
        <time>2026-06-18T10:58:17.000Z</time>
      </trkpt>
      <trkpt lat="48.63854" lon="1.18181">
        <ele>167.19999694824</ele>
        <time>2026-06-18T10:58:20.000Z</time>
      </trkpt>
      <trkpt lat="48.63854" lon="1.18179">
        <ele>167.19999694824</ele>
        <time>2026-06-18T10:58:21.000Z</time>
      </trkpt>
      <trkpt lat="48.6386" lon="1.18171">
        <ele>167.19999694824</ele>
        <time>2026-06-18T10:58:24.000Z</time>
      </trkpt>
      <trkpt lat="48.63862" lon="1.18168">
        <ele>167.19999694824</ele>
        <time>2026-06-18T10:58:25.000Z</time>
      </trkpt>
      <trkpt lat="48.63866" lon="1.18159">
        <ele>167.19999694824</ele>
        <time>2026-06-18T10:58:27.000Z</time>
      </trkpt>
      <trkpt lat="48.63865" lon="1.18156">
        <ele>167.19999694824</ele>
        <time>2026-06-18T10:58:28.000Z</time>
      </trkpt>
      <trkpt lat="48.63862" lon="1.18157">
        <ele>167.19999694824</ele>
        <time>2026-06-18T10:58:31.000Z</time>
      </trkpt>
      <trkpt lat="48.63862" lon="1.18161">
        <ele>166.60000610352</ele>
        <time>2026-06-18T10:58:53.000Z</time>
      </trkpt>
      <trkpt lat="48.63862" lon="1.18167">
        <ele>166.80000305176</ele>
        <time>2026-06-18T10:58:55.000Z</time>
      </trkpt>
      <trkpt lat="48.63858" lon="1.18169">
        <ele>166.80000305176</ele>
        <time>2026-06-18T10:58:57.000Z</time>
      </trkpt>
      <trkpt lat="48.63856" lon="1.18173">
        <ele>166.80000305176</ele>
        <time>2026-06-18T10:58:58.000Z</time>
      </trkpt>
      <trkpt lat="48.63854" lon="1.18202">
        <ele>167</ele>
        <time>2026-06-18T10:59:02.000Z</time>
      </trkpt>
      <trkpt lat="48.63854" lon="1.18211">
        <ele>167</ele>
        <time>2026-06-18T10:59:03.000Z</time>
      </trkpt>
      <trkpt lat="48.63854" lon="1.18236">
        <ele>167.19999694824</ele>
        <time>2026-06-18T10:59:06.000Z</time>
      </trkpt>
      <trkpt lat="48.63854" lon="1.18245">
        <ele>167.19999694824</ele>
        <time>2026-06-18T10:59:07.000Z</time>
      </trkpt>
      <trkpt lat="48.63855" lon="1.18274">
        <ele>167.60000610352</ele>
        <time>2026-06-18T10:59:11.000Z</time>
      </trkpt>
      <trkpt lat="48.63854" lon="1.18296">
        <ele>168</ele>
        <time>2026-06-18T10:59:15.000Z</time>
      </trkpt>
      <trkpt lat="48.63855" lon="1.18304">
        <ele>168.19999694824</ele>
        <time>2026-06-18T10:59:16.000Z</time>
      </trkpt>
      <trkpt lat="48.63858" lon="1.18327">
        <ele>168.80000305176</ele>
        <time>2026-06-18T10:59:20.000Z</time>
      </trkpt>
      <trkpt lat="48.63865" lon="1.1836">
        <ele>169.60000610352</ele>
        <time>2026-06-18T10:59:25.000Z</time>
      </trkpt>
      <trkpt lat="48.63867" lon="1.18366">
        <ele>169.80000305176</ele>
        <time>2026-06-18T10:59:26.000Z</time>
      </trkpt>
      <trkpt lat="48.63872" lon="1.18378">
        <ele>170.19999694824</ele>
        <time>2026-06-18T10:59:28.000Z</time>
      </trkpt>
      <trkpt lat="48.63886" lon="1.1841">
        <ele>171</ele>
        <time>2026-06-18T10:59:33.000Z</time>
      </trkpt>
      <trkpt lat="48.63895" lon="1.1843">
        <ele>171.19999694824</ele>
        <time>2026-06-18T10:59:36.000Z</time>
      </trkpt>
      <trkpt lat="48.63913" lon="1.18469">
        <ele>172.19999694824</ele>
        <time>2026-06-18T10:59:42.000Z</time>
      </trkpt>
      <trkpt lat="48.63925" lon="1.18497">
        <ele>172.80000305176</ele>
        <time>2026-06-18T10:59:46.000Z</time>
      </trkpt>
      <trkpt lat="48.63933" lon="1.18519">
        <ele>173</ele>
        <time>2026-06-18T10:59:49.000Z</time>
      </trkpt>
      <trkpt lat="48.63936" lon="1.18543">
        <ele>173</ele>
        <time>2026-06-18T10:59:52.000Z</time>
      </trkpt>
      <trkpt lat="48.63938" lon="1.18575">
        <ele>173.19999694824</ele>
        <time>2026-06-18T10:59:56.000Z</time>
      </trkpt>
      <trkpt lat="48.63938" lon="1.1859">
        <ele>173.60000610352</ele>
        <time>2026-06-18T10:59:58.000Z</time>
      </trkpt>
      <trkpt lat="48.63935" lon="1.18626">
        <ele>174.60000610352</ele>
        <time>2026-06-18T11:00:03.000Z</time>
      </trkpt>
      <trkpt lat="48.63936" lon="1.1864">
        <ele>175</ele>
        <time>2026-06-18T11:00:05.000Z</time>
      </trkpt>
      <trkpt lat="48.63938" lon="1.18654">
        <ele>175.39999389648</ele>
        <time>2026-06-18T11:00:07.000Z</time>
      </trkpt>
      <trkpt lat="48.63938" lon="1.18661">
        <ele>175.60000610352</ele>
        <time>2026-06-18T11:00:08.000Z</time>
      </trkpt>
      <trkpt lat="48.6394" lon="1.18681">
        <ele>176.39999389648</ele>
        <time>2026-06-18T11:00:11.000Z</time>
      </trkpt>
      <trkpt lat="48.6394" lon="1.18687">
        <ele>176.60000610352</ele>
        <time>2026-06-18T11:00:12.000Z</time>
      </trkpt>
      <trkpt lat="48.63941" lon="1.18699">
        <ele>177.19999694824</ele>
        <time>2026-06-18T11:00:14.000Z</time>
      </trkpt>
      <trkpt lat="48.63941" lon="1.18709">
        <ele>178</ele>
        <time>2026-06-18T11:00:16.000Z</time>
      </trkpt>
      <trkpt lat="48.63942" lon="1.18725">
        <ele>179</ele>
        <time>2026-06-18T11:00:19.000Z</time>
      </trkpt>
      <trkpt lat="48.63942" lon="1.18747">
        <ele>179.60000610352</ele>
        <time>2026-06-18T11:00:23.000Z</time>
      </trkpt>
      <trkpt lat="48.63943" lon="1.18759">
        <ele>180</ele>
        <time>2026-06-18T11:00:25.000Z</time>
      </trkpt>
      <trkpt lat="48.63945" lon="1.18785">
        <ele>180.60000610352</ele>
        <time>2026-06-18T11:00:29.000Z</time>
      </trkpt>
      <trkpt lat="48.63945" lon="1.18798">
        <ele>180.80000305176</ele>
        <time>2026-06-18T11:00:31.000Z</time>
      </trkpt>
      <trkpt lat="48.63945" lon="1.18811">
        <ele>181.19999694824</ele>
        <time>2026-06-18T11:00:33.000Z</time>
      </trkpt>
      <trkpt lat="48.63945" lon="1.18824">
        <ele>181.60000610352</ele>
        <time>2026-06-18T11:00:35.000Z</time>
      </trkpt>
      <trkpt lat="48.63945" lon="1.18873">
        <ele>182.39999389648</ele>
        <time>2026-06-18T11:00:42.000Z</time>
      </trkpt>
      <trkpt lat="48.63945" lon="1.18877">
        <ele>182.39999389648</ele>
        <time>2026-06-18T11:00:43.000Z</time>
      </trkpt>
      <trkpt lat="48.63944" lon="1.18911">
        <ele>182.80000305176</ele>
        <time>2026-06-18T11:00:47.000Z</time>
      </trkpt>
      <trkpt lat="48.63941" lon="1.18927">
        <ele>182.80000305176</ele>
        <time>2026-06-18T11:00:49.000Z</time>
      </trkpt>
      <trkpt lat="48.63936" lon="1.18959">
        <ele>182.80000305176</ele>
        <time>2026-06-18T11:00:53.000Z</time>
      </trkpt>
      <trkpt lat="48.63938" lon="1.18967">
        <ele>182.80000305176</ele>
        <time>2026-06-18T11:00:54.000Z</time>
      </trkpt>
      <trkpt lat="48.63948" lon="1.18999">
        <ele>182.80000305176</ele>
        <time>2026-06-18T11:00:58.000Z</time>
      </trkpt>
      <trkpt lat="48.63951" lon="1.19006">
        <ele>182.80000305176</ele>
        <time>2026-06-18T11:00:59.000Z</time>
      </trkpt>
      <trkpt lat="48.63982" lon="1.19055">
        <ele>182.60000610352</ele>
        <time>2026-06-18T11:01:06.000Z</time>
      </trkpt>
      <trkpt lat="48.64002" lon="1.19084">
        <ele>182.39999389648</ele>
        <time>2026-06-18T11:01:11.000Z</time>
      </trkpt>
      <trkpt lat="48.64006" lon="1.1909">
        <ele>182.39999389648</ele>
        <time>2026-06-18T11:01:12.000Z</time>
      </trkpt>
      <trkpt lat="48.64011" lon="1.19105">
        <ele>182.39999389648</ele>
        <time>2026-06-18T11:01:14.000Z</time>
      </trkpt>
      <trkpt lat="48.64014" lon="1.19113">
        <ele>182.39999389648</ele>
        <time>2026-06-18T11:01:15.000Z</time>
      </trkpt>
      <trkpt lat="48.64016" lon="1.19122">
        <ele>182.39999389648</ele>
        <time>2026-06-18T11:01:16.000Z</time>
      </trkpt>
      <trkpt lat="48.64019" lon="1.1914">
        <ele>182.39999389648</ele>
        <time>2026-06-18T11:01:18.000Z</time>
      </trkpt>
      <trkpt lat="48.6402" lon="1.1915">
        <ele>182.39999389648</ele>
        <time>2026-06-18T11:01:19.000Z</time>
      </trkpt>
      <trkpt lat="48.64023" lon="1.19223">
        <ele>181.60000610352</ele>
        <time>2026-06-18T11:01:26.000Z</time>
      </trkpt>
      <trkpt lat="48.64025" lon="1.19244">
        <ele>181.39999389648</ele>
        <time>2026-06-18T11:01:28.000Z</time>
      </trkpt>
      <trkpt lat="48.64027" lon="1.19266">
        <ele>181.19999694824</ele>
        <time>2026-06-18T11:01:30.000Z</time>
      </trkpt>
      <trkpt lat="48.64033" lon="1.19299">
        <ele>181</ele>
        <time>2026-06-18T11:01:33.000Z</time>
      </trkpt>
      <trkpt lat="48.64048" lon="1.19343">
        <ele>180.19999694824</ele>
        <time>2026-06-18T11:01:37.000Z</time>
      </trkpt>
      <trkpt lat="48.64052" lon="1.19354">
        <ele>180</ele>
        <time>2026-06-18T11:01:38.000Z</time>
      </trkpt>
      <trkpt lat="48.64072" lon="1.19401">
        <ele>179</ele>
        <time>2026-06-18T11:01:42.000Z</time>
      </trkpt>
      <trkpt lat="48.64086" lon="1.19438">
        <ele>177.80000305176</ele>
        <time>2026-06-18T11:01:45.000Z</time>
      </trkpt>
      <trkpt lat="48.64097" lon="1.19462">
        <ele>176.80000305176</ele>
        <time>2026-06-18T11:01:47.000Z</time>
      </trkpt>
      <trkpt lat="48.64116" lon="1.1951">
        <ele>175.39999389648</ele>
        <time>2026-06-18T11:01:51.000Z</time>
      </trkpt>
      <trkpt lat="48.64135" lon="1.19556">
        <ele>174.39999389648</ele>
        <time>2026-06-18T11:01:55.000Z</time>
      </trkpt>
      <trkpt lat="48.64157" lon="1.19613">
        <ele>173.19999694824</ele>
        <time>2026-06-18T11:02:00.000Z</time>
      </trkpt>
      <trkpt lat="48.64176" lon="1.19654">
        <ele>172</ele>
        <time>2026-06-18T11:02:04.000Z</time>
      </trkpt>
      <trkpt lat="48.642" lon="1.19695">
        <ele>171.80000305176</ele>
        <time>2026-06-18T11:02:09.000Z</time>
      </trkpt>
      <trkpt lat="48.64207" lon="1.19707">
        <ele>171.60000610352</ele>
        <time>2026-06-18T11:02:12.000Z</time>
      </trkpt>
      <trkpt lat="48.64208" lon="1.19709">
        <ele>171.60000610352</ele>
        <time>2026-06-18T11:02:13.000Z</time>
      </trkpt>
      <trkpt lat="48.64208" lon="1.19709">
        <ele>171.39999389648</ele>
        <time>2026-06-18T11:02:15.000Z</time>
      </trkpt>
      <trkpt lat="48.64208" lon="1.19709">
        <ele>171</ele>
        <time>2026-06-18T11:02:19.000Z</time>
      </trkpt>
      <trkpt lat="48.64208" lon="1.19709">
        <ele>170.60000610352</ele>
        <time>2026-06-18T11:02:27.000Z</time>
      </trkpt>
      <trkpt lat="48.64213" lon="1.19713">
        <ele>170.80000305176</ele>
        <time>2026-06-18T11:03:08.000Z</time>
      </trkpt>
      <trkpt lat="48.64223" lon="1.19726">
        <ele>170.80000305176</ele>
        <time>2026-06-18T11:03:13.000Z</time>
      </trkpt>
      <trkpt lat="48.64231" lon="1.19737">
        <ele>170.60000610352</ele>
        <time>2026-06-18T11:03:17.000Z</time>
      </trkpt>
      <trkpt lat="48.64238" lon="1.19751">
        <ele>170.60000610352</ele>
        <time>2026-06-18T11:03:22.000Z</time>
      </trkpt>
      <trkpt lat="48.64251" lon="1.19768">
        <ele>170.39999389648</ele>
        <time>2026-06-18T11:03:29.000Z</time>
      </trkpt>
      <trkpt lat="48.64265" lon="1.19786">
        <ele>170.19999694824</ele>
        <time>2026-06-18T11:03:35.000Z</time>
      </trkpt>
      <trkpt lat="48.64275" lon="1.198">
        <ele>169.80000305176</ele>
        <time>2026-06-18T11:03:39.000Z</time>
      </trkpt>
      <trkpt lat="48.64296" lon="1.19832">
        <ele>169.39999389648</ele>
        <time>2026-06-18T11:03:45.000Z</time>
      </trkpt>
      <trkpt lat="48.64298" lon="1.19839">
        <ele>169</ele>
        <time>2026-06-18T11:03:46.000Z</time>
      </trkpt>
      <trkpt lat="48.643" lon="1.19848">
        <ele>168.80000305176</ele>
        <time>2026-06-18T11:03:47.000Z</time>
      </trkpt>
      <trkpt lat="48.64301" lon="1.19865">
        <ele>168.80000305176</ele>
        <time>2026-06-18T11:03:49.000Z</time>
      </trkpt>
      <trkpt lat="48.64297" lon="1.19883">
        <ele>168.60000610352</ele>
        <time>2026-06-18T11:03:51.000Z</time>
      </trkpt>
      <trkpt lat="48.64291" lon="1.19899">
        <ele>168.19999694824</ele>
        <time>2026-06-18T11:03:53.000Z</time>
      </trkpt>
      <trkpt lat="48.64278" lon="1.19926">
        <ele>167.60000610352</ele>
        <time>2026-06-18T11:03:58.000Z</time>
      </trkpt>
      <trkpt lat="48.6427" lon="1.19944">
        <ele>168.19999694824</ele>
        <time>2026-06-18T11:04:03.000Z</time>
      </trkpt>
      <trkpt lat="48.64267" lon="1.19964">
        <ele>169.39999389648</ele>
        <time>2026-06-18T11:04:08.000Z</time>
      </trkpt>
      <trkpt lat="48.64267" lon="1.1999">
        <ele>170.60000610352</ele>
        <time>2026-06-18T11:04:13.000Z</time>
      </trkpt>
      <trkpt lat="48.64271" lon="1.20037">
        <ele>171.39999389648</ele>
        <time>2026-06-18T11:04:21.000Z</time>
      </trkpt>
      <trkpt lat="48.64272" lon="1.20049">
        <ele>171.60000610352</ele>
        <time>2026-06-18T11:04:23.000Z</time>
      </trkpt>
      <trkpt lat="48.64274" lon="1.20067">
        <ele>172</ele>
        <time>2026-06-18T11:04:26.000Z</time>
      </trkpt>
      <trkpt lat="48.64278" lon="1.20096">
        <ele>172.19999694824</ele>
        <time>2026-06-18T11:04:31.000Z</time>
      </trkpt>
      <trkpt lat="48.64283" lon="1.20149">
        <ele>172.39999389648</ele>
        <time>2026-06-18T11:04:42.000Z</time>
      </trkpt>
      <trkpt lat="48.64285" lon="1.20169">
        <ele>172.60000610352</ele>
        <time>2026-06-18T11:04:46.000Z</time>
      </trkpt>
      <trkpt lat="48.64288" lon="1.20189">
        <ele>173</ele>
        <time>2026-06-18T11:04:50.000Z</time>
      </trkpt>
      <trkpt lat="48.64291" lon="1.20224">
        <ele>173.80000305176</ele>
        <time>2026-06-18T11:04:57.000Z</time>
      </trkpt>
      <trkpt lat="48.64291" lon="1.20229">
        <ele>174</ele>
        <time>2026-06-18T11:04:58.000Z</time>
      </trkpt>
      <trkpt lat="48.64292" lon="1.20267">
        <ele>174.39999389648</ele>
        <time>2026-06-18T11:05:05.000Z</time>
      </trkpt>
      <trkpt lat="48.64292" lon="1.20307">
        <ele>174.80000305176</ele>
        <time>2026-06-18T11:05:12.000Z</time>
      </trkpt>
      <trkpt lat="48.64292" lon="1.20317">
        <ele>175</ele>
        <time>2026-06-18T11:05:14.000Z</time>
      </trkpt>
      <trkpt lat="48.64291" lon="1.20354">
        <ele>175.60000610352</ele>
        <time>2026-06-18T11:05:21.000Z</time>
      </trkpt>
      <trkpt lat="48.64291" lon="1.20371">
        <ele>176</ele>
        <time>2026-06-18T11:05:24.000Z</time>
      </trkpt>
      <trkpt lat="48.64291" lon="1.20403">
        <ele>177</ele>
        <time>2026-06-18T11:05:29.000Z</time>
      </trkpt>
      <trkpt lat="48.64291" lon="1.20409">
        <ele>177</ele>
        <time>2026-06-18T11:05:30.000Z</time>
      </trkpt>
      <trkpt lat="48.64292" lon="1.20464">
        <ele>177.60000610352</ele>
        <time>2026-06-18T11:05:38.000Z</time>
      </trkpt>
      <trkpt lat="48.64298" lon="1.20525">
        <ele>178</ele>
        <time>2026-06-18T11:05:47.000Z</time>
      </trkpt>
      <trkpt lat="48.64309" lon="1.20587">
        <ele>178</ele>
        <time>2026-06-18T11:05:56.000Z</time>
      </trkpt>
      <trkpt lat="48.64324" lon="1.20643">
        <ele>178</ele>
        <time>2026-06-18T11:06:04.000Z</time>
      </trkpt>
      <trkpt lat="48.6434" lon="1.20701">
        <ele>177.60000610352</ele>
        <time>2026-06-18T11:06:12.000Z</time>
      </trkpt>
      <trkpt lat="48.64362" lon="1.20752">
        <ele>177.60000610352</ele>
        <time>2026-06-18T11:06:19.000Z</time>
      </trkpt>
      <trkpt lat="48.64395" lon="1.20818">
        <ele>176.60000610352</ele>
        <time>2026-06-18T11:06:28.000Z</time>
      </trkpt>
      <trkpt lat="48.64402" lon="1.20834">
        <ele>176.39999389648</ele>
        <time>2026-06-18T11:06:30.000Z</time>
      </trkpt>
      <trkpt lat="48.64414" lon="1.20859">
        <ele>176.19999694824</ele>
        <time>2026-06-18T11:06:33.000Z</time>
      </trkpt>
      <trkpt lat="48.64436" lon="1.20912">
        <ele>175.80000305176</ele>
        <time>2026-06-18T11:06:39.000Z</time>
      </trkpt>
      <trkpt lat="48.64458" lon="1.20977">
        <ele>175.39999389648</ele>
        <time>2026-06-18T11:06:47.000Z</time>
      </trkpt>
      <trkpt lat="48.64476" lon="1.21035">
        <ele>176.80000305176</ele>
        <time>2026-06-18T11:06:55.000Z</time>
      </trkpt>
      <trkpt lat="48.6448" lon="1.21056">
        <ele>177.39999389648</ele>
        <time>2026-06-18T11:06:58.000Z</time>
      </trkpt>
      <trkpt lat="48.64482" lon="1.21063">
        <ele>177.80000305176</ele>
        <time>2026-06-18T11:06:59.000Z</time>
      </trkpt>
      <trkpt lat="48.64493" lon="1.21105">
        <ele>178.60000610352</ele>
        <time>2026-06-18T11:07:05.000Z</time>
      </trkpt>
      <trkpt lat="48.64494" lon="1.21112">
        <ele>178.80000305176</ele>
        <time>2026-06-18T11:07:06.000Z</time>
      </trkpt>
      <trkpt lat="48.64497" lon="1.21126">
        <ele>179.80000305176</ele>
        <time>2026-06-18T11:07:08.000Z</time>
      </trkpt>
      <trkpt lat="48.64503" lon="1.21151">
        <ele>180.80000305176</ele>
        <time>2026-06-18T11:07:12.000Z</time>
      </trkpt>
      <trkpt lat="48.64511" lon="1.21176">
        <ele>182.19999694824</ele>
        <time>2026-06-18T11:07:16.000Z</time>
      </trkpt>
      <trkpt lat="48.64519" lon="1.21194">
        <ele>183.19999694824</ele>
        <time>2026-06-18T11:07:19.000Z</time>
      </trkpt>
      <trkpt lat="48.64533" lon="1.21216">
        <ele>183.80000305176</ele>
        <time>2026-06-18T11:07:23.000Z</time>
      </trkpt>
      <trkpt lat="48.64554" lon="1.21246">
        <ele>184.19999694824</ele>
        <time>2026-06-18T11:07:29.000Z</time>
      </trkpt>
      <trkpt lat="48.64567" lon="1.21262">
        <ele>184.19999694824</ele>
        <time>2026-06-18T11:07:32.000Z</time>
      </trkpt>
      <trkpt lat="48.64604" lon="1.2131">
        <ele>183.80000305176</ele>
        <time>2026-06-18T11:07:41.000Z</time>
      </trkpt>
      <trkpt lat="48.64619" lon="1.21331">
        <ele>184</ele>
        <time>2026-06-18T11:07:45.000Z</time>
      </trkpt>
      <trkpt lat="48.64623" lon="1.21342">
        <ele>183.80000305176</ele>
        <time>2026-06-18T11:07:47.000Z</time>
      </trkpt>
      <trkpt lat="48.64619" lon="1.21355">
        <ele>183.80000305176</ele>
        <time>2026-06-18T11:07:49.000Z</time>
      </trkpt>
      <trkpt lat="48.64616" lon="1.21359">
        <ele>183.80000305176</ele>
        <time>2026-06-18T11:07:50.000Z</time>
      </trkpt>
      <trkpt lat="48.64611" lon="1.21361">
        <ele>183.80000305176</ele>
        <time>2026-06-18T11:07:51.000Z</time>
      </trkpt>
      <trkpt lat="48.64591" lon="1.21367">
        <ele>183.80000305176</ele>
        <time>2026-06-18T11:07:55.000Z</time>
      </trkpt>
      <trkpt lat="48.64542" lon="1.21385">
        <ele>184.39999389648</ele>
        <time>2026-06-18T11:08:05.000Z</time>
      </trkpt>
      <trkpt lat="48.64532" lon="1.2139">
        <ele>184.39999389648</ele>
        <time>2026-06-18T11:08:07.000Z</time>
      </trkpt>
      <trkpt lat="48.64524" lon="1.21396">
        <ele>184.60000610352</ele>
        <time>2026-06-18T11:08:09.000Z</time>
      </trkpt>
      <trkpt lat="48.64516" lon="1.21404">
        <ele>184.60000610352</ele>
        <time>2026-06-18T11:08:11.000Z</time>
      </trkpt>
      <trkpt lat="48.64512" lon="1.21408">
        <ele>184.80000305176</ele>
        <time>2026-06-18T11:08:12.000Z</time>
      </trkpt>
      <trkpt lat="48.64506" lon="1.21417">
        <ele>185</ele>
        <time>2026-06-18T11:08:14.000Z</time>
      </trkpt>
      <trkpt lat="48.64498" lon="1.21431">
        <ele>185</ele>
        <time>2026-06-18T11:08:16.000Z</time>
      </trkpt>
      <trkpt lat="48.64495" lon="1.21438">
        <ele>185</ele>
        <time>2026-06-18T11:08:17.000Z</time>
      </trkpt>
      <trkpt lat="48.64478" lon="1.21487">
        <ele>185</ele>
        <time>2026-06-18T11:08:24.000Z</time>
      </trkpt>
      <trkpt lat="48.6445" lon="1.21557">
        <ele>185.39999389648</ele>
        <time>2026-06-18T11:08:34.000Z</time>
      </trkpt>
      <trkpt lat="48.64417" lon="1.21631">
        <ele>185.39999389648</ele>
        <time>2026-06-18T11:08:45.000Z</time>
      </trkpt>
      <trkpt lat="48.64411" lon="1.21645">
        <ele>185.19999694824</ele>
        <time>2026-06-18T11:08:47.000Z</time>
      </trkpt>
      <trkpt lat="48.64388" lon="1.21702">
        <ele>185.19999694824</ele>
        <time>2026-06-18T11:08:55.000Z</time>
      </trkpt>
      <trkpt lat="48.64359" lon="1.21771">
        <ele>185</ele>
        <time>2026-06-18T11:09:05.000Z</time>
      </trkpt>
      <trkpt lat="48.64327" lon="1.2184">
        <ele>185</ele>
        <time>2026-06-18T11:09:15.000Z</time>
      </trkpt>
      <trkpt lat="48.643" lon="1.21886">
        <ele>184.80000305176</ele>
        <time>2026-06-18T11:09:22.000Z</time>
      </trkpt>
      <trkpt lat="48.64281" lon="1.21916">
        <ele>185.19999694824</ele>
        <time>2026-06-18T11:09:27.000Z</time>
      </trkpt>
      <trkpt lat="48.64247" lon="1.21975">
        <ele>185.39999389648</ele>
        <time>2026-06-18T11:09:36.000Z</time>
      </trkpt>
      <trkpt lat="48.64219" lon="1.22019">
        <ele>184.80000305176</ele>
        <time>2026-06-18T11:09:43.000Z</time>
      </trkpt>
      <trkpt lat="48.64195" lon="1.2204">
        <ele>184.39999389648</ele>
        <time>2026-06-18T11:09:47.000Z</time>
      </trkpt>
      <trkpt lat="48.64184" lon="1.22048">
        <ele>184</ele>
        <time>2026-06-18T11:09:49.000Z</time>
      </trkpt>
      <trkpt lat="48.64149" lon="1.2206">
        <ele>183.39999389648</ele>
        <time>2026-06-18T11:09:55.000Z</time>
      </trkpt>
      <trkpt lat="48.64137" lon="1.22065">
        <ele>183</ele>
        <time>2026-06-18T11:09:57.000Z</time>
      </trkpt>
      <trkpt lat="48.64095" lon="1.22085">
        <ele>182.80000305176</ele>
        <time>2026-06-18T11:10:04.000Z</time>
      </trkpt>
      <trkpt lat="48.64067" lon="1.22104">
        <ele>182.60000610352</ele>
        <time>2026-06-18T11:10:09.000Z</time>
      </trkpt>
      <trkpt lat="48.64057" lon="1.22115">
        <ele>182.60000610352</ele>
        <time>2026-06-18T11:10:11.000Z</time>
      </trkpt>
      <trkpt lat="48.64052" lon="1.22121">
        <ele>182.39999389648</ele>
        <time>2026-06-18T11:10:12.000Z</time>
      </trkpt>
      <trkpt lat="48.64025" lon="1.22163">
        <ele>181.60000610352</ele>
        <time>2026-06-18T11:10:18.000Z</time>
      </trkpt>
      <trkpt lat="48.64008" lon="1.22195">
        <ele>181.19999694824</ele>
        <time>2026-06-18T11:10:22.000Z</time>
      </trkpt>
      <trkpt lat="48.63997" lon="1.22221">
        <ele>180.80000305176</ele>
        <time>2026-06-18T11:10:25.000Z</time>
      </trkpt>
      <trkpt lat="48.63995" lon="1.22231">
        <ele>180.60000610352</ele>
        <time>2026-06-18T11:10:26.000Z</time>
      </trkpt>
      <trkpt lat="48.63992" lon="1.22253">
        <ele>180.39999389648</ele>
        <time>2026-06-18T11:10:28.000Z</time>
      </trkpt>
      <trkpt lat="48.63991" lon="1.22264">
        <ele>180.19999694824</ele>
        <time>2026-06-18T11:10:29.000Z</time>
      </trkpt>
      <trkpt lat="48.63991" lon="1.22276">
        <ele>180</ele>
        <time>2026-06-18T11:10:30.000Z</time>
      </trkpt>
      <trkpt lat="48.63995" lon="1.223">
        <ele>179.60000610352</ele>
        <time>2026-06-18T11:10:32.000Z</time>
      </trkpt>
      <trkpt lat="48.63998" lon="1.22311">
        <ele>179.19999694824</ele>
        <time>2026-06-18T11:10:33.000Z</time>
      </trkpt>
      <trkpt lat="48.64002" lon="1.22322">
        <ele>179</ele>
        <time>2026-06-18T11:10:34.000Z</time>
      </trkpt>
      <trkpt lat="48.6402" lon="1.22367">
        <ele>178</ele>
        <time>2026-06-18T11:10:38.000Z</time>
      </trkpt>
      <trkpt lat="48.64024" lon="1.22379">
        <ele>177.60000610352</ele>
        <time>2026-06-18T11:10:39.000Z</time>
      </trkpt>
      <trkpt lat="48.64027" lon="1.22391">
        <ele>177</ele>
        <time>2026-06-18T11:10:40.000Z</time>
      </trkpt>
      <trkpt lat="48.6403" lon="1.22403">
        <ele>176.60000610352</ele>
        <time>2026-06-18T11:10:42.000Z</time>
      </trkpt>
      <trkpt lat="48.64033" lon="1.22417">
        <ele>176.19999694824</ele>
        <time>2026-06-18T11:10:43.000Z</time>
      </trkpt>
      <trkpt lat="48.64031" lon="1.22458">
        <ele>175.60000610352</ele>
        <time>2026-06-18T11:10:46.000Z</time>
      </trkpt>
      <trkpt lat="48.64024" lon="1.22474">
        <ele>175.39999389648</ele>
        <time>2026-06-18T11:10:48.000Z</time>
      </trkpt>
      <trkpt lat="48.64019" lon="1.2248">
        <ele>175.39999389648</ele>
        <time>2026-06-18T11:10:49.000Z</time>
      </trkpt>
      <trkpt lat="48.64009" lon="1.22493">
        <ele>175.60000610352</ele>
        <time>2026-06-18T11:10:51.000Z</time>
      </trkpt>
      <trkpt lat="48.63994" lon="1.22507">
        <ele>176.60000610352</ele>
        <time>2026-06-18T11:10:54.000Z</time>
      </trkpt>
      <trkpt lat="48.63989" lon="1.22511">
        <ele>176.80000305176</ele>
        <time>2026-06-18T11:10:55.000Z</time>
      </trkpt>
      <trkpt lat="48.63972" lon="1.22522">
        <ele>177.60000610352</ele>
        <time>2026-06-18T11:10:58.000Z</time>
      </trkpt>
      <trkpt lat="48.63967" lon="1.22524">
        <ele>178</ele>
        <time>2026-06-18T11:10:59.000Z</time>
      </trkpt>
      <trkpt lat="48.63947" lon="1.22533">
        <ele>179</ele>
        <time>2026-06-18T11:11:03.000Z</time>
      </trkpt>
      <trkpt lat="48.63937" lon="1.2254">
        <ele>179.19999694824</ele>
        <time>2026-06-18T11:11:05.000Z</time>
      </trkpt>
      <trkpt lat="48.6393" lon="1.2255">
        <ele>179.80000305176</ele>
        <time>2026-06-18T11:11:07.000Z</time>
      </trkpt>
      <trkpt lat="48.63926" lon="1.22556">
        <ele>180</ele>
        <time>2026-06-18T11:11:08.000Z</time>
      </trkpt>
      <trkpt lat="48.63921" lon="1.22568">
        <ele>180.19999694824</ele>
        <time>2026-06-18T11:11:10.000Z</time>
      </trkpt>
      <trkpt lat="48.63908" lon="1.22596">
        <ele>180.19999694824</ele>
        <time>2026-06-18T11:11:15.000Z</time>
      </trkpt>
      <trkpt lat="48.63908" lon="1.22611">
        <ele>180.19999694824</ele>
        <time>2026-06-18T11:11:18.000Z</time>
      </trkpt>
      <trkpt lat="48.63912" lon="1.22619">
        <ele>180.39999389648</ele>
        <time>2026-06-18T11:11:20.000Z</time>
      </trkpt>
      <trkpt lat="48.63921" lon="1.22628">
        <ele>180.39999389648</ele>
        <time>2026-06-18T11:11:22.000Z</time>
      </trkpt>
      <trkpt lat="48.63949" lon="1.22657">
        <ele>180.39999389648</ele>
        <time>2026-06-18T11:11:29.000Z</time>
      </trkpt>
      <trkpt lat="48.63983" lon="1.22703">
        <ele>180.19999694824</ele>
        <time>2026-06-18T11:11:37.000Z</time>
      </trkpt>
      <trkpt lat="48.63997" lon="1.22734">
        <ele>180.39999389648</ele>
        <time>2026-06-18T11:11:41.000Z</time>
      </trkpt>
      <trkpt lat="48.64" lon="1.22743">
        <ele>180.39999389648</ele>
        <time>2026-06-18T11:11:42.000Z</time>
      </trkpt>
      <trkpt lat="48.64009" lon="1.22769">
        <ele>180.19999694824</ele>
        <time>2026-06-18T11:11:45.000Z</time>
      </trkpt>
      <trkpt lat="48.64021" lon="1.2279">
        <ele>180</ele>
        <time>2026-06-18T11:11:48.000Z</time>
      </trkpt>
      <trkpt lat="48.64045" lon="1.22813">
        <ele>179.80000305176</ele>
        <time>2026-06-18T11:11:53.000Z</time>
      </trkpt>
      <trkpt lat="48.64077" lon="1.22836">
        <ele>179.80000305176</ele>
        <time>2026-06-18T11:11:59.000Z</time>
      </trkpt>
      <trkpt lat="48.64126" lon="1.22875">
        <ele>179.80000305176</ele>
        <time>2026-06-18T11:12:08.000Z</time>
      </trkpt>
      <trkpt lat="48.64164" lon="1.2292">
        <ele>179.60000610352</ele>
        <time>2026-06-18T11:12:16.000Z</time>
      </trkpt>
      <trkpt lat="48.6417" lon="1.22924">
        <ele>179.60000610352</ele>
        <time>2026-06-18T11:12:17.000Z</time>
      </trkpt>
      <trkpt lat="48.64192" lon="1.22937">
        <ele>179.39999389648</ele>
        <time>2026-06-18T11:12:21.000Z</time>
      </trkpt>
      <trkpt lat="48.64215" lon="1.22946">
        <ele>179.19999694824</ele>
        <time>2026-06-18T11:12:25.000Z</time>
      </trkpt>
      <trkpt lat="48.64232" lon="1.22954">
        <ele>179</ele>
        <time>2026-06-18T11:12:28.000Z</time>
      </trkpt>
      <trkpt lat="48.64261" lon="1.22966">
        <ele>179</ele>
        <time>2026-06-18T11:12:33.000Z</time>
      </trkpt>
      <trkpt lat="48.64273" lon="1.22969">
        <ele>179</ele>
        <time>2026-06-18T11:12:35.000Z</time>
      </trkpt>
      <trkpt lat="48.64314" lon="1.22987">
        <ele>179.19999694824</ele>
        <time>2026-06-18T11:12:42.000Z</time>
      </trkpt>
      <trkpt lat="48.64319" lon="1.22991">
        <ele>179.19999694824</ele>
        <time>2026-06-18T11:12:43.000Z</time>
      </trkpt>
      <trkpt lat="48.64354" lon="1.23024">
        <ele>179.39999389648</ele>
        <time>2026-06-18T11:12:50.000Z</time>
      </trkpt>
      <trkpt lat="48.64359" lon="1.23031">
        <ele>179.39999389648</ele>
        <time>2026-06-18T11:12:51.000Z</time>
      </trkpt>
      <trkpt lat="48.64363" lon="1.23039">
        <ele>179.19999694824</ele>
        <time>2026-06-18T11:12:52.000Z</time>
      </trkpt>
      <trkpt lat="48.64374" lon="1.23068">
        <ele>178.60000610352</ele>
        <time>2026-06-18T11:12:55.000Z</time>
      </trkpt>
      <trkpt lat="48.64384" lon="1.23101">
        <ele>178.19999694824</ele>
        <time>2026-06-18T11:12:58.000Z</time>
      </trkpt>
      <trkpt lat="48.64395" lon="1.23135">
        <ele>177</ele>
        <time>2026-06-18T11:13:01.000Z</time>
      </trkpt>
      <trkpt lat="48.64399" lon="1.23147">
        <ele>176.80000305176</ele>
        <time>2026-06-18T11:13:02.000Z</time>
      </trkpt>
      <trkpt lat="48.6441" lon="1.23183">
        <ele>176</ele>
        <time>2026-06-18T11:13:05.000Z</time>
      </trkpt>
      <trkpt lat="48.64422" lon="1.23219">
        <ele>175.19999694824</ele>
        <time>2026-06-18T11:13:08.000Z</time>
      </trkpt>
      <trkpt lat="48.6443" lon="1.23243">
        <ele>174</ele>
        <time>2026-06-18T11:13:10.000Z</time>
      </trkpt>
      <trkpt lat="48.64447" lon="1.23295">
        <ele>173</ele>
        <time>2026-06-18T11:13:15.000Z</time>
      </trkpt>
      <trkpt lat="48.64453" lon="1.23309">
        <ele>173</ele>
        <time>2026-06-18T11:13:16.000Z</time>
      </trkpt>
      <trkpt lat="48.64462" lon="1.23329">
        <ele>172.80000305176</ele>
        <time>2026-06-18T11:13:18.000Z</time>
      </trkpt>
      <trkpt lat="48.64496" lon="1.23388">
        <ele>172.80000305176</ele>
        <time>2026-06-18T11:13:25.000Z</time>
      </trkpt>
      <trkpt lat="48.64529" lon="1.23446">
        <ele>173.80000305176</ele>
        <time>2026-06-18T11:13:33.000Z</time>
      </trkpt>
      <trkpt lat="48.64534" lon="1.23453">
        <ele>174</ele>
        <time>2026-06-18T11:13:34.000Z</time>
      </trkpt>
      <trkpt lat="48.64562" lon="1.2349">
        <ele>174.60000610352</ele>
        <time>2026-06-18T11:13:40.000Z</time>
      </trkpt>
      <trkpt lat="48.64598" lon="1.2353">
        <ele>174.19999694824</ele>
        <time>2026-06-18T11:13:46.000Z</time>
      </trkpt>
      <trkpt lat="48.64639" lon="1.23582">
        <ele>172.60000610352</ele>
        <time>2026-06-18T11:13:52.000Z</time>
      </trkpt>
      <trkpt lat="48.6466" lon="1.23613">
        <ele>171.60000610352</ele>
        <time>2026-06-18T11:13:55.000Z</time>
      </trkpt>
      <trkpt lat="48.64672" lon="1.23635">
        <ele>170.39999389648</ele>
        <time>2026-06-18T11:13:57.000Z</time>
      </trkpt>
      <trkpt lat="48.64694" lon="1.23666">
        <ele>169.19999694824</ele>
        <time>2026-06-18T11:14:00.000Z</time>
      </trkpt>
      <trkpt lat="48.6471" lon="1.23685">
        <ele>168.60000610352</ele>
        <time>2026-06-18T11:14:02.000Z</time>
      </trkpt>
      <trkpt lat="48.64726" lon="1.23701">
        <ele>168</ele>
        <time>2026-06-18T11:14:04.000Z</time>
      </trkpt>
      <trkpt lat="48.64735" lon="1.23709">
        <ele>166.80000305176</ele>
        <time>2026-06-18T11:14:05.000Z</time>
      </trkpt>
      <trkpt lat="48.64752" lon="1.23723">
        <ele>165.60000610352</ele>
        <time>2026-06-18T11:14:07.000Z</time>
      </trkpt>
      <trkpt lat="48.64772" lon="1.23735">
        <ele>164</ele>
        <time>2026-06-18T11:14:09.000Z</time>
      </trkpt>
      <trkpt lat="48.64794" lon="1.23744">
        <ele>162.60000610352</ele>
        <time>2026-06-18T11:14:11.000Z</time>
      </trkpt>
      <trkpt lat="48.64817" lon="1.23749">
        <ele>161.39999389648</ele>
        <time>2026-06-18T11:14:13.000Z</time>
      </trkpt>
      <trkpt lat="48.64841" lon="1.23752">
        <ele>160.19999694824</ele>
        <time>2026-06-18T11:14:15.000Z</time>
      </trkpt>
      <trkpt lat="48.64865" lon="1.23755">
        <ele>159</ele>
        <time>2026-06-18T11:14:17.000Z</time>
      </trkpt>
      <trkpt lat="48.64888" lon="1.23755">
        <ele>157.60000610352</ele>
        <time>2026-06-18T11:14:19.000Z</time>
      </trkpt>
      <trkpt lat="48.64899" lon="1.23755">
        <ele>157.19999694824</ele>
        <time>2026-06-18T11:14:20.000Z</time>
      </trkpt>
      <trkpt lat="48.64909" lon="1.23754">
        <ele>156.39999389648</ele>
        <time>2026-06-18T11:14:21.000Z</time>
      </trkpt>
      <trkpt lat="48.64946" lon="1.23752">
        <ele>155.80000305176</ele>
        <time>2026-06-18T11:14:25.000Z</time>
      </trkpt>
      <trkpt lat="48.64955" lon="1.23752">
        <ele>155.60000610352</ele>
        <time>2026-06-18T11:14:26.000Z</time>
      </trkpt>
      <trkpt lat="48.64983" lon="1.23756">
        <ele>155.39999389648</ele>
        <time>2026-06-18T11:14:29.000Z</time>
      </trkpt>
      <trkpt lat="48.6502" lon="1.23778">
        <ele>154.80000305176</ele>
        <time>2026-06-18T11:14:33.000Z</time>
      </trkpt>
      <trkpt lat="48.6507" lon="1.23829">
        <ele>154.60000610352</ele>
        <time>2026-06-18T11:14:40.000Z</time>
      </trkpt>
      <trkpt lat="48.65097" lon="1.23857">
        <ele>154.39999389648</ele>
        <time>2026-06-18T11:14:44.000Z</time>
      </trkpt>
      <trkpt lat="48.65109" lon="1.23871">
        <ele>154.39999389648</ele>
        <time>2026-06-18T11:14:46.000Z</time>
      </trkpt>
      <trkpt lat="48.65142" lon="1.23908">
        <ele>153.80000305176</ele>
        <time>2026-06-18T11:14:52.000Z</time>
      </trkpt>
      <trkpt lat="48.65158" lon="1.23928">
        <ele>153.60000610352</ele>
        <time>2026-06-18T11:14:55.000Z</time>
      </trkpt>
      <trkpt lat="48.65169" lon="1.23942">
        <ele>153.39999389648</ele>
        <time>2026-06-18T11:14:57.000Z</time>
      </trkpt>
      <trkpt lat="48.65184" lon="1.23963">
        <ele>153.39999389648</ele>
        <time>2026-06-18T11:15:00.000Z</time>
      </trkpt>
      <trkpt lat="48.65207" lon="1.23991">
        <ele>153</ele>
        <time>2026-06-18T11:15:04.000Z</time>
      </trkpt>
      <trkpt lat="48.65238" lon="1.24029">
        <ele>152.80000305176</ele>
        <time>2026-06-18T11:15:10.000Z</time>
      </trkpt>
      <trkpt lat="48.65254" lon="1.24047">
        <ele>152.80000305176</ele>
        <time>2026-06-18T11:15:13.000Z</time>
      </trkpt>
      <trkpt lat="48.65276" lon="1.24071">
        <ele>152.60000610352</ele>
        <time>2026-06-18T11:15:17.000Z</time>
      </trkpt>
      <trkpt lat="48.65315" lon="1.24104">
        <ele>152.60000610352</ele>
        <time>2026-06-18T11:15:24.000Z</time>
      </trkpt>
      <trkpt lat="48.65345" lon="1.24125">
        <ele>152.60000610352</ele>
        <time>2026-06-18T11:15:29.000Z</time>
      </trkpt>
      <trkpt lat="48.6535" lon="1.2413">
        <ele>152.60000610352</ele>
        <time>2026-06-18T11:15:30.000Z</time>
      </trkpt>
      <trkpt lat="48.65355" lon="1.24135">
        <ele>152.60000610352</ele>
        <time>2026-06-18T11:15:31.000Z</time>
      </trkpt>
      <trkpt lat="48.65369" lon="1.24149">
        <ele>152.60000610352</ele>
        <time>2026-06-18T11:15:33.000Z</time>
      </trkpt>
      <trkpt lat="48.65375" lon="1.24157">
        <ele>152.60000610352</ele>
        <time>2026-06-18T11:15:34.000Z</time>
      </trkpt>
      <trkpt lat="48.65384" lon="1.2417">
        <ele>152.60000610352</ele>
        <time>2026-06-18T11:15:36.000Z</time>
      </trkpt>
      <trkpt lat="48.6539" lon="1.24184">
        <ele>152.19999694824</ele>
        <time>2026-06-18T11:15:38.000Z</time>
      </trkpt>
      <trkpt lat="48.65393" lon="1.24192">
        <ele>152.19999694824</ele>
        <time>2026-06-18T11:15:39.000Z</time>
      </trkpt>
      <trkpt lat="48.65422" lon="1.24244">
        <ele>152</ele>
        <time>2026-06-18T11:15:46.000Z</time>
      </trkpt>
      <trkpt lat="48.65448" lon="1.24283">
        <ele>152</ele>
        <time>2026-06-18T11:15:52.000Z</time>
      </trkpt>
      <trkpt lat="48.65469" lon="1.24316">
        <ele>151.80000305176</ele>
        <time>2026-06-18T11:15:57.000Z</time>
      </trkpt>
      <trkpt lat="48.65478" lon="1.24329">
        <ele>151.80000305176</ele>
        <time>2026-06-18T11:15:59.000Z</time>
      </trkpt>
      <trkpt lat="48.65486" lon="1.24341">
        <ele>151.80000305176</ele>
        <time>2026-06-18T11:16:01.000Z</time>
      </trkpt>
      <trkpt lat="48.65495" lon="1.24354">
        <ele>151.80000305176</ele>
        <time>2026-06-18T11:16:03.000Z</time>
      </trkpt>
      <trkpt lat="48.6552" lon="1.24394">
        <ele>152</ele>
        <time>2026-06-18T11:16:09.000Z</time>
      </trkpt>
      <trkpt lat="48.65528" lon="1.24413">
        <ele>152.39999389648</ele>
        <time>2026-06-18T11:16:11.000Z</time>
      </trkpt>
      <trkpt lat="48.6554" lon="1.24436">
        <ele>152.60000610352</ele>
        <time>2026-06-18T11:16:14.000Z</time>
      </trkpt>
      <trkpt lat="48.6556" lon="1.24452">
        <ele>152.80000305176</ele>
        <time>2026-06-18T11:16:18.000Z</time>
      </trkpt>
      <trkpt lat="48.65576" lon="1.24467">
        <ele>153</ele>
        <time>2026-06-18T11:16:20.000Z</time>
      </trkpt>
      <trkpt lat="48.65584" lon="1.24484">
        <ele>153</ele>
        <time>2026-06-18T11:16:22.000Z</time>
      </trkpt>
      <trkpt lat="48.65586" lon="1.24492">
        <ele>153</ele>
        <time>2026-06-18T11:16:23.000Z</time>
      </trkpt>
      <trkpt lat="48.6559" lon="1.245">
        <ele>153</ele>
        <time>2026-06-18T11:16:25.000Z</time>
      </trkpt>
      <trkpt lat="48.65599" lon="1.24513">
        <ele>152.80000305176</ele>
        <time>2026-06-18T11:16:28.000Z</time>
      </trkpt>
      <trkpt lat="48.65602" lon="1.2452">
        <ele>152.80000305176</ele>
        <time>2026-06-18T11:16:29.000Z</time>
      </trkpt>
      <trkpt lat="48.65614" lon="1.24546">
        <ele>153</ele>
        <time>2026-06-18T11:16:32.000Z</time>
      </trkpt>
      <trkpt lat="48.6562" lon="1.24562">
        <ele>153</ele>
        <time>2026-06-18T11:16:34.000Z</time>
      </trkpt>
      <trkpt lat="48.65625" lon="1.24577">
        <ele>153.19999694824</ele>
        <time>2026-06-18T11:16:36.000Z</time>
      </trkpt>
      <trkpt lat="48.65625" lon="1.24592">
        <ele>153.39999389648</ele>
        <time>2026-06-18T11:16:38.000Z</time>
      </trkpt>
      <trkpt lat="48.65626" lon="1.246">
        <ele>153.39999389648</ele>
        <time>2026-06-18T11:16:39.000Z</time>
      </trkpt>
      <trkpt lat="48.65625" lon="1.24614">
        <ele>153.60000610352</ele>
        <time>2026-06-18T11:16:41.000Z</time>
      </trkpt>
      <trkpt lat="48.65624" lon="1.24621">
        <ele>153.80000305176</ele>
        <time>2026-06-18T11:16:42.000Z</time>
      </trkpt>
      <trkpt lat="48.65624" lon="1.24643">
        <ele>154.19999694824</ele>
        <time>2026-06-18T11:16:45.000Z</time>
      </trkpt>
      <trkpt lat="48.65623" lon="1.2465">
        <ele>154.19999694824</ele>
        <time>2026-06-18T11:16:46.000Z</time>
      </trkpt>
      <trkpt lat="48.65622" lon="1.24656">
        <ele>154.60000610352</ele>
        <time>2026-06-18T11:16:47.000Z</time>
      </trkpt>
      <trkpt lat="48.6562" lon="1.24682">
        <ele>155.60000610352</ele>
        <time>2026-06-18T11:16:51.000Z</time>
      </trkpt>
      <trkpt lat="48.6562" lon="1.24689">
        <ele>155.80000305176</ele>
        <time>2026-06-18T11:16:52.000Z</time>
      </trkpt>
      <trkpt lat="48.65619" lon="1.2471">
        <ele>156.80000305176</ele>
        <time>2026-06-18T11:16:56.000Z</time>
      </trkpt>
      <trkpt lat="48.65619" lon="1.24715">
        <ele>156.80000305176</ele>
        <time>2026-06-18T11:16:57.000Z</time>
      </trkpt>
      <trkpt lat="48.65615" lon="1.24741">
        <ele>157.80000305176</ele>
        <time>2026-06-18T11:17:02.000Z</time>
      </trkpt>
      <trkpt lat="48.65614" lon="1.24745">
        <ele>158</ele>
        <time>2026-06-18T11:17:03.000Z</time>
      </trkpt>
      <trkpt lat="48.65617" lon="1.24761">
        <ele>159</ele>
        <time>2026-06-18T11:17:07.000Z</time>
      </trkpt>
      <trkpt lat="48.65616" lon="1.24763">
        <ele>159.19999694824</ele>
        <time>2026-06-18T11:17:08.000Z</time>
      </trkpt>
      <trkpt lat="48.65616" lon="1.24769">
        <ele>159.60000610352</ele>
        <time>2026-06-18T11:17:10.000Z</time>
      </trkpt>
      <trkpt lat="48.65614" lon="1.24775">
        <ele>159.80000305176</ele>
        <time>2026-06-18T11:17:12.000Z</time>
      </trkpt>
      <trkpt lat="48.6561" lon="1.24784">
        <ele>160.19999694824</ele>
        <time>2026-06-18T11:17:15.000Z</time>
      </trkpt>
      <trkpt lat="48.65606" lon="1.24796">
        <ele>160.60000610352</ele>
        <time>2026-06-18T11:17:18.000Z</time>
      </trkpt>
      <trkpt lat="48.65601" lon="1.24822">
        <ele>160.60000610352</ele>
        <time>2026-06-18T11:17:24.000Z</time>
      </trkpt>
      <trkpt lat="48.65592" lon="1.24837">
        <ele>160.60000610352</ele>
        <time>2026-06-18T11:17:27.000Z</time>
      </trkpt>
      <trkpt lat="48.6559" lon="1.24843">
        <ele>160.39999389648</ele>
        <time>2026-06-18T11:17:28.000Z</time>
      </trkpt>
      <trkpt lat="48.6559" lon="1.24865">
        <ele>160.60000610352</ele>
        <time>2026-06-18T11:17:32.000Z</time>
      </trkpt>
      <trkpt lat="48.65586" lon="1.24877">
        <ele>160.39999389648</ele>
        <time>2026-06-18T11:17:34.000Z</time>
      </trkpt>
      <trkpt lat="48.65584" lon="1.24889">
        <ele>160.19999694824</ele>
        <time>2026-06-18T11:17:36.000Z</time>
      </trkpt>
      <trkpt lat="48.65579" lon="1.24922">
        <ele>159.80000305176</ele>
        <time>2026-06-18T11:17:42.000Z</time>
      </trkpt>
      <trkpt lat="48.65578" lon="1.24928">
        <ele>159.80000305176</ele>
        <time>2026-06-18T11:17:43.000Z</time>
      </trkpt>
      <trkpt lat="48.6557" lon="1.24953">
        <ele>159.60000610352</ele>
        <time>2026-06-18T11:17:47.000Z</time>
      </trkpt>
      <trkpt lat="48.65568" lon="1.2496">
        <ele>159.60000610352</ele>
        <time>2026-06-18T11:17:48.000Z</time>
      </trkpt>
      <trkpt lat="48.6556" lon="1.24981">
        <ele>159.60000610352</ele>
        <time>2026-06-18T11:17:51.000Z</time>
      </trkpt>
      <trkpt lat="48.65557" lon="1.24994">
        <ele>159.60000610352</ele>
        <time>2026-06-18T11:17:53.000Z</time>
      </trkpt>
      <trkpt lat="48.65549" lon="1.25008">
        <ele>159.39999389648</ele>
        <time>2026-06-18T11:17:55.000Z</time>
      </trkpt>
      <trkpt lat="48.65545" lon="1.2502">
        <ele>159.39999389648</ele>
        <time>2026-06-18T11:17:57.000Z</time>
      </trkpt>
      <trkpt lat="48.65541" lon="1.25027">
        <ele>159.19999694824</ele>
        <time>2026-06-18T11:17:58.000Z</time>
      </trkpt>
      <trkpt lat="48.65538" lon="1.2504">
        <ele>159.19999694824</ele>
        <time>2026-06-18T11:18:00.000Z</time>
      </trkpt>
      <trkpt lat="48.65534" lon="1.25053">
        <ele>159.19999694824</ele>
        <time>2026-06-18T11:18:02.000Z</time>
      </trkpt>
      <trkpt lat="48.6553" lon="1.25066">
        <ele>159</ele>
        <time>2026-06-18T11:18:04.000Z</time>
      </trkpt>
      <trkpt lat="48.65524" lon="1.2508">
        <ele>159</ele>
        <time>2026-06-18T11:18:06.000Z</time>
      </trkpt>
      <trkpt lat="48.6552" lon="1.25097">
        <ele>158.60000610352</ele>
        <time>2026-06-18T11:18:08.000Z</time>
      </trkpt>
      <trkpt lat="48.65514" lon="1.25113">
        <ele>158.19999694824</ele>
        <time>2026-06-18T11:18:10.000Z</time>
      </trkpt>
      <trkpt lat="48.65513" lon="1.2513">
        <ele>158</ele>
        <time>2026-06-18T11:18:12.000Z</time>
      </trkpt>
      <trkpt lat="48.65509" lon="1.25139">
        <ele>157.80000305176</ele>
        <time>2026-06-18T11:18:13.000Z</time>
      </trkpt>
      <trkpt lat="48.65495" lon="1.25171">
        <ele>156.60000610352</ele>
        <time>2026-06-18T11:18:17.000Z</time>
      </trkpt>
      <trkpt lat="48.65487" lon="1.25186">
        <ele>155.80000305176</ele>
        <time>2026-06-18T11:18:19.000Z</time>
      </trkpt>
      <trkpt lat="48.65484" lon="1.25193">
        <ele>155.19999694824</ele>
        <time>2026-06-18T11:18:20.000Z</time>
      </trkpt>
      <trkpt lat="48.65472" lon="1.25212">
        <ele>154.19999694824</ele>
        <time>2026-06-18T11:18:23.000Z</time>
      </trkpt>
      <trkpt lat="48.65468" lon="1.25219">
        <ele>154</ele>
        <time>2026-06-18T11:18:24.000Z</time>
      </trkpt>
      <trkpt lat="48.65461" lon="1.25232">
        <ele>153.60000610352</ele>
        <time>2026-06-18T11:18:26.000Z</time>
      </trkpt>
      <trkpt lat="48.65446" lon="1.25258">
        <ele>153</ele>
        <time>2026-06-18T11:18:30.000Z</time>
      </trkpt>
      <trkpt lat="48.65431" lon="1.25285">
        <ele>152.19999694824</ele>
        <time>2026-06-18T11:18:34.000Z</time>
      </trkpt>
      <trkpt lat="48.6542" lon="1.25303">
        <ele>152</ele>
        <time>2026-06-18T11:18:37.000Z</time>
      </trkpt>
      <trkpt lat="48.65417" lon="1.25309">
        <ele>151.80000305176</ele>
        <time>2026-06-18T11:18:38.000Z</time>
      </trkpt>
      <trkpt lat="48.65415" lon="1.25314">
        <ele>151.60000610352</ele>
        <time>2026-06-18T11:18:39.000Z</time>
      </trkpt>
      <trkpt lat="48.65415" lon="1.25323">
        <ele>151.19999694824</ele>
        <time>2026-06-18T11:18:41.000Z</time>
      </trkpt>
      <trkpt lat="48.65418" lon="1.25327">
        <ele>151.19999694824</ele>
        <time>2026-06-18T11:18:42.000Z</time>
      </trkpt>
      <trkpt lat="48.6542" lon="1.25329">
        <ele>151</ele>
        <time>2026-06-18T11:18:43.000Z</time>
      </trkpt>
      <trkpt lat="48.65435" lon="1.25346">
        <ele>150.80000305176</ele>
        <time>2026-06-18T11:18:46.000Z</time>
      </trkpt>
      <trkpt lat="48.6544" lon="1.25353">
        <ele>150.60000610352</ele>
        <time>2026-06-18T11:18:47.000Z</time>
      </trkpt>
      <trkpt lat="48.65443" lon="1.25361">
        <ele>150.60000610352</ele>
        <time>2026-06-18T11:18:48.000Z</time>
      </trkpt>
      <trkpt lat="48.65443" lon="1.2537">
        <ele>150.60000610352</ele>
        <time>2026-06-18T11:18:49.000Z</time>
      </trkpt>
      <trkpt lat="48.65441" lon="1.25379">
        <ele>150.60000610352</ele>
        <time>2026-06-18T11:18:50.000Z</time>
      </trkpt>
      <trkpt lat="48.65438" lon="1.25387">
        <ele>150.60000610352</ele>
        <time>2026-06-18T11:18:51.000Z</time>
      </trkpt>
      <trkpt lat="48.65434" lon="1.25395">
        <ele>150.39999389648</ele>
        <time>2026-06-18T11:18:52.000Z</time>
      </trkpt>
      <trkpt lat="48.65417" lon="1.25426">
        <ele>150</ele>
        <time>2026-06-18T11:18:56.000Z</time>
      </trkpt>
      <trkpt lat="48.65413" lon="1.25434">
        <ele>149.60000610352</ele>
        <time>2026-06-18T11:18:57.000Z</time>
      </trkpt>
      <trkpt lat="48.6539" lon="1.25477">
        <ele>148.80000305176</ele>
        <time>2026-06-18T11:19:03.000Z</time>
      </trkpt>
      <trkpt lat="48.65387" lon="1.25484">
        <ele>148.80000305176</ele>
        <time>2026-06-18T11:19:04.000Z</time>
      </trkpt>
      <trkpt lat="48.65384" lon="1.25492">
        <ele>148.80000305176</ele>
        <time>2026-06-18T11:19:05.000Z</time>
      </trkpt>
      <trkpt lat="48.65381" lon="1.255">
        <ele>148.60000610352</ele>
        <time>2026-06-18T11:19:06.000Z</time>
      </trkpt>
      <trkpt lat="48.65374" lon="1.25524">
        <ele>148.39999389648</ele>
        <time>2026-06-18T11:19:09.000Z</time>
      </trkpt>
      <trkpt lat="48.65363" lon="1.25561">
        <ele>148.19999694824</ele>
        <time>2026-06-18T11:19:14.000Z</time>
      </trkpt>
      <trkpt lat="48.65362" lon="1.25567">
        <ele>148.19999694824</ele>
        <time>2026-06-18T11:19:15.000Z</time>
      </trkpt>
      <trkpt lat="48.6537" lon="1.25582">
        <ele>148.19999694824</ele>
        <time>2026-06-18T11:19:18.000Z</time>
      </trkpt>
      <trkpt lat="48.65391" lon="1.25591">
        <ele>148.19999694824</ele>
        <time>2026-06-18T11:19:22.000Z</time>
      </trkpt>
      <trkpt lat="48.65396" lon="1.25592">
        <ele>148</ele>
        <time>2026-06-18T11:19:23.000Z</time>
      </trkpt>
      <trkpt lat="48.65419" lon="1.25592">
        <ele>147.80000305176</ele>
        <time>2026-06-18T11:19:27.000Z</time>
      </trkpt>
      <trkpt lat="48.65431" lon="1.25597">
        <ele>147.60000610352</ele>
        <time>2026-06-18T11:19:29.000Z</time>
      </trkpt>
      <trkpt lat="48.65436" lon="1.25603">
        <ele>147.60000610352</ele>
        <time>2026-06-18T11:19:30.000Z</time>
      </trkpt>
      <trkpt lat="48.65465" lon="1.25639">
        <ele>147.39999389648</ele>
        <time>2026-06-18T11:19:36.000Z</time>
      </trkpt>
      <trkpt lat="48.6548" lon="1.25659">
        <ele>147.39999389648</ele>
        <time>2026-06-18T11:19:40.000Z</time>
      </trkpt>
      <trkpt lat="48.65484" lon="1.25664">
        <ele>147.19999694824</ele>
        <time>2026-06-18T11:19:41.000Z</time>
      </trkpt>
      <trkpt lat="48.65497" lon="1.25679">
        <ele>147.39999389648</ele>
        <time>2026-06-18T11:19:44.000Z</time>
      </trkpt>
      <trkpt lat="48.65512" lon="1.25699">
        <ele>147.60000610352</ele>
        <time>2026-06-18T11:19:48.000Z</time>
      </trkpt>
      <trkpt lat="48.65516" lon="1.25704">
        <ele>147.60000610352</ele>
        <time>2026-06-18T11:19:49.000Z</time>
      </trkpt>
      <trkpt lat="48.65533" lon="1.25727">
        <ele>147.80000305176</ele>
        <time>2026-06-18T11:19:53.000Z</time>
      </trkpt>
      <trkpt lat="48.65536" lon="1.25741">
        <ele>147.80000305176</ele>
        <time>2026-06-18T11:19:55.000Z</time>
      </trkpt>
      <trkpt lat="48.65536" lon="1.25747">
        <ele>147.80000305176</ele>
        <time>2026-06-18T11:19:56.000Z</time>
      </trkpt>
      <trkpt lat="48.65524" lon="1.25766">
        <ele>147.60000610352</ele>
        <time>2026-06-18T11:20:00.000Z</time>
      </trkpt>
      <trkpt lat="48.6552" lon="1.2577">
        <ele>147.60000610352</ele>
        <time>2026-06-18T11:20:01.000Z</time>
      </trkpt>
      <trkpt lat="48.6551" lon="1.25779">
        <ele>147.60000610352</ele>
        <time>2026-06-18T11:20:03.000Z</time>
      </trkpt>
      <trkpt lat="48.655" lon="1.25793">
        <ele>147.60000610352</ele>
        <time>2026-06-18T11:20:05.000Z</time>
      </trkpt>
      <trkpt lat="48.65495" lon="1.25801">
        <ele>147.60000610352</ele>
        <time>2026-06-18T11:20:06.000Z</time>
      </trkpt>
      <trkpt lat="48.65485" lon="1.25816">
        <ele>147.60000610352</ele>
        <time>2026-06-18T11:20:08.000Z</time>
      </trkpt>
      <trkpt lat="48.6548" lon="1.25825">
        <ele>147.39999389648</ele>
        <time>2026-06-18T11:20:09.000Z</time>
      </trkpt>
      <trkpt lat="48.65467" lon="1.2586">
        <ele>147.39999389648</ele>
        <time>2026-06-18T11:20:13.000Z</time>
      </trkpt>
      <trkpt lat="48.65465" lon="1.2587">
        <ele>147.39999389648</ele>
        <time>2026-06-18T11:20:14.000Z</time>
      </trkpt>
      <trkpt lat="48.65454" lon="1.25942">
        <ele>147.39999389648</ele>
        <time>2026-06-18T11:20:22.000Z</time>
      </trkpt>
      <trkpt lat="48.65447" lon="1.26">
        <ele>148.19999694824</ele>
        <time>2026-06-18T11:20:29.000Z</time>
      </trkpt>
      <trkpt lat="48.65446" lon="1.26017">
        <ele>148.19999694824</ele>
        <time>2026-06-18T11:20:31.000Z</time>
      </trkpt>
      <trkpt lat="48.65443" lon="1.26048">
        <ele>148.19999694824</ele>
        <time>2026-06-18T11:20:35.000Z</time>
      </trkpt>
      <trkpt lat="48.65435" lon="1.26095">
        <ele>147.60000610352</ele>
        <time>2026-06-18T11:20:41.000Z</time>
      </trkpt>
      <trkpt lat="48.65422" lon="1.26173">
        <ele>146.80000305176</ele>
        <time>2026-06-18T11:20:50.000Z</time>
      </trkpt>
      <trkpt lat="48.65418" lon="1.262">
        <ele>146.60000610352</ele>
        <time>2026-06-18T11:20:53.000Z</time>
      </trkpt>
      <trkpt lat="48.65416" lon="1.26219">
        <ele>146.39999389648</ele>
        <time>2026-06-18T11:20:55.000Z</time>
      </trkpt>
      <trkpt lat="48.65416" lon="1.26236">
        <ele>146.19999694824</ele>
        <time>2026-06-18T11:20:57.000Z</time>
      </trkpt>
      <trkpt lat="48.65417" lon="1.26288">
        <ele>146.19999694824</ele>
        <time>2026-06-18T11:21:03.000Z</time>
      </trkpt>
      <trkpt lat="48.65418" lon="1.26295">
        <ele>146.19999694824</ele>
        <time>2026-06-18T11:21:04.000Z</time>
      </trkpt>
      <trkpt lat="48.65422" lon="1.26316">
        <ele>146.39999389648</ele>
        <time>2026-06-18T11:21:07.000Z</time>
      </trkpt>
      <trkpt lat="48.65423" lon="1.26323">
        <ele>146.39999389648</ele>
        <time>2026-06-18T11:21:08.000Z</time>
      </trkpt>
      <trkpt lat="48.65428" lon="1.26337">
        <ele>146.39999389648</ele>
        <time>2026-06-18T11:21:10.000Z</time>
      </trkpt>
      <trkpt lat="48.65437" lon="1.26355">
        <ele>146.60000610352</ele>
        <time>2026-06-18T11:21:13.000Z</time>
      </trkpt>
      <trkpt lat="48.6544" lon="1.2636">
        <ele>146.60000610352</ele>
        <time>2026-06-18T11:21:14.000Z</time>
      </trkpt>
      <trkpt lat="48.65452" lon="1.26377">
        <ele>146.80000305176</ele>
        <time>2026-06-18T11:21:18.000Z</time>
      </trkpt>
      <trkpt lat="48.65458" lon="1.26385">
        <ele>147</ele>
        <time>2026-06-18T11:21:20.000Z</time>
      </trkpt>
      <trkpt lat="48.65465" lon="1.26397">
        <ele>147.60000610352</ele>
        <time>2026-06-18T11:21:23.000Z</time>
      </trkpt>
      <trkpt lat="48.65467" lon="1.26401">
        <ele>147.80000305176</ele>
        <time>2026-06-18T11:21:24.000Z</time>
      </trkpt>
      <trkpt lat="48.65474" lon="1.26415">
        <ele>148.60000610352</ele>
        <time>2026-06-18T11:21:27.000Z</time>
      </trkpt>
      <trkpt lat="48.65479" lon="1.26429">
        <ele>149.39999389648</ele>
        <time>2026-06-18T11:21:30.000Z</time>
      </trkpt>
      <trkpt lat="48.65483" lon="1.26437">
        <ele>149.80000305176</ele>
        <time>2026-06-18T11:21:32.000Z</time>
      </trkpt>
      <trkpt lat="48.65487" lon="1.26457">
        <ele>150</ele>
        <time>2026-06-18T11:21:36.000Z</time>
      </trkpt>
      <trkpt lat="48.65497" lon="1.26497">
        <ele>150.80000305176</ele>
        <time>2026-06-18T11:21:43.000Z</time>
      </trkpt>
      <trkpt lat="48.65506" lon="1.26528">
        <ele>152.19999694824</ele>
        <time>2026-06-18T11:21:48.000Z</time>
      </trkpt>
      <trkpt lat="48.6551" lon="1.26539">
        <ele>152.39999389648</ele>
        <time>2026-06-18T11:21:50.000Z</time>
      </trkpt>
      <trkpt lat="48.6552" lon="1.26568">
        <ele>153.19999694824</ele>
        <time>2026-06-18T11:21:55.000Z</time>
      </trkpt>
      <trkpt lat="48.65524" lon="1.26581">
        <ele>154</ele>
        <time>2026-06-18T11:21:57.000Z</time>
      </trkpt>
      <trkpt lat="48.65526" lon="1.26587">
        <ele>154.39999389648</ele>
        <time>2026-06-18T11:21:58.000Z</time>
      </trkpt>
      <trkpt lat="48.65535" lon="1.26603">
        <ele>154.60000610352</ele>
        <time>2026-06-18T11:22:01.000Z</time>
      </trkpt>
      <trkpt lat="48.65549" lon="1.26621">
        <ele>155.39999389648</ele>
        <time>2026-06-18T11:22:05.000Z</time>
      </trkpt>
      <trkpt lat="48.65552" lon="1.26624">
        <ele>155.39999389648</ele>
        <time>2026-06-18T11:22:06.000Z</time>
      </trkpt>
      <trkpt lat="48.65559" lon="1.2663">
        <ele>155.39999389648</ele>
        <time>2026-06-18T11:22:08.000Z</time>
      </trkpt>
      <trkpt lat="48.65589" lon="1.26644">
        <ele>156.39999389648</ele>
        <time>2026-06-18T11:22:16.000Z</time>
      </trkpt>
      <trkpt lat="48.65624" lon="1.26662">
        <ele>157.39999389648</ele>
        <time>2026-06-18T11:22:25.000Z</time>
      </trkpt>
      <trkpt lat="48.65628" lon="1.26666">
        <ele>157.39999389648</ele>
        <time>2026-06-18T11:22:26.000Z</time>
      </trkpt>
      <trkpt lat="48.65662" lon="1.26689">
        <ele>157.60000610352</ele>
        <time>2026-06-18T11:22:33.000Z</time>
      </trkpt>
      <trkpt lat="48.65703" lon="1.26724">
        <ele>157.19999694824</ele>
        <time>2026-06-18T11:22:41.000Z</time>
      </trkpt>
      <trkpt lat="48.65737" lon="1.26766">
        <ele>156.39999389648</ele>
        <time>2026-06-18T11:22:47.000Z</time>
      </trkpt>
      <trkpt lat="48.65743" lon="1.26773">
        <ele>156.19999694824</ele>
        <time>2026-06-18T11:22:48.000Z</time>
      </trkpt>
      <trkpt lat="48.65777" lon="1.26812">
        <ele>155</ele>
        <time>2026-06-18T11:22:53.000Z</time>
      </trkpt>
      <trkpt lat="48.65784" lon="1.26819">
        <ele>154.80000305176</ele>
        <time>2026-06-18T11:22:54.000Z</time>
      </trkpt>
      <trkpt lat="48.6581" lon="1.26848">
        <ele>153.80000305176</ele>
        <time>2026-06-18T11:22:58.000Z</time>
      </trkpt>
      <trkpt lat="48.65822" lon="1.26864">
        <ele>153.60000610352</ele>
        <time>2026-06-18T11:23:00.000Z</time>
      </trkpt>
      <trkpt lat="48.65836" lon="1.26886">
        <ele>152.80000305176</ele>
        <time>2026-06-18T11:23:03.000Z</time>
      </trkpt>
      <trkpt lat="48.65846" lon="1.26902">
        <ele>152.60000610352</ele>
        <time>2026-06-18T11:23:05.000Z</time>
      </trkpt>
      <trkpt lat="48.65878" lon="1.26958">
        <ele>152</ele>
        <time>2026-06-18T11:23:12.000Z</time>
      </trkpt>
      <trkpt lat="48.65883" lon="1.26968">
        <ele>151.80000305176</ele>
        <time>2026-06-18T11:23:13.000Z</time>
      </trkpt>
      <trkpt lat="48.65902" lon="1.2701">
        <ele>151.19999694824</ele>
        <time>2026-06-18T11:23:17.000Z</time>
      </trkpt>
      <trkpt lat="48.65909" lon="1.27032">
        <ele>150.80000305176</ele>
        <time>2026-06-18T11:23:19.000Z</time>
      </trkpt>
      <trkpt lat="48.65916" lon="1.27062">
        <ele>150</ele>
        <time>2026-06-18T11:23:22.000Z</time>
      </trkpt>
      <trkpt lat="48.65918" lon="1.2707">
        <ele>149.39999389648</ele>
        <time>2026-06-18T11:23:23.000Z</time>
      </trkpt>
      <trkpt lat="48.65921" lon="1.27085">
        <ele>149.19999694824</ele>
        <time>2026-06-18T11:23:25.000Z</time>
      </trkpt>
      <trkpt lat="48.65923" lon="1.27092">
        <ele>149.19999694824</ele>
        <time>2026-06-18T11:23:26.000Z</time>
      </trkpt>
      <trkpt lat="48.65929" lon="1.27117">
        <ele>149.80000305176</ele>
        <time>2026-06-18T11:23:30.000Z</time>
      </trkpt>
      <trkpt lat="48.6593" lon="1.27131">
        <ele>150.19999694824</ele>
        <time>2026-06-18T11:23:32.000Z</time>
      </trkpt>
      <trkpt lat="48.65929" lon="1.27147">
        <ele>150.39999389648</ele>
        <time>2026-06-18T11:23:34.000Z</time>
      </trkpt>
      <trkpt lat="48.65926" lon="1.27155">
        <ele>150.39999389648</ele>
        <time>2026-06-18T11:23:35.000Z</time>
      </trkpt>
      <trkpt lat="48.6591" lon="1.27197">
        <ele>150</ele>
        <time>2026-06-18T11:23:39.000Z</time>
      </trkpt>
      <trkpt lat="48.6589" lon="1.27265">
        <ele>148</ele>
        <time>2026-06-18T11:23:44.000Z</time>
      </trkpt>
      <trkpt lat="48.65876" lon="1.27305">
        <ele>146.80000305176</ele>
        <time>2026-06-18T11:23:47.000Z</time>
      </trkpt>
      <trkpt lat="48.6587" lon="1.27317">
        <ele>146</ele>
        <time>2026-06-18T11:23:48.000Z</time>
      </trkpt>
      <trkpt lat="48.65863" lon="1.27328">
        <ele>145.19999694824</ele>
        <time>2026-06-18T11:23:49.000Z</time>
      </trkpt>
      <trkpt lat="48.6584" lon="1.27367">
        <ele>144.39999389648</ele>
        <time>2026-06-18T11:23:53.000Z</time>
      </trkpt>
      <trkpt lat="48.6583" lon="1.27385">
        <ele>144.19999694824</ele>
        <time>2026-06-18T11:23:55.000Z</time>
      </trkpt>
      <trkpt lat="48.65808" lon="1.27425">
        <ele>144.19999694824</ele>
        <time>2026-06-18T11:24:00.000Z</time>
      </trkpt>
      <trkpt lat="48.65803" lon="1.27432">
        <ele>144</ele>
        <time>2026-06-18T11:24:01.000Z</time>
      </trkpt>
      <trkpt lat="48.65789" lon="1.27453">
        <ele>144.19999694824</ele>
        <time>2026-06-18T11:24:05.000Z</time>
      </trkpt>
      <trkpt lat="48.65786" lon="1.27465">
        <ele>144.19999694824</ele>
        <time>2026-06-18T11:24:08.000Z</time>
      </trkpt>
      <trkpt lat="48.65788" lon="1.27469">
        <ele>144</ele>
        <time>2026-06-18T11:24:09.000Z</time>
      </trkpt>
      <trkpt lat="48.65793" lon="1.2748">
        <ele>144</ele>
        <time>2026-06-18T11:24:11.000Z</time>
      </trkpt>
      <trkpt lat="48.65797" lon="1.27486">
        <ele>144</ele>
        <time>2026-06-18T11:24:12.000Z</time>
      </trkpt>
      <trkpt lat="48.658" lon="1.27492">
        <ele>144</ele>
        <time>2026-06-18T11:24:13.000Z</time>
      </trkpt>
      <trkpt lat="48.65815" lon="1.27532">
        <ele>143.39999389648</ele>
        <time>2026-06-18T11:24:18.000Z</time>
      </trkpt>
      <trkpt lat="48.65815" lon="1.27548">
        <ele>143.19999694824</ele>
        <time>2026-06-18T11:24:20.000Z</time>
      </trkpt>
      <trkpt lat="48.65811" lon="1.27558">
        <ele>143</ele>
        <time>2026-06-18T11:24:21.000Z</time>
      </trkpt>
      <trkpt lat="48.65807" lon="1.27566">
        <ele>143</ele>
        <time>2026-06-18T11:24:22.000Z</time>
      </trkpt>
      <trkpt lat="48.65795" lon="1.27586">
        <ele>142.60000610352</ele>
        <time>2026-06-18T11:24:25.000Z</time>
      </trkpt>
      <trkpt lat="48.65792" lon="1.27592">
        <ele>142.60000610352</ele>
        <time>2026-06-18T11:24:26.000Z</time>
      </trkpt>
      <trkpt lat="48.65775" lon="1.27622">
        <ele>142.60000610352</ele>
        <time>2026-06-18T11:24:31.000Z</time>
      </trkpt>
      <trkpt lat="48.65772" lon="1.27629">
        <ele>142.80000305176</ele>
        <time>2026-06-18T11:24:32.000Z</time>
      </trkpt>
      <trkpt lat="48.65768" lon="1.27648">
        <ele>143.39999389648</ele>
        <time>2026-06-18T11:24:35.000Z</time>
      </trkpt>
      <trkpt lat="48.65767" lon="1.27653">
        <ele>143.60000610352</ele>
        <time>2026-06-18T11:24:36.000Z</time>
      </trkpt>
      <trkpt lat="48.65766" lon="1.27672">
        <ele>144</ele>
        <time>2026-06-18T11:24:39.000Z</time>
      </trkpt>
      <trkpt lat="48.65766" lon="1.27684">
        <ele>144.60000610352</ele>
        <time>2026-06-18T11:24:41.000Z</time>
      </trkpt>
      <trkpt lat="48.65766" lon="1.2769">
        <ele>144.80000305176</ele>
        <time>2026-06-18T11:24:42.000Z</time>
      </trkpt>
      <trkpt lat="48.65768" lon="1.277">
        <ele>145.60000610352</ele>
        <time>2026-06-18T11:24:44.000Z</time>
      </trkpt>
      <trkpt lat="48.65769" lon="1.27705">
        <ele>145.80000305176</ele>
        <time>2026-06-18T11:24:45.000Z</time>
      </trkpt>
      <trkpt lat="48.65772" lon="1.27729">
        <ele>147</ele>
        <time>2026-06-18T11:24:49.000Z</time>
      </trkpt>
      <trkpt lat="48.65775" lon="1.27753">
        <ele>147.60000610352</ele>
        <time>2026-06-18T11:24:53.000Z</time>
      </trkpt>
      <trkpt lat="48.65776" lon="1.27766">
        <ele>148</ele>
        <time>2026-06-18T11:24:55.000Z</time>
      </trkpt>
      <trkpt lat="48.65779" lon="1.27799">
        <ele>149.19999694824</ele>
        <time>2026-06-18T11:25:00.000Z</time>
      </trkpt>
      <trkpt lat="48.65781" lon="1.27821">
        <ele>150</ele>
        <time>2026-06-18T11:25:03.000Z</time>
      </trkpt>
      <trkpt lat="48.65781" lon="1.27828">
        <ele>150.19999694824</ele>
        <time>2026-06-18T11:25:04.000Z</time>
      </trkpt>
      <trkpt lat="48.65784" lon="1.27865">
        <ele>151.60000610352</ele>
        <time>2026-06-18T11:25:10.000Z</time>
      </trkpt>
      <trkpt lat="48.65785" lon="1.27884">
        <ele>152</ele>
        <time>2026-06-18T11:25:13.000Z</time>
      </trkpt>
      <trkpt lat="48.65788" lon="1.27924">
        <ele>152.60000610352</ele>
        <time>2026-06-18T11:25:19.000Z</time>
      </trkpt>
      <trkpt lat="48.65789" lon="1.27932">
        <ele>152.60000610352</ele>
        <time>2026-06-18T11:25:20.000Z</time>
      </trkpt>
      <trkpt lat="48.65793" lon="1.2798">
        <ele>152.19999694824</ele>
        <time>2026-06-18T11:25:25.000Z</time>
      </trkpt>
      <trkpt lat="48.65796" lon="1.28016">
        <ele>151.60000610352</ele>
        <time>2026-06-18T11:25:28.000Z</time>
      </trkpt>
      <trkpt lat="48.65802" lon="1.28075">
        <ele>150.80000305176</ele>
        <time>2026-06-18T11:25:33.000Z</time>
      </trkpt>
      <trkpt lat="48.65804" lon="1.28087">
        <ele>150.80000305176</ele>
        <time>2026-06-18T11:25:34.000Z</time>
      </trkpt>
      <trkpt lat="48.65812" lon="1.28136">
        <ele>149.80000305176</ele>
        <time>2026-06-18T11:25:38.000Z</time>
      </trkpt>
      <trkpt lat="48.65815" lon="1.28147">
        <ele>149.39999389648</ele>
        <time>2026-06-18T11:25:39.000Z</time>
      </trkpt>
      <trkpt lat="48.65819" lon="1.28175">
        <ele>148</ele>
        <time>2026-06-18T11:25:42.000Z</time>
      </trkpt>
      <trkpt lat="48.65819" lon="1.28183">
        <ele>147.80000305176</ele>
        <time>2026-06-18T11:25:43.000Z</time>
      </trkpt>
      <trkpt lat="48.65817" lon="1.28193">
        <ele>147.39999389648</ele>
        <time>2026-06-18T11:25:44.000Z</time>
      </trkpt>
      <trkpt lat="48.65808" lon="1.28209">
        <ele>146.60000610352</ele>
        <time>2026-06-18T11:25:46.000Z</time>
      </trkpt>
      <trkpt lat="48.65785" lon="1.28235">
        <ele>145.60000610352</ele>
        <time>2026-06-18T11:25:50.000Z</time>
      </trkpt>
      <trkpt lat="48.65749" lon="1.2827">
        <ele>145</ele>
        <time>2026-06-18T11:25:57.000Z</time>
      </trkpt>
      <trkpt lat="48.65721" lon="1.28289">
        <ele>145.60000610352</ele>
        <time>2026-06-18T11:26:03.000Z</time>
      </trkpt>
      <trkpt lat="48.65701" lon="1.28294">
        <ele>146.19999694824</ele>
        <time>2026-06-18T11:26:08.000Z</time>
      </trkpt>
      <trkpt lat="48.65687" lon="1.283">
        <ele>146.80000305176</ele>
        <time>2026-06-18T11:26:13.000Z</time>
      </trkpt>
      <trkpt lat="48.6568" lon="1.28303">
        <ele>147.19999694824</ele>
        <time>2026-06-18T11:26:15.000Z</time>
      </trkpt>
      <trkpt lat="48.65674" lon="1.28306">
        <ele>148</ele>
        <time>2026-06-18T11:26:18.000Z</time>
      </trkpt>
      <trkpt lat="48.65665" lon="1.28311">
        <ele>149.19999694824</ele>
        <time>2026-06-18T11:26:22.000Z</time>
      </trkpt>
      <trkpt lat="48.65656" lon="1.28316">
        <ele>150.19999694824</ele>
        <time>2026-06-18T11:26:26.000Z</time>
      </trkpt>
      <trkpt lat="48.65652" lon="1.28318">
        <ele>150.60000610352</ele>
        <time>2026-06-18T11:26:28.000Z</time>
      </trkpt>
      <trkpt lat="48.65644" lon="1.28323">
        <ele>151.39999389648</ele>
        <time>2026-06-18T11:26:32.000Z</time>
      </trkpt>
      <trkpt lat="48.6564" lon="1.28326">
        <ele>151.80000305176</ele>
        <time>2026-06-18T11:26:34.000Z</time>
      </trkpt>
      <trkpt lat="48.65635" lon="1.2833">
        <ele>152.60000610352</ele>
        <time>2026-06-18T11:26:37.000Z</time>
      </trkpt>
      <trkpt lat="48.65627" lon="1.28334">
        <ele>153.39999389648</ele>
        <time>2026-06-18T11:26:41.000Z</time>
      </trkpt>
      <trkpt lat="48.65625" lon="1.28335">
        <ele>153.80000305176</ele>
        <time>2026-06-18T11:26:42.000Z</time>
      </trkpt>
      <trkpt lat="48.65613" lon="1.28343">
        <ele>154.80000305176</ele>
        <time>2026-06-18T11:26:48.000Z</time>
      </trkpt>
      <trkpt lat="48.65611" lon="1.28344">
        <ele>155.19999694824</ele>
        <time>2026-06-18T11:26:49.000Z</time>
      </trkpt>
      <trkpt lat="48.65603" lon="1.2835">
        <ele>156</ele>
        <time>2026-06-18T11:26:53.000Z</time>
      </trkpt>
      <trkpt lat="48.65599" lon="1.28353">
        <ele>156.39999389648</ele>
        <time>2026-06-18T11:26:55.000Z</time>
      </trkpt>
      <trkpt lat="48.65587" lon="1.2836">
        <ele>157</ele>
        <time>2026-06-18T11:27:00.000Z</time>
      </trkpt>
      <trkpt lat="48.65581" lon="1.28364">
        <ele>157.39999389648</ele>
        <time>2026-06-18T11:27:03.000Z</time>
      </trkpt>
      <trkpt lat="48.65572" lon="1.2837">
        <ele>158.39999389648</ele>
        <time>2026-06-18T11:27:07.000Z</time>
      </trkpt>
      <trkpt lat="48.65557" lon="1.28378">
        <ele>159.39999389648</ele>
        <time>2026-06-18T11:27:13.000Z</time>
      </trkpt>
      <trkpt lat="48.65554" lon="1.28379">
        <ele>159.39999389648</ele>
        <time>2026-06-18T11:27:14.000Z</time>
      </trkpt>
      <trkpt lat="48.65537" lon="1.28393">
        <ele>160.39999389648</ele>
        <time>2026-06-18T11:27:21.000Z</time>
      </trkpt>
      <trkpt lat="48.65525" lon="1.28404">
        <ele>160.60000610352</ele>
        <time>2026-06-18T11:27:26.000Z</time>
      </trkpt>
      <trkpt lat="48.65514" lon="1.28415">
        <ele>160.80000305176</ele>
        <time>2026-06-18T11:27:30.000Z</time>
      </trkpt>
      <trkpt lat="48.65492" lon="1.28439">
        <ele>161.60000610352</ele>
        <time>2026-06-18T11:27:39.000Z</time>
      </trkpt>
      <trkpt lat="48.65489" lon="1.28442">
        <ele>161.60000610352</ele>
        <time>2026-06-18T11:27:40.000Z</time>
      </trkpt>
      <trkpt lat="48.65475" lon="1.2846">
        <ele>162.19999694824</ele>
        <time>2026-06-18T11:27:46.000Z</time>
      </trkpt>
      <trkpt lat="48.65456" lon="1.28488">
        <ele>162.39999389648</ele>
        <time>2026-06-18T11:27:54.000Z</time>
      </trkpt>
      <trkpt lat="48.65449" lon="1.28496">
        <ele>162.39999389648</ele>
        <time>2026-06-18T11:27:56.000Z</time>
      </trkpt>
      <trkpt lat="48.65441" lon="1.28511">
        <ele>162.80000305176</ele>
        <time>2026-06-18T11:27:59.000Z</time>
      </trkpt>
      <trkpt lat="48.65438" lon="1.28516">
        <ele>162.80000305176</ele>
        <time>2026-06-18T11:28:00.000Z</time>
      </trkpt>
      <trkpt lat="48.6542" lon="1.28552">
        <ele>162.80000305176</ele>
        <time>2026-06-18T11:28:07.000Z</time>
      </trkpt>
      <trkpt lat="48.654" lon="1.28604">
        <ele>163.19999694824</ele>
        <time>2026-06-18T11:28:16.000Z</time>
      </trkpt>
      <trkpt lat="48.65387" lon="1.2864">
        <ele>163.19999694824</ele>
        <time>2026-06-18T11:28:21.000Z</time>
      </trkpt>
      <trkpt lat="48.65374" lon="1.28676">
        <ele>163.39999389648</ele>
        <time>2026-06-18T11:28:26.000Z</time>
      </trkpt>
      <trkpt lat="48.6535" lon="1.28753">
        <ele>163.19999694824</ele>
        <time>2026-06-18T11:28:36.000Z</time>
      </trkpt>
      <trkpt lat="48.65347" lon="1.2877">
        <ele>163.19999694824</ele>
        <time>2026-06-18T11:28:38.000Z</time>
      </trkpt>
      <trkpt lat="48.65334" lon="1.28841">
        <ele>162.19999694824</ele>
        <time>2026-06-18T11:28:46.000Z</time>
      </trkpt>
      <trkpt lat="48.65326" lon="1.28899">
        <ele>161.80000305176</ele>
        <time>2026-06-18T11:28:53.000Z</time>
      </trkpt>
      <trkpt lat="48.65324" lon="1.28909">
        <ele>161.80000305176</ele>
        <time>2026-06-18T11:28:54.000Z</time>
      </trkpt>
      <trkpt lat="48.65312" lon="1.28976">
        <ele>161.80000305176</ele>
        <time>2026-06-18T11:29:02.000Z</time>
      </trkpt>
      <trkpt lat="48.65299" lon="1.29031">
        <ele>162.19999694824</ele>
        <time>2026-06-18T11:29:09.000Z</time>
      </trkpt>
      <trkpt lat="48.65281" lon="1.29095">
        <ele>162.39999389648</ele>
        <time>2026-06-18T11:29:18.000Z</time>
      </trkpt>
      <trkpt lat="48.65276" lon="1.29115">
        <ele>162.80000305176</ele>
        <time>2026-06-18T11:29:21.000Z</time>
      </trkpt>
      <trkpt lat="48.65267" lon="1.29148">
        <ele>164</ele>
        <time>2026-06-18T11:29:26.000Z</time>
      </trkpt>
      <trkpt lat="48.65265" lon="1.29155">
        <ele>164.19999694824</ele>
        <time>2026-06-18T11:29:27.000Z</time>
      </trkpt>
      <trkpt lat="48.6526" lon="1.29177">
        <ele>164.80000305176</ele>
        <time>2026-06-18T11:29:30.000Z</time>
      </trkpt>
      <trkpt lat="48.65257" lon="1.29202">
        <ele>165</ele>
        <time>2026-06-18T11:29:33.000Z</time>
      </trkpt>
      <trkpt lat="48.65254" lon="1.29218">
        <ele>165</ele>
        <time>2026-06-18T11:29:35.000Z</time>
      </trkpt>
      <trkpt lat="48.65252" lon="1.29225">
        <ele>165</ele>
        <time>2026-06-18T11:29:36.000Z</time>
      </trkpt>
      <trkpt lat="48.65246" lon="1.29247">
        <ele>165</ele>
        <time>2026-06-18T11:29:39.000Z</time>
      </trkpt>
      <trkpt lat="48.65244" lon="1.29252">
        <ele>165</ele>
        <time>2026-06-18T11:29:40.000Z</time>
      </trkpt>
      <trkpt lat="48.6523" lon="1.29275">
        <ele>165</ele>
        <time>2026-06-18T11:29:44.000Z</time>
      </trkpt>
      <trkpt lat="48.65226" lon="1.2928">
        <ele>165</ele>
        <time>2026-06-18T11:29:45.000Z</time>
      </trkpt>
      <trkpt lat="48.65222" lon="1.29284">
        <ele>165.19999694824</ele>
        <time>2026-06-18T11:29:46.000Z</time>
      </trkpt>
      <trkpt lat="48.65205" lon="1.29298">
        <ele>165.19999694824</ele>
        <time>2026-06-18T11:29:50.000Z</time>
      </trkpt>
      <trkpt lat="48.65179" lon="1.29321">
        <ele>166.19999694824</ele>
        <time>2026-06-18T11:29:56.000Z</time>
      </trkpt>
      <trkpt lat="48.65166" lon="1.29333">
        <ele>166.60000610352</ele>
        <time>2026-06-18T11:29:59.000Z</time>
      </trkpt>
      <trkpt lat="48.65145" lon="1.29355">
        <ele>167.19999694824</ele>
        <time>2026-06-18T11:30:05.000Z</time>
      </trkpt>
      <trkpt lat="48.65142" lon="1.29358">
        <ele>167.19999694824</ele>
        <time>2026-06-18T11:30:06.000Z</time>
      </trkpt>
      <trkpt lat="48.65137" lon="1.29365">
        <ele>167.60000610352</ele>
        <time>2026-06-18T11:30:10.000Z</time>
      </trkpt>
      <trkpt lat="48.65137" lon="1.29365">
        <ele>167.60000610352</ele>
        <time>2026-06-18T11:30:38.000Z</time>
      </trkpt>
      <trkpt lat="48.65135" lon="1.2937">
        <ele>167.60000610352</ele>
        <time>2026-06-18T11:30:42.000Z</time>
      </trkpt>
      <trkpt lat="48.65125" lon="1.29395">
        <ele>167.80000305176</ele>
        <time>2026-06-18T11:30:47.000Z</time>
      </trkpt>
      <trkpt lat="48.65096" lon="1.2944">
        <ele>168.39999389648</ele>
        <time>2026-06-18T11:30:56.000Z</time>
      </trkpt>
      <trkpt lat="48.6509" lon="1.29449">
        <ele>168.60000610352</ele>
        <time>2026-06-18T11:30:58.000Z</time>
      </trkpt>
      <trkpt lat="48.65065" lon="1.29487">
        <ele>168.80000305176</ele>
        <time>2026-06-18T11:31:05.000Z</time>
      </trkpt>
      <trkpt lat="48.65027" lon="1.29547">
        <ele>169.19999694824</ele>
        <time>2026-06-18T11:31:16.000Z</time>
      </trkpt>
      <trkpt lat="48.65009" lon="1.29575">
        <ele>169.60000610352</ele>
        <time>2026-06-18T11:31:21.000Z</time>
      </trkpt>
      <trkpt lat="48.64994" lon="1.29596">
        <ele>169.80000305176</ele>
        <time>2026-06-18T11:31:25.000Z</time>
      </trkpt>
      <trkpt lat="48.64983" lon="1.2961">
        <ele>169.80000305176</ele>
        <time>2026-06-18T11:31:28.000Z</time>
      </trkpt>
      <trkpt lat="48.6495" lon="1.2964">
        <ele>170.39999389648</ele>
        <time>2026-06-18T11:31:36.000Z</time>
      </trkpt>
      <trkpt lat="48.64936" lon="1.29648">
        <ele>170.80000305176</ele>
        <time>2026-06-18T11:31:39.000Z</time>
      </trkpt>
      <trkpt lat="48.64906" lon="1.29659">
        <ele>171.60000610352</ele>
        <time>2026-06-18T11:31:45.000Z</time>
      </trkpt>
      <trkpt lat="48.64882" lon="1.29666">
        <ele>172</ele>
        <time>2026-06-18T11:31:50.000Z</time>
      </trkpt>
      <trkpt lat="48.64854" lon="1.29674">
        <ele>172.60000610352</ele>
        <time>2026-06-18T11:31:56.000Z</time>
      </trkpt>
      <trkpt lat="48.6483" lon="1.29681">
        <ele>173</ele>
        <time>2026-06-18T11:32:01.000Z</time>
      </trkpt>
      <trkpt lat="48.64811" lon="1.29687">
        <ele>173.60000610352</ele>
        <time>2026-06-18T11:32:05.000Z</time>
      </trkpt>
      <trkpt lat="48.6479" lon="1.29694">
        <ele>174</ele>
        <time>2026-06-18T11:32:09.000Z</time>
      </trkpt>
      <trkpt lat="48.64768" lon="1.29701">
        <ele>174.39999389648</ele>
        <time>2026-06-18T11:32:14.000Z</time>
      </trkpt>
      <trkpt lat="48.64741" lon="1.29708">
        <ele>175</ele>
        <time>2026-06-18T11:32:19.000Z</time>
      </trkpt>
      <trkpt lat="48.64726" lon="1.29708">
        <ele>175.39999389648</ele>
        <time>2026-06-18T11:32:22.000Z</time>
      </trkpt>
      <trkpt lat="48.64696" lon="1.29705">
        <ele>176</ele>
        <time>2026-06-18T11:32:28.000Z</time>
      </trkpt>
      <trkpt lat="48.64676" lon="1.29701">
        <ele>176.39999389648</ele>
        <time>2026-06-18T11:32:32.000Z</time>
      </trkpt>
      <trkpt lat="48.64666" lon="1.29701">
        <ele>176.60000610352</ele>
        <time>2026-06-18T11:32:34.000Z</time>
      </trkpt>
      <trkpt lat="48.64656" lon="1.29705">
        <ele>176.80000305176</ele>
        <time>2026-06-18T11:32:36.000Z</time>
      </trkpt>
      <trkpt lat="48.64651" lon="1.29708">
        <ele>176.80000305176</ele>
        <time>2026-06-18T11:32:37.000Z</time>
      </trkpt>
      <trkpt lat="48.64647" lon="1.29711">
        <ele>176.80000305176</ele>
        <time>2026-06-18T11:32:38.000Z</time>
      </trkpt>
      <trkpt lat="48.6464" lon="1.2972">
        <ele>177</ele>
        <time>2026-06-18T11:32:40.000Z</time>
      </trkpt>
      <trkpt lat="48.64636" lon="1.29725">
        <ele>177</ele>
        <time>2026-06-18T11:32:41.000Z</time>
      </trkpt>
      <trkpt lat="48.64633" lon="1.29731">
        <ele>177.19999694824</ele>
        <time>2026-06-18T11:32:42.000Z</time>
      </trkpt>
      <trkpt lat="48.64628" lon="1.29746">
        <ele>177.19999694824</ele>
        <time>2026-06-18T11:32:44.000Z</time>
      </trkpt>
      <trkpt lat="48.64627" lon="1.29754">
        <ele>177.39999389648</ele>
        <time>2026-06-18T11:32:45.000Z</time>
      </trkpt>
      <trkpt lat="48.64624" lon="1.2977">
        <ele>177.39999389648</ele>
        <time>2026-06-18T11:32:47.000Z</time>
      </trkpt>
      <trkpt lat="48.64624" lon="1.29795">
        <ele>177.39999389648</ele>
        <time>2026-06-18T11:32:50.000Z</time>
      </trkpt>
      <trkpt lat="48.64632" lon="1.29844">
        <ele>177</ele>
        <time>2026-06-18T11:32:56.000Z</time>
      </trkpt>
      <trkpt lat="48.64644" lon="1.29913">
        <ele>176.80000305176</ele>
        <time>2026-06-18T11:33:04.000Z</time>
      </trkpt>
      <trkpt lat="48.6466" lon="1.29993">
        <ele>176.39999389648</ele>
        <time>2026-06-18T11:33:14.000Z</time>
      </trkpt>
      <trkpt lat="48.64663" lon="1.30012">
        <ele>176.39999389648</ele>
        <time>2026-06-18T11:33:16.000Z</time>
      </trkpt>
      <trkpt lat="48.64667" lon="1.30072">
        <ele>176.19999694824</ele>
        <time>2026-06-18T11:33:23.000Z</time>
      </trkpt>
      <trkpt lat="48.64665" lon="1.30097">
        <ele>176.19999694824</ele>
        <time>2026-06-18T11:33:26.000Z</time>
      </trkpt>
      <trkpt lat="48.64661" lon="1.30114">
        <ele>176.19999694824</ele>
        <time>2026-06-18T11:33:28.000Z</time>
      </trkpt>
      <trkpt lat="48.64642" lon="1.30165">
        <ele>176.39999389648</ele>
        <time>2026-06-18T11:33:35.000Z</time>
      </trkpt>
      <trkpt lat="48.64614" lon="1.30237">
        <ele>176.80000305176</ele>
        <time>2026-06-18T11:33:45.000Z</time>
      </trkpt>
      <trkpt lat="48.64609" lon="1.30252">
        <ele>177</ele>
        <time>2026-06-18T11:33:47.000Z</time>
      </trkpt>
      <trkpt lat="48.64589" lon="1.30329">
        <ele>177.39999389648</ele>
        <time>2026-06-18T11:33:57.000Z</time>
      </trkpt>
      <trkpt lat="48.64585" lon="1.30345">
        <ele>177.39999389648</ele>
        <time>2026-06-18T11:33:59.000Z</time>
      </trkpt>
      <trkpt lat="48.64568" lon="1.30422">
        <ele>177.60000610352</ele>
        <time>2026-06-18T11:34:09.000Z</time>
      </trkpt>
      <trkpt lat="48.64564" lon="1.30438">
        <ele>177.60000610352</ele>
        <time>2026-06-18T11:34:11.000Z</time>
      </trkpt>
      <trkpt lat="48.64546" lon="1.30519">
        <ele>178</ele>
        <time>2026-06-18T11:34:22.000Z</time>
      </trkpt>
      <trkpt lat="48.64544" lon="1.30526">
        <ele>178</ele>
        <time>2026-06-18T11:34:23.000Z</time>
      </trkpt>
      <trkpt lat="48.64538" lon="1.30556">
        <ele>178.39999389648</ele>
        <time>2026-06-18T11:34:27.000Z</time>
      </trkpt>
      <trkpt lat="48.64531" lon="1.30585">
        <ele>178.60000610352</ele>
        <time>2026-06-18T11:34:31.000Z</time>
      </trkpt>
      <trkpt lat="48.64519" lon="1.30643">
        <ele>179.60000610352</ele>
        <time>2026-06-18T11:34:39.000Z</time>
      </trkpt>
      <trkpt lat="48.64518" lon="1.3065">
        <ele>179.80000305176</ele>
        <time>2026-06-18T11:34:40.000Z</time>
      </trkpt>
      <trkpt lat="48.64509" lon="1.30693">
        <ele>180.60000610352</ele>
        <time>2026-06-18T11:34:46.000Z</time>
      </trkpt>
      <trkpt lat="48.64501" lon="1.30728">
        <ele>180.80000305176</ele>
        <time>2026-06-18T11:34:51.000Z</time>
      </trkpt>
      <trkpt lat="48.64483" lon="1.30808">
        <ele>181.39999389648</ele>
        <time>2026-06-18T11:35:02.000Z</time>
      </trkpt>
      <trkpt lat="48.64481" lon="1.30815">
        <ele>181.39999389648</ele>
        <time>2026-06-18T11:35:03.000Z</time>
      </trkpt>
      <trkpt lat="48.6447" lon="1.30865">
        <ele>181.39999389648</ele>
        <time>2026-06-18T11:35:10.000Z</time>
      </trkpt>
      <trkpt lat="48.64462" lon="1.30909">
        <ele>181.60000610352</ele>
        <time>2026-06-18T11:35:16.000Z</time>
      </trkpt>
      <trkpt lat="48.64461" lon="1.30917">
        <ele>181.60000610352</ele>
        <time>2026-06-18T11:35:17.000Z</time>
      </trkpt>
      <trkpt lat="48.64458" lon="1.30968">
        <ele>181.80000305176</ele>
        <time>2026-06-18T11:35:24.000Z</time>
      </trkpt>
      <trkpt lat="48.64458" lon="1.31045">
        <ele>181.80000305176</ele>
        <time>2026-06-18T11:35:34.000Z</time>
      </trkpt>
      <trkpt lat="48.64458" lon="1.31134">
        <ele>181.39999389648</ele>
        <time>2026-06-18T11:35:45.000Z</time>
      </trkpt>
      <trkpt lat="48.64458" lon="1.31214">
        <ele>181</ele>
        <time>2026-06-18T11:35:54.000Z</time>
      </trkpt>
      <trkpt lat="48.64459" lon="1.31254">
        <ele>180.39999389648</ele>
        <time>2026-06-18T11:35:58.000Z</time>
      </trkpt>
      <trkpt lat="48.64458" lon="1.31305">
        <ele>179</ele>
        <time>2026-06-18T11:36:03.000Z</time>
      </trkpt>
      <trkpt lat="48.64449" lon="1.31368">
        <ele>178.19999694824</ele>
        <time>2026-06-18T11:36:10.000Z</time>
      </trkpt>
      <trkpt lat="48.64432" lon="1.31423">
        <ele>177.60000610352</ele>
        <time>2026-06-18T11:36:17.000Z</time>
      </trkpt>
      <trkpt lat="48.64403" lon="1.31489">
        <ele>177.19999694824</ele>
        <time>2026-06-18T11:36:27.000Z</time>
      </trkpt>
      <trkpt lat="48.64385" lon="1.3153">
        <ele>177.19999694824</ele>
        <time>2026-06-18T11:36:33.000Z</time>
      </trkpt>
      <trkpt lat="48.6437" lon="1.31563">
        <ele>177</ele>
        <time>2026-06-18T11:36:38.000Z</time>
      </trkpt>
      <trkpt lat="48.64342" lon="1.31626">
        <ele>177.19999694824</ele>
        <time>2026-06-18T11:36:48.000Z</time>
      </trkpt>
      <trkpt lat="48.64321" lon="1.31669">
        <ele>177.80000305176</ele>
        <time>2026-06-18T11:36:56.000Z</time>
      </trkpt>
      <trkpt lat="48.64311" lon="1.3169">
        <ele>178.19999694824</ele>
        <time>2026-06-18T11:37:00.000Z</time>
      </trkpt>
      <trkpt lat="48.643" lon="1.31712">
        <ele>179</ele>
        <time>2026-06-18T11:37:04.000Z</time>
      </trkpt>
      <trkpt lat="48.64298" lon="1.31717">
        <ele>179.39999389648</ele>
        <time>2026-06-18T11:37:05.000Z</time>
      </trkpt>
      <trkpt lat="48.64279" lon="1.3176">
        <ele>180.39999389648</ele>
        <time>2026-06-18T11:37:14.000Z</time>
      </trkpt>
      <trkpt lat="48.64271" lon="1.31773">
        <ele>181.19999694824</ele>
        <time>2026-06-18T11:37:18.000Z</time>
      </trkpt>
      <trkpt lat="48.64267" lon="1.3178">
        <ele>181.80000305176</ele>
        <time>2026-06-18T11:37:20.000Z</time>
      </trkpt>
      <trkpt lat="48.6426" lon="1.31796">
        <ele>182.80000305176</ele>
        <time>2026-06-18T11:37:25.000Z</time>
      </trkpt>
      <trkpt lat="48.64248" lon="1.31813">
        <ele>184</ele>
        <time>2026-06-18T11:37:29.000Z</time>
      </trkpt>
      <trkpt lat="48.64244" lon="1.31823">
        <ele>184.39999389648</ele>
        <time>2026-06-18T11:37:31.000Z</time>
      </trkpt>
      <trkpt lat="48.64233" lon="1.31844">
        <ele>185</ele>
        <time>2026-06-18T11:37:36.000Z</time>
      </trkpt>
      <trkpt lat="48.64227" lon="1.31854">
        <ele>185.19999694824</ele>
        <time>2026-06-18T11:37:38.000Z</time>
      </trkpt>
      <trkpt lat="48.64219" lon="1.3188">
        <ele>186</ele>
        <time>2026-06-18T11:37:43.000Z</time>
      </trkpt>
      <trkpt lat="48.64215" lon="1.31886">
        <ele>186.19999694824</ele>
        <time>2026-06-18T11:37:44.000Z</time>
      </trkpt>
      <trkpt lat="48.6421" lon="1.31909">
        <ele>186.60000610352</ele>
        <time>2026-06-18T11:37:49.000Z</time>
      </trkpt>
      <trkpt lat="48.64197" lon="1.31933">
        <ele>187</ele>
        <time>2026-06-18T11:37:55.000Z</time>
      </trkpt>
      <trkpt lat="48.6419" lon="1.31962">
        <ele>187.60000610352</ele>
        <time>2026-06-18T11:38:01.000Z</time>
      </trkpt>
      <trkpt lat="48.64187" lon="1.31976">
        <ele>187.80000305176</ele>
        <time>2026-06-18T11:38:05.000Z</time>
      </trkpt>
      <trkpt lat="48.64184" lon="1.31982">
        <ele>188</ele>
        <time>2026-06-18T11:38:07.000Z</time>
      </trkpt>
      <trkpt lat="48.64183" lon="1.31991">
        <ele>188.19999694824</ele>
        <time>2026-06-18T11:38:09.000Z</time>
      </trkpt>
      <trkpt lat="48.64182" lon="1.31995">
        <ele>188.19999694824</ele>
        <time>2026-06-18T11:38:10.000Z</time>
      </trkpt>
      <trkpt lat="48.64176" lon="1.3203">
        <ele>188.80000305176</ele>
        <time>2026-06-18T11:38:18.000Z</time>
      </trkpt>
      <trkpt lat="48.64172" lon="1.32041">
        <ele>188.80000305176</ele>
        <time>2026-06-18T11:38:20.000Z</time>
      </trkpt>
      <trkpt lat="48.64167" lon="1.32062">
        <ele>188.39999389648</ele>
        <time>2026-06-18T11:38:23.000Z</time>
      </trkpt>
      <trkpt lat="48.64153" lon="1.32102">
        <ele>188.39999389648</ele>
        <time>2026-06-18T11:38:30.000Z</time>
      </trkpt>
      <trkpt lat="48.6413" lon="1.32147">
        <ele>188.60000610352</ele>
        <time>2026-06-18T11:38:39.000Z</time>
      </trkpt>
      <trkpt lat="48.64107" lon="1.32196">
        <ele>188.80000305176</ele>
        <time>2026-06-18T11:38:48.000Z</time>
      </trkpt>
      <trkpt lat="48.64088" lon="1.32247">
        <ele>189.19999694824</ele>
        <time>2026-06-18T11:38:56.000Z</time>
      </trkpt>
      <trkpt lat="48.64068" lon="1.32303">
        <ele>189.19999694824</ele>
        <time>2026-06-18T11:39:04.000Z</time>
      </trkpt>
      <trkpt lat="48.64064" lon="1.32315">
        <ele>189.39999389648</ele>
        <time>2026-06-18T11:39:06.000Z</time>
      </trkpt>
      <trkpt lat="48.64042" lon="1.32369">
        <ele>189.39999389648</ele>
        <time>2026-06-18T11:39:14.000Z</time>
      </trkpt>
      <trkpt lat="48.64019" lon="1.32429">
        <ele>188.80000305176</ele>
        <time>2026-06-18T11:39:23.000Z</time>
      </trkpt>
      <trkpt lat="48.63991" lon="1.32489">
        <ele>188.60000610352</ele>
        <time>2026-06-18T11:39:32.000Z</time>
      </trkpt>
      <trkpt lat="48.63965" lon="1.32537">
        <ele>188.19999694824</ele>
        <time>2026-06-18T11:39:39.000Z</time>
      </trkpt>
      <trkpt lat="48.63957" lon="1.3255">
        <ele>188.19999694824</ele>
        <time>2026-06-18T11:39:41.000Z</time>
      </trkpt>
      <trkpt lat="48.63925" lon="1.3261">
        <ele>187.19999694824</ele>
        <time>2026-06-18T11:39:50.000Z</time>
      </trkpt>
      <trkpt lat="48.63922" lon="1.32616">
        <ele>187.19999694824</ele>
        <time>2026-06-18T11:39:51.000Z</time>
      </trkpt>
      <trkpt lat="48.63907" lon="1.32653">
        <ele>186.80000305176</ele>
        <time>2026-06-18T11:39:56.000Z</time>
      </trkpt>
      <trkpt lat="48.63906" lon="1.32659">
        <ele>186.80000305176</ele>
        <time>2026-06-18T11:39:57.000Z</time>
      </trkpt>
      <trkpt lat="48.63905" lon="1.32667">
        <ele>186.80000305176</ele>
        <time>2026-06-18T11:39:58.000Z</time>
      </trkpt>
      <trkpt lat="48.63903" lon="1.32692">
        <ele>186.80000305176</ele>
        <time>2026-06-18T11:40:01.000Z</time>
      </trkpt>
      <trkpt lat="48.63902" lon="1.32699">
        <ele>186.80000305176</ele>
        <time>2026-06-18T11:40:02.000Z</time>
      </trkpt>
      <trkpt lat="48.63899" lon="1.3273">
        <ele>186.80000305176</ele>
        <time>2026-06-18T11:40:06.000Z</time>
      </trkpt>
      <trkpt lat="48.63896" lon="1.32743">
        <ele>186.80000305176</ele>
        <time>2026-06-18T11:40:08.000Z</time>
      </trkpt>
      <trkpt lat="48.6389" lon="1.32754">
        <ele>186.80000305176</ele>
        <time>2026-06-18T11:40:10.000Z</time>
      </trkpt>
      <trkpt lat="48.63883" lon="1.32762">
        <ele>186.80000305176</ele>
        <time>2026-06-18T11:40:12.000Z</time>
      </trkpt>
      <trkpt lat="48.63855" lon="1.32778">
        <ele>186.80000305176</ele>
        <time>2026-06-18T11:40:17.000Z</time>
      </trkpt>
      <trkpt lat="48.63838" lon="1.32788">
        <ele>186.60000610352</ele>
        <time>2026-06-18T11:40:20.000Z</time>
      </trkpt>
      <trkpt lat="48.63827" lon="1.32803">
        <ele>186.39999389648</ele>
        <time>2026-06-18T11:40:22.000Z</time>
      </trkpt>
      <trkpt lat="48.63824" lon="1.32822">
        <ele>186</ele>
        <time>2026-06-18T11:40:24.000Z</time>
      </trkpt>
      <trkpt lat="48.63825" lon="1.32829">
        <ele>185.80000305176</ele>
        <time>2026-06-18T11:40:25.000Z</time>
      </trkpt>
      <trkpt lat="48.63831" lon="1.32875">
        <ele>185</ele>
        <time>2026-06-18T11:40:30.000Z</time>
      </trkpt>
      <trkpt lat="48.63832" lon="1.32883">
        <ele>185</ele>
        <time>2026-06-18T11:40:31.000Z</time>
      </trkpt>
      <trkpt lat="48.63833" lon="1.32916">
        <ele>185.19999694824</ele>
        <time>2026-06-18T11:40:36.000Z</time>
      </trkpt>
      <trkpt lat="48.63833" lon="1.32922">
        <ele>185.19999694824</ele>
        <time>2026-06-18T11:40:37.000Z</time>
      </trkpt>
      <trkpt lat="48.63832" lon="1.3296">
        <ele>185.60000610352</ele>
        <time>2026-06-18T11:40:43.000Z</time>
      </trkpt>
      <trkpt lat="48.63834" lon="1.33026">
        <ele>185.80000305176</ele>
        <time>2026-06-18T11:40:51.000Z</time>
      </trkpt>
      <trkpt lat="48.63833" lon="1.33033">
        <ele>185.80000305176</ele>
        <time>2026-06-18T11:40:52.000Z</time>
      </trkpt>
      <trkpt lat="48.63832" lon="1.3305">
        <ele>185.80000305176</ele>
        <time>2026-06-18T11:40:55.000Z</time>
      </trkpt>
      <trkpt lat="48.63836" lon="1.3308">
        <ele>185.80000305176</ele>
        <time>2026-06-18T11:41:01.000Z</time>
      </trkpt>
      <trkpt lat="48.63845" lon="1.33128">
        <ele>186</ele>
        <time>2026-06-18T11:41:08.000Z</time>
      </trkpt>
      <trkpt lat="48.6386" lon="1.33191">
        <ele>185.80000305176</ele>
        <time>2026-06-18T11:41:16.000Z</time>
      </trkpt>
      <trkpt lat="48.63881" lon="1.33272">
        <ele>185.80000305176</ele>
        <time>2026-06-18T11:41:26.000Z</time>
      </trkpt>
      <trkpt lat="48.63882" lon="1.3328">
        <ele>185.80000305176</ele>
        <time>2026-06-18T11:41:27.000Z</time>
      </trkpt>
      <trkpt lat="48.63895" lon="1.33367">
        <ele>185.60000610352</ele>
        <time>2026-06-18T11:41:37.000Z</time>
      </trkpt>
      <trkpt lat="48.63901" lon="1.33449">
        <ele>185.60000610352</ele>
        <time>2026-06-18T11:41:46.000Z</time>
      </trkpt>
      <trkpt lat="48.63901" lon="1.33468">
        <ele>185.60000610352</ele>
        <time>2026-06-18T11:41:48.000Z</time>
      </trkpt>
      <trkpt lat="48.63896" lon="1.33556">
        <ele>186</ele>
        <time>2026-06-18T11:41:58.000Z</time>
      </trkpt>
      <trkpt lat="48.63888" lon="1.33636">
        <ele>186.39999389648</ele>
        <time>2026-06-18T11:42:07.000Z</time>
      </trkpt>
      <trkpt lat="48.63886" lon="1.33661">
        <ele>186.60000610352</ele>
        <time>2026-06-18T11:42:10.000Z</time>
      </trkpt>
      <trkpt lat="48.63882" lon="1.33749">
        <ele>187</ele>
        <time>2026-06-18T11:42:20.000Z</time>
      </trkpt>
      <trkpt lat="48.63884" lon="1.33782">
        <ele>187.60000610352</ele>
        <time>2026-06-18T11:42:24.000Z</time>
      </trkpt>
      <trkpt lat="48.63887" lon="1.3384">
        <ele>188.19999694824</ele>
        <time>2026-06-18T11:42:31.000Z</time>
      </trkpt>
      <trkpt lat="48.63888" lon="1.33877">
        <ele>188.60000610352</ele>
        <time>2026-06-18T11:42:36.000Z</time>
      </trkpt>
      <trkpt lat="48.63888" lon="1.33884">
        <ele>188.80000305176</ele>
        <time>2026-06-18T11:42:37.000Z</time>
      </trkpt>
      <trkpt lat="48.63888" lon="1.3393">
        <ele>189.80000305176</ele>
        <time>2026-06-18T11:42:43.000Z</time>
      </trkpt>
      <trkpt lat="48.63888" lon="1.33957">
        <ele>190.60000610352</ele>
        <time>2026-06-18T11:42:47.000Z</time>
      </trkpt>
      <trkpt lat="48.63887" lon="1.33979">
        <ele>191</ele>
        <time>2026-06-18T11:42:50.000Z</time>
      </trkpt>
      <trkpt lat="48.63885" lon="1.33997">
        <ele>191.60000610352</ele>
        <time>2026-06-18T11:42:53.000Z</time>
      </trkpt>
      <trkpt lat="48.63884" lon="1.34001">
        <ele>192</ele>
        <time>2026-06-18T11:42:54.000Z</time>
      </trkpt>
      <trkpt lat="48.63886" lon="1.34017">
        <ele>193</ele>
        <time>2026-06-18T11:42:57.000Z</time>
      </trkpt>
      <trkpt lat="48.63883" lon="1.34041">
        <ele>194</ele>
        <time>2026-06-18T11:43:02.000Z</time>
      </trkpt>
      <trkpt lat="48.63883" lon="1.3406">
        <ele>194.39999389648</ele>
        <time>2026-06-18T11:43:05.000Z</time>
      </trkpt>
      <trkpt lat="48.63883" lon="1.34068">
        <ele>194.39999389648</ele>
        <time>2026-06-18T11:43:06.000Z</time>
      </trkpt>
      <trkpt lat="48.63885" lon="1.34088">
        <ele>194.60000610352</ele>
        <time>2026-06-18T11:43:09.000Z</time>
      </trkpt>
      <trkpt lat="48.63885" lon="1.34101">
        <ele>194.60000610352</ele>
        <time>2026-06-18T11:43:11.000Z</time>
      </trkpt>
      <trkpt lat="48.63883" lon="1.34116">
        <ele>194.80000305176</ele>
        <time>2026-06-18T11:43:13.000Z</time>
      </trkpt>
      <trkpt lat="48.63884" lon="1.34123">
        <ele>195</ele>
        <time>2026-06-18T11:43:14.000Z</time>
      </trkpt>
      <trkpt lat="48.63883" lon="1.34141">
        <ele>195.19999694824</ele>
        <time>2026-06-18T11:43:16.000Z</time>
      </trkpt>
      <trkpt lat="48.63883" lon="1.34156">
        <ele>195.19999694824</ele>
        <time>2026-06-18T11:43:18.000Z</time>
      </trkpt>
      <trkpt lat="48.63882" lon="1.34221">
        <ele>196.19999694824</ele>
        <time>2026-06-18T11:43:27.000Z</time>
      </trkpt>
      <trkpt lat="48.6388" lon="1.34281">
        <ele>196.60000610352</ele>
        <time>2026-06-18T11:43:36.000Z</time>
      </trkpt>
      <trkpt lat="48.63882" lon="1.34329">
        <ele>197</ele>
        <time>2026-06-18T11:43:43.000Z</time>
      </trkpt>
      <trkpt lat="48.63882" lon="1.3435">
        <ele>197.19999694824</ele>
        <time>2026-06-18T11:43:46.000Z</time>
      </trkpt>
      <trkpt lat="48.63882" lon="1.34409">
        <ele>197.39999389648</ele>
        <time>2026-06-18T11:43:55.000Z</time>
      </trkpt>
      <trkpt lat="48.63884" lon="1.3447">
        <ele>198</ele>
        <time>2026-06-18T11:44:05.000Z</time>
      </trkpt>
      <trkpt lat="48.63885" lon="1.34497">
        <ele>198.19999694824</ele>
        <time>2026-06-18T11:44:09.000Z</time>
      </trkpt>
      <trkpt lat="48.63886" lon="1.3451">
        <ele>198.39999389648</ele>
        <time>2026-06-18T11:44:11.000Z</time>
      </trkpt>
      <trkpt lat="48.63892" lon="1.34575">
        <ele>199</ele>
        <time>2026-06-18T11:44:21.000Z</time>
      </trkpt>
      <trkpt lat="48.63898" lon="1.34644">
        <ele>198.80000305176</ele>
        <time>2026-06-18T11:44:31.000Z</time>
      </trkpt>
      <trkpt lat="48.63907" lon="1.34729">
        <ele>198.80000305176</ele>
        <time>2026-06-18T11:44:43.000Z</time>
      </trkpt>
      <trkpt lat="48.63909" lon="1.34757">
        <ele>199.19999694824</ele>
        <time>2026-06-18T11:44:47.000Z</time>
      </trkpt>
      <trkpt lat="48.6391" lon="1.34764">
        <ele>199.19999694824</ele>
        <time>2026-06-18T11:44:48.000Z</time>
      </trkpt>
      <trkpt lat="48.63912" lon="1.34793">
        <ele>199.39999389648</ele>
        <time>2026-06-18T11:44:52.000Z</time>
      </trkpt>
      <trkpt lat="48.63921" lon="1.34859">
        <ele>199.60000610352</ele>
        <time>2026-06-18T11:45:01.000Z</time>
      </trkpt>
      <trkpt lat="48.63937" lon="1.34943">
        <ele>199.39999389648</ele>
        <time>2026-06-18T11:45:13.000Z</time>
      </trkpt>
      <trkpt lat="48.63952" lon="1.35025">
        <ele>199.60000610352</ele>
        <time>2026-06-18T11:45:24.000Z</time>
      </trkpt>
      <trkpt lat="48.63955" lon="1.3504">
        <ele>199.60000610352</ele>
        <time>2026-06-18T11:45:26.000Z</time>
      </trkpt>
      <trkpt lat="48.63967" lon="1.35117">
        <ele>199.39999389648</ele>
        <time>2026-06-18T11:45:36.000Z</time>
      </trkpt>
      <trkpt lat="48.63974" lon="1.35186">
        <ele>199.60000610352</ele>
        <time>2026-06-18T11:45:45.000Z</time>
      </trkpt>
      <trkpt lat="48.63977" lon="1.35257">
        <ele>199.80000305176</ele>
        <time>2026-06-18T11:45:54.000Z</time>
      </trkpt>
      <trkpt lat="48.63977" lon="1.35339">
        <ele>199.60000610352</ele>
        <time>2026-06-18T11:46:04.000Z</time>
      </trkpt>
      <trkpt lat="48.63976" lon="1.35414">
        <ele>199.19999694824</ele>
        <time>2026-06-18T11:46:13.000Z</time>
      </trkpt>
      <trkpt lat="48.63975" lon="1.35439">
        <ele>199.19999694824</ele>
        <time>2026-06-18T11:46:16.000Z</time>
      </trkpt>
      <trkpt lat="48.63972" lon="1.35505">
        <ele>199.19999694824</ele>
        <time>2026-06-18T11:46:24.000Z</time>
      </trkpt>
      <trkpt lat="48.63968" lon="1.3559">
        <ele>199.19999694824</ele>
        <time>2026-06-18T11:46:34.000Z</time>
      </trkpt>
      <trkpt lat="48.63966" lon="1.35676">
        <ele>199.19999694824</ele>
        <time>2026-06-18T11:46:44.000Z</time>
      </trkpt>
      <trkpt lat="48.63965" lon="1.35685">
        <ele>199.19999694824</ele>
        <time>2026-06-18T11:46:45.000Z</time>
      </trkpt>
      <trkpt lat="48.63964" lon="1.35769">
        <ele>198.60000610352</ele>
        <time>2026-06-18T11:46:55.000Z</time>
      </trkpt>
      <trkpt lat="48.63968" lon="1.3583">
        <ele>198.19999694824</ele>
        <time>2026-06-18T11:47:02.000Z</time>
      </trkpt>
      <trkpt lat="48.63971" lon="1.35867">
        <ele>198.19999694824</ele>
        <time>2026-06-18T11:47:06.000Z</time>
      </trkpt>
      <trkpt lat="48.63977" lon="1.35951">
        <ele>197.39999389648</ele>
        <time>2026-06-18T11:47:15.000Z</time>
      </trkpt>
      <trkpt lat="48.63977" lon="1.35961">
        <ele>197.19999694824</ele>
        <time>2026-06-18T11:47:16.000Z</time>
      </trkpt>
      <trkpt lat="48.63983" lon="1.36017">
        <ele>196.39999389648</ele>
        <time>2026-06-18T11:47:22.000Z</time>
      </trkpt>
      <trkpt lat="48.63985" lon="1.36027">
        <ele>196.19999694824</ele>
        <time>2026-06-18T11:47:23.000Z</time>
      </trkpt>
      <trkpt lat="48.64008" lon="1.36085">
        <ele>195.60000610352</ele>
        <time>2026-06-18T11:47:30.000Z</time>
      </trkpt>
      <trkpt lat="48.64015" lon="1.36101">
        <ele>195.19999694824</ele>
        <time>2026-06-18T11:47:32.000Z</time>
      </trkpt>
      <trkpt lat="48.64033" lon="1.36142">
        <ele>194.60000610352</ele>
        <time>2026-06-18T11:47:37.000Z</time>
      </trkpt>
      <trkpt lat="48.64048" lon="1.36178">
        <ele>193.80000305176</ele>
        <time>2026-06-18T11:47:41.000Z</time>
      </trkpt>
      <trkpt lat="48.64059" lon="1.3623">
        <ele>193</ele>
        <time>2026-06-18T11:47:46.000Z</time>
      </trkpt>
      <trkpt lat="48.6406" lon="1.36253">
        <ele>192.80000305176</ele>
        <time>2026-06-18T11:47:48.000Z</time>
      </trkpt>
      <trkpt lat="48.6406" lon="1.36287">
        <ele>192.39999389648</ele>
        <time>2026-06-18T11:47:51.000Z</time>
      </trkpt>
      <trkpt lat="48.64058" lon="1.3632">
        <ele>191.80000305176</ele>
        <time>2026-06-18T11:47:54.000Z</time>
      </trkpt>
      <trkpt lat="48.64054" lon="1.36374">
        <ele>190.60000610352</ele>
        <time>2026-06-18T11:47:59.000Z</time>
      </trkpt>
      <trkpt lat="48.64052" lon="1.36406">
        <ele>190.39999389648</ele>
        <time>2026-06-18T11:48:02.000Z</time>
      </trkpt>
      <trkpt lat="48.64042" lon="1.36466">
        <ele>189.60000610352</ele>
        <time>2026-06-18T11:48:08.000Z</time>
      </trkpt>
      <trkpt lat="48.6404" lon="1.36475">
        <ele>189.60000610352</ele>
        <time>2026-06-18T11:48:09.000Z</time>
      </trkpt>
      <trkpt lat="48.64023" lon="1.36548">
        <ele>189.19999694824</ele>
        <time>2026-06-18T11:48:17.000Z</time>
      </trkpt>
      <trkpt lat="48.64006" lon="1.36619">
        <ele>188.80000305176</ele>
        <time>2026-06-18T11:48:25.000Z</time>
      </trkpt>
      <trkpt lat="48.64004" lon="1.36628">
        <ele>188.60000610352</ele>
        <time>2026-06-18T11:48:26.000Z</time>
      </trkpt>
      <trkpt lat="48.6399" lon="1.3669">
        <ele>187.60000610352</ele>
        <time>2026-06-18T11:48:33.000Z</time>
      </trkpt>
      <trkpt lat="48.63986" lon="1.36717">
        <ele>187.39999389648</ele>
        <time>2026-06-18T11:48:36.000Z</time>
      </trkpt>
      <trkpt lat="48.63985" lon="1.36755">
        <ele>187.19999694824</ele>
        <time>2026-06-18T11:48:40.000Z</time>
      </trkpt>
      <trkpt lat="48.63986" lon="1.36764">
        <ele>187.19999694824</ele>
        <time>2026-06-18T11:48:41.000Z</time>
      </trkpt>
      <trkpt lat="48.6399" lon="1.36784">
        <ele>187.19999694824</ele>
        <time>2026-06-18T11:48:43.000Z</time>
      </trkpt>
      <trkpt lat="48.63997" lon="1.36802">
        <ele>187</ele>
        <time>2026-06-18T11:48:45.000Z</time>
      </trkpt>
      <trkpt lat="48.64013" lon="1.36838">
        <ele>186.39999389648</ele>
        <time>2026-06-18T11:48:49.000Z</time>
      </trkpt>
      <trkpt lat="48.64033" lon="1.36884">
        <ele>185</ele>
        <time>2026-06-18T11:48:54.000Z</time>
      </trkpt>
      <trkpt lat="48.64041" lon="1.36903">
        <ele>184.80000305176</ele>
        <time>2026-06-18T11:48:56.000Z</time>
      </trkpt>
      <trkpt lat="48.64045" lon="1.36925">
        <ele>184.60000610352</ele>
        <time>2026-06-18T11:48:58.000Z</time>
      </trkpt>
      <trkpt lat="48.64042" lon="1.36948">
        <ele>184.39999389648</ele>
        <time>2026-06-18T11:49:00.000Z</time>
      </trkpt>
      <trkpt lat="48.64039" lon="1.36956">
        <ele>184.19999694824</ele>
        <time>2026-06-18T11:49:01.000Z</time>
      </trkpt>
      <trkpt lat="48.64034" lon="1.36967">
        <ele>184.19999694824</ele>
        <time>2026-06-18T11:49:02.000Z</time>
      </trkpt>
      <trkpt lat="48.64029" lon="1.36975">
        <ele>183.80000305176</ele>
        <time>2026-06-18T11:49:03.000Z</time>
      </trkpt>
      <trkpt lat="48.64021" lon="1.3699">
        <ele>183.60000610352</ele>
        <time>2026-06-18T11:49:05.000Z</time>
      </trkpt>
      <trkpt lat="48.6399" lon="1.37039">
        <ele>183.39999389648</ele>
        <time>2026-06-18T11:49:12.000Z</time>
      </trkpt>
      <trkpt lat="48.63958" lon="1.37078">
        <ele>183.60000610352</ele>
        <time>2026-06-18T11:49:19.000Z</time>
      </trkpt>
      <trkpt lat="48.63917" lon="1.37119">
        <ele>183.80000305176</ele>
        <time>2026-06-18T11:49:28.000Z</time>
      </trkpt>
      <trkpt lat="48.63872" lon="1.37159">
        <ele>184.60000610352</ele>
        <time>2026-06-18T11:49:38.000Z</time>
      </trkpt>
      <trkpt lat="48.63865" lon="1.37167">
        <ele>184.80000305176</ele>
        <time>2026-06-18T11:49:40.000Z</time>
      </trkpt>
      <trkpt lat="48.63839" lon="1.37189">
        <ele>185.60000610352</ele>
        <time>2026-06-18T11:49:46.000Z</time>
      </trkpt>
      <trkpt lat="48.63811" lon="1.3721">
        <ele>186.19999694824</ele>
        <time>2026-06-18T11:49:52.000Z</time>
      </trkpt>
      <trkpt lat="48.63807" lon="1.37214">
        <ele>186.19999694824</ele>
        <time>2026-06-18T11:49:53.000Z</time>
      </trkpt>
      <trkpt lat="48.63798" lon="1.37224">
        <ele>186.19999694824</ele>
        <time>2026-06-18T11:49:55.000Z</time>
      </trkpt>
      <trkpt lat="48.63784" lon="1.37237">
        <ele>186.19999694824</ele>
        <time>2026-06-18T11:49:58.000Z</time>
      </trkpt>
      <trkpt lat="48.63776" lon="1.37249">
        <ele>186.19999694824</ele>
        <time>2026-06-18T11:50:00.000Z</time>
      </trkpt>
      <trkpt lat="48.6377" lon="1.37266">
        <ele>186</ele>
        <time>2026-06-18T11:50:02.000Z</time>
      </trkpt>
      <trkpt lat="48.63768" lon="1.37272">
        <ele>186</ele>
        <time>2026-06-18T11:50:03.000Z</time>
      </trkpt>
      <trkpt lat="48.63755" lon="1.37302">
        <ele>185.80000305176</ele>
        <time>2026-06-18T11:50:07.000Z</time>
      </trkpt>
      <trkpt lat="48.6374" lon="1.37341">
        <ele>186</ele>
        <time>2026-06-18T11:50:12.000Z</time>
      </trkpt>
      <trkpt lat="48.63734" lon="1.37352">
        <ele>186</ele>
        <time>2026-06-18T11:50:14.000Z</time>
      </trkpt>
      <trkpt lat="48.63726" lon="1.37367">
        <ele>186.19999694824</ele>
        <time>2026-06-18T11:50:16.000Z</time>
      </trkpt>
      <trkpt lat="48.63721" lon="1.37382">
        <ele>186.19999694824</ele>
        <time>2026-06-18T11:50:18.000Z</time>
      </trkpt>
      <trkpt lat="48.6372" lon="1.37416">
        <ele>186.39999389648</ele>
        <time>2026-06-18T11:50:23.000Z</time>
      </trkpt>
      <trkpt lat="48.63708" lon="1.37437">
        <ele>186.39999389648</ele>
        <time>2026-06-18T11:50:27.000Z</time>
      </trkpt>
      <trkpt lat="48.63701" lon="1.37447">
        <ele>186.19999694824</ele>
        <time>2026-06-18T11:50:29.000Z</time>
      </trkpt>
      <trkpt lat="48.63685" lon="1.37461">
        <ele>186</ele>
        <time>2026-06-18T11:50:33.000Z</time>
      </trkpt>
      <trkpt lat="48.63675" lon="1.37472">
        <ele>186</ele>
        <time>2026-06-18T11:50:37.000Z</time>
      </trkpt>
      <trkpt lat="48.63677" lon="1.37472">
        <ele>185.80000305176</ele>
        <time>2026-06-18T11:50:39.000Z</time>
      </trkpt>
      <trkpt lat="48.63691" lon="1.3746">
        <ele>185.60000610352</ele>
        <time>2026-06-18T11:50:47.000Z</time>
      </trkpt>
      <trkpt lat="48.63691" lon="1.37461">
        <ele>185.60000610352</ele>
        <time>2026-06-18T11:50:53.000Z</time>
      </trkpt>
      <trkpt lat="48.63692" lon="1.37461">
        <ele>185</ele>
        <time>2026-06-18T11:51:08.000Z</time>
      </trkpt>
      <trkpt lat="48.63692" lon="1.37461">
        <ele>185.60000610352</ele>
        <time>2026-06-18T11:51:25.000Z</time>
      </trkpt>
      <trkpt lat="48.63692" lon="1.37461">
        <ele>186.19999694824</ele>
        <time>2026-06-18T11:51:37.000Z</time>
      </trkpt>
      <trkpt lat="48.63692" lon="1.37461">
        <ele>186.60000610352</ele>
        <time>2026-06-18T11:52:39.000Z</time>
      </trkpt>
      <trkpt lat="48.63692" lon="1.37461">
        <ele>186.19999694824</ele>
        <time>2026-06-18T11:53:39.000Z</time>
      </trkpt>
      <trkpt lat="48.63692" lon="1.37461">
        <ele>187</ele>
        <time>2026-06-18T11:54:24.000Z</time>
      </trkpt>
      <trkpt lat="48.63692" lon="1.37461">
        <ele>187.39999389648</ele>
        <time>2026-06-18T11:54:27.000Z</time>
      </trkpt>
      <trkpt lat="48.63692" lon="1.37461">
        <ele>186.80000305176</ele>
        <time>2026-06-18T11:55:11.000Z</time>
      </trkpt>
      <trkpt lat="48.63692" lon="1.37461">
        <ele>187.39999389648</ele>
        <time>2026-06-18T11:55:59.000Z</time>
      </trkpt>
      <trkpt lat="48.63692" lon="1.37461">
        <ele>187.39999389648</ele>
        <time>2026-06-18T11:56:49.000Z</time>
      </trkpt>
      <trkpt lat="48.63692" lon="1.37461">
        <ele>186.60000610352</ele>
        <time>2026-06-18T11:57:28.000Z</time>
      </trkpt>
      <trkpt lat="48.63692" lon="1.37461">
        <ele>186.19999694824</ele>
        <time>2026-06-18T11:57:40.000Z</time>
      </trkpt>
      <trkpt lat="48.63691" lon="1.37461">
        <ele>186.80000305176</ele>
        <time>2026-06-18T11:59:13.000Z</time>
      </trkpt>
      <trkpt lat="48.63691" lon="1.37462">
        <ele>186.60000610352</ele>
        <time>2026-06-18T12:02:23.000Z</time>
      </trkpt>
      <trkpt lat="48.63689" lon="1.3746">
        <ele>186.80000305176</ele>
        <time>2026-06-18T12:03:03.000Z</time>
      </trkpt>
      <trkpt lat="48.63689" lon="1.3746">
        <ele>186.19999694824</ele>
        <time>2026-06-18T12:03:09.000Z</time>
      </trkpt>
      <trkpt lat="48.63685" lon="1.37464">
        <ele>185.80000305176</ele>
        <time>2026-06-18T12:03:12.000Z</time>
      </trkpt>
      <trkpt lat="48.63683" lon="1.37468">
        <ele>185.80000305176</ele>
        <time>2026-06-18T12:03:14.000Z</time>
      </trkpt>
      <trkpt lat="48.63676" lon="1.37472">
        <ele>185.60000610352</ele>
        <time>2026-06-18T12:03:17.000Z</time>
      </trkpt>
      <trkpt lat="48.63665" lon="1.37478">
        <ele>185.60000610352</ele>
        <time>2026-06-18T12:03:22.000Z</time>
      </trkpt>
      <trkpt lat="48.63651" lon="1.37486">
        <ele>185.39999389648</ele>
        <time>2026-06-18T12:03:30.000Z</time>
      </trkpt>
      <trkpt lat="48.63635" lon="1.37489">
        <ele>185.60000610352</ele>
        <time>2026-06-18T12:03:37.000Z</time>
      </trkpt>
      <trkpt lat="48.63616" lon="1.37495">
        <ele>186</ele>
        <time>2026-06-18T12:03:44.000Z</time>
      </trkpt>
      <trkpt lat="48.63597" lon="1.37506">
        <ele>186.60000610352</ele>
        <time>2026-06-18T12:03:50.000Z</time>
      </trkpt>
      <trkpt lat="48.63577" lon="1.37513">
        <ele>187</ele>
        <time>2026-06-18T12:03:57.000Z</time>
      </trkpt>
      <trkpt lat="48.63568" lon="1.37514">
        <ele>187.39999389648</ele>
        <time>2026-06-18T12:04:00.000Z</time>
      </trkpt>
      <trkpt lat="48.63554" lon="1.37516">
        <ele>187.80000305176</ele>
        <time>2026-06-18T12:04:04.000Z</time>
      </trkpt>
      <trkpt lat="48.63528" lon="1.3752">
        <ele>188.19999694824</ele>
        <time>2026-06-18T12:04:11.000Z</time>
      </trkpt>
      <trkpt lat="48.63519" lon="1.37524">
        <ele>188.39999389648</ele>
        <time>2026-06-18T12:04:14.000Z</time>
      </trkpt>
      <trkpt lat="48.63498" lon="1.37531">
        <ele>188.80000305176</ele>
        <time>2026-06-18T12:04:20.000Z</time>
      </trkpt>
      <trkpt lat="48.63479" lon="1.3754">
        <ele>188.80000305176</ele>
        <time>2026-06-18T12:04:26.000Z</time>
      </trkpt>
      <trkpt lat="48.63469" lon="1.37544">
        <ele>189</ele>
        <time>2026-06-18T12:04:29.000Z</time>
      </trkpt>
      <trkpt lat="48.63445" lon="1.37559">
        <ele>189.39999389648</ele>
        <time>2026-06-18T12:04:37.000Z</time>
      </trkpt>
      <trkpt lat="48.63443" lon="1.37561">
        <ele>189.60000610352</ele>
        <time>2026-06-18T12:04:38.000Z</time>
      </trkpt>
      <trkpt lat="48.63431" lon="1.37579">
        <ele>189.80000305176</ele>
        <time>2026-06-18T12:04:43.000Z</time>
      </trkpt>
      <trkpt lat="48.63419" lon="1.37618">
        <ele>190.39999389648</ele>
        <time>2026-06-18T12:04:51.000Z</time>
      </trkpt>
      <trkpt lat="48.63419" lon="1.37624">
        <ele>190.60000610352</ele>
        <time>2026-06-18T12:04:52.000Z</time>
      </trkpt>
      <trkpt lat="48.63419" lon="1.37643">
        <ele>190.60000610352</ele>
        <time>2026-06-18T12:04:55.000Z</time>
      </trkpt>
      <trkpt lat="48.63419" lon="1.37661">
        <ele>190.80000305176</ele>
        <time>2026-06-18T12:04:58.000Z</time>
      </trkpt>
      <trkpt lat="48.63415" lon="1.37696">
        <ele>190.80000305176</ele>
        <time>2026-06-18T12:05:04.000Z</time>
      </trkpt>
      <trkpt lat="48.63402" lon="1.37719">
        <ele>191</ele>
        <time>2026-06-18T12:05:09.000Z</time>
      </trkpt>
      <trkpt lat="48.63381" lon="1.37737">
        <ele>191.39999389648</ele>
        <time>2026-06-18T12:05:15.000Z</time>
      </trkpt>
      <trkpt lat="48.63377" lon="1.37739">
        <ele>191.60000610352</ele>
        <time>2026-06-18T12:05:16.000Z</time>
      </trkpt>
      <trkpt lat="48.63353" lon="1.37758">
        <ele>192.19999694824</ele>
        <time>2026-06-18T12:05:23.000Z</time>
      </trkpt>
      <trkpt lat="48.63331" lon="1.37773">
        <ele>192.39999389648</ele>
        <time>2026-06-18T12:05:29.000Z</time>
      </trkpt>
      <trkpt lat="48.63288" lon="1.37799">
        <ele>191.80000305176</ele>
        <time>2026-06-18T12:05:39.000Z</time>
      </trkpt>
      <trkpt lat="48.63244" lon="1.37824">
        <ele>191.19999694824</ele>
        <time>2026-06-18T12:05:49.000Z</time>
      </trkpt>
      <trkpt lat="48.63208" lon="1.37845">
        <ele>190.60000610352</ele>
        <time>2026-06-18T12:05:57.000Z</time>
      </trkpt>
      <trkpt lat="48.63204" lon="1.37848">
        <ele>190.60000610352</ele>
        <time>2026-06-18T12:05:58.000Z</time>
      </trkpt>
      <trkpt lat="48.63166" lon="1.37879">
        <ele>190.39999389648</ele>
        <time>2026-06-18T12:06:07.000Z</time>
      </trkpt>
      <trkpt lat="48.63162" lon="1.37884">
        <ele>190.39999389648</ele>
        <time>2026-06-18T12:06:08.000Z</time>
      </trkpt>
      <trkpt lat="48.63127" lon="1.37926">
        <ele>191</ele>
        <time>2026-06-18T12:06:18.000Z</time>
      </trkpt>
      <trkpt lat="48.63097" lon="1.37954">
        <ele>191.80000305176</ele>
        <time>2026-06-18T12:06:26.000Z</time>
      </trkpt>
      <trkpt lat="48.63057" lon="1.37974">
        <ele>192.60000610352</ele>
        <time>2026-06-18T12:06:35.000Z</time>
      </trkpt>
      <trkpt lat="48.63047" lon="1.37976">
        <ele>193</ele>
        <time>2026-06-18T12:06:37.000Z</time>
      </trkpt>
      <trkpt lat="48.63007" lon="1.37983">
        <ele>194.19999694824</ele>
        <time>2026-06-18T12:06:46.000Z</time>
      </trkpt>
      <trkpt lat="48.62971" lon="1.37993">
        <ele>194.80000305176</ele>
        <time>2026-06-18T12:06:54.000Z</time>
      </trkpt>
      <trkpt lat="48.62953" lon="1.38">
        <ele>195.19999694824</ele>
        <time>2026-06-18T12:06:58.000Z</time>
      </trkpt>
      <trkpt lat="48.62948" lon="1.38001">
        <ele>195.39999389648</ele>
        <time>2026-06-18T12:06:59.000Z</time>
      </trkpt>
      <trkpt lat="48.62906" lon="1.38019">
        <ele>195.60000610352</ele>
        <time>2026-06-18T12:07:08.000Z</time>
      </trkpt>
      <trkpt lat="48.62857" lon="1.38043">
        <ele>195.80000305176</ele>
        <time>2026-06-18T12:07:19.000Z</time>
      </trkpt>
      <trkpt lat="48.62814" lon="1.38073">
        <ele>196.19999694824</ele>
        <time>2026-06-18T12:07:29.000Z</time>
      </trkpt>
      <trkpt lat="48.6281" lon="1.38076">
        <ele>196.39999389648</ele>
        <time>2026-06-18T12:07:30.000Z</time>
      </trkpt>
      <trkpt lat="48.62766" lon="1.3811">
        <ele>197.39999389648</ele>
        <time>2026-06-18T12:07:40.000Z</time>
      </trkpt>
      <trkpt lat="48.62754" lon="1.38118">
        <ele>197.39999389648</ele>
        <time>2026-06-18T12:07:43.000Z</time>
      </trkpt>
      <trkpt lat="48.62703" lon="1.38149">
        <ele>198</ele>
        <time>2026-06-18T12:07:54.000Z</time>
      </trkpt>
      <trkpt lat="48.62695" lon="1.38155">
        <ele>198</ele>
        <time>2026-06-18T12:07:56.000Z</time>
      </trkpt>
      <trkpt lat="48.62673" lon="1.38171">
        <ele>198.39999389648</ele>
        <time>2026-06-18T12:08:01.000Z</time>
      </trkpt>
      <trkpt lat="48.6266" lon="1.38181">
        <ele>198.39999389648</ele>
        <time>2026-06-18T12:08:04.000Z</time>
      </trkpt>
      <trkpt lat="48.62608" lon="1.38222">
        <ele>199.19999694824</ele>
        <time>2026-06-18T12:08:16.000Z</time>
      </trkpt>
      <trkpt lat="48.62604" lon="1.38225">
        <ele>199.39999389648</ele>
        <time>2026-06-18T12:08:17.000Z</time>
      </trkpt>
      <trkpt lat="48.62563" lon="1.38257">
        <ele>200.39999389648</ele>
        <time>2026-06-18T12:08:27.000Z</time>
      </trkpt>
      <trkpt lat="48.62558" lon="1.38259">
        <ele>200.39999389648</ele>
        <time>2026-06-18T12:08:28.000Z</time>
      </trkpt>
      <trkpt lat="48.62543" lon="1.38264">
        <ele>200.80000305176</ele>
        <time>2026-06-18T12:08:31.000Z</time>
      </trkpt>
      <trkpt lat="48.62535" lon="1.38262">
        <ele>201</ele>
        <time>2026-06-18T12:08:33.000Z</time>
      </trkpt>
      <trkpt lat="48.62509" lon="1.38244">
        <ele>201.60000610352</ele>
        <time>2026-06-18T12:08:39.000Z</time>
      </trkpt>
      <trkpt lat="48.62505" lon="1.38241">
        <ele>201.60000610352</ele>
        <time>2026-06-18T12:08:40.000Z</time>
      </trkpt>
      <trkpt lat="48.62466" lon="1.38216">
        <ele>202.39999389648</ele>
        <time>2026-06-18T12:08:49.000Z</time>
      </trkpt>
      <trkpt lat="48.62452" lon="1.38212">
        <ele>202.60000610352</ele>
        <time>2026-06-18T12:08:52.000Z</time>
      </trkpt>
      <trkpt lat="48.62432" lon="1.38208">
        <ele>203</ele>
        <time>2026-06-18T12:08:56.000Z</time>
      </trkpt>
      <trkpt lat="48.6239" lon="1.38213">
        <ele>203.60000610352</ele>
        <time>2026-06-18T12:09:05.000Z</time>
      </trkpt>
      <trkpt lat="48.62376" lon="1.38214">
        <ele>203.80000305176</ele>
        <time>2026-06-18T12:09:08.000Z</time>
      </trkpt>
      <trkpt lat="48.62352" lon="1.38211">
        <ele>204</ele>
        <time>2026-06-18T12:09:13.000Z</time>
      </trkpt>
      <trkpt lat="48.62308" lon="1.38196">
        <ele>204.39999389648</ele>
        <time>2026-06-18T12:09:22.000Z</time>
      </trkpt>
      <trkpt lat="48.62296" lon="1.3819">
        <ele>204.60000610352</ele>
        <time>2026-06-18T12:09:25.000Z</time>
      </trkpt>
      <trkpt lat="48.62281" lon="1.38181">
        <ele>204.80000305176</ele>
        <time>2026-06-18T12:09:28.000Z</time>
      </trkpt>
      <trkpt lat="48.62272" lon="1.38174">
        <ele>204.80000305176</ele>
        <time>2026-06-18T12:09:30.000Z</time>
      </trkpt>
      <trkpt lat="48.62259" lon="1.38162">
        <ele>205</ele>
        <time>2026-06-18T12:09:33.000Z</time>
      </trkpt>
      <trkpt lat="48.62252" lon="1.38153">
        <ele>205</ele>
        <time>2026-06-18T12:09:35.000Z</time>
      </trkpt>
      <trkpt lat="48.62234" lon="1.38129">
        <ele>205</ele>
        <time>2026-06-18T12:09:40.000Z</time>
      </trkpt>
      <trkpt lat="48.62227" lon="1.38118">
        <ele>205.19999694824</ele>
        <time>2026-06-18T12:09:42.000Z</time>
      </trkpt>
      <trkpt lat="48.62197" lon="1.38074">
        <ele>205.60000610352</ele>
        <time>2026-06-18T12:09:50.000Z</time>
      </trkpt>
      <trkpt lat="48.62187" lon="1.38058">
        <ele>206</ele>
        <time>2026-06-18T12:09:53.000Z</time>
      </trkpt>
      <trkpt lat="48.6217" lon="1.38031">
        <ele>206.19999694824</ele>
        <time>2026-06-18T12:09:58.000Z</time>
      </trkpt>
      <trkpt lat="48.62152" lon="1.37999">
        <ele>206.60000610352</ele>
        <time>2026-06-18T12:10:04.000Z</time>
      </trkpt>
      <trkpt lat="48.62144" lon="1.37988">
        <ele>206.80000305176</ele>
        <time>2026-06-18T12:10:07.000Z</time>
      </trkpt>
      <trkpt lat="48.6214" lon="1.37986">
        <ele>206.80000305176</ele>
        <time>2026-06-18T12:10:08.000Z</time>
      </trkpt>
      <trkpt lat="48.62137" lon="1.37987">
        <ele>206.80000305176</ele>
        <time>2026-06-18T12:10:09.000Z</time>
      </trkpt>
      <trkpt lat="48.62132" lon="1.3799">
        <ele>206.80000305176</ele>
        <time>2026-06-18T12:10:10.000Z</time>
      </trkpt>
      <trkpt lat="48.62115" lon="1.38004">
        <ele>207</ele>
        <time>2026-06-18T12:10:14.000Z</time>
      </trkpt>
      <trkpt lat="48.62082" lon="1.38044">
        <ele>207.19999694824</ele>
        <time>2026-06-18T12:10:22.000Z</time>
      </trkpt>
      <trkpt lat="48.62066" lon="1.38074">
        <ele>207.19999694824</ele>
        <time>2026-06-18T12:10:27.000Z</time>
      </trkpt>
      <trkpt lat="48.62062" lon="1.38086">
        <ele>207.19999694824</ele>
        <time>2026-06-18T12:10:29.000Z</time>
      </trkpt>
      <trkpt lat="48.62063" lon="1.38101">
        <ele>207.19999694824</ele>
        <time>2026-06-18T12:10:31.000Z</time>
      </trkpt>
      <trkpt lat="48.62064" lon="1.38108">
        <ele>207.19999694824</ele>
        <time>2026-06-18T12:10:32.000Z</time>
      </trkpt>
      <trkpt lat="48.62067" lon="1.38116">
        <ele>207</ele>
        <time>2026-06-18T12:10:33.000Z</time>
      </trkpt>
      <trkpt lat="48.62074" lon="1.38128">
        <ele>207</ele>
        <time>2026-06-18T12:10:35.000Z</time>
      </trkpt>
      <trkpt lat="48.62098" lon="1.38162">
        <ele>206.60000610352</ele>
        <time>2026-06-18T12:10:41.000Z</time>
      </trkpt>
      <trkpt lat="48.62102" lon="1.38168">
        <ele>206.60000610352</ele>
        <time>2026-06-18T12:10:42.000Z</time>
      </trkpt>
      <trkpt lat="48.62105" lon="1.38175">
        <ele>206.60000610352</ele>
        <time>2026-06-18T12:10:43.000Z</time>
      </trkpt>
      <trkpt lat="48.62105" lon="1.3819">
        <ele>206.39999389648</ele>
        <time>2026-06-18T12:10:45.000Z</time>
      </trkpt>
      <trkpt lat="48.62096" lon="1.38214">
        <ele>206.19999694824</ele>
        <time>2026-06-18T12:10:48.000Z</time>
      </trkpt>
      <trkpt lat="48.62085" lon="1.38267">
        <ele>206</ele>
        <time>2026-06-18T12:10:55.000Z</time>
      </trkpt>
      <trkpt lat="48.62066" lon="1.3834">
        <ele>205.80000305176</ele>
        <time>2026-06-18T12:11:05.000Z</time>
      </trkpt>
      <trkpt lat="48.62055" lon="1.38399">
        <ele>205.80000305176</ele>
        <time>2026-06-18T12:11:13.000Z</time>
      </trkpt>
      <trkpt lat="48.62045" lon="1.38482">
        <ele>206.80000305176</ele>
        <time>2026-06-18T12:11:24.000Z</time>
      </trkpt>
      <trkpt lat="48.62043" lon="1.38498">
        <ele>207</ele>
        <time>2026-06-18T12:11:26.000Z</time>
      </trkpt>
      <trkpt lat="48.62038" lon="1.38528">
        <ele>207.19999694824</ele>
        <time>2026-06-18T12:11:30.000Z</time>
      </trkpt>
      <trkpt lat="48.62036" lon="1.38536">
        <ele>207.19999694824</ele>
        <time>2026-06-18T12:11:31.000Z</time>
      </trkpt>
      <trkpt lat="48.62034" lon="1.38543">
        <ele>207.39999389648</ele>
        <time>2026-06-18T12:11:32.000Z</time>
      </trkpt>
      <trkpt lat="48.6203" lon="1.38566">
        <ele>207.60000610352</ele>
        <time>2026-06-18T12:11:35.000Z</time>
      </trkpt>
      <trkpt lat="48.62021" lon="1.3863">
        <ele>207.80000305176</ele>
        <time>2026-06-18T12:11:43.000Z</time>
      </trkpt>
      <trkpt lat="48.62014" lon="1.38695">
        <ele>207.39999389648</ele>
        <time>2026-06-18T12:11:50.000Z</time>
      </trkpt>
      <trkpt lat="48.62005" lon="1.3876">
        <ele>206.60000610352</ele>
        <time>2026-06-18T12:11:57.000Z</time>
      </trkpt>
      <trkpt lat="48.62002" lon="1.38771">
        <ele>206.39999389648</ele>
        <time>2026-06-18T12:11:58.000Z</time>
      </trkpt>
      <trkpt lat="48.61989" lon="1.38817">
        <ele>206</ele>
        <time>2026-06-18T12:12:03.000Z</time>
      </trkpt>
      <trkpt lat="48.61986" lon="1.38825">
        <ele>205.80000305176</ele>
        <time>2026-06-18T12:12:04.000Z</time>
      </trkpt>
      <trkpt lat="48.6196" lon="1.38879">
        <ele>205.39999389648</ele>
        <time>2026-06-18T12:12:11.000Z</time>
      </trkpt>
      <trkpt lat="48.61957" lon="1.38889">
        <ele>205.19999694824</ele>
        <time>2026-06-18T12:12:12.000Z</time>
      </trkpt>
      <trkpt lat="48.61954" lon="1.38906">
        <ele>205.19999694824</ele>
        <time>2026-06-18T12:12:14.000Z</time>
      </trkpt>
      <trkpt lat="48.61953" lon="1.38918">
        <ele>205.19999694824</ele>
        <time>2026-06-18T12:12:15.000Z</time>
      </trkpt>
      <trkpt lat="48.61955" lon="1.38965">
        <ele>204.60000610352</ele>
        <time>2026-06-18T12:12:20.000Z</time>
      </trkpt>
      <trkpt lat="48.61956" lon="1.38977">
        <ele>204.80000305176</ele>
        <time>2026-06-18T12:12:21.000Z</time>
      </trkpt>
      <trkpt lat="48.6196" lon="1.39008">
        <ele>204.19999694824</ele>
        <time>2026-06-18T12:12:24.000Z</time>
      </trkpt>
      <trkpt lat="48.61965" lon="1.39025">
        <ele>204</ele>
        <time>2026-06-18T12:12:26.000Z</time>
      </trkpt>
      <trkpt lat="48.61971" lon="1.39046">
        <ele>203.80000305176</ele>
        <time>2026-06-18T12:12:28.000Z</time>
      </trkpt>
      <trkpt lat="48.61979" lon="1.39062">
        <ele>203.80000305176</ele>
        <time>2026-06-18T12:12:30.000Z</time>
      </trkpt>
      <trkpt lat="48.61986" lon="1.39077">
        <ele>203.60000610352</ele>
        <time>2026-06-18T12:12:32.000Z</time>
      </trkpt>
      <trkpt lat="48.62007" lon="1.39121">
        <ele>203.19999694824</ele>
        <time>2026-06-18T12:12:37.000Z</time>
      </trkpt>
      <trkpt lat="48.62009" lon="1.39132">
        <ele>202.80000305176</ele>
        <time>2026-06-18T12:12:38.000Z</time>
      </trkpt>
      <trkpt lat="48.62012" lon="1.39145">
        <ele>202.60000610352</ele>
        <time>2026-06-18T12:12:39.000Z</time>
      </trkpt>
      <trkpt lat="48.62012" lon="1.39165">
        <ele>202</ele>
        <time>2026-06-18T12:12:41.000Z</time>
      </trkpt>
      <trkpt lat="48.62006" lon="1.39214">
        <ele>201.19999694824</ele>
        <time>2026-06-18T12:12:45.000Z</time>
      </trkpt>
      <trkpt lat="48.62005" lon="1.39226">
        <ele>201</ele>
        <time>2026-06-18T12:12:46.000Z</time>
      </trkpt>
      <trkpt lat="48.62" lon="1.39274">
        <ele>200</ele>
        <time>2026-06-18T12:12:50.000Z</time>
      </trkpt>
      <trkpt lat="48.61999" lon="1.39298">
        <ele>199.60000610352</ele>
        <time>2026-06-18T12:12:52.000Z</time>
      </trkpt>
      <trkpt lat="48.61998" lon="1.39346">
        <ele>198.80000305176</ele>
        <time>2026-06-18T12:12:56.000Z</time>
      </trkpt>
      <trkpt lat="48.61999" lon="1.39405">
        <ele>197.80000305176</ele>
        <time>2026-06-18T12:13:01.000Z</time>
      </trkpt>
      <trkpt lat="48.61998" lon="1.39481">
        <ele>196.60000610352</ele>
        <time>2026-06-18T12:13:08.000Z</time>
      </trkpt>
      <trkpt lat="48.61991" lon="1.39519">
        <ele>196.19999694824</ele>
        <time>2026-06-18T12:13:12.000Z</time>
      </trkpt>
      <trkpt lat="48.61987" lon="1.39537">
        <ele>195.80000305176</ele>
        <time>2026-06-18T12:13:16.000Z</time>
      </trkpt>
      <trkpt lat="48.61988" lon="1.3954">
        <ele>195.60000610352</ele>
        <time>2026-06-18T12:13:17.000Z</time>
      </trkpt>
      <trkpt lat="48.61989" lon="1.39542">
        <ele>195.60000610352</ele>
        <time>2026-06-18T12:13:18.000Z</time>
      </trkpt>
      <trkpt lat="48.61991" lon="1.39542">
        <ele>195.60000610352</ele>
        <time>2026-06-18T12:13:19.000Z</time>
      </trkpt>
      <trkpt lat="48.62009" lon="1.39542">
        <ele>195.39999389648</ele>
        <time>2026-06-18T12:13:23.000Z</time>
      </trkpt>
      <trkpt lat="48.62024" lon="1.39546">
        <ele>195.60000610352</ele>
        <time>2026-06-18T12:13:26.000Z</time>
      </trkpt>
      <trkpt lat="48.62035" lon="1.39551">
        <ele>195.60000610352</ele>
        <time>2026-06-18T12:13:28.000Z</time>
      </trkpt>
      <trkpt lat="48.6204" lon="1.39555">
        <ele>195.60000610352</ele>
        <time>2026-06-18T12:13:29.000Z</time>
      </trkpt>
      <trkpt lat="48.62074" lon="1.39591">
        <ele>195.60000610352</ele>
        <time>2026-06-18T12:13:36.000Z</time>
      </trkpt>
      <trkpt lat="48.62109" lon="1.3964">
        <ele>195.19999694824</ele>
        <time>2026-06-18T12:13:44.000Z</time>
      </trkpt>
      <trkpt lat="48.62146" lon="1.39701">
        <ele>195</ele>
        <time>2026-06-18T12:13:53.000Z</time>
      </trkpt>
      <trkpt lat="48.62155" lon="1.39715">
        <ele>195</ele>
        <time>2026-06-18T12:13:55.000Z</time>
      </trkpt>
      <trkpt lat="48.62179" lon="1.39755">
        <ele>194.80000305176</ele>
        <time>2026-06-18T12:14:01.000Z</time>
      </trkpt>
      <trkpt lat="48.62207" lon="1.39804">
        <ele>194.60000610352</ele>
        <time>2026-06-18T12:14:08.000Z</time>
      </trkpt>
      <trkpt lat="48.62239" lon="1.39867">
        <ele>195</ele>
        <time>2026-06-18T12:14:17.000Z</time>
      </trkpt>
      <trkpt lat="48.62274" lon="1.39941">
        <ele>195.60000610352</ele>
        <time>2026-06-18T12:14:27.000Z</time>
      </trkpt>
      <trkpt lat="48.62304" lon="1.40005">
        <ele>195.39999389648</ele>
        <time>2026-06-18T12:14:35.000Z</time>
      </trkpt>
      <trkpt lat="48.62337" lon="1.40078">
        <ele>195</ele>
        <time>2026-06-18T12:14:44.000Z</time>
      </trkpt>
      <trkpt lat="48.62368" lon="1.40153">
        <ele>194.39999389648</ele>
        <time>2026-06-18T12:14:53.000Z</time>
      </trkpt>
      <trkpt lat="48.62372" lon="1.40163">
        <ele>194.39999389648</ele>
        <time>2026-06-18T12:14:54.000Z</time>
      </trkpt>
      <trkpt lat="48.62401" lon="1.40235">
        <ele>193.80000305176</ele>
        <time>2026-06-18T12:15:02.000Z</time>
      </trkpt>
      <trkpt lat="48.62406" lon="1.40245">
        <ele>193.80000305176</ele>
        <time>2026-06-18T12:15:03.000Z</time>
      </trkpt>
      <trkpt lat="48.62434" lon="1.40287">
        <ele>193.39999389648</ele>
        <time>2026-06-18T12:15:08.000Z</time>
      </trkpt>
      <trkpt lat="48.62461" lon="1.4032">
        <ele>192.80000305176</ele>
        <time>2026-06-18T12:15:12.000Z</time>
      </trkpt>
      <trkpt lat="48.62488" lon="1.40353">
        <ele>192.19999694824</ele>
        <time>2026-06-18T12:15:16.000Z</time>
      </trkpt>
      <trkpt lat="48.62508" lon="1.40377">
        <ele>191.60000610352</ele>
        <time>2026-06-18T12:15:19.000Z</time>
      </trkpt>
      <trkpt lat="48.62543" lon="1.4042">
        <ele>190.60000610352</ele>
        <time>2026-06-18T12:15:24.000Z</time>
      </trkpt>
      <trkpt lat="48.62565" lon="1.40446">
        <ele>190.19999694824</ele>
        <time>2026-06-18T12:15:27.000Z</time>
      </trkpt>
      <trkpt lat="48.62594" lon="1.40482">
        <ele>189.39999389648</ele>
        <time>2026-06-18T12:15:31.000Z</time>
      </trkpt>
      <trkpt lat="48.62624" lon="1.40527">
        <ele>189.19999694824</ele>
        <time>2026-06-18T12:15:36.000Z</time>
      </trkpt>
      <trkpt lat="48.62662" lon="1.40586">
        <ele>188.39999389648</ele>
        <time>2026-06-18T12:15:42.000Z</time>
      </trkpt>
      <trkpt lat="48.62676" lon="1.40603">
        <ele>188.19999694824</ele>
        <time>2026-06-18T12:15:44.000Z</time>
      </trkpt>
      <trkpt lat="48.62726" lon="1.40659">
        <ele>187.19999694824</ele>
        <time>2026-06-18T12:15:51.000Z</time>
      </trkpt>
      <trkpt lat="48.62739" lon="1.40675">
        <ele>187</ele>
        <time>2026-06-18T12:15:53.000Z</time>
      </trkpt>
      <trkpt lat="48.62773" lon="1.4073">
        <ele>186.19999694824</ele>
        <time>2026-06-18T12:15:59.000Z</time>
      </trkpt>
      <trkpt lat="48.62782" lon="1.4075">
        <ele>186.19999694824</ele>
        <time>2026-06-18T12:16:01.000Z</time>
      </trkpt>
      <trkpt lat="48.62817" lon="1.40821">
        <ele>185.80000305176</ele>
        <time>2026-06-18T12:16:08.000Z</time>
      </trkpt>
      <trkpt lat="48.62828" lon="1.40842">
        <ele>185.39999389648</ele>
        <time>2026-06-18T12:16:10.000Z</time>
      </trkpt>
      <trkpt lat="48.62855" lon="1.40893">
        <ele>184.19999694824</ele>
        <time>2026-06-18T12:16:15.000Z</time>
      </trkpt>
      <trkpt lat="48.62865" lon="1.40914">
        <ele>183.39999389648</ele>
        <time>2026-06-18T12:16:17.000Z</time>
      </trkpt>
      <trkpt lat="48.62875" lon="1.40936">
        <ele>182.80000305176</ele>
        <time>2026-06-18T12:16:19.000Z</time>
      </trkpt>
      <trkpt lat="48.62905" lon="1.41001">
        <ele>181.60000610352</ele>
        <time>2026-06-18T12:16:25.000Z</time>
      </trkpt>
      <trkpt lat="48.62921" lon="1.41032">
        <ele>181</ele>
        <time>2026-06-18T12:16:28.000Z</time>
      </trkpt>
      <trkpt lat="48.62938" lon="1.41062">
        <ele>180.60000610352</ele>
        <time>2026-06-18T12:16:31.000Z</time>
      </trkpt>
      <trkpt lat="48.62963" lon="1.41098">
        <ele>179.80000305176</ele>
        <time>2026-06-18T12:16:35.000Z</time>
      </trkpt>
      <trkpt lat="48.63004" lon="1.41155">
        <ele>179.60000610352</ele>
        <time>2026-06-18T12:16:42.000Z</time>
      </trkpt>
      <trkpt lat="48.63023" lon="1.41181">
        <ele>179.60000610352</ele>
        <time>2026-06-18T12:16:45.000Z</time>
      </trkpt>
      <trkpt lat="48.6305" lon="1.41223">
        <ele>181.19999694824</ele>
        <time>2026-06-18T12:16:51.000Z</time>
      </trkpt>
      <trkpt lat="48.63058" lon="1.41237">
        <ele>181.80000305176</ele>
        <time>2026-06-18T12:16:53.000Z</time>
      </trkpt>
      <trkpt lat="48.63073" lon="1.41262">
        <ele>183</ele>
        <time>2026-06-18T12:16:57.000Z</time>
      </trkpt>
      <trkpt lat="48.63077" lon="1.41269">
        <ele>183.19999694824</ele>
        <time>2026-06-18T12:16:58.000Z</time>
      </trkpt>
      <trkpt lat="48.6311" lon="1.41323">
        <ele>183.39999389648</ele>
        <time>2026-06-18T12:17:06.000Z</time>
      </trkpt>
      <trkpt lat="48.63141" lon="1.41378">
        <ele>182.39999389648</ele>
        <time>2026-06-18T12:17:12.000Z</time>
      </trkpt>
      <trkpt lat="48.63157" lon="1.41406">
        <ele>181.80000305176</ele>
        <time>2026-06-18T12:17:15.000Z</time>
      </trkpt>
      <trkpt lat="48.6317" lon="1.4143">
        <ele>180.19999694824</ele>
        <time>2026-06-18T12:17:18.000Z</time>
      </trkpt>
      <trkpt lat="48.63174" lon="1.41438">
        <ele>179.60000610352</ele>
        <time>2026-06-18T12:17:19.000Z</time>
      </trkpt>
      <trkpt lat="48.63175" lon="1.41446">
        <ele>179</ele>
        <time>2026-06-18T12:17:20.000Z</time>
      </trkpt>
      <trkpt lat="48.63175" lon="1.41455">
        <ele>178.60000610352</ele>
        <time>2026-06-18T12:17:21.000Z</time>
      </trkpt>
      <trkpt lat="48.63173" lon="1.41463">
        <ele>178</ele>
        <time>2026-06-18T12:17:22.000Z</time>
      </trkpt>
      <trkpt lat="48.63169" lon="1.4147">
        <ele>177.19999694824</ele>
        <time>2026-06-18T12:17:23.000Z</time>
      </trkpt>
      <trkpt lat="48.63159" lon="1.4148">
        <ele>176.39999389648</ele>
        <time>2026-06-18T12:17:25.000Z</time>
      </trkpt>
      <trkpt lat="48.63148" lon="1.41487">
        <ele>176</ele>
        <time>2026-06-18T12:17:27.000Z</time>
      </trkpt>
      <trkpt lat="48.63137" lon="1.4149">
        <ele>175.39999389648</ele>
        <time>2026-06-18T12:17:29.000Z</time>
      </trkpt>
      <trkpt lat="48.63132" lon="1.4149">
        <ele>175.39999389648</ele>
        <time>2026-06-18T12:17:30.000Z</time>
      </trkpt>
      <trkpt lat="48.63127" lon="1.41489">
        <ele>175.19999694824</ele>
        <time>2026-06-18T12:17:31.000Z</time>
      </trkpt>
      <trkpt lat="48.63115" lon="1.41484">
        <ele>175.19999694824</ele>
        <time>2026-06-18T12:17:33.000Z</time>
      </trkpt>
      <trkpt lat="48.63069" lon="1.41451">
        <ele>176.19999694824</ele>
        <time>2026-06-18T12:17:43.000Z</time>
      </trkpt>
      <trkpt lat="48.63055" lon="1.41441">
        <ele>176.60000610352</ele>
        <time>2026-06-18T12:17:46.000Z</time>
      </trkpt>
      <trkpt lat="48.63051" lon="1.41438">
        <ele>176.80000305176</ele>
        <time>2026-06-18T12:17:47.000Z</time>
      </trkpt>
      <trkpt lat="48.63033" lon="1.41421">
        <ele>177.19999694824</ele>
        <time>2026-06-18T12:17:51.000Z</time>
      </trkpt>
      <trkpt lat="48.63018" lon="1.414">
        <ele>177.39999389648</ele>
        <time>2026-06-18T12:17:55.000Z</time>
      </trkpt>
      <trkpt lat="48.63012" lon="1.41387">
        <ele>177.39999389648</ele>
        <time>2026-06-18T12:17:57.000Z</time>
      </trkpt>
      <trkpt lat="48.63002" lon="1.41354">
        <ele>177.39999389648</ele>
        <time>2026-06-18T12:18:02.000Z</time>
      </trkpt>
      <trkpt lat="48.63" lon="1.41341">
        <ele>177.39999389648</ele>
        <time>2026-06-18T12:18:04.000Z</time>
      </trkpt>
      <trkpt lat="48.63003" lon="1.41326">
        <ele>177.39999389648</ele>
        <time>2026-06-18T12:18:07.000Z</time>
      </trkpt>
      <trkpt lat="48.63026" lon="1.4131">
        <ele>177.39999389648</ele>
        <time>2026-06-18T12:18:12.000Z</time>
      </trkpt>
      <trkpt lat="48.63074" lon="1.41284">
        <ele>176.60000610352</ele>
        <time>2026-06-18T12:18:20.000Z</time>
      </trkpt>
      <trkpt lat="48.63125" lon="1.41259">
        <ele>176.60000610352</ele>
        <time>2026-06-18T12:18:28.000Z</time>
      </trkpt>
      <trkpt lat="48.63175" lon="1.41234">
        <ele>176.60000610352</ele>
        <time>2026-06-18T12:18:36.000Z</time>
      </trkpt>
      <trkpt lat="48.6323" lon="1.41207">
        <ele>177.39999389648</ele>
        <time>2026-06-18T12:18:45.000Z</time>
      </trkpt>
      <trkpt lat="48.63234" lon="1.41204">
        <ele>177.39999389648</ele>
        <time>2026-06-18T12:18:46.000Z</time>
      </trkpt>
      <trkpt lat="48.63268" lon="1.41187">
        <ele>178.19999694824</ele>
        <time>2026-06-18T12:18:52.000Z</time>
      </trkpt>
      <trkpt lat="48.63285" lon="1.41178">
        <ele>178.39999389648</ele>
        <time>2026-06-18T12:18:55.000Z</time>
      </trkpt>
      <trkpt lat="48.63337" lon="1.41151">
        <ele>179</ele>
        <time>2026-06-18T12:19:04.000Z</time>
      </trkpt>
      <trkpt lat="48.63342" lon="1.41148">
        <ele>179.19999694824</ele>
        <time>2026-06-18T12:19:05.000Z</time>
      </trkpt>
      <trkpt lat="48.63348" lon="1.41144">
        <ele>179.19999694824</ele>
        <time>2026-06-18T12:19:06.000Z</time>
      </trkpt>
      <trkpt lat="48.634" lon="1.41117">
        <ele>180.19999694824</ele>
        <time>2026-06-18T12:19:15.000Z</time>
      </trkpt>
      <trkpt lat="48.63405" lon="1.41115">
        <ele>180.39999389648</ele>
        <time>2026-06-18T12:19:16.000Z</time>
      </trkpt>
      <trkpt lat="48.63456" lon="1.41086">
        <ele>180.39999389648</ele>
        <time>2026-06-18T12:19:25.000Z</time>
      </trkpt>
      <trkpt lat="48.63511" lon="1.41055">
        <ele>180.39999389648</ele>
        <time>2026-06-18T12:19:34.000Z</time>
      </trkpt>
      <trkpt lat="48.63519" lon="1.41051">
        <ele>180.39999389648</ele>
        <time>2026-06-18T12:19:35.000Z</time>
      </trkpt>
      <trkpt lat="48.63573" lon="1.41021">
        <ele>180</ele>
        <time>2026-06-18T12:19:44.000Z</time>
      </trkpt>
      <trkpt lat="48.6358" lon="1.41018">
        <ele>180</ele>
        <time>2026-06-18T12:19:45.000Z</time>
      </trkpt>
      <trkpt lat="48.63633" lon="1.40988">
        <ele>179.80000305176</ele>
        <time>2026-06-18T12:19:54.000Z</time>
      </trkpt>
      <trkpt lat="48.63689" lon="1.40958">
        <ele>179.19999694824</ele>
        <time>2026-06-18T12:20:03.000Z</time>
      </trkpt>
      <trkpt lat="48.63708" lon="1.40947">
        <ele>179.19999694824</ele>
        <time>2026-06-18T12:20:06.000Z</time>
      </trkpt>
      <trkpt lat="48.63765" lon="1.40915">
        <ele>179.19999694824</ele>
        <time>2026-06-18T12:20:15.000Z</time>
      </trkpt>
      <trkpt lat="48.63789" lon="1.40902">
        <ele>179</ele>
        <time>2026-06-18T12:20:19.000Z</time>
      </trkpt>
      <trkpt lat="48.63841" lon="1.40872">
        <ele>178.80000305176</ele>
        <time>2026-06-18T12:20:27.000Z</time>
      </trkpt>
      <trkpt lat="48.63849" lon="1.40868">
        <ele>178.60000610352</ele>
        <time>2026-06-18T12:20:28.000Z</time>
      </trkpt>
      <trkpt lat="48.63899" lon="1.40836">
        <ele>178.60000610352</ele>
        <time>2026-06-18T12:20:36.000Z</time>
      </trkpt>
      <trkpt lat="48.63912" lon="1.40827">
        <ele>178.60000610352</ele>
        <time>2026-06-18T12:20:38.000Z</time>
      </trkpt>
      <trkpt lat="48.63937" lon="1.40809">
        <ele>178.39999389648</ele>
        <time>2026-06-18T12:20:42.000Z</time>
      </trkpt>
      <trkpt lat="48.6397" lon="1.40787">
        <ele>178</ele>
        <time>2026-06-18T12:20:47.000Z</time>
      </trkpt>
      <trkpt lat="48.64022" lon="1.40752">
        <ele>177.60000610352</ele>
        <time>2026-06-18T12:20:55.000Z</time>
      </trkpt>
      <trkpt lat="48.64029" lon="1.40748">
        <ele>177.60000610352</ele>
        <time>2026-06-18T12:20:56.000Z</time>
      </trkpt>
      <trkpt lat="48.64036" lon="1.40743">
        <ele>177.39999389648</ele>
        <time>2026-06-18T12:20:57.000Z</time>
      </trkpt>
      <trkpt lat="48.64087" lon="1.40708">
        <ele>177</ele>
        <time>2026-06-18T12:21:05.000Z</time>
      </trkpt>
      <trkpt lat="48.641" lon="1.407">
        <ele>177</ele>
        <time>2026-06-18T12:21:07.000Z</time>
      </trkpt>
      <trkpt lat="48.64152" lon="1.40669">
        <ele>177</ele>
        <time>2026-06-18T12:21:15.000Z</time>
      </trkpt>
      <trkpt lat="48.64173" lon="1.40659">
        <ele>177</ele>
        <time>2026-06-18T12:21:18.000Z</time>
      </trkpt>
      <trkpt lat="48.64227" lon="1.4063">
        <ele>176.80000305176</ele>
        <time>2026-06-18T12:21:26.000Z</time>
      </trkpt>
      <trkpt lat="48.64262" lon="1.40611">
        <ele>176.60000610352</ele>
        <time>2026-06-18T12:21:31.000Z</time>
      </trkpt>
      <trkpt lat="48.64269" lon="1.40607">
        <ele>176.60000610352</ele>
        <time>2026-06-18T12:21:32.000Z</time>
      </trkpt>
      <trkpt lat="48.64322" lon="1.40577">
        <ele>176.19999694824</ele>
        <time>2026-06-18T12:21:40.000Z</time>
      </trkpt>
      <trkpt lat="48.64329" lon="1.40573">
        <ele>176.19999694824</ele>
        <time>2026-06-18T12:21:41.000Z</time>
      </trkpt>
      <trkpt lat="48.64382" lon="1.40537">
        <ele>176</ele>
        <time>2026-06-18T12:21:49.000Z</time>
      </trkpt>
      <trkpt lat="48.64433" lon="1.40497">
        <ele>175.60000610352</ele>
        <time>2026-06-18T12:21:57.000Z</time>
      </trkpt>
      <trkpt lat="48.64452" lon="1.40484">
        <ele>175.60000610352</ele>
        <time>2026-06-18T12:22:00.000Z</time>
      </trkpt>
      <trkpt lat="48.64466" lon="1.40483">
        <ele>175.39999389648</ele>
        <time>2026-06-18T12:22:02.000Z</time>
      </trkpt>
      <trkpt lat="48.64472" lon="1.40487">
        <ele>175.39999389648</ele>
        <time>2026-06-18T12:22:03.000Z</time>
      </trkpt>
      <trkpt lat="48.64479" lon="1.40494">
        <ele>175.19999694824</ele>
        <time>2026-06-18T12:22:04.000Z</time>
      </trkpt>
      <trkpt lat="48.64488" lon="1.40513">
        <ele>175.19999694824</ele>
        <time>2026-06-18T12:22:06.000Z</time>
      </trkpt>
      <trkpt lat="48.64513" lon="1.40578">
        <ele>175</ele>
        <time>2026-06-18T12:22:13.000Z</time>
      </trkpt>
      <trkpt lat="48.6454" lon="1.40646">
        <ele>175.19999694824</ele>
        <time>2026-06-18T12:22:21.000Z</time>
      </trkpt>
      <trkpt lat="48.64551" lon="1.40666">
        <ele>175.19999694824</ele>
        <time>2026-06-18T12:22:24.000Z</time>
      </trkpt>
      <trkpt lat="48.64556" lon="1.40669">
        <ele>175.19999694824</ele>
        <time>2026-06-18T12:22:25.000Z</time>
      </trkpt>
      <trkpt lat="48.64561" lon="1.40669">
        <ele>175.19999694824</ele>
        <time>2026-06-18T12:22:26.000Z</time>
      </trkpt>
      <trkpt lat="48.64565" lon="1.40666">
        <ele>175.19999694824</ele>
        <time>2026-06-18T12:22:27.000Z</time>
      </trkpt>
      <trkpt lat="48.6457" lon="1.4066">
        <ele>175.39999389648</ele>
        <time>2026-06-18T12:22:28.000Z</time>
      </trkpt>
      <trkpt lat="48.64586" lon="1.40641">
        <ele>175.80000305176</ele>
        <time>2026-06-18T12:22:32.000Z</time>
      </trkpt>
      <trkpt lat="48.6462" lon="1.40599">
        <ele>176.19999694824</ele>
        <time>2026-06-18T12:22:40.000Z</time>
      </trkpt>
      <trkpt lat="48.64647" lon="1.40566">
        <ele>176.19999694824</ele>
        <time>2026-06-18T12:22:46.000Z</time>
      </trkpt>
      <trkpt lat="48.64652" lon="1.40563">
        <ele>176.19999694824</ele>
        <time>2026-06-18T12:22:47.000Z</time>
      </trkpt>
      <trkpt lat="48.64657" lon="1.40561">
        <ele>176.19999694824</ele>
        <time>2026-06-18T12:22:48.000Z</time>
      </trkpt>
      <trkpt lat="48.64665" lon="1.40566">
        <ele>176.19999694824</ele>
        <time>2026-06-18T12:22:50.000Z</time>
      </trkpt>
      <trkpt lat="48.64684" lon="1.40597">
        <ele>176.19999694824</ele>
        <time>2026-06-18T12:22:55.000Z</time>
      </trkpt>
      <trkpt lat="48.64693" lon="1.40604">
        <ele>176.19999694824</ele>
        <time>2026-06-18T12:22:57.000Z</time>
      </trkpt>
      <trkpt lat="48.64699" lon="1.40605">
        <ele>176.19999694824</ele>
        <time>2026-06-18T12:22:58.000Z</time>
      </trkpt>
      <trkpt lat="48.64715" lon="1.40603">
        <ele>176.39999389648</ele>
        <time>2026-06-18T12:23:01.000Z</time>
      </trkpt>
      <trkpt lat="48.64727" lon="1.40605">
        <ele>176.80000305176</ele>
        <time>2026-06-18T12:23:03.000Z</time>
      </trkpt>
      <trkpt lat="48.64739" lon="1.40611">
        <ele>176.80000305176</ele>
        <time>2026-06-18T12:23:05.000Z</time>
      </trkpt>
      <trkpt lat="48.64755" lon="1.40624">
        <ele>177</ele>
        <time>2026-06-18T12:23:08.000Z</time>
      </trkpt>
      <trkpt lat="48.64767" lon="1.40632">
        <ele>177</ele>
        <time>2026-06-18T12:23:10.000Z</time>
      </trkpt>
      <trkpt lat="48.64779" lon="1.40642">
        <ele>177</ele>
        <time>2026-06-18T12:23:13.000Z</time>
      </trkpt>
      <trkpt lat="48.64783" lon="1.40646">
        <ele>177</ele>
        <time>2026-06-18T12:23:15.000Z</time>
      </trkpt>
      <trkpt lat="48.64784" lon="1.40648">
        <ele>177</ele>
        <time>2026-06-18T12:23:17.000Z</time>
      </trkpt>
      <trkpt lat="48.64782" lon="1.40649">
        <ele>177</ele>
        <time>2026-06-18T12:23:23.000Z</time>
      </trkpt>
      <trkpt lat="48.64781" lon="1.4065">
        <ele>177</ele>
        <time>2026-06-18T12:23:24.000Z</time>
      </trkpt>
      <trkpt lat="48.64776" lon="1.40652">
        <ele>176.60000610352</ele>
        <time>2026-06-18T12:23:30.000Z</time>
      </trkpt>
      <trkpt lat="48.64776" lon="1.40653">
        <ele>177</ele>
        <time>2026-06-18T12:24:14.000Z</time>
      </trkpt>
      <trkpt lat="48.64777" lon="1.40654">
        <ele>177.19999694824</ele>
        <time>2026-06-18T12:25:58.000Z</time>
      </trkpt>
      <trkpt lat="48.64779" lon="1.40654">
        <ele>177.19999694824</ele>
        <time>2026-06-18T12:26:04.000Z</time>
      </trkpt>
      <trkpt lat="48.64781" lon="1.40651">
        <ele>177</ele>
        <time>2026-06-18T12:26:06.000Z</time>
      </trkpt>
      <trkpt lat="48.64789" lon="1.4065">
        <ele>177.19999694824</ele>
        <time>2026-06-18T12:26:12.000Z</time>
      </trkpt>
      <trkpt lat="48.64798" lon="1.40661">
        <ele>177.19999694824</ele>
        <time>2026-06-18T12:26:17.000Z</time>
      </trkpt>
      <trkpt lat="48.64815" lon="1.40682">
        <ele>177.39999389648</ele>
        <time>2026-06-18T12:26:23.000Z</time>
      </trkpt>
      <trkpt lat="48.64837" lon="1.40708">
        <ele>177.60000610352</ele>
        <time>2026-06-18T12:26:31.000Z</time>
      </trkpt>
      <trkpt lat="48.6486" lon="1.40739">
        <ele>177.80000305176</ele>
        <time>2026-06-18T12:26:39.000Z</time>
      </trkpt>
      <trkpt lat="48.64881" lon="1.40766">
        <ele>178.60000610352</ele>
        <time>2026-06-18T12:26:47.000Z</time>
      </trkpt>
      <trkpt lat="48.64883" lon="1.4077">
        <ele>178.80000305176</ele>
        <time>2026-06-18T12:26:48.000Z</time>
      </trkpt>
      <trkpt lat="48.64887" lon="1.40784">
        <ele>179</ele>
        <time>2026-06-18T12:26:52.000Z</time>
      </trkpt>
      <trkpt lat="48.64893" lon="1.40803">
        <ele>179.39999389648</ele>
        <time>2026-06-18T12:26:59.000Z</time>
      </trkpt>
      <trkpt lat="48.64894" lon="1.40808">
        <ele>179.39999389648</ele>
        <time>2026-06-18T12:27:01.000Z</time>
      </trkpt>
      <trkpt lat="48.64895" lon="1.40813">
        <ele>179.39999389648</ele>
        <time>2026-06-18T12:27:03.000Z</time>
      </trkpt>
      <trkpt lat="48.64896" lon="1.40815">
        <ele>179.19999694824</ele>
        <time>2026-06-18T12:27:04.000Z</time>
      </trkpt>
      <trkpt lat="48.64898" lon="1.4081">
        <ele>178.80000305176</ele>
        <time>2026-06-18T12:27:07.000Z</time>
      </trkpt>
      <trkpt lat="48.64892" lon="1.40789">
        <ele>178.39999389648</ele>
        <time>2026-06-18T12:27:12.000Z</time>
      </trkpt>
      <trkpt lat="48.64892" lon="1.40783">
        <ele>178.19999694824</ele>
        <time>2026-06-18T12:27:13.000Z</time>
      </trkpt>
      <trkpt lat="48.64896" lon="1.40775">
        <ele>178.19999694824</ele>
        <time>2026-06-18T12:27:15.000Z</time>
      </trkpt>
      <trkpt lat="48.64911" lon="1.40773">
        <ele>178</ele>
        <time>2026-06-18T12:27:19.000Z</time>
      </trkpt>
      <trkpt lat="48.64937" lon="1.40778">
        <ele>177.80000305176</ele>
        <time>2026-06-18T12:27:25.000Z</time>
      </trkpt>
      <trkpt lat="48.64942" lon="1.4078">
        <ele>177.80000305176</ele>
        <time>2026-06-18T12:27:26.000Z</time>
      </trkpt>
      <trkpt lat="48.64947" lon="1.40781">
        <ele>178</ele>
        <time>2026-06-18T12:27:27.000Z</time>
      </trkpt>
      <trkpt lat="48.64976" lon="1.40791">
        <ele>177.80000305176</ele>
        <time>2026-06-18T12:27:33.000Z</time>
      </trkpt>
      <trkpt lat="48.65019" lon="1.40809">
        <ele>178</ele>
        <time>2026-06-18T12:27:41.000Z</time>
      </trkpt>
      <trkpt lat="48.65049" lon="1.40823">
        <ele>177.60000610352</ele>
        <time>2026-06-18T12:27:46.000Z</time>
      </trkpt>
      <trkpt lat="48.65062" lon="1.40831">
        <ele>177.39999389648</ele>
        <time>2026-06-18T12:27:48.000Z</time>
      </trkpt>
      <trkpt lat="48.65095" lon="1.40865">
        <ele>176.80000305176</ele>
        <time>2026-06-18T12:27:54.000Z</time>
      </trkpt>
      <trkpt lat="48.6511" lon="1.40883">
        <ele>176.60000610352</ele>
        <time>2026-06-18T12:27:57.000Z</time>
      </trkpt>
      <trkpt lat="48.65118" lon="1.40894">
        <ele>176.60000610352</ele>
        <time>2026-06-18T12:27:59.000Z</time>
      </trkpt>
      <trkpt lat="48.65137" lon="1.40917">
        <ele>176</ele>
        <time>2026-06-18T12:28:03.000Z</time>
      </trkpt>
      <trkpt lat="48.65158" lon="1.40942">
        <ele>175.80000305176</ele>
        <time>2026-06-18T12:28:07.000Z</time>
      </trkpt>
      <trkpt lat="48.65181" lon="1.40966">
        <ele>175.60000610352</ele>
        <time>2026-06-18T12:28:11.000Z</time>
      </trkpt>
      <trkpt lat="48.65196" lon="1.40981">
        <ele>175</ele>
        <time>2026-06-18T12:28:14.000Z</time>
      </trkpt>
      <trkpt lat="48.65223" lon="1.41003">
        <ele>174.19999694824</ele>
        <time>2026-06-18T12:28:18.000Z</time>
      </trkpt>
      <trkpt lat="48.65241" lon="1.41019">
        <ele>173.80000305176</ele>
        <time>2026-06-18T12:28:21.000Z</time>
      </trkpt>
      <trkpt lat="48.65271" lon="1.41041">
        <ele>173.39999389648</ele>
        <time>2026-06-18T12:28:26.000Z</time>
      </trkpt>
      <trkpt lat="48.65277" lon="1.41046">
        <ele>173</ele>
        <time>2026-06-18T12:28:27.000Z</time>
      </trkpt>
      <trkpt lat="48.65295" lon="1.41059">
        <ele>173</ele>
        <time>2026-06-18T12:28:30.000Z</time>
      </trkpt>
      <trkpt lat="48.65347" lon="1.41089">
        <ele>172.60000610352</ele>
        <time>2026-06-18T12:28:38.000Z</time>
      </trkpt>
      <trkpt lat="48.65363" lon="1.41092">
        <ele>172.19999694824</ele>
        <time>2026-06-18T12:28:40.000Z</time>
      </trkpt>
      <trkpt lat="48.6539" lon="1.41092">
        <ele>171.60000610352</ele>
        <time>2026-06-18T12:28:44.000Z</time>
      </trkpt>
      <trkpt lat="48.65409" lon="1.4109">
        <ele>171.19999694824</ele>
        <time>2026-06-18T12:28:47.000Z</time>
      </trkpt>
      <trkpt lat="48.65457" lon="1.4108">
        <ele>170.19999694824</ele>
        <time>2026-06-18T12:28:54.000Z</time>
      </trkpt>
      <trkpt lat="48.65464" lon="1.41078">
        <ele>170</ele>
        <time>2026-06-18T12:28:55.000Z</time>
      </trkpt>
      <trkpt lat="48.65506" lon="1.41075">
        <ele>169.60000610352</ele>
        <time>2026-06-18T12:29:01.000Z</time>
      </trkpt>
      <trkpt lat="48.65563" lon="1.41083">
        <ele>169.60000610352</ele>
        <time>2026-06-18T12:29:09.000Z</time>
      </trkpt>
      <trkpt lat="48.65586" lon="1.41085">
        <ele>169.80000305176</ele>
        <time>2026-06-18T12:29:12.000Z</time>
      </trkpt>
      <trkpt lat="48.65639" lon="1.41098">
        <ele>170.39999389648</ele>
        <time>2026-06-18T12:29:20.000Z</time>
      </trkpt>
      <trkpt lat="48.65653" lon="1.41102">
        <ele>170.60000610352</ele>
        <time>2026-06-18T12:29:22.000Z</time>
      </trkpt>
      <trkpt lat="48.65708" lon="1.41118">
        <ele>170.80000305176</ele>
        <time>2026-06-18T12:29:30.000Z</time>
      </trkpt>
      <trkpt lat="48.65715" lon="1.41119">
        <ele>170.80000305176</ele>
        <time>2026-06-18T12:29:31.000Z</time>
      </trkpt>
      <trkpt lat="48.65772" lon="1.41135">
        <ele>171</ele>
        <time>2026-06-18T12:29:39.000Z</time>
      </trkpt>
      <trkpt lat="48.6578" lon="1.41137">
        <ele>171</ele>
        <time>2026-06-18T12:29:40.000Z</time>
      </trkpt>
      <trkpt lat="48.65837" lon="1.41154">
        <ele>170.80000305176</ele>
        <time>2026-06-18T12:29:48.000Z</time>
      </trkpt>
      <trkpt lat="48.65875" lon="1.41169">
        <ele>170.80000305176</ele>
        <time>2026-06-18T12:29:54.000Z</time>
      </trkpt>
      <trkpt lat="48.65907" lon="1.41184">
        <ele>170.80000305176</ele>
        <time>2026-06-18T12:29:59.000Z</time>
      </trkpt>
      <trkpt lat="48.65943" lon="1.41202">
        <ele>170.80000305176</ele>
        <time>2026-06-18T12:30:04.000Z</time>
      </trkpt>
      <trkpt lat="48.65992" lon="1.41229">
        <ele>170.39999389648</ele>
        <time>2026-06-18T12:30:12.000Z</time>
      </trkpt>
      <trkpt lat="48.66043" lon="1.4126">
        <ele>169.60000610352</ele>
        <time>2026-06-18T12:30:21.000Z</time>
      </trkpt>
      <trkpt lat="48.6605" lon="1.41264">
        <ele>169.60000610352</ele>
        <time>2026-06-18T12:30:22.000Z</time>
      </trkpt>
      <trkpt lat="48.66092" lon="1.4129">
        <ele>169.19999694824</ele>
        <time>2026-06-18T12:30:29.000Z</time>
      </trkpt>
      <trkpt lat="48.66105" lon="1.41297">
        <ele>169.19999694824</ele>
        <time>2026-06-18T12:30:31.000Z</time>
      </trkpt>
      <trkpt lat="48.66155" lon="1.41328">
        <ele>168.80000305176</ele>
        <time>2026-06-18T12:30:39.000Z</time>
      </trkpt>
      <trkpt lat="48.66162" lon="1.41332">
        <ele>168.60000610352</ele>
        <time>2026-06-18T12:30:40.000Z</time>
      </trkpt>
      <trkpt lat="48.66175" lon="1.4134">
        <ele>168.39999389648</ele>
        <time>2026-06-18T12:30:42.000Z</time>
      </trkpt>
      <trkpt lat="48.66188" lon="1.41347">
        <ele>168.19999694824</ele>
        <time>2026-06-18T12:30:44.000Z</time>
      </trkpt>
      <trkpt lat="48.66228" lon="1.41369">
        <ele>167.80000305176</ele>
        <time>2026-06-18T12:30:50.000Z</time>
      </trkpt>
      <trkpt lat="48.66274" lon="1.41394">
        <ele>167.19999694824</ele>
        <time>2026-06-18T12:30:57.000Z</time>
      </trkpt>
      <trkpt lat="48.66301" lon="1.41408">
        <ele>166.80000305176</ele>
        <time>2026-06-18T12:31:01.000Z</time>
      </trkpt>
      <trkpt lat="48.66333" lon="1.41427">
        <ele>166.19999694824</ele>
        <time>2026-06-18T12:31:06.000Z</time>
      </trkpt>
      <trkpt lat="48.66356" lon="1.41444">
        <ele>166</ele>
        <time>2026-06-18T12:31:10.000Z</time>
      </trkpt>
      <trkpt lat="48.6639" lon="1.41479">
        <ele>165.60000610352</ele>
        <time>2026-06-18T12:31:17.000Z</time>
      </trkpt>
      <trkpt lat="48.66436" lon="1.41527">
        <ele>165.60000610352</ele>
        <time>2026-06-18T12:31:26.000Z</time>
      </trkpt>
      <trkpt lat="48.6644" lon="1.41532">
        <ele>165.60000610352</ele>
        <time>2026-06-18T12:31:27.000Z</time>
      </trkpt>
      <trkpt lat="48.66463" lon="1.41555">
        <ele>165.19999694824</ele>
        <time>2026-06-18T12:31:32.000Z</time>
      </trkpt>
      <trkpt lat="48.66467" lon="1.4156">
        <ele>165.19999694824</ele>
        <time>2026-06-18T12:31:33.000Z</time>
      </trkpt>
      <trkpt lat="48.66474" lon="1.41571">
        <ele>165</ele>
        <time>2026-06-18T12:31:35.000Z</time>
      </trkpt>
      <trkpt lat="48.66491" lon="1.4161">
        <ele>164.80000305176</ele>
        <time>2026-06-18T12:31:41.000Z</time>
      </trkpt>
      <trkpt lat="48.6651" lon="1.41656">
        <ele>164.60000610352</ele>
        <time>2026-06-18T12:31:48.000Z</time>
      </trkpt>
      <trkpt lat="48.66527" lon="1.41692">
        <ele>164.60000610352</ele>
        <time>2026-06-18T12:31:54.000Z</time>
      </trkpt>
      <trkpt lat="48.66532" lon="1.41699">
        <ele>164.60000610352</ele>
        <time>2026-06-18T12:31:55.000Z</time>
      </trkpt>
      <trkpt lat="48.66549" lon="1.41719">
        <ele>164.60000610352</ele>
        <time>2026-06-18T12:31:59.000Z</time>
      </trkpt>
      <trkpt lat="48.66556" lon="1.41732">
        <ele>164.60000610352</ele>
        <time>2026-06-18T12:32:01.000Z</time>
      </trkpt>
      <trkpt lat="48.66561" lon="1.41746">
        <ele>164.60000610352</ele>
        <time>2026-06-18T12:32:03.000Z</time>
      </trkpt>
      <trkpt lat="48.66574" lon="1.41781">
        <ele>164.80000305176</ele>
        <time>2026-06-18T12:32:09.000Z</time>
      </trkpt>
      <trkpt lat="48.66578" lon="1.41785">
        <ele>164.80000305176</ele>
        <time>2026-06-18T12:32:10.000Z</time>
      </trkpt>
      <trkpt lat="48.66581" lon="1.41785">
        <ele>164.80000305176</ele>
        <time>2026-06-18T12:32:11.000Z</time>
      </trkpt>
      <trkpt lat="48.6659" lon="1.41781">
        <ele>164.80000305176</ele>
        <time>2026-06-18T12:32:13.000Z</time>
      </trkpt>
      <trkpt lat="48.66614" lon="1.41764">
        <ele>164.80000305176</ele>
        <time>2026-06-18T12:32:18.000Z</time>
      </trkpt>
      <trkpt lat="48.66646" lon="1.41741">
        <ele>164.80000305176</ele>
        <time>2026-06-18T12:32:25.000Z</time>
      </trkpt>
      <trkpt lat="48.66651" lon="1.41737">
        <ele>164.80000305176</ele>
        <time>2026-06-18T12:32:26.000Z</time>
      </trkpt>
      <trkpt lat="48.66658" lon="1.41725">
        <ele>164.80000305176</ele>
        <time>2026-06-18T12:32:28.000Z</time>
      </trkpt>
      <trkpt lat="48.66659" lon="1.41719">
        <ele>164.80000305176</ele>
        <time>2026-06-18T12:32:29.000Z</time>
      </trkpt>
      <trkpt lat="48.6666" lon="1.41712">
        <ele>164.80000305176</ele>
        <time>2026-06-18T12:32:30.000Z</time>
      </trkpt>
      <trkpt lat="48.6666" lon="1.41687">
        <ele>164.39999389648</ele>
        <time>2026-06-18T12:32:33.000Z</time>
      </trkpt>
      <trkpt lat="48.6666" lon="1.41656">
        <ele>164.19999694824</ele>
        <time>2026-06-18T12:32:37.000Z</time>
      </trkpt>
      <trkpt lat="48.66663" lon="1.41644">
        <ele>164</ele>
        <time>2026-06-18T12:32:39.000Z</time>
      </trkpt>
      <trkpt lat="48.66671" lon="1.41634">
        <ele>164</ele>
        <time>2026-06-18T12:32:41.000Z</time>
      </trkpt>
      <trkpt lat="48.66677" lon="1.41631">
        <ele>163.80000305176</ele>
        <time>2026-06-18T12:32:42.000Z</time>
      </trkpt>
      <trkpt lat="48.6672" lon="1.41615">
        <ele>163.60000610352</ele>
        <time>2026-06-18T12:32:50.000Z</time>
      </trkpt>
      <trkpt lat="48.66736" lon="1.41607">
        <ele>163.39999389648</ele>
        <time>2026-06-18T12:32:53.000Z</time>
      </trkpt>
      <trkpt lat="48.66745" lon="1.41605">
        <ele>163.39999389648</ele>
        <time>2026-06-18T12:32:55.000Z</time>
      </trkpt>
      <trkpt lat="48.66791" lon="1.41616">
        <ele>163.19999694824</ele>
        <time>2026-06-18T12:33:03.000Z</time>
      </trkpt>
      <trkpt lat="48.66849" lon="1.4163">
        <ele>164.39999389648</ele>
        <time>2026-06-18T12:33:12.000Z</time>
      </trkpt>
      <trkpt lat="48.66856" lon="1.41631">
        <ele>164.39999389648</ele>
        <time>2026-06-18T12:33:13.000Z</time>
      </trkpt>
      <trkpt lat="48.66867" lon="1.41633">
        <ele>164.60000610352</ele>
        <time>2026-06-18T12:33:15.000Z</time>
      </trkpt>
      <trkpt lat="48.66897" lon="1.41638">
        <ele>165</ele>
        <time>2026-06-18T12:33:20.000Z</time>
      </trkpt>
      <trkpt lat="48.66947" lon="1.41654">
        <ele>165</ele>
        <time>2026-06-18T12:33:28.000Z</time>
      </trkpt>
      <trkpt lat="48.67003" lon="1.41673">
        <ele>165.39999389648</ele>
        <time>2026-06-18T12:33:37.000Z</time>
      </trkpt>
      <trkpt lat="48.67008" lon="1.41673">
        <ele>165.39999389648</ele>
        <time>2026-06-18T12:33:38.000Z</time>
      </trkpt>
      <trkpt lat="48.67062" lon="1.41676">
        <ele>165.19999694824</ele>
        <time>2026-06-18T12:33:46.000Z</time>
      </trkpt>
      <trkpt lat="48.671" lon="1.41684">
        <ele>165.19999694824</ele>
        <time>2026-06-18T12:33:52.000Z</time>
      </trkpt>
      <trkpt lat="48.67104" lon="1.41686">
        <ele>165.19999694824</ele>
        <time>2026-06-18T12:33:53.000Z</time>
      </trkpt>
      <trkpt lat="48.67146" lon="1.41704">
        <ele>164.80000305176</ele>
        <time>2026-06-18T12:34:00.000Z</time>
      </trkpt>
      <trkpt lat="48.67164" lon="1.41713">
        <ele>164.80000305176</ele>
        <time>2026-06-18T12:34:03.000Z</time>
      </trkpt>
      <trkpt lat="48.67173" lon="1.41718">
        <ele>164.80000305176</ele>
        <time>2026-06-18T12:34:05.000Z</time>
      </trkpt>
      <trkpt lat="48.6718" lon="1.41721">
        <ele>164.80000305176</ele>
        <time>2026-06-18T12:34:06.000Z</time>
      </trkpt>
      <trkpt lat="48.67204" lon="1.41732">
        <ele>164.60000610352</ele>
        <time>2026-06-18T12:34:10.000Z</time>
      </trkpt>
      <trkpt lat="48.67217" lon="1.4174">
        <ele>164.19999694824</ele>
        <time>2026-06-18T12:34:12.000Z</time>
      </trkpt>
      <trkpt lat="48.67229" lon="1.41744">
        <ele>164.19999694824</ele>
        <time>2026-06-18T12:34:14.000Z</time>
      </trkpt>
      <trkpt lat="48.67262" lon="1.4175">
        <ele>163.80000305176</ele>
        <time>2026-06-18T12:34:19.000Z</time>
      </trkpt>
      <trkpt lat="48.67278" lon="1.41754">
        <ele>163.60000610352</ele>
        <time>2026-06-18T12:34:21.000Z</time>
      </trkpt>
      <trkpt lat="48.6731" lon="1.41762">
        <ele>163.19999694824</ele>
        <time>2026-06-18T12:34:25.000Z</time>
      </trkpt>
      <trkpt lat="48.67352" lon="1.41771">
        <ele>162.60000610352</ele>
        <time>2026-06-18T12:34:31.000Z</time>
      </trkpt>
      <trkpt lat="48.67375" lon="1.41777">
        <ele>162.19999694824</ele>
        <time>2026-06-18T12:34:34.000Z</time>
      </trkpt>
      <trkpt lat="48.67432" lon="1.41794">
        <ele>161.60000610352</ele>
        <time>2026-06-18T12:34:42.000Z</time>
      </trkpt>
      <trkpt lat="48.67439" lon="1.41798">
        <ele>161.60000610352</ele>
        <time>2026-06-18T12:34:43.000Z</time>
      </trkpt>
      <trkpt lat="48.67486" lon="1.41824">
        <ele>161.19999694824</ele>
        <time>2026-06-18T12:34:50.000Z</time>
      </trkpt>
      <trkpt lat="48.67537" lon="1.41841">
        <ele>160.80000305176</ele>
        <time>2026-06-18T12:34:57.000Z</time>
      </trkpt>
      <trkpt lat="48.67543" lon="1.41842">
        <ele>160.60000610352</ele>
        <time>2026-06-18T12:34:58.000Z</time>
      </trkpt>
      <trkpt lat="48.67559" lon="1.41841">
        <ele>160.60000610352</ele>
        <time>2026-06-18T12:35:00.000Z</time>
      </trkpt>
      <trkpt lat="48.67572" lon="1.41835">
        <ele>160.60000610352</ele>
        <time>2026-06-18T12:35:02.000Z</time>
      </trkpt>
      <trkpt lat="48.67579" lon="1.41832">
        <ele>160.39999389648</ele>
        <time>2026-06-18T12:35:03.000Z</time>
      </trkpt>
      <trkpt lat="48.676" lon="1.41823">
        <ele>160.19999694824</ele>
        <time>2026-06-18T12:35:06.000Z</time>
      </trkpt>
      <trkpt lat="48.67607" lon="1.41822">
        <ele>160.19999694824</ele>
        <time>2026-06-18T12:35:07.000Z</time>
      </trkpt>
      <trkpt lat="48.67612" lon="1.41822">
        <ele>160</ele>
        <time>2026-06-18T12:35:08.000Z</time>
      </trkpt>
      <trkpt lat="48.67634" lon="1.41831">
        <ele>160</ele>
        <time>2026-06-18T12:35:11.000Z</time>
      </trkpt>
      <trkpt lat="48.67678" lon="1.41859">
        <ele>160.19999694824</ele>
        <time>2026-06-18T12:35:18.000Z</time>
      </trkpt>
      <trkpt lat="48.67724" lon="1.41888">
        <ele>160.39999389648</ele>
        <time>2026-06-18T12:35:25.000Z</time>
      </trkpt>
      <trkpt lat="48.67759" lon="1.41919">
        <ele>160.39999389648</ele>
        <time>2026-06-18T12:35:31.000Z</time>
      </trkpt>
      <trkpt lat="48.67769" lon="1.41933">
        <ele>160.39999389648</ele>
        <time>2026-06-18T12:35:33.000Z</time>
      </trkpt>
      <trkpt lat="48.67777" lon="1.41946">
        <ele>160.19999694824</ele>
        <time>2026-06-18T12:35:35.000Z</time>
      </trkpt>
      <trkpt lat="48.67795" lon="1.4198">
        <ele>160.19999694824</ele>
        <time>2026-06-18T12:35:40.000Z</time>
      </trkpt>
      <trkpt lat="48.67814" lon="1.42018">
        <ele>160</ele>
        <time>2026-06-18T12:35:44.000Z</time>
      </trkpt>
      <trkpt lat="48.67819" lon="1.42029">
        <ele>160</ele>
        <time>2026-06-18T12:35:45.000Z</time>
      </trkpt>
      <trkpt lat="48.67839" lon="1.42073">
        <ele>159.60000610352</ele>
        <time>2026-06-18T12:35:50.000Z</time>
      </trkpt>
      <trkpt lat="48.67844" lon="1.42081">
        <ele>159.60000610352</ele>
        <time>2026-06-18T12:35:51.000Z</time>
      </trkpt>
      <trkpt lat="48.67854" lon="1.42096">
        <ele>159.60000610352</ele>
        <time>2026-06-18T12:35:53.000Z</time>
      </trkpt>
      <trkpt lat="48.67886" lon="1.42136">
        <ele>158.60000610352</ele>
        <time>2026-06-18T12:35:59.000Z</time>
      </trkpt>
      <trkpt lat="48.67897" lon="1.42149">
        <ele>158.19999694824</ele>
        <time>2026-06-18T12:36:01.000Z</time>
      </trkpt>
      <trkpt lat="48.67926" lon="1.42195">
        <ele>157.19999694824</ele>
        <time>2026-06-18T12:36:06.000Z</time>
      </trkpt>
      <trkpt lat="48.67947" lon="1.42234">
        <ele>156</ele>
        <time>2026-06-18T12:36:10.000Z</time>
      </trkpt>
      <trkpt lat="48.67955" lon="1.42249">
        <ele>155.39999389648</ele>
        <time>2026-06-18T12:36:12.000Z</time>
      </trkpt>
      <trkpt lat="48.67964" lon="1.42267">
        <ele>155</ele>
        <time>2026-06-18T12:36:14.000Z</time>
      </trkpt>
      <trkpt lat="48.67981" lon="1.42299">
        <ele>154.19999694824</ele>
        <time>2026-06-18T12:36:18.000Z</time>
      </trkpt>
      <trkpt lat="48.68" lon="1.42333">
        <ele>154</ele>
        <time>2026-06-18T12:36:22.000Z</time>
      </trkpt>
      <trkpt lat="48.6801" lon="1.42345">
        <ele>154</ele>
        <time>2026-06-18T12:36:24.000Z</time>
      </trkpt>
      <trkpt lat="48.68025" lon="1.4235">
        <ele>154</ele>
        <time>2026-06-18T12:36:26.000Z</time>
      </trkpt>
      <trkpt lat="48.68032" lon="1.42349">
        <ele>154.19999694824</ele>
        <time>2026-06-18T12:36:27.000Z</time>
      </trkpt>
      <trkpt lat="48.68036" lon="1.42345">
        <ele>154.19999694824</ele>
        <time>2026-06-18T12:36:28.000Z</time>
      </trkpt>
      <trkpt lat="48.68052" lon="1.42329">
        <ele>155.19999694824</ele>
        <time>2026-06-18T12:36:31.000Z</time>
      </trkpt>
      <trkpt lat="48.68058" lon="1.42325">
        <ele>155.80000305176</ele>
        <time>2026-06-18T12:36:32.000Z</time>
      </trkpt>
      <trkpt lat="48.68064" lon="1.42322">
        <ele>156</ele>
        <time>2026-06-18T12:36:33.000Z</time>
      </trkpt>
      <trkpt lat="48.68068" lon="1.42321">
        <ele>156.39999389648</ele>
        <time>2026-06-18T12:36:34.000Z</time>
      </trkpt>
      <trkpt lat="48.68075" lon="1.4232">
        <ele>156.39999389648</ele>
        <time>2026-06-18T12:36:35.000Z</time>
      </trkpt>
      <trkpt lat="48.68081" lon="1.42321">
        <ele>156.80000305176</ele>
        <time>2026-06-18T12:36:36.000Z</time>
      </trkpt>
      <trkpt lat="48.68086" lon="1.42324">
        <ele>157</ele>
        <time>2026-06-18T12:36:37.000Z</time>
      </trkpt>
      <trkpt lat="48.68091" lon="1.42329">
        <ele>157.39999389648</ele>
        <time>2026-06-18T12:36:38.000Z</time>
      </trkpt>
      <trkpt lat="48.68101" lon="1.42339">
        <ele>157.80000305176</ele>
        <time>2026-06-18T12:36:40.000Z</time>
      </trkpt>
      <trkpt lat="48.68116" lon="1.42359">
        <ele>158.19999694824</ele>
        <time>2026-06-18T12:36:43.000Z</time>
      </trkpt>
      <trkpt lat="48.68121" lon="1.42366">
        <ele>158.39999389648</ele>
        <time>2026-06-18T12:36:44.000Z</time>
      </trkpt>
      <trkpt lat="48.68153" lon="1.42419">
        <ele>158.19999694824</ele>
        <time>2026-06-18T12:36:51.000Z</time>
      </trkpt>
      <trkpt lat="48.6816" lon="1.42433">
        <ele>158.39999389648</ele>
        <time>2026-06-18T12:36:53.000Z</time>
      </trkpt>
      <trkpt lat="48.68174" lon="1.42455">
        <ele>158.39999389648</ele>
        <time>2026-06-18T12:36:56.000Z</time>
      </trkpt>
      <trkpt lat="48.68197" lon="1.42509">
        <ele>159.19999694824</ele>
        <time>2026-06-18T12:37:03.000Z</time>
      </trkpt>
      <trkpt lat="48.68203" lon="1.42532">
        <ele>159.39999389648</ele>
        <time>2026-06-18T12:37:06.000Z</time>
      </trkpt>
      <trkpt lat="48.68206" lon="1.42547">
        <ele>159.60000610352</ele>
        <time>2026-06-18T12:37:08.000Z</time>
      </trkpt>
      <trkpt lat="48.6821" lon="1.42561">
        <ele>159.60000610352</ele>
        <time>2026-06-18T12:37:10.000Z</time>
      </trkpt>
      <trkpt lat="48.68212" lon="1.42585">
        <ele>160</ele>
        <time>2026-06-18T12:37:13.000Z</time>
      </trkpt>
      <trkpt lat="48.68215" lon="1.42595">
        <ele>160.19999694824</ele>
        <time>2026-06-18T12:37:14.000Z</time>
      </trkpt>
      <trkpt lat="48.68221" lon="1.42614">
        <ele>160.19999694824</ele>
        <time>2026-06-18T12:37:16.000Z</time>
      </trkpt>
      <trkpt lat="48.68239" lon="1.42665">
        <ele>160.39999389648</ele>
        <time>2026-06-18T12:37:22.000Z</time>
      </trkpt>
      <trkpt lat="48.6826" lon="1.42708">
        <ele>160.39999389648</ele>
        <time>2026-06-18T12:37:27.000Z</time>
      </trkpt>
      <trkpt lat="48.68265" lon="1.42715">
        <ele>160.60000610352</ele>
        <time>2026-06-18T12:37:28.000Z</time>
      </trkpt>
      <trkpt lat="48.68275" lon="1.42728">
        <ele>160.80000305176</ele>
        <time>2026-06-18T12:37:30.000Z</time>
      </trkpt>
      <trkpt lat="48.6829" lon="1.42745">
        <ele>161</ele>
        <time>2026-06-18T12:37:33.000Z</time>
      </trkpt>
      <trkpt lat="48.68318" lon="1.42766">
        <ele>161.39999389648</ele>
        <time>2026-06-18T12:37:38.000Z</time>
      </trkpt>
      <trkpt lat="48.68325" lon="1.42771">
        <ele>161.39999389648</ele>
        <time>2026-06-18T12:37:39.000Z</time>
      </trkpt>
      <trkpt lat="48.68355" lon="1.42793">
        <ele>161.19999694824</ele>
        <time>2026-06-18T12:37:44.000Z</time>
      </trkpt>
      <trkpt lat="48.68359" lon="1.42797">
        <ele>161.19999694824</ele>
        <time>2026-06-18T12:37:45.000Z</time>
      </trkpt>
      <trkpt lat="48.68371" lon="1.42811">
        <ele>160.80000305176</ele>
        <time>2026-06-18T12:37:47.000Z</time>
      </trkpt>
      <trkpt lat="48.68421" lon="1.42863">
        <ele>161</ele>
        <time>2026-06-18T12:37:56.000Z</time>
      </trkpt>
      <trkpt lat="48.68432" lon="1.42874">
        <ele>161.19999694824</ele>
        <time>2026-06-18T12:37:58.000Z</time>
      </trkpt>
      <trkpt lat="48.68476" lon="1.42914">
        <ele>161.39999389648</ele>
        <time>2026-06-18T12:38:06.000Z</time>
      </trkpt>
      <trkpt lat="48.68499" lon="1.42931">
        <ele>161.39999389648</ele>
        <time>2026-06-18T12:38:11.000Z</time>
      </trkpt>
      <trkpt lat="48.68502" lon="1.42933">
        <ele>161.39999389648</ele>
        <time>2026-06-18T12:38:12.000Z</time>
      </trkpt>
      <trkpt lat="48.68524" lon="1.42951">
        <ele>161.60000610352</ele>
        <time>2026-06-18T12:38:18.000Z</time>
      </trkpt>
      <trkpt lat="48.68549" lon="1.42973">
        <ele>161.80000305176</ele>
        <time>2026-06-18T12:38:23.000Z</time>
      </trkpt>
      <trkpt lat="48.68555" lon="1.42979">
        <ele>161.80000305176</ele>
        <time>2026-06-18T12:38:24.000Z</time>
      </trkpt>
      <trkpt lat="48.68584" lon="1.43007">
        <ele>162</ele>
        <time>2026-06-18T12:38:29.000Z</time>
      </trkpt>
      <trkpt lat="48.68628" lon="1.43051">
        <ele>162.60000610352</ele>
        <time>2026-06-18T12:38:37.000Z</time>
      </trkpt>
      <trkpt lat="48.68656" lon="1.43076">
        <ele>162.60000610352</ele>
        <time>2026-06-18T12:38:42.000Z</time>
      </trkpt>
      <trkpt lat="48.68668" lon="1.43082">
        <ele>162.60000610352</ele>
        <time>2026-06-18T12:38:45.000Z</time>
      </trkpt>
      <trkpt lat="48.68686" lon="1.43087">
        <ele>162.60000610352</ele>
        <time>2026-06-18T12:38:48.000Z</time>
      </trkpt>
      <trkpt lat="48.68717" lon="1.43098">
        <ele>162.60000610352</ele>
        <time>2026-06-18T12:38:53.000Z</time>
      </trkpt>
      <trkpt lat="48.6875" lon="1.43101">
        <ele>162.60000610352</ele>
        <time>2026-06-18T12:38:58.000Z</time>
      </trkpt>
      <trkpt lat="48.68796" lon="1.4309">
        <ele>162.60000610352</ele>
        <time>2026-06-18T12:39:05.000Z</time>
      </trkpt>
      <trkpt lat="48.68837" lon="1.43075">
        <ele>161.80000305176</ele>
        <time>2026-06-18T12:39:11.000Z</time>
      </trkpt>
      <trkpt lat="48.68856" lon="1.43067">
        <ele>161.39999389648</ele>
        <time>2026-06-18T12:39:14.000Z</time>
      </trkpt>
      <trkpt lat="48.68877" lon="1.43061">
        <ele>161.39999389648</ele>
        <time>2026-06-18T12:39:18.000Z</time>
      </trkpt>
      <trkpt lat="48.68889" lon="1.43059">
        <ele>161.39999389648</ele>
        <time>2026-06-18T12:39:20.000Z</time>
      </trkpt>
      <trkpt lat="48.68908" lon="1.43058">
        <ele>161.39999389648</ele>
        <time>2026-06-18T12:39:23.000Z</time>
      </trkpt>
      <trkpt lat="48.68944" lon="1.43062">
        <ele>161.80000305176</ele>
        <time>2026-06-18T12:39:29.000Z</time>
      </trkpt>
      <trkpt lat="48.68954" lon="1.43064">
        <ele>161.80000305176</ele>
        <time>2026-06-18T12:39:31.000Z</time>
      </trkpt>
      <trkpt lat="48.68973" lon="1.43068">
        <ele>161.80000305176</ele>
        <time>2026-06-18T12:39:34.000Z</time>
      </trkpt>
      <trkpt lat="48.69011" lon="1.43082">
        <ele>161.80000305176</ele>
        <time>2026-06-18T12:39:39.000Z</time>
      </trkpt>
      <trkpt lat="48.69023" lon="1.43082">
        <ele>162</ele>
        <time>2026-06-18T12:39:41.000Z</time>
      </trkpt>
      <trkpt lat="48.69083" lon="1.43078">
        <ele>162</ele>
        <time>2026-06-18T12:39:49.000Z</time>
      </trkpt>
      <trkpt lat="48.69107" lon="1.43081">
        <ele>161.80000305176</ele>
        <time>2026-06-18T12:39:53.000Z</time>
      </trkpt>
      <trkpt lat="48.69139" lon="1.43092">
        <ele>161.80000305176</ele>
        <time>2026-06-18T12:39:57.000Z</time>
      </trkpt>
      <trkpt lat="48.69154" lon="1.43098">
        <ele>161.80000305176</ele>
        <time>2026-06-18T12:39:59.000Z</time>
      </trkpt>
      <trkpt lat="48.69211" lon="1.43128">
        <ele>162</ele>
        <time>2026-06-18T12:40:06.000Z</time>
      </trkpt>
      <trkpt lat="48.69262" lon="1.43158">
        <ele>161.80000305176</ele>
        <time>2026-06-18T12:40:13.000Z</time>
      </trkpt>
      <trkpt lat="48.69272" lon="1.43163">
        <ele>161.80000305176</ele>
        <time>2026-06-18T12:40:15.000Z</time>
      </trkpt>
      <trkpt lat="48.69318" lon="1.43176">
        <ele>161.60000610352</ele>
        <time>2026-06-18T12:40:22.000Z</time>
      </trkpt>
      <trkpt lat="48.69373" lon="1.43181">
        <ele>161.60000610352</ele>
        <time>2026-06-18T12:40:30.000Z</time>
      </trkpt>
      <trkpt lat="48.69423" lon="1.43184">
        <ele>161.39999389648</ele>
        <time>2026-06-18T12:40:37.000Z</time>
      </trkpt>
      <trkpt lat="48.69481" lon="1.43188">
        <ele>161</ele>
        <time>2026-06-18T12:40:45.000Z</time>
      </trkpt>
      <trkpt lat="48.69512" lon="1.43189">
        <ele>160.39999389648</ele>
        <time>2026-06-18T12:40:49.000Z</time>
      </trkpt>
      <trkpt lat="48.69517" lon="1.43189">
        <ele>160.39999389648</ele>
        <time>2026-06-18T12:40:50.000Z</time>
      </trkpt>
      <trkpt lat="48.69579" lon="1.43184">
        <ele>160</ele>
        <time>2026-06-18T12:40:58.000Z</time>
      </trkpt>
      <trkpt lat="48.69617" lon="1.43173">
        <ele>159.39999389648</ele>
        <time>2026-06-18T12:41:03.000Z</time>
      </trkpt>
      <trkpt lat="48.69624" lon="1.43169">
        <ele>159.39999389648</ele>
        <time>2026-06-18T12:41:04.000Z</time>
      </trkpt>
      <trkpt lat="48.69649" lon="1.43151">
        <ele>158.60000610352</ele>
        <time>2026-06-18T12:41:07.000Z</time>
      </trkpt>
      <trkpt lat="48.69675" lon="1.43137">
        <ele>158</ele>
        <time>2026-06-18T12:41:10.000Z</time>
      </trkpt>
      <trkpt lat="48.69699" lon="1.43126">
        <ele>156.80000305176</ele>
        <time>2026-06-18T12:41:12.000Z</time>
      </trkpt>
      <trkpt lat="48.69708" lon="1.43122">
        <ele>155.80000305176</ele>
        <time>2026-06-18T12:41:13.000Z</time>
      </trkpt>
      <trkpt lat="48.69708" lon="1.43122">
        <ele>155.19999694824</ele>
        <time>2026-06-18T12:41:14.000Z</time>
      </trkpt>
      <trkpt lat="48.69719" lon="1.43116">
        <ele>154.19999694824</ele>
        <time>2026-06-18T12:41:15.000Z</time>
      </trkpt>
      <trkpt lat="48.69734" lon="1.43109">
        <ele>152.19999694824</ele>
        <time>2026-06-18T12:41:17.000Z</time>
      </trkpt>
      <trkpt lat="48.69751" lon="1.431">
        <ele>151</ele>
        <time>2026-06-18T12:41:19.000Z</time>
      </trkpt>
      <trkpt lat="48.6976" lon="1.43096">
        <ele>150.39999389648</ele>
        <time>2026-06-18T12:41:20.000Z</time>
      </trkpt>
      <trkpt lat="48.69769" lon="1.43094">
        <ele>149.60000610352</ele>
        <time>2026-06-18T12:41:21.000Z</time>
      </trkpt>
      <trkpt lat="48.69788" lon="1.43094">
        <ele>148.19999694824</ele>
        <time>2026-06-18T12:41:23.000Z</time>
      </trkpt>
      <trkpt lat="48.698" lon="1.43095">
        <ele>146.80000305176</ele>
        <time>2026-06-18T12:41:24.000Z</time>
      </trkpt>
      <trkpt lat="48.69819" lon="1.431">
        <ele>144.80000305176</ele>
        <time>2026-06-18T12:41:26.000Z</time>
      </trkpt>
      <trkpt lat="48.69828" lon="1.43103">
        <ele>143.39999389648</ele>
        <time>2026-06-18T12:41:27.000Z</time>
      </trkpt>
      <trkpt lat="48.69836" lon="1.43108">
        <ele>142.80000305176</ele>
        <time>2026-06-18T12:41:28.000Z</time>
      </trkpt>
      <trkpt lat="48.69843" lon="1.43114">
        <ele>141.60000610352</ele>
        <time>2026-06-18T12:41:29.000Z</time>
      </trkpt>
      <trkpt lat="48.69849" lon="1.43122">
        <ele>141</ele>
        <time>2026-06-18T12:41:30.000Z</time>
      </trkpt>
      <trkpt lat="48.69855" lon="1.43132">
        <ele>140.19999694824</ele>
        <time>2026-06-18T12:41:31.000Z</time>
      </trkpt>
      <trkpt lat="48.69859" lon="1.43144">
        <ele>139.60000610352</ele>
        <time>2026-06-18T12:41:32.000Z</time>
      </trkpt>
      <trkpt lat="48.69861" lon="1.43157">
        <ele>138.19999694824</ele>
        <time>2026-06-18T12:41:33.000Z</time>
      </trkpt>
      <trkpt lat="48.69864" lon="1.43171">
        <ele>137</ele>
        <time>2026-06-18T12:41:34.000Z</time>
      </trkpt>
      <trkpt lat="48.69867" lon="1.43199">
        <ele>135.39999389648</ele>
        <time>2026-06-18T12:41:36.000Z</time>
      </trkpt>
      <trkpt lat="48.69868" lon="1.43227">
        <ele>134</ele>
        <time>2026-06-18T12:41:38.000Z</time>
      </trkpt>
      <trkpt lat="48.69868" lon="1.43241">
        <ele>133.39999389648</ele>
        <time>2026-06-18T12:41:39.000Z</time>
      </trkpt>
      <trkpt lat="48.69866" lon="1.43254">
        <ele>132.39999389648</ele>
        <time>2026-06-18T12:41:40.000Z</time>
      </trkpt>
      <trkpt lat="48.69861" lon="1.43279">
        <ele>131.39999389648</ele>
        <time>2026-06-18T12:41:42.000Z</time>
      </trkpt>
      <trkpt lat="48.69858" lon="1.4329">
        <ele>130.60000610352</ele>
        <time>2026-06-18T12:41:43.000Z</time>
      </trkpt>
      <trkpt lat="48.69854" lon="1.43301">
        <ele>130.39999389648</ele>
        <time>2026-06-18T12:41:44.000Z</time>
      </trkpt>
      <trkpt lat="48.69847" lon="1.43321">
        <ele>129.60000610352</ele>
        <time>2026-06-18T12:41:46.000Z</time>
      </trkpt>
      <trkpt lat="48.69845" lon="1.43331">
        <ele>128.80000305176</ele>
        <time>2026-06-18T12:41:47.000Z</time>
      </trkpt>
      <trkpt lat="48.69844" lon="1.43341">
        <ele>128.39999389648</ele>
        <time>2026-06-18T12:41:48.000Z</time>
      </trkpt>
      <trkpt lat="48.6985" lon="1.43359">
        <ele>127.40000152588</ele>
        <time>2026-06-18T12:41:50.000Z</time>
      </trkpt>
      <trkpt lat="48.69856" lon="1.43378">
        <ele>126.59999847412</ele>
        <time>2026-06-18T12:41:52.000Z</time>
      </trkpt>
      <trkpt lat="48.69857" lon="1.43389">
        <ele>126.40000152588</ele>
        <time>2026-06-18T12:41:53.000Z</time>
      </trkpt>
      <trkpt lat="48.69856" lon="1.434">
        <ele>126</ele>
        <time>2026-06-18T12:41:54.000Z</time>
      </trkpt>
      <trkpt lat="48.69857" lon="1.43423">
        <ele>125.40000152588</ele>
        <time>2026-06-18T12:41:56.000Z</time>
      </trkpt>
      <trkpt lat="48.69861" lon="1.43434">
        <ele>125.19999694824</ele>
        <time>2026-06-18T12:41:57.000Z</time>
      </trkpt>
      <trkpt lat="48.69876" lon="1.43471">
        <ele>124</ele>
        <time>2026-06-18T12:42:01.000Z</time>
      </trkpt>
      <trkpt lat="48.69882" lon="1.43486">
        <ele>123</ele>
        <time>2026-06-18T12:42:03.000Z</time>
      </trkpt>
      <trkpt lat="48.69884" lon="1.43491">
        <ele>122.59999847412</ele>
        <time>2026-06-18T12:42:04.000Z</time>
      </trkpt>
      <trkpt lat="48.69889" lon="1.43503">
        <ele>121.59999847412</ele>
        <time>2026-06-18T12:42:07.000Z</time>
      </trkpt>
      <trkpt lat="48.69891" lon="1.43506">
        <ele>121.19999694824</ele>
        <time>2026-06-18T12:42:08.000Z</time>
      </trkpt>
      <trkpt lat="48.69893" lon="1.43518">
        <ele>121</ele>
        <time>2026-06-18T12:42:11.000Z</time>
      </trkpt>
      <trkpt lat="48.69888" lon="1.43523">
        <ele>121</ele>
        <time>2026-06-18T12:42:12.000Z</time>
      </trkpt>
      <trkpt lat="48.6987" lon="1.43541">
        <ele>120.40000152588</ele>
        <time>2026-06-18T12:42:17.000Z</time>
      </trkpt>
      <trkpt lat="48.69851" lon="1.43565">
        <ele>120</ele>
        <time>2026-06-18T12:42:22.000Z</time>
      </trkpt>
      <trkpt lat="48.69848" lon="1.43571">
        <ele>120</ele>
        <time>2026-06-18T12:42:23.000Z</time>
      </trkpt>
      <trkpt lat="48.69847" lon="1.43577">
        <ele>120</ele>
        <time>2026-06-18T12:42:24.000Z</time>
      </trkpt>
      <trkpt lat="48.69849" lon="1.43584">
        <ele>119.80000305176</ele>
        <time>2026-06-18T12:42:25.000Z</time>
      </trkpt>
      <trkpt lat="48.69863" lon="1.43616">
        <ele>119.59999847412</ele>
        <time>2026-06-18T12:42:30.000Z</time>
      </trkpt>
      <trkpt lat="48.69868" lon="1.43629">
        <ele>119.40000152588</ele>
        <time>2026-06-18T12:42:32.000Z</time>
      </trkpt>
      <trkpt lat="48.6987" lon="1.43635">
        <ele>119.40000152588</ele>
        <time>2026-06-18T12:42:33.000Z</time>
      </trkpt>
      <trkpt lat="48.69875" lon="1.43648">
        <ele>119.40000152588</ele>
        <time>2026-06-18T12:42:35.000Z</time>
      </trkpt>
      <trkpt lat="48.69882" lon="1.43669">
        <ele>119.40000152588</ele>
        <time>2026-06-18T12:42:38.000Z</time>
      </trkpt>
      <trkpt lat="48.69899" lon="1.43711">
        <ele>119.40000152588</ele>
        <time>2026-06-18T12:42:44.000Z</time>
      </trkpt>
      <trkpt lat="48.69908" lon="1.43713">
        <ele>119.19999694824</ele>
        <time>2026-06-18T12:42:46.000Z</time>
      </trkpt>
      <trkpt lat="48.69924" lon="1.43699">
        <ele>119</ele>
        <time>2026-06-18T12:42:49.000Z</time>
      </trkpt>
      <trkpt lat="48.69948" lon="1.43677">
        <ele>118.59999847412</ele>
        <time>2026-06-18T12:42:55.000Z</time>
      </trkpt>
      <trkpt lat="48.6996" lon="1.43666">
        <ele>118.40000152588</ele>
        <time>2026-06-18T12:42:59.000Z</time>
      </trkpt>
      <trkpt lat="48.69962" lon="1.43666">
        <ele>118.40000152588</ele>
        <time>2026-06-18T12:43:00.000Z</time>
      </trkpt>
      <trkpt lat="48.69967" lon="1.43679">
        <ele>118.19999694824</ele>
        <time>2026-06-18T12:43:03.000Z</time>
      </trkpt>
      <trkpt lat="48.69982" lon="1.43727">
        <ele>118.19999694824</ele>
        <time>2026-06-18T12:43:10.000Z</time>
      </trkpt>
      <trkpt lat="48.70001" lon="1.43789">
        <ele>118.19999694824</ele>
        <time>2026-06-18T12:43:18.000Z</time>
      </trkpt>
      <trkpt lat="48.70005" lon="1.43804">
        <ele>118.19999694824</ele>
        <time>2026-06-18T12:43:20.000Z</time>
      </trkpt>
      <trkpt lat="48.70015" lon="1.43835">
        <ele>118</ele>
        <time>2026-06-18T12:43:24.000Z</time>
      </trkpt>
      <trkpt lat="48.70023" lon="1.43846">
        <ele>118</ele>
        <time>2026-06-18T12:43:26.000Z</time>
      </trkpt>
      <trkpt lat="48.70033" lon="1.43854">
        <ele>118</ele>
        <time>2026-06-18T12:43:28.000Z</time>
      </trkpt>
      <trkpt lat="48.70043" lon="1.43863">
        <ele>118</ele>
        <time>2026-06-18T12:43:30.000Z</time>
      </trkpt>
      <trkpt lat="48.70052" lon="1.43876">
        <ele>118.19999694824</ele>
        <time>2026-06-18T12:43:32.000Z</time>
      </trkpt>
      <trkpt lat="48.70055" lon="1.43884">
        <ele>118.19999694824</ele>
        <time>2026-06-18T12:43:33.000Z</time>
      </trkpt>
      <trkpt lat="48.70073" lon="1.4394">
        <ele>118.19999694824</ele>
        <time>2026-06-18T12:43:40.000Z</time>
      </trkpt>
      <trkpt lat="48.70094" lon="1.44005">
        <ele>118</ele>
        <time>2026-06-18T12:43:49.000Z</time>
      </trkpt>
      <trkpt lat="48.70097" lon="1.44021">
        <ele>117.80000305176</ele>
        <time>2026-06-18T12:43:51.000Z</time>
      </trkpt>
      <trkpt lat="48.70097" lon="1.44038">
        <ele>117.80000305176</ele>
        <time>2026-06-18T12:43:53.000Z</time>
      </trkpt>
      <trkpt lat="48.70096" lon="1.44047">
        <ele>117.80000305176</ele>
        <time>2026-06-18T12:43:54.000Z</time>
      </trkpt>
      <trkpt lat="48.70092" lon="1.44075">
        <ele>118</ele>
        <time>2026-06-18T12:43:57.000Z</time>
      </trkpt>
      <trkpt lat="48.70087" lon="1.4411">
        <ele>117.80000305176</ele>
        <time>2026-06-18T12:44:01.000Z</time>
      </trkpt>
      <trkpt lat="48.70088" lon="1.44136">
        <ele>118</ele>
        <time>2026-06-18T12:44:04.000Z</time>
      </trkpt>
      <trkpt lat="48.70089" lon="1.44144">
        <ele>118.19999694824</ele>
        <time>2026-06-18T12:44:05.000Z</time>
      </trkpt>
      <trkpt lat="48.70097" lon="1.44176">
        <ele>118.59999847412</ele>
        <time>2026-06-18T12:44:09.000Z</time>
      </trkpt>
      <trkpt lat="48.70114" lon="1.44243">
        <ele>119.40000152588</ele>
        <time>2026-06-18T12:44:18.000Z</time>
      </trkpt>
      <trkpt lat="48.70127" lon="1.44284">
        <ele>119.19999694824</ele>
        <time>2026-06-18T12:44:23.000Z</time>
      </trkpt>
      <trkpt lat="48.70131" lon="1.44291">
        <ele>119</ele>
        <time>2026-06-18T12:44:24.000Z</time>
      </trkpt>
      <trkpt lat="48.70136" lon="1.44297">
        <ele>119</ele>
        <time>2026-06-18T12:44:25.000Z</time>
      </trkpt>
      <trkpt lat="48.70147" lon="1.443">
        <ele>118.80000305176</ele>
        <time>2026-06-18T12:44:27.000Z</time>
      </trkpt>
      <trkpt lat="48.7017" lon="1.44292">
        <ele>118.40000152588</ele>
        <time>2026-06-18T12:44:31.000Z</time>
      </trkpt>
      <trkpt lat="48.70176" lon="1.44291">
        <ele>118.40000152588</ele>
        <time>2026-06-18T12:44:32.000Z</time>
      </trkpt>
      <trkpt lat="48.702" lon="1.44293">
        <ele>118.19999694824</ele>
        <time>2026-06-18T12:44:36.000Z</time>
      </trkpt>
      <trkpt lat="48.7023" lon="1.443">
        <ele>118.19999694824</ele>
        <time>2026-06-18T12:44:42.000Z</time>
      </trkpt>
      <trkpt lat="48.70239" lon="1.44308">
        <ele>118.59999847412</ele>
        <time>2026-06-18T12:44:44.000Z</time>
      </trkpt>
      <trkpt lat="48.70242" lon="1.44314">
        <ele>118.59999847412</ele>
        <time>2026-06-18T12:44:45.000Z</time>
      </trkpt>
      <trkpt lat="48.70249" lon="1.44329">
        <ele>118.59999847412</ele>
        <time>2026-06-18T12:44:48.000Z</time>
      </trkpt>
      <trkpt lat="48.70251" lon="1.44331">
        <ele>118.59999847412</ele>
        <time>2026-06-18T12:44:49.000Z</time>
      </trkpt>
      <trkpt lat="48.70253" lon="1.4433">
        <ele>118.59999847412</ele>
        <time>2026-06-18T12:44:50.000Z</time>
      </trkpt>
      <trkpt lat="48.70254" lon="1.44327">
        <ele>118.59999847412</ele>
        <time>2026-06-18T12:44:51.000Z</time>
      </trkpt>
      <trkpt lat="48.70267" lon="1.44308">
        <ele>118.59999847412</ele>
        <time>2026-06-18T12:44:55.000Z</time>
      </trkpt>
      <trkpt lat="48.70279" lon="1.44295">
        <ele>118.40000152588</ele>
        <time>2026-06-18T12:44:58.000Z</time>
      </trkpt>
      <trkpt lat="48.70293" lon="1.44282">
        <ele>118.19999694824</ele>
        <time>2026-06-18T12:45:01.000Z</time>
      </trkpt>
      <trkpt lat="48.70333" lon="1.44253">
        <ele>118</ele>
        <time>2026-06-18T12:45:09.000Z</time>
      </trkpt>
      <trkpt lat="48.70344" lon="1.44247">
        <ele>118</ele>
        <time>2026-06-18T12:45:11.000Z</time>
      </trkpt>
      <trkpt lat="48.7035" lon="1.44244">
        <ele>117.80000305176</ele>
        <time>2026-06-18T12:45:12.000Z</time>
      </trkpt>
      <trkpt lat="48.70355" lon="1.44241">
        <ele>117.80000305176</ele>
        <time>2026-06-18T12:45:13.000Z</time>
      </trkpt>
      <trkpt lat="48.70366" lon="1.44237">
        <ele>117.80000305176</ele>
        <time>2026-06-18T12:45:15.000Z</time>
      </trkpt>
      <trkpt lat="48.70405" lon="1.44216">
        <ele>117.59999847412</ele>
        <time>2026-06-18T12:45:22.000Z</time>
      </trkpt>
      <trkpt lat="48.7041" lon="1.44214">
        <ele>117.59999847412</ele>
        <time>2026-06-18T12:45:23.000Z</time>
      </trkpt>
      <trkpt lat="48.70436" lon="1.44204">
        <ele>117.40000152588</ele>
        <time>2026-06-18T12:45:28.000Z</time>
      </trkpt>
      <trkpt lat="48.70481" lon="1.44179">
        <ele>117.19999694824</ele>
        <time>2026-06-18T12:45:36.000Z</time>
      </trkpt>
      <trkpt lat="48.70498" lon="1.44168">
        <ele>117.40000152588</ele>
        <time>2026-06-18T12:45:39.000Z</time>
      </trkpt>
      <trkpt lat="48.70511" lon="1.44152">
        <ele>117.59999847412</ele>
        <time>2026-06-18T12:45:42.000Z</time>
      </trkpt>
      <trkpt lat="48.70531" lon="1.44111">
        <ele>117.80000305176</ele>
        <time>2026-06-18T12:45:48.000Z</time>
      </trkpt>
      <trkpt lat="48.70549" lon="1.44054">
        <ele>118</ele>
        <time>2026-06-18T12:45:55.000Z</time>
      </trkpt>
      <trkpt lat="48.70551" lon="1.44045">
        <ele>118</ele>
        <time>2026-06-18T12:45:56.000Z</time>
      </trkpt>
      <trkpt lat="48.70566" lon="1.43963">
        <ele>118.40000152588</ele>
        <time>2026-06-18T12:46:05.000Z</time>
      </trkpt>
      <trkpt lat="48.70583" lon="1.43879">
        <ele>118.40000152588</ele>
        <time>2026-06-18T12:46:14.000Z</time>
      </trkpt>
      <trkpt lat="48.70588" lon="1.4386">
        <ele>118.40000152588</ele>
        <time>2026-06-18T12:46:16.000Z</time>
      </trkpt>
      <trkpt lat="48.70592" lon="1.43843">
        <ele>118.40000152588</ele>
        <time>2026-06-18T12:46:18.000Z</time>
      </trkpt>
      <trkpt lat="48.70606" lon="1.438">
        <ele>118.19999694824</ele>
        <time>2026-06-18T12:46:23.000Z</time>
      </trkpt>
      <trkpt lat="48.7061" lon="1.43791">
        <ele>118.19999694824</ele>
        <time>2026-06-18T12:46:24.000Z</time>
      </trkpt>
      <trkpt lat="48.70626" lon="1.43748">
        <ele>118.19999694824</ele>
        <time>2026-06-18T12:46:29.000Z</time>
      </trkpt>
      <trkpt lat="48.70643" lon="1.43696">
        <ele>118.19999694824</ele>
        <time>2026-06-18T12:46:35.000Z</time>
      </trkpt>
      <trkpt lat="48.70658" lon="1.43631">
        <ele>118.40000152588</ele>
        <time>2026-06-18T12:46:42.000Z</time>
      </trkpt>
      <trkpt lat="48.70671" lon="1.43574">
        <ele>117.80000305176</ele>
        <time>2026-06-18T12:46:48.000Z</time>
      </trkpt>
      <trkpt lat="48.70695" lon="1.4351">
        <ele>117.19999694824</ele>
        <time>2026-06-18T12:46:55.000Z</time>
      </trkpt>
      <trkpt lat="48.70707" lon="1.43488">
        <ele>117.19999694824</ele>
        <time>2026-06-18T12:46:58.000Z</time>
      </trkpt>
      <trkpt lat="48.70725" lon="1.43461">
        <ele>117.19999694824</ele>
        <time>2026-06-18T12:47:02.000Z</time>
      </trkpt>
      <trkpt lat="48.70748" lon="1.43428">
        <ele>117.19999694824</ele>
        <time>2026-06-18T12:47:07.000Z</time>
      </trkpt>
      <trkpt lat="48.70767" lon="1.43404">
        <ele>117.19999694824</ele>
        <time>2026-06-18T12:47:11.000Z</time>
      </trkpt>
      <trkpt lat="48.70802" lon="1.4335">
        <ele>117.19999694824</ele>
        <time>2026-06-18T12:47:19.000Z</time>
      </trkpt>
      <trkpt lat="48.70819" lon="1.43309">
        <ele>117.59999847412</ele>
        <time>2026-06-18T12:47:24.000Z</time>
      </trkpt>
      <trkpt lat="48.70832" lon="1.43252">
        <ele>117.59999847412</ele>
        <time>2026-06-18T12:47:30.000Z</time>
      </trkpt>
      <trkpt lat="48.70845" lon="1.43176">
        <ele>117.40000152588</ele>
        <time>2026-06-18T12:47:38.000Z</time>
      </trkpt>
      <trkpt lat="48.70846" lon="1.43166">
        <ele>117.40000152588</ele>
        <time>2026-06-18T12:47:39.000Z</time>
      </trkpt>
      <trkpt lat="48.70859" lon="1.43079">
        <ele>117.40000152588</ele>
        <time>2026-06-18T12:47:48.000Z</time>
      </trkpt>
      <trkpt lat="48.70866" lon="1.4303">
        <ele>117.59999847412</ele>
        <time>2026-06-18T12:47:54.000Z</time>
      </trkpt>
      <trkpt lat="48.70872" lon="1.42987">
        <ele>117.40000152588</ele>
        <time>2026-06-18T12:48:01.000Z</time>
      </trkpt>
      <trkpt lat="48.70872" lon="1.42981">
        <ele>117.40000152588</ele>
        <time>2026-06-18T12:48:02.000Z</time>
      </trkpt>
      <trkpt lat="48.70872" lon="1.42962">
        <ele>117.40000152588</ele>
        <time>2026-06-18T12:48:06.000Z</time>
      </trkpt>
      <trkpt lat="48.70872" lon="1.42959">
        <ele>117.40000152588</ele>
        <time>2026-06-18T12:48:10.000Z</time>
      </trkpt>
      <trkpt lat="48.70872" lon="1.4296">
        <ele>117.80000305176</ele>
        <time>2026-06-18T12:48:18.000Z</time>
      </trkpt>
      <trkpt lat="48.70872" lon="1.4296">
        <ele>117.80000305176</ele>
        <time>2026-06-18T12:48:42.000Z</time>
      </trkpt>
      <trkpt lat="48.70872" lon="1.4296">
        <ele>118.59999847412</ele>
        <time>2026-06-18T12:50:46.000Z</time>
      </trkpt>
      <trkpt lat="48.70873" lon="1.42952">
        <ele>118.59999847412</ele>
        <time>2026-06-18T12:50:49.000Z</time>
      </trkpt>
      <trkpt lat="48.70875" lon="1.42929">
        <ele>118.59999847412</ele>
        <time>2026-06-18T12:50:54.000Z</time>
      </trkpt>
      <trkpt lat="48.7088" lon="1.42886">
        <ele>118.59999847412</ele>
        <time>2026-06-18T12:51:02.000Z</time>
      </trkpt>
      <trkpt lat="48.70884" lon="1.42845">
        <ele>118.59999847412</ele>
        <time>2026-06-18T12:51:09.000Z</time>
      </trkpt>
      <trkpt lat="48.70887" lon="1.42808">
        <ele>118.59999847412</ele>
        <time>2026-06-18T12:51:14.000Z</time>
      </trkpt>
      <trkpt lat="48.70892" lon="1.42761">
        <ele>118.59999847412</ele>
        <time>2026-06-18T12:51:20.000Z</time>
      </trkpt>
      <trkpt lat="48.70897" lon="1.42697">
        <ele>118.59999847412</ele>
        <time>2026-06-18T12:51:29.000Z</time>
      </trkpt>
      <trkpt lat="48.70903" lon="1.4264">
        <ele>118.80000305176</ele>
        <time>2026-06-18T12:51:37.000Z</time>
      </trkpt>
      <trkpt lat="48.70902" lon="1.4259">
        <ele>118.59999847412</ele>
        <time>2026-06-18T12:51:44.000Z</time>
      </trkpt>
      <trkpt lat="48.70899" lon="1.42569">
        <ele>118.40000152588</ele>
        <time>2026-06-18T12:51:47.000Z</time>
      </trkpt>
      <trkpt lat="48.70892" lon="1.42551">
        <ele>118.19999694824</ele>
        <time>2026-06-18T12:51:50.000Z</time>
      </trkpt>
      <trkpt lat="48.70887" lon="1.42541">
        <ele>118.19999694824</ele>
        <time>2026-06-18T12:51:52.000Z</time>
      </trkpt>
      <trkpt lat="48.70867" lon="1.42513">
        <ele>118.19999694824</ele>
        <time>2026-06-18T12:51:58.000Z</time>
      </trkpt>
      <trkpt lat="48.70864" lon="1.42509">
        <ele>118.19999694824</ele>
        <time>2026-06-18T12:51:59.000Z</time>
      </trkpt>
      <trkpt lat="48.70855" lon="1.42495">
        <ele>118.19999694824</ele>
        <time>2026-06-18T12:52:03.000Z</time>
      </trkpt>
      <trkpt lat="48.70852" lon="1.42491">
        <ele>118.19999694824</ele>
        <time>2026-06-18T12:52:05.000Z</time>
      </trkpt>
      <trkpt lat="48.7085" lon="1.42492">
        <ele>118.19999694824</ele>
        <time>2026-06-18T12:52:07.000Z</time>
      </trkpt>
      <trkpt lat="48.70849" lon="1.42494">
        <ele>118.40000152588</ele>
        <time>2026-06-18T12:52:12.000Z</time>
      </trkpt>
      <trkpt lat="48.70849" lon="1.42494">
        <ele>118.59999847412</ele>
        <time>2026-06-18T12:52:15.000Z</time>
      </trkpt>
    </trkseg>
  </trk>
</gpx>